
Distance (Route):
Temperature : 16.7°C
Humidity : 69.5%
Pressure : 0hPa| Receiver | Frames | First received | Last received |
|---|---|---|---|
| PETON7-10 | 380 | 2026-09-04 11:21:08 | 2026-09-04 13:17:34 |
| DO3MHA-11 | 248 | 2026-09-04 11:56:43 | 2026-09-04 13:00:52 |
| POL2MAQ | 212 | 2026-09-04 11:24:36 | 2026-09-04 13:16:23 |
| OE5MMP-10 | 212 | 2026-09-04 12:10:12 | 2026-09-04 12:57:50 |
| OE5DRO-10 | 197 | 2026-09-04 11:39:37 | 2026-09-04 13:08:32 |
| PG1ADW-2 | 195 | 2026-09-04 11:41:24 | 2026-09-04 13:07:41 |
| OE3OSB-13 | 166 | 2026-09-04 11:25:51 | 2026-09-04 13:17:41 |
| HA6NAB-11 | 128 | 2026-09-04 11:45:45 | 2026-09-04 13:09:29 |
| OE5DXL-15 | 116 | 2026-09-04 11:42:54 | 2026-09-04 13:06:05 |
| OE3JTB-15 | 102 | 2026-09-04 11:19:14 | 2026-09-04 13:18:38 |
| SP3WXH-11 | 60 | 2026-09-04 12:22:26 | 2026-09-04 13:01:15 |
| OE5WHR-10 | 56 | 2026-09-04 12:12:25 | 2026-09-04 12:57:25 |
| OM5KV | 37 | 2026-09-04 11:40:19 | 2026-09-04 11:44:20 |
| OK1SLM-15 | 31 | 2026-09-04 12:31:32 | 2026-09-04 12:52:41 |
| GYPAP8-17 | 25 | 2026-09-04 11:56:39 | 2026-09-04 13:04:44 |
| NBG1-10 | 15 | 2026-09-04 12:20:28 | 2026-09-04 12:54:09 |
| OK1ALN | 14 | 2026-09-04 12:27:17 | 2026-09-04 12:33:46 |
| OK1HGA | 8 | 2026-09-04 12:53:31 | 2026-09-04 13:08:03 |
| SQ9EZE-14 | 5 | 2026-09-04 12:09:44 | 2026-09-04 12:56:45 |
| SP3BTT-10 | 4 | 2026-09-04 12:25:57 | 2026-09-04 12:46:24 |
| SP9KGR-15 | 3 | 2026-09-04 12:28:58 | 2026-09-04 12:29:49 |
| S52SK | 2 | 2026-09-04 11:41:30 | 2026-09-04 11:41:41 |
| DB0DAN | 2 | 2026-09-04 12:37:55 | 2026-09-04 12:39:55 |
| Receiver | Date | Latitude | Longitude | Direction | Speed | Altitude | Climb | Temperature | Humidity | Pressure | Voltage | Killtimer | Uptime | BKT | XDATA |
|---|---|---|---|---|---|---|---|---|---|---|---|---|---|---|---|
| OE3JTB-15 | 2026-09-04 13:18:38 | 49.03608 | 18.30767 | 70° | 27km/h | 1233m | -14.2m/s | 16.7°C | 69.5% | 0hPa | 2.7V | 00:00:00 | 02:36:41 | 00:00:00 | |
| OE3JTB-15 | 2026-09-04 13:18:36 | 49.03603 | 18.30748 | 74° | 27km/h | 1262m | -14.7m/s | 16.4°C | 70.2% | 0hPa | 2.7V | 00:00:00 | 00:00:00 | 00:00:00 | |
| OE3JTB-15 | 2026-09-04 13:18:34 | 49.03599 | 18.30728 | 72° | 29km/h | 1291m | -15.0m/s | 16.2°C | 71.3% | 0hPa | 2.7V | 00:00:00 | 00:00:00 | 00:00:00 | |
| OE3JTB-15 | 2026-09-04 13:18:32 | 49.03594 | 18.30706 | 72° | 31km/h | 1321m | -14.1m/s | 16.0°C | 71.3% | 0hPa | 2.7V | 00:00:00 | 02:36:35 | 00:00:00 | |
| OE3JTB-15 | 2026-09-04 13:18:30 | 49.03589 | 18.30684 | 73° | 31km/h | 1350m | -14.0m/s | 15.7°C | 72.4% | 0hPa | 2.7V | 00:00:00 | 00:00:00 | 00:00:00 | |
| OE3JTB-15 | 2026-09-04 13:18:28 | 49.03585 | 18.30661 | 74° | 31km/h | 1379m | -14.5m/s | 15.4°C | 73.5% | 0hPa | 2.7V | 00:00:00 | 00:00:00 | 00:00:00 | |
| OE3JTB-15 | 2026-09-04 13:18:26 | 49.03580 | 18.30638 | 77° | 31km/h | 1407m | -14.4m/s | 15.1°C | 74.5% | 0hPa | 2.7V | 00:00:00 | 02:36:29 | 00:00:00 | |
| OE3JTB-15 | 2026-09-04 13:18:24 | 49.03576 | 18.30617 | 72° | 27km/h | 1436m | -14.1m/s | 14.9°C | 75.5% | 0hPa | 2.7V | 08:02:00 | 00:00:00 | 00:00:00 | |
| OE3JTB-15 | 2026-09-04 13:18:22 | 49.03571 | 18.30596 | 76° | 27km/h | 1465m | -14.7m/s | 14.6°C | 76.8% | 0hPa | 2.6V | 00:00:00 | 00:00:00 | 00:00:00 | |
| OE3JTB-15 | 2026-09-04 13:18:20 | 49.03569 | 18.30575 | 80° | 29km/h | 1494m | -14.3m/s | 14.3°C | 77.8% | 0hPa | 2.6V | 00:00:00 | 02:36:23 | 00:00:00 | |
| OE3JTB-15 | 2026-09-04 13:18:18 | 49.03566 | 18.30553 | 80° | 31km/h | 1523m | -14.0m/s | 14.0°C | 79.2% | 0hPa | 2.6V | 00:00:00 | 00:00:00 | 00:00:00 | |
| OE3JTB-15 | 2026-09-04 13:18:16 | 49.03563 | 18.30530 | 82° | 33km/h | 1552m | -15.0m/s | 13.8°C | 80.0% | 0hPa | 2.6V | 00:00:00 | 00:00:00 | 00:00:00 | |
| OE3JTB-15 | 2026-09-04 13:18:14 | 49.03561 | 18.30505 | 86° | 35km/h | 1582m | -14.8m/s | 13.5°C | 81.2% | 0hPa | 2.6V | 00:00:00 | 02:36:17 | 00:00:00 | |
| OE3JTB-15 | 2026-09-04 13:18:12 | 49.03560 | 18.30478 | 85° | 37km/h | 1611m | -14.0m/s | 13.4°C | 80.6% | 0hPa | 2.6V | 00:00:00 | 00:00:00 | 00:00:00 | |
| OE3JTB-15 | 2026-09-04 13:18:10 | 49.03558 | 18.30450 | 87° | 38km/h | 1639m | -14.3m/s | 13.1°C | 81.2% | 0hPa | 2.7V | 00:00:00 | 00:00:00 | 00:00:00 | |
| OE3JTB-15 | 2026-09-04 13:18:08 | 49.03556 | 18.30422 | 83° | 37km/h | 1668m | -14.2m/s | 12.9°C | 82.3% | 0hPa | 2.7V | 00:00:00 | 02:36:11 | 00:00:00 | |
| OE3JTB-15 | 2026-09-04 13:18:06 | 49.03554 | 18.30394 | 83° | 38km/h | 1696m | -14.5m/s | 12.6°C | 83.1% | 0hPa | 2.7V | 08:03:00 | 00:00:00 | 00:00:00 | |
| OE3JTB-15 | 2026-09-04 13:18:04 | 49.03552 | 18.30364 | 82° | 42km/h | 1725m | -14.0m/s | 12.4°C | 84.0% | 0hPa | 2.6V | 00:00:00 | 00:00:00 | 00:00:00 | |
| OE3JTB-15 | 2026-09-04 13:18:02 | 49.03550 | 18.30332 | 85° | 42km/h | 1753m | -13.4m/s | 12.1°C | 85.1% | 0hPa | 2.6V | 00:00:00 | 02:36:05 | 00:00:00 | |
| OE3JTB-15 | 2026-09-04 13:18:00 | 49.03549 | 18.30299 | 87° | 46km/h | 1781m | -14.3m/s | 12.2°C | 81.6% | 0hPa | 2.6V | 00:00:00 | 00:00:00 | 00:00:00 | |
| OE3JTB-15 | 2026-09-04 13:17:51 | 49.03544 | 18.30141 | 91° | 49km/h | 1909m | -13.8m/s | 11.1°C | 86.4% | 0hPa | 2.6V | 00:00:00 | 00:00:00 | 00:00:00 | |
| OE3JTB-15 | 2026-09-04 13:17:42 | 49.03553 | 18.29968 | 98° | 55km/h | 2034m | -14.1m/s | 10.7°C | 78.5% | 0hPa | 2.6V | 00:00:00 | 02:35:45 | 00:00:00 | |
| OE3OSB-13 | 2026-09-04 13:17:41 | 49.03555 | 18.29948 | 97° | 53km/h | 2048m | -13.8m/s | 10.7°C | 76.5% | -1.0hPa | 2.6V | 00:00:00 | 00:00:00 | 00:00:00 | |
| PETON7-10 | 2026-09-04 13:17:34 | 49.03570 | 18.29804 | 101° | 55km/h | 2147m | -14.0m/s | 10.0°C | 79.2% | 0hPa | 2.6V | 00:00:00 | 00:00:00 | 00:00:00 | |
| OE3JTB-15 | 2026-09-04 13:17:33 | 49.03572 | 18.29783 | 100° | 55km/h | 2161m | -14.9m/s | 9.9°C | 79.7% | 0hPa | 2.6V | 00:00:00 | 00:00:00 | 00:00:00 | |
| PETON7-10 | 2026-09-04 13:17:24 | 49.03594 | 18.29597 | 101° | 53km/h | 2292m | -13.9m/s | 8.8°C | 82.7% | 0hPa | 2.5V | 00:00:00 | 00:00:00 | 00:00:00 | |
| PETON7-10 | 2026-09-04 13:17:12 | 49.03633 | 18.29359 | 106° | 57km/h | 2455m | -13.7m/s | 8.4°C | 67.5% | 0hPa | 2.5V | 00:00:00 | 02:35:15 | 00:00:00 | |
| OE3JTB-15 | 2026-09-04 13:17:11 | 49.03637 | 18.29340 | 106° | 57km/h | 2469m | -13.9m/s | 8.4°C | 66.7% | 0hPa | 2.5V | 00:00:00 | 02:35:14 | 00:00:00 | |
| OE3OSB-13 | 2026-09-04 13:17:10 | 49.03641 | 18.29321 | 107° | 51km/h | 2483m | -13.9m/s | 8.4°C | 64.6% | -1.0hPa | 2.5V | 00:00:00 | 00:00:00 | 00:00:00 | |
| OE3JTB-15 | 2026-09-04 13:16:52 | 49.03740 | 18.28950 | 114° | 68km/h | 2733m | -14.0m/s | 9.1°C | 58.7% | 0hPa | 2.5V | 08:04:00 | 00:00:00 | 00:00:00 | |
| PETON7-10 | 2026-09-04 13:16:42 | 49.03804 | 18.28721 | 112° | 71km/h | 2876m | -15.1m/s | 8.6°C | 58.4% | 0hPa | 2.6V | 00:00:00 | 00:00:00 | 00:00:00 | |
| OE3OSB-13 | 2026-09-04 13:16:39 | 49.03826 | 18.28647 | 114° | 69km/h | 2920m | -15.0m/s | 8.4°C | 57.4% | -1.0hPa | 2.6V | 00:00:00 | 00:00:00 | 00:00:00 | |
| OE3JTB-15 | 2026-09-04 13:16:33 | 49.03871 | 18.28500 | 117° | 71km/h | 3008m | -14.9m/s | 7.8°C | 57.8% | 0hPa | 2.6V | 00:00:00 | 00:00:00 | 00:00:00 | |
| PETON7-10 | 2026-09-04 13:16:27 | 49.03922 | 18.28354 | 119° | 71km/h | 3098m | -15.7m/s | 7.1°C | 57.4% | 0hPa | 2.6V | 00:00:00 | 02:34:30 | 00:00:00 | |
| POL2MAQ | 2026-09-04 13:16:23 | 49.03949 | 18.28282 | 122° | 71km/h | 3142m | -15.8m/s | 7.0°C | 55.4% | 0hPa | 2.6V | 00:00:00 | 00:00:00 | 00:00:00 | |
| OE3JTB-15 | 2026-09-04 13:16:14 | 49.04042 | 18.28048 | 121° | 71km/h | 3291m | -15.6m/s | 6.2°C | 44.1% | 0hPa | 2.6V | 00:00:00 | 02:34:17 | 00:00:00 | |
| PETON7-10 | 2026-09-04 13:16:12 | 49.04060 | 18.28000 | 120° | 71km/h | 3321m | -15.6m/s | 6.1°C | 42.8% | 0hPa | 2.6V | 08:04:00 | 00:00:00 | 00:00:00 | |
| OE3OSB-13 | 2026-09-04 13:16:08 | 49.04095 | 18.27907 | 119° | 69km/h | 3381m | -15.5m/s | 5.9°C | 40.5% | -1.0hPa | 2.6V | 00:00:00 | 00:00:00 | 00:00:00 | |
| POL2MAQ | 2026-09-04 13:15:57 | 49.04199 | 18.27647 | 123° | 73km/h | 3542m | -14.8m/s | 4.8°C | 49.2% | 0hPa | 2.6V | 00:00:00 | 00:00:00 | 00:00:00 | |
| OE3JTB-15 | 2026-09-04 13:15:45 | 49.04322 | 18.27373 | 125° | 75km/h | 3719m | -14.8m/s | 3.5°C | 47.7% | 0hPa | 2.6V | 00:00:00 | 00:00:00 | 00:00:00 | |
| PETON7-10 | 2026-09-04 13:15:42 | 49.04354 | 18.27304 | 127° | 73km/h | 3764m | -15.1m/s | 3.2°C | 50.0% | 0hPa | 2.6V | 00:00:00 | 02:33:45 | 00:00:00 | |
| OE3OSB-13 | 2026-09-04 13:15:37 | 49.04409 | 18.27192 | 127° | 73km/h | 3837m | -14.6m/s | 2.8°C | 50.9% | -1.0hPa | 2.6V | 00:00:00 | 00:00:00 | 00:00:00 | |
| POL2MAQ | 2026-09-04 13:15:35 | 49.04421 | 18.27169 | 130° | 73km/h | 3851m | -15.0m/s | 2.7°C | 55.6% | 0hPa | 2.6V | 08:06:00 | 00:00:00 | 00:00:00 | |
| PETON7-10 | 2026-09-04 13:15:27 | 49.04531 | 18.26973 | 130° | 77km/h | 3987m | -15.0m/s | 1.5°C | 66.0% | 0hPa | 2.6V | 00:00:00 | 00:00:00 | 00:00:00 | |
| OE3JTB-15 | 2026-09-04 13:15:14 | 49.04695 | 18.26688 | 132° | 82km/h | 4177m | -15.2m/s | 0.1°C | 61.2% | 0hPa | 2.5V | 00:00:00 | 00:00:00 | 00:00:00 | |
| PETON7-10 | 2026-09-04 13:15:12 | 49.04721 | 18.26642 | 131° | 82km/h | 4207m | -14.8m/s | -0.0°C | 60.2% | 0hPa | 2.5V | 00:00:00 | 00:00:00 | 00:00:00 | |
| POL2MAQ | 2026-09-04 13:15:10 | 49.04734 | 18.26618 | 130° | 78km/h | 4221m | -14.4m/s | -0.2°C | 61.3% | 0hPa | 2.5V | 08:06:00 | 00:00:00 | 00:00:00 | |
| OE3OSB-13 | 2026-09-04 13:15:06 | 49.04795 | 18.26493 | 124° | 82km/h | 4294m | -15.6m/s | -0.6°C | 67.0% | -1.0hPa | 2.5V | 00:00:00 | 00:00:00 | 00:00:00 | |
| PETON7-10 | 2026-09-04 13:14:57 | 49.04903 | 18.26261 | 126° | 80km/h | 4431m | -14.7m/s | -1.7°C | 89.7% | 0hPa | 2.5V | 00:00:00 | 02:33:00 | 00:00:00 | |
| POL2MAQ | 2026-09-04 13:14:49 | 49.04986 | 18.26081 | 126° | 82km/h | 4531m | -14.5m/s | -2.5°C | 84.6% | 0hPa | 2.5V | 08:07:00 | 00:00:00 | 00:00:00 | |
| OE3JTB-15 | 2026-09-04 13:14:45 | 49.05045 | 18.25954 | 125° | 78km/h | 4602m | -14.6m/s | -3.1°C | 87.8% | 0hPa | 2.5V | 00:00:00 | 02:32:48 | 00:00:00 | |
| PETON7-10 | 2026-09-04 13:14:42 | 49.05080 | 18.25878 | 126° | 80km/h | 4645m | -14.7m/s | -3.4°C | 89.2% | 0hPa | 2.5V | 00:00:00 | 00:00:00 | 00:00:00 | |
| OE3OSB-13 | 2026-09-04 13:14:35 | 49.05161 | 18.25702 | 124° | 78km/h | 4744m | -14.9m/s | -4.3°C | 85.6% | -1.0hPa | 2.6V | 00:00:00 | 00:00:00 | 00:00:00 | |
| POL2MAQ | 2026-09-04 13:14:28 | 49.05229 | 18.25551 | 125° | 80km/h | 4829m | -14.9m/s | -5.0°C | 89.3% | 0hPa | 2.6V | 08:07:00 | 00:00:00 | 00:00:00 | |
| PETON7-10 | 2026-09-04 13:14:27 | 49.05251 | 18.25499 | 123° | 77km/h | 4858m | -15.1m/s | -5.2°C | 93.3% | 0hPa | 2.6V | 00:00:00 | 00:00:00 | 00:00:00 | |
| OE3JTB-15 | 2026-09-04 13:14:16 | 49.05369 | 18.25221 | 124° | 78km/h | 5009m | -13.3m/s | -6.3°C | 93.3% | 0hPa | 2.6V | 00:00:00 | 00:00:00 | 00:00:00 | |
| PETON7-10 | 2026-09-04 13:14:12 | 49.05412 | 18.25123 | 123° | 78km/h | 5064m | -14.7m/s | -6.9°C | 97.5% | 0hPa | 2.6V | 00:00:00 | 02:32:15 | 00:00:00 | |
| POL2MAQ | 2026-09-04 13:14:08 | 49.05444 | 18.25048 | 124° | 78km/h | 5103m | -13.7m/s | -7.3°C | 94.1% | 0hPa | 2.6V | 08:07:00 | 00:00:00 | 00:00:00 | |
| OE3OSB-13 | 2026-09-04 13:14:04 | 49.05496 | 18.24920 | 121° | 78km/h | 5169m | -13.7m/s | -7.7°C | 89.7% | -1.0hPa | 2.6V | 00:00:00 | 00:00:00 | 00:00:00 | |
| PETON7-10 | 2026-09-04 13:13:57 | 49.05569 | 18.24736 | 120° | 80km/h | 5262m | -13.9m/s | -8.2°C | 87.7% | 0hPa | 2.6V | 08:07:00 | 00:00:00 | 00:00:00 | |
| OE3JTB-15 | 2026-09-04 13:13:47 | 49.05675 | 18.24469 | 122° | 80km/h | 5392m | -12.8m/s | -9.2°C | 82.8% | 0hPa | 2.5V | 00:00:00 | 00:00:00 | 00:00:00 | |
| OE3OSB-13 | 2026-09-04 13:13:33 | 49.05834 | 18.24076 | 121° | 77km/h | 5584m | -13.6m/s | -11.0°C | 78.8% | -1.0hPa | 2.5V | 00:00:00 | 00:00:00 | 00:00:00 | |
| PETON7-10 | 2026-09-04 13:13:27 | 49.05886 | 18.23945 | 122° | 84km/h | 5648m | -13.1m/s | -11.5°C | 84.7% | 0hPa | 2.5V | 00:00:00 | 02:31:30 | 00:00:00 | |
| OE3JTB-15 | 2026-09-04 13:13:18 | 49.05987 | 18.23704 | 124° | 86km/h | 5767m | -13.8m/s | -12.4°C | 76.1% | 0hPa | 2.5V | 00:00:00 | 02:31:21 | 00:00:00 | |
| PETON7-10 | 2026-09-04 13:13:12 | 49.06060 | 18.23539 | 124° | 88km/h | 5847m | -14.8m/s | -13.0°C | 70.1% | 0hPa | 2.5V | 00:00:00 | 00:00:00 | 00:00:00 | |
| POL2MAQ | 2026-09-04 13:13:06 | 49.06123 | 18.23397 | 126° | 89km/h | 5917m | -15.5m/s | -13.4°C | 58.5% | 0hPa | 2.6V | 08:08:00 | 00:00:00 | 00:00:00 | |
| OE3OSB-13 | 2026-09-04 13:13:02 | 49.06198 | 18.23232 | 125° | 84km/h | 6002m | -14.2m/s | -13.9°C | 48.9% | -1.0hPa | 2.6V | 00:00:00 | 00:00:00 | 00:00:00 | |
| PETON7-10 | 2026-09-04 13:12:57 | 49.06247 | 18.23124 | 124° | 84km/h | 6058m | -14.3m/s | -14.2°C | 50.5% | 0hPa | 2.6V | 00:00:00 | 00:00:00 | 00:00:00 | |
| OE3JTB-15 | 2026-09-04 13:12:49 | 49.06342 | 18.22909 | 124° | 80km/h | 6170m | -14.9m/s | -14.3°C | 32.8% | 0hPa | 2.6V | 08:08:00 | 00:00:00 | 00:00:00 | |
| POL2MAQ | 2026-09-04 13:12:46 | 49.06364 | 18.22855 | 124° | 82km/h | 6200m | -14.9m/s | -14.2°C | 25.8% | 0hPa | 2.5V | 08:08:00 | 00:00:00 | 00:00:00 | |
| PETON7-10 | 2026-09-04 13:12:42 | 49.06422 | 18.22717 | 123° | 88km/h | 6269m | -14.0m/s | -14.0°C | 22.5% | 0hPa | 2.5V | 00:00:00 | 02:30:45 | 00:00:00 | |
| OE3OSB-13 | 2026-09-04 13:12:31 | 49.06588 | 18.22317 | 119° | 82km/h | 6462m | -13.5m/s | -14.9°C | 15.8% | -1.0hPa | 2.5V | 00:00:00 | 00:00:00 | 00:00:00 | |
| PETON7-10 | 2026-09-04 13:12:27 | 49.06598 | 18.22289 | 119° | 80km/h | 6475m | -13.8m/s | -14.9°C | 16.5% | 0hPa | 2.5V | 00:00:00 | 00:00:00 | 00:00:00 | |
| POL2MAQ | 2026-09-04 13:12:26 | 49.06598 | 18.22289 | 120° | 82km/h | 6475m | -13.8m/s | -15.0°C | 15.3% | 0hPa | 2.5V | 08:08:00 | 00:00:00 | 00:00:00 | |
| OE3JTB-15 | 2026-09-04 13:12:16 | 49.06699 | 18.21991 | 116° | 88km/h | 6632m | -13.9m/s | -15.5°C | 14.0% | 0hPa | 2.5V | 00:00:00 | 00:00:00 | 00:00:00 | |
| PETON7-10 | 2026-09-04 13:12:12 | 49.06735 | 18.21880 | 118° | 86km/h | 6686m | -13.5m/s | -15.8°C | 14.0% | 0hPa | 2.5V | 00:00:00 | 00:00:00 | 00:00:00 | |
| OE3OSB-13 | 2026-09-04 13:12:00 | 49.06874 | 18.21503 | 119° | 89km/h | 6856m | -13.6m/s | -16.5°C | 9.8% | -1.0hPa | 2.5V | 00:00:00 | 00:00:00 | 00:00:00 | |
| PETON7-10 | 2026-09-04 13:11:57 | 49.06897 | 18.21443 | 119° | 91km/h | 6882m | -12.8m/s | -16.6°C | 10.2% | 0hPa | 2.5V | 00:00:00 | 02:30:00 | 00:00:00 | |
| POL2MAQ | 2026-09-04 13:11:45 | 49.07022 | 18.21107 | 120° | 93km/h | 7015m | -12.6m/s | -17.4°C | 8.9% | 0hPa | 2.5V | 08:09:00 | 00:00:00 | 00:00:00 | |
| PETON7-10 | 2026-09-04 13:11:42 | 49.07067 | 18.20984 | 120° | 89km/h | 7062m | -12.0m/s | -17.6°C | 10.0% | 0hPa | 2.5V | 08:09:00 | 00:00:00 | 00:00:00 | |
| OE3OSB-13 | 2026-09-04 13:11:29 | 49.07218 | 18.20557 | 117° | 88km/h | 7225m | -12.0m/s | -18.6°C | 6.7% | -1.0hPa | 2.6V | 00:00:00 | 00:00:00 | 00:00:00 | |
| PETON7-10 | 2026-09-04 13:11:27 | 49.07228 | 18.20526 | 117° | 88km/h | 7237m | -12.2m/s | -18.7°C | 7.5% | 0hPa | 2.6V | 00:00:00 | 00:00:00 | 00:00:00 | |
| POL2MAQ | 2026-09-04 13:11:24 | 49.07249 | 18.20467 | 119° | 88km/h | 7262m | -12.6m/s | -18.8°C | 7.2% | 0hPa | 2.6V | 08:10:00 | 00:00:00 | 00:00:00 | |
| OE3JTB-15 | 2026-09-04 13:11:18 | 49.07321 | 18.20255 | 118° | 88km/h | 7346m | -12.7m/s | -19.5°C | 10.1% | 0hPa | 2.6V | 00:00:00 | 00:00:00 | 00:00:00 | |
| PETON7-10 | 2026-09-04 13:11:12 | 49.07381 | 18.20074 | 117° | 86km/h | 7420m | -12.8m/s | -19.9°C | 10.6% | 0hPa | 2.6V | 00:00:00 | 02:29:15 | 00:00:00 | |
| POL2MAQ | 2026-09-04 13:11:05 | 49.07448 | 18.19866 | 118° | 84km/h | 7507m | -13.1m/s | -20.5°C | 7.5% | 0hPa | 2.6V | 08:10:00 | 00:00:00 | 00:00:00 | |
| OE3OSB-13 | 2026-09-04 13:10:58 | 49.07534 | 18.19634 | 120° | 88km/h | 7610m | -14.2m/s | -21.3°C | 8.0% | -1.0hPa | 2.6V | 00:00:00 | 00:00:00 | 00:00:00 | |
| PETON7-10 | 2026-09-04 13:10:57 | 49.07534 | 18.19634 | 121° | 89km/h | 7610m | -14.1m/s | -21.2°C | 9.1% | 0hPa | 2.6V | 00:00:00 | 00:00:00 | 00:00:00 | |
| OE3JTB-15 | 2026-09-04 13:10:49 | 49.07630 | 18.19398 | 123° | 93km/h | 7718m | -15.2m/s | -22.1°C | 11.0% | 0hPa | 2.6V | 00:00:00 | 00:00:00 | 00:00:00 | |
| POL2MAQ | 2026-09-04 13:10:43 | 49.07690 | 18.19250 | 123° | 91km/h | 7786m | -13.8m/s | -22.7°C | 10.8% | 0hPa | 2.6V | 08:10:00 | 00:00:00 | 00:00:00 | |
| PETON7-10 | 2026-09-04 13:10:42 | 49.07714 | 18.19190 | 122° | 93km/h | 7814m | -14.2m/s | -23.0°C | 12.5% | 0hPa | 2.6V | 00:00:00 | 00:00:00 | 00:00:00 | |
| PETON7-10 | 2026-09-04 13:10:27 | 49.07897 | 18.18722 | 119° | 95km/h | 8027m | -15.6m/s | -24.6°C | 17.6% | 0hPa | 2.6V | 00:00:00 | 02:28:30 | 00:00:00 | |
| OE3OSB-13 | 2026-09-04 13:10:26 | 49.07909 | 18.18690 | 120° | 93km/h | 8042m | -14.9m/s | -24.8°C | 15.9% | -1.0hPa | 2.6V | 00:00:00 | 00:00:00 | 00:00:00 | |
| POL2MAQ | 2026-09-04 13:10:22 | 49.07944 | 18.18594 | 121° | 95km/h | 8086m | -14.1m/s | -25.1°C | 16.9% | 0hPa | 2.6V | 08:11:00 | 00:00:00 | 00:00:00 | |
| OE3JTB-15 | 2026-09-04 13:10:20 | 49.07981 | 18.18499 | 121° | 97km/h | 8127m | -13.8m/s | -25.3°C | 20.9% | 0hPa | 2.6V | 00:00:00 | 02:28:23 | 00:00:00 | |
| PETON7-10 | 2026-09-04 13:10:12 | 49.08075 | 18.18247 | 119° | 99km/h | 8235m | -15.3m/s | -26.2°C | 23.5% | 0hPa | 2.6V | 00:00:00 | 00:00:00 | 00:00:00 | |
| POL2MAQ | 2026-09-04 13:10:02 | 49.08181 | 18.17953 | 120° | 99km/h | 8365m | -14.7m/s | -27.3°C | 57.8% | 0hPa | 2.5V | 08:11:00 | 00:00:00 | 00:00:00 | |
| OE3OSB-13 | 2026-09-04 13:09:55 | 49.08279 | 18.17681 | 119° | 100km/h | 8476m | -14.0m/s | -28.1°C | 25.3% | -1.0hPa | 2.5V | 00:00:00 | 00:00:00 | 00:00:00 | |
| OE3JTB-15 | 2026-09-04 13:09:51 | 49.08331 | 18.17545 | 120° | 99km/h | 8532m | -15.1m/s | -28.7°C | 31.2% | 0hPa | 2.5V | 00:00:00 | 00:00:00 | 00:00:00 | |
| PETON7-10 | 2026-09-04 13:09:42 | 49.08447 | 18.17236 | 121° | 97km/h | 8660m | -14.5m/s | -29.7°C | 58.9% | 0hPa | 2.5V | 00:00:00 | 02:27:45 | 00:00:00 | |
| HA6NAB-11 | 2026-09-04 13:09:29 | 49.08608 | 18.16856 | 127° | 95km/h | 8833m | -15.3m/s | -30.4°C | 81.6% | 0hPa | 2.5V | 00:00:00 | 00:00:00 | 00:00:00 | |
| PETON7-10 | 2026-09-04 13:09:27 | 49.08650 | 18.16766 | 127° | 97km/h | 8876m | -14.8m/s | -30.5°C | 90.3% | 0hPa | 2.5V | 08:11:00 | 00:00:00 | 00:00:00 | |
| OE3OSB-13 | 2026-09-04 13:09:24 | 49.08693 | 18.16678 | 127° | 95km/h | 8920m | -14.6m/s | -30.9°C | 80.9% | -1.0hPa | 2.5V | 00:00:00 | 00:00:00 | 00:00:00 | |
| OE3JTB-15 | 2026-09-04 13:09:22 | 49.08722 | 18.16621 | 128° | 97km/h | 8949m | -15.5m/s | -31.1°C | 86.7% | 0hPa | 2.5V | 00:00:00 | 00:00:00 | 00:00:00 | |
| POL2MAQ | 2026-09-04 13:09:21 | 49.08722 | 18.16621 | 129° | 97km/h | 8949m | -15.5m/s | -31.1°C | 79.4% | 0hPa | 2.5V | 08:12:00 | 00:00:00 | 00:00:00 | |
| PETON7-10 | 2026-09-04 13:09:12 | 49.08886 | 18.16341 | 135° | 97km/h | 9089m | -14.8m/s | -31.9°C | 76.3% | 0hPa | 2.5V | 00:00:00 | 00:00:00 | 00:00:00 | |
| POL2MAQ | 2026-09-04 13:09:01 | 49.09056 | 18.16069 | 133° | 97km/h | 9231m | -13.8m/s | -33.0°C | 67.5% | 0hPa | 2.5V | 08:12:00 | 00:00:00 | 00:00:00 | |
| PETON7-10 | 2026-09-04 13:08:57 | 49.09138 | 18.15937 | 133° | 91km/h | 9297m | -14.3m/s | -33.5°C | 75.8% | 0hPa | 2.5V | 00:00:00 | 02:27:00 | 00:00:00 | |
| OE3JTB-15 | 2026-09-04 13:08:53 | 49.09202 | 18.15832 | 133° | 88km/h | 9353m | -14.4m/s | -34.0°C | 79.0% | 0hPa | 2.5V | 00:00:00 | 02:26:56 | 00:00:00 | |
| PETON7-10 | 2026-09-04 13:08:42 | 49.09377 | 18.15559 | 134° | 88km/h | 9503m | -13.4m/s | -35.3°C | 93.4% | 0hPa | 2.5V | 00:00:00 | 00:00:00 | 00:00:00 | |
| POL2MAQ | 2026-09-04 13:08:41 | 49.09377 | 18.15559 | 134° | 89km/h | 9503m | -13.4m/s | -35.3°C | 84.8% | 0hPa | 2.6V | 08:13:00 | 00:00:00 | 00:00:00 | |
| OE5DRO-10 | 2026-09-04 13:08:32 | 49.09531 | 18.15320 | 135° | 86km/h | 9641m | -14.2m/s | -36.4°C | 89.5% | 0hPa | 2.6V | 00:00:00 | 00:00:00 | 00:00:00 | |
| HA6NAB-11 | 2026-09-04 13:08:28 | 49.09577 | 18.15247 | 134° | 88km/h | 9681m | -13.1m/s | -36.8°C | 80.1% | 0hPa | 2.6V | 08:13:00 | 00:00:00 | 00:00:00 | |
| PETON7-10 | 2026-09-04 13:08:27 | 49.09606 | 18.15197 | 133° | 84km/h | 9707m | -12.7m/s | -37.0°C | 87.7% | 0hPa | 2.6V | 00:00:00 | 00:00:00 | 00:00:00 | |
| OE3JTB-15 | 2026-09-04 13:08:24 | 49.09651 | 18.15123 | 133° | 86km/h | 9746m | -14.1m/s | -37.3°C | 88.3% | 0hPa | 2.6V | 08:12:00 | 00:00:00 | 00:00:00 | |
| OE3OSB-13 | 2026-09-04 13:08:23 | 49.09679 | 18.15075 | 132° | 82km/h | 9773m | -14.1m/s | -37.6°C | 79.5% | -1.0hPa | 2.6V | 00:00:00 | 00:00:00 | 00:00:00 | |
| HA6NAB-11 | 2026-09-04 13:08:20 | 49.09694 | 18.15051 | 134° | 86km/h | 9787m | -14.2m/s | -37.7°C | 78.5% | 0hPa | 2.6V | 08:13:00 | 00:00:00 | 00:00:00 | |
| POL2MAQ | 2026-09-04 13:08:19 | 49.09708 | 18.15027 | 132° | 86km/h | 9801m | -14.1m/s | -37.8°C | 78.4% | 0hPa | 2.6V | 08:13:00 | 00:00:00 | 00:00:00 | |
| HA6NAB-11 | 2026-09-04 13:08:15 | 49.09779 | 18.14905 | 133° | 82km/h | 9873m | -14.4m/s | -38.4°C | 78.3% | 0hPa | 2.6V | 08:13:00 | 00:00:00 | 00:00:00 | |
| OE5DRO-10 | 2026-09-04 13:08:13 | 49.09807 | 18.14857 | 133° | 89km/h | 9902m | -15.5m/s | -38.6°C | 87.4% | 0hPa | 2.6V | 00:00:00 | 00:00:00 | 00:00:00 | |
| PETON7-10 | 2026-09-04 13:08:12 | 49.09822 | 18.14833 | 133° | 86km/h | 9917m | -14.7m/s | -38.7°C | 87.8% | 0hPa | 2.6V | 00:00:00 | 02:26:15 | 00:00:00 | |
| HA6NAB-11 | 2026-09-04 13:08:07 | 49.09880 | 18.14734 | 133° | 88km/h | 9974m | -15.0m/s | -39.2°C | 76.8% | 0hPa | 2.6V | 00:00:00 | 00:00:00 | 00:00:00 | |
| OK1HGA | 2026-09-04 13:08:03 | 49.09940 | 18.14635 | 134° | 89km/h | 10031m | -13.9m/s | -39.7°C | 77.8% | 0hPa | 2.6V | 08:13:00 | 00:00:00 | 00:00:00 | |
| OE3OSB-13 | 2026-09-04 13:07:51 | 49.10140 | 18.14332 | 135° | 86km/h | 10208m | -15.8m/s | -41.2°C | 73.7% | -1.0hPa | 2.6V | 00:00:00 | 00:00:00 | 00:00:00 | |
| OK1HGA | 2026-09-04 13:07:43 | 49.10246 | 18.14165 | 133° | 89km/h | 10315m | -14.0m/s | -42.1°C | 71.6% | 0hPa | 2.6V | 08:13:00 | 00:00:00 | 00:00:00 | |
| PETON7-10 | 2026-09-04 13:07:42 | 49.10276 | 18.14117 | 134° | 91km/h | 10343m | -15.4m/s | 0°C | 0% | 0hPa | 2.6V | 00:00:00 | 00:00:00 | 00:00:00 | |
| PG1ADW-2 | 2026-09-04 13:07:41 | 49.10292 | 18.14092 | 135° | 93km/h | 10359m | -15.4m/s | -42.4°C | 80.8% | 0hPa | 2.6V | 00:00:00 | 00:00:00 | 00:00:00 | |
| POL2MAQ | 2026-09-04 13:07:38 | 49.10323 | 18.14043 | 135° | 89km/h | 10389m | -16.3m/s | -42.7°C | 71.2% | 0hPa | 2.6V | 08:13:00 | 00:00:00 | 00:00:00 | |
| OE5DRO-10 | 2026-09-04 13:07:28 | 49.10504 | 18.13767 | 136° | 95km/h | 10547m | -15.5m/s | -43.9°C | 79.7% | 0hPa | 2.6V | 00:00:00 | 00:00:00 | 00:00:00 | |
| PETON7-10 | 2026-09-04 13:07:27 | 49.10521 | 18.13742 | 136° | 95km/h | 10562m | -15.0m/s | -44.1°C | 80.5% | 0hPa | 2.6V | 00:00:00 | 02:25:30 | 00:00:00 | |
| OE3JTB-15 | 2026-09-04 13:07:26 | 49.10538 | 18.13717 | 135° | 97km/h | 10577m | -14.8m/s | -44.2°C | 81.0% | 0hPa | 2.6V | 00:00:00 | 02:25:29 | 00:00:00 | |
| OK1HGA | 2026-09-04 13:07:22 | 49.10587 | 18.13638 | 134° | 95km/h | 10620m | -14.0m/s | -44.6°C | 72.9% | 0hPa | 2.6V | 08:13:00 | 00:00:00 | 00:00:00 | |
| PG1ADW-2 | 2026-09-04 13:07:21 | 49.10620 | 18.13585 | 134° | 97km/h | 10648m | -14.8m/s | -44.8°C | 82.8% | 0hPa | 2.6V | 00:00:00 | 02:25:24 | 00:00:00 | |
| POL2MAQ | 2026-09-04 13:07:18 | 49.10654 | 18.13531 | 135° | 95km/h | 10677m | -13.8m/s | -45.1°C | 74.1% | 0hPa | 2.5V | 08:13:00 | 00:00:00 | 00:00:00 | |
| PETON7-10 | 2026-09-04 13:07:12 | 49.10772 | 18.13344 | 133° | 99km/h | 10774m | -14.3m/s | -45.9°C | 84.9% | 0hPa | 2.5V | 08:13:00 | 00:00:00 | 00:00:00 | |
| OE5DRO-10 | 2026-09-04 13:07:09 | 49.10823 | 18.13261 | 133° | 99km/h | 10816m | -14.1m/s | -46.3°C | 84.7% | 0hPa | 2.5V | 00:00:00 | 00:00:00 | 00:00:00 | |
| OK1HGA | 2026-09-04 13:07:02 | 49.10922 | 18.13092 | 132° | 99km/h | 10899m | -14.1m/s | -47.1°C | 72.8% | 0hPa | 2.5V | 08:14:00 | 00:00:00 | 00:00:00 | |
| OE3OSB-13 | 2026-09-04 13:06:49 | 49.11149 | 18.12685 | 128° | 99km/h | 11093m | -14.0m/s | -48.6°C | 68.6% | -1.0hPa | 2.5V | 00:00:00 | 00:00:00 | 00:00:00 | |
| OK1HGA | 2026-09-04 13:06:43 | 49.11245 | 18.12504 | 130° | 100km/h | 11176m | -13.9m/s | -49.2°C | 0% | 0hPa | 2.5V | 08:14:00 | 00:00:00 | 00:00:00 | |
| PETON7-10 | 2026-09-04 13:06:42 | 49.11261 | 18.12474 | 130° | 100km/h | 11190m | -13.7m/s | -49.3°C | 75.3% | 0hPa | 2.5V | 00:00:00 | 02:24:45 | 00:00:00 | |
| PG1ADW-2 | 2026-09-04 13:06:41 | 49.11277 | 18.12444 | 129° | 100km/h | 11204m | -13.8m/s | -49.4°C | 75.2% | 0hPa | 2.5V | 00:00:00 | 00:00:00 | 00:00:00 | |
| POL2MAQ | 2026-09-04 13:06:37 | 49.11325 | 18.12354 | 130° | 100km/h | 11245m | -13.7m/s | -49.8°C | 64.5% | 0hPa | 2.5V | 08:14:00 | 00:00:00 | 00:00:00 | |
| OE5DRO-10 | 2026-09-04 13:06:31 | 49.11437 | 18.12146 | 130° | 102km/h | 11339m | -13.9m/s | -50.6°C | 72.9% | 0hPa | 2.5V | 00:00:00 | 00:00:00 | 00:00:00 | |
| PETON7-10 | 2026-09-04 13:06:27 | 49.11502 | 18.12025 | 131° | 104km/h | 11393m | -13.7m/s | -51.1°C | 70.4% | 0hPa | 2.5V | 00:00:00 | 00:00:00 | 00:00:00 | |
| PG1ADW-2 | 2026-09-04 13:06:21 | 49.11603 | 18.11845 | 131° | 104km/h | 11475m | -13.6m/s | -51.8°C | 66.7% | 0hPa | 2.5V | 08:14:00 | 00:00:00 | 00:00:00 | |
| OE3OSB-13 | 2026-09-04 13:06:18 | 49.11654 | 18.11752 | 130° | 104km/h | 11516m | -13.2m/s | -52.1°C | 56.4% | -1.0hPa | 2.5V | 00:00:00 | 00:00:00 | 00:00:00 | |
| POL2MAQ | 2026-09-04 13:06:17 | 49.11654 | 18.11753 | 132° | 104km/h | 11516m | -13.2m/s | -52.1°C | 56.7% | 0hPa | 2.5V | 08:15:00 | 00:00:00 | 00:00:00 | |
| PETON7-10 | 2026-09-04 13:06:12 | 49.11756 | 18.11567 | 131° | 106km/h | 11596m | -13.1m/s | -52.9°C | 69.2% | 0hPa | 2.5V | 00:00:00 | 00:00:00 | 00:00:00 | |
| HA6NAB-11 | 2026-09-04 13:06:06 | 49.11842 | 18.11414 | 131° | 104km/h | 11663m | -13.6m/s | -53.5°C | 60.2% | 0hPa | 2.5V | 08:15:00 | 00:00:00 | 00:00:00 | |
| OE5DXL-15 | 2026-09-04 13:06:05 | 49.11876 | 18.11353 | 131° | 111km/h | 11691m | -14.1m/s | -53.8°C | 71.0% | 0hPa | 2.5V | 00:00:00 | 00:00:00 | 00:00:00 | |
| OE3OSB-13 | 2026-09-04 13:05:47 | 49.12197 | 18.10777 | 130° | 110km/h | 11935m | -13.6m/s | -55.9°C | 55.1% | -1.0hPa | 2.6V | 00:00:00 | 00:00:00 | 00:00:00 | |
| PETON7-10 | 2026-09-04 13:05:42 | 49.12288 | 18.10612 | 130° | 117km/h | 12003m | -13.9m/s | -56.5°C | 63.7% | 0hPa | 2.6V | 00:00:00 | 00:00:00 | 00:00:00 | |
| PG1ADW-2 | 2026-09-04 13:05:41 | 49.12306 | 18.10578 | 130° | 119km/h | 12017m | -14.1m/s | -56.6°C | 63.0% | 0hPa | 2.5V | 00:00:00 | 00:00:00 | 00:00:00 | |
| HA6NAB-11 | 2026-09-04 13:05:36 | 49.12400 | 18.10408 | 131° | 117km/h | 12085m | -13.7m/s | -57.2°C | 50.2% | 0hPa | 2.5V | 08:15:00 | 00:00:00 | 00:00:00 | |
| OE5DXL-15 | 2026-09-04 13:05:35 | 49.12419 | 18.10373 | 131° | 119km/h | 12099m | -13.6m/s | -57.3°C | 60.8% | 0hPa | 2.5V | 00:00:00 | 00:00:00 | 00:00:00 | |
| OE5DRO-10 | 2026-09-04 13:05:34 | 49.12438 | 18.10339 | 131° | 120km/h | 12113m | -14.0m/s | -57.4°C | 60.8% | 0hPa | 2.5V | 00:00:00 | 00:00:00 | 00:00:00 | |
| HA6NAB-11 | 2026-09-04 13:05:30 | 49.12495 | 18.10235 | 131° | 119km/h | 12155m | -14.3m/s | -57.8°C | 49.0% | 0hPa | 2.5V | 00:00:00 | 00:00:00 | 00:00:00 | |
| PETON7-10 | 2026-09-04 13:05:27 | 49.12575 | 18.10096 | 132° | 120km/h | 12212m | -13.7m/s | -58.2°C | 57.2% | 0hPa | 2.5V | 00:00:00 | 00:00:00 | 00:00:00 | |
| HA6NAB-11 | 2026-09-04 13:05:25 | 49.12615 | 18.10027 | 132° | 120km/h | 12240m | -14.1m/s | -58.5°C | 45.2% | 0hPa | 2.5V | 00:00:00 | 00:00:00 | 00:00:00 | |
| PG1ADW-2 | 2026-09-04 13:05:21 | 49.12697 | 18.09887 | 132° | 122km/h | 12296m | -14.2m/s | -58.8°C | 52.7% | 0hPa | 2.5V | 00:00:00 | 00:00:00 | 00:00:00 | |
| HA6NAB-11 | 2026-09-04 13:05:18 | 49.12738 | 18.09817 | 132° | 120km/h | 12324m | -13.9m/s | -59.2°C | 41.6% | 0hPa | 2.6V | 00:00:00 | 00:00:00 | 00:00:00 | |
| OE3OSB-13 | 2026-09-04 13:05:16 | 49.12798 | 18.09711 | 130° | 120km/h | 12367m | -14.1m/s | -59.5°C | 40.4% | -1.0hPa | 2.6V | 00:00:00 | 00:00:00 | 00:00:00 | |
| OE5DRO-10 | 2026-09-04 13:05:15 | 49.12818 | 18.09676 | 131° | 122km/h | 12381m | -13.9m/s | -59.6°C | 50.9% | 0hPa | 2.6V | 00:00:00 | 00:00:00 | 00:00:00 | |
| PETON7-10 | 2026-09-04 13:05:12 | 49.12877 | 18.09570 | 130° | 122km/h | 12424m | -14.3m/s | -59.9°C | 50.0% | 0hPa | 2.6V | 00:00:00 | 02:23:15 | 00:00:00 | |
| OK1HGA | 2026-09-04 13:05:10 | 49.12896 | 18.09534 | 130° | 122km/h | 12438m | -14.3m/s | 0°C | 0% | 0hPa | 2.6V | 00:00:00 | 00:00:00 | 00:00:00 | |
| HA6NAB-11 | 2026-09-04 13:05:06 | 49.12976 | 18.09390 | 132° | 122km/h | 12496m | -14.3m/s | -60.4°C | 40.0% | 0hPa | 2.6V | 00:00:00 | 00:00:00 | 00:00:00 | |
| OE5DXL-15 | 2026-09-04 13:05:05 | 49.13016 | 18.09318 | 131° | 120km/h | 12525m | -14.7m/s | -60.5°C | 50.4% | 0hPa | 2.6V | 00:00:00 | 00:00:00 | 00:00:00 | |
| PG1ADW-2 | 2026-09-04 13:05:01 | 49.13099 | 18.09175 | 132° | 122km/h | 12582m | -14.0m/s | -60.9°C | 49.3% | 0hPa | 2.6V | 00:00:00 | 00:00:00 | 00:00:00 | |
| PETON7-10 | 2026-09-04 13:04:57 | 49.13182 | 18.09034 | 133° | 122km/h | 12639m | -14.4m/s | -61.3°C | 49.1% | 0hPa | 2.6V | 08:16:00 | 00:00:00 | 00:00:00 | |
| OE5DRO-10 | 2026-09-04 13:04:56 | 49.13203 | 18.09000 | 133° | 120km/h | 12653m | -14.6m/s | -61.4°C | 49.1% | 0hPa | 2.5V | 00:00:00 | 00:00:00 | 00:00:00 | |
| OK1HGA | 2026-09-04 13:04:46 | 49.13410 | 18.08653 | 133° | 120km/h | 12800m | -15.1m/s | 0°C | 0% | 0hPa | 2.6V | 00:00:00 | 00:00:00 | 00:00:00 | |
| GYPAP8-17 | 2026-09-04 13:04:44 | 49.13430 | 18.08619 | 132° | 122km/h | 12816m | -14.7m/s | -62.8°C | 38.1% | 0hPa | 2.6V | 08:16:00 | 00:00:00 | 00:00:00 | |
| PETON7-10 | 2026-09-04 13:04:42 | 49.13492 | 18.08515 | 133° | 117km/h | 12860m | -14.9m/s | -63.1°C | 48.6% | 0hPa | 2.6V | 00:00:00 | 00:00:00 | 00:00:00 | |
| PG1ADW-2 | 2026-09-04 13:04:41 | 49.13512 | 18.08482 | 134° | 117km/h | 12875m | -14.9m/s | -63.3°C | 48.5% | 0hPa | 2.6V | 00:00:00 | 02:22:44 | 00:00:00 | |
| OE5DRO-10 | 2026-09-04 13:04:37 | 49.13595 | 18.08350 | 134° | 117km/h | 12935m | -14.7m/s | -63.8°C | 48.7% | 0hPa | 2.6V | 00:00:00 | 00:00:00 | 00:00:00 | |
| OE5DXL-15 | 2026-09-04 13:04:35 | 49.13636 | 18.08285 | 135° | 113km/h | 12965m | -15.3m/s | -63.9°C | 48.5% | 0hPa | 2.6V | 08:16:00 | 00:00:00 | 00:00:00 | |
| PETON7-10 | 2026-09-04 13:04:27 | 49.13810 | 18.08041 | 140° | 113km/h | 13088m | -15.3m/s | -64.5°C | 46.6% | 0hPa | 2.5V | 00:00:00 | 02:22:30 | 00:00:00 | |
| PG1ADW-2 | 2026-09-04 13:04:21 | 49.13946 | 18.07873 | 143° | 108km/h | 13182m | -15.4m/s | -64.7°C | 43.4% | 0hPa | 2.5V | 00:00:00 | 00:00:00 | 00:00:00 | |
| OE5DRO-10 | 2026-09-04 13:04:18 | 49.14015 | 18.07795 | 145° | 106km/h | 13229m | -16.1m/s | -65.0°C | 42.9% | 0hPa | 2.5V | 00:00:00 | 00:00:00 | 00:00:00 | |
| OE3OSB-13 | 2026-09-04 13:04:14 | 49.14107 | 18.07702 | 147° | 108km/h | 13292m | -15.6m/s | -65.2°C | 30.3% | -1.0hPa | 2.5V | 00:00:00 | 00:00:00 | 00:00:00 | |
| PETON7-10 | 2026-09-04 13:04:12 | 49.14153 | 18.07657 | 148° | 104km/h | 13324m | -16.0m/s | -65.3°C | 39.8% | 0hPa | 2.5V | 00:00:00 | 00:00:00 | 00:00:00 | |
| OE5DXL-15 | 2026-09-04 13:04:05 | 49.14314 | 18.07508 | 149° | 97km/h | 13436m | -16.1m/s | -66.2°C | 37.7% | 0hPa | 2.5V | 00:00:00 | 00:00:00 | 00:00:00 | |
| PG1ADW-2 | 2026-09-04 13:04:01 | 49.14403 | 18.07424 | 148° | 93km/h | 13500m | -15.9m/s | -66.7°C | 36.7% | 0hPa | 2.5V | 00:00:00 | 00:00:00 | 00:00:00 | |
| OE5DRO-10 | 2026-09-04 13:03:59 | 49.14446 | 18.07381 | 146° | 91km/h | 13533m | -16.0m/s | -66.9°C | 35.8% | 0hPa | 2.5V | 00:00:00 | 00:00:00 | 00:00:00 | |
| PETON7-10 | 2026-09-04 13:03:57 | 49.14487 | 18.07337 | 146° | 91km/h | 13565m | -16.4m/s | -67.2°C | 35.1% | 0hPa | 2.6V | 00:00:00 | 00:00:00 | 00:00:00 | |
| HA6NAB-11 | 2026-09-04 13:03:54 | 49.14527 | 18.07295 | 146° | 95km/h | 13598m | -16.2m/s | -67.3°C | 24.0% | 0hPa | 2.6V | 08:17:00 | 00:00:00 | 00:00:00 | |
| HA6NAB-11 | 2026-09-04 13:03:48 | 49.14636 | 18.07169 | 140° | 88km/h | 13696m | -15.9m/s | -67.5°C | 21.2% | 0hPa | 2.6V | 08:18:00 | 00:00:00 | 00:00:00 | |
| OE3OSB-13 | 2026-09-04 13:03:43 | 49.14750 | 18.07002 | 133° | 95km/h | 13810m | -16.1m/s | -67.8°C | 16.3% | -1.0hPa | 2.6V | 00:00:00 | 00:00:00 | 00:00:00 | |
| PETON7-10 | 2026-09-04 13:03:42 | 49.14750 | 18.07002 | 134° | 100km/h | 13811m | -16.1m/s | -67.8°C | 25.8% | 0hPa | 2.6V | 00:00:00 | 02:21:45 | 00:00:00 | |
| OE5DRO-10 | 2026-09-04 13:03:41 | 49.14784 | 18.06949 | 135° | 99km/h | 13843m | -15.9m/s | -67.9°C | 24.5% | 0hPa | 2.6V | 00:00:00 | 00:00:00 | 00:00:00 | |
| GYPAP8-17 | 2026-09-04 13:03:36 | 49.14840 | 18.06864 | 137° | 106km/h | 13892m | -16.7m/s | -67.7°C | 13.6% | 0hPa | 2.6V | 00:00:00 | 00:00:00 | 00:00:00 | |
| OE5DXL-15 | 2026-09-04 13:03:35 | 49.14878 | 18.06807 | 136° | 93km/h | 13926m | -16.5m/s | -66.8°C | 19.1% | 0hPa | 2.6V | 00:00:00 | 00:00:00 | 00:00:00 | |
| POL2MAQ | 2026-09-04 13:03:33 | 49.14897 | 18.06779 | 137° | 104km/h | 13942m | -16.7m/s | -66.9°C | 11.0% | 0hPa | 2.6V | 08:18:00 | 00:00:00 | 00:00:00 | |
| PETON7-10 | 2026-09-04 13:03:27 | 49.15017 | 18.06589 | 131° | 91km/h | 14060m | -16.5m/s | -65.5°C | 14.5% | 0hPa | 2.6V | 00:00:00 | 00:00:00 | 00:00:00 | |
| POL2MAQ | 2026-09-04 13:03:13 | 49.15193 | 18.06220 | 127° | 91km/h | 14278m | -16.8m/s | -64.1°C | 5.0% | 0hPa | 2.5V | 08:18:00 | 00:00:00 | 00:00:00 | |
| PETON7-10 | 2026-09-04 13:03:12 | 49.15220 | 18.06163 | 127° | 82km/h | 14311m | -16.9m/s | -62.7°C | 9.4% | 0hPa | 2.5V | 00:00:00 | 00:00:00 | 00:00:00 | |
| OE5DXL-15 | 2026-09-04 13:03:05 | 49.15314 | 18.05978 | 129° | 68km/h | 14431m | -17.3m/s | -61.1°C | 8.0% | 0hPa | 2.5V | 00:00:00 | 00:00:00 | 00:00:00 | |
| OE5DRO-10 | 2026-09-04 13:03:02 | 49.15351 | 18.05904 | 126° | 71km/h | 14483m | -17.4m/s | -60.1°C | 7.5% | 0hPa | 2.5V | 08:18:00 | 00:00:00 | 00:00:00 | |
| PG1ADW-2 | 2026-09-04 13:03:01 | 49.15362 | 18.05880 | 126° | 69km/h | 14501m | -17.8m/s | -59.4°C | 6.9% | 0hPa | 2.5V | 00:00:00 | 00:00:00 | 00:00:00 | |
| PETON7-10 | 2026-09-04 13:02:57 | 49.15406 | 18.05781 | 124° | 69km/h | 14572m | -17.3m/s | -58.9°C | 6.5% | 0hPa | 2.5V | 00:00:00 | 02:21:00 | 00:00:00 | |
| HA6NAB-11 | 2026-09-04 13:02:56 | 49.15417 | 18.05755 | 125° | 78km/h | 14590m | -17.5m/s | -59.0°C | 2.8% | 0hPa | 2.5V | 08:18:00 | 00:00:00 | 00:00:00 | |
| POL2MAQ | 2026-09-04 13:02:52 | 49.15452 | 18.05682 | 130° | 75km/h | 14643m | -17.9m/s | -58.3°C | 2.6% | 0hPa | 2.5V | 08:18:00 | 00:00:00 | 00:00:00 | |
| OE5DRO-10 | 2026-09-04 13:02:43 | 49.15571 | 18.05507 | 142° | 51km/h | 14821m | -17.7m/s | -57.5°C | 5.5% | 0hPa | 2.5V | 00:00:00 | 00:00:00 | 00:00:00 | |
| PETON7-10 | 2026-09-04 13:02:42 | 49.15582 | 18.05494 | 141° | 49km/h | 14839m | -17.7m/s | -57.3°C | 5.4% | 0hPa | 2.5V | 08:18:00 | 00:00:00 | 00:00:00 | |
| OE3OSB-13 | 2026-09-04 13:02:41 | 49.15603 | 18.05467 | 137° | 53km/h | 14874m | -17.6m/s | -57.4°C | 2.0% | -1.0hPa | 2.5V | 00:00:00 | 00:00:00 | 00:00:00 | |
| OE5DXL-15 | 2026-09-04 13:02:35 | 49.15649 | 18.05400 | 133° | 58km/h | 14964m | -17.9m/s | -57.4°C | 5.4% | 0hPa | 2.5V | 00:00:00 | 00:00:00 | 00:00:00 | |
| POL2MAQ | 2026-09-04 13:02:32 | 49.15665 | 18.05373 | 132° | 47km/h | 15000m | -17.8m/s | -57.6°C | 2.1% | 0hPa | 2.5V | 08:18:00 | 00:00:00 | 00:00:00 | |
| PETON7-10 | 2026-09-04 13:02:27 | 49.15706 | 18.05279 | 119° | 60km/h | 15107m | -17.3m/s | -58.1°C | 5.6% | 0hPa | 2.5V | 00:00:00 | 00:00:00 | 00:00:00 | |
| OE5DRO-10 | 2026-09-04 13:02:24 | 49.15725 | 18.05225 | 119° | 64km/h | 15160m | -17.2m/s | -58.4°C | 5.7% | 0hPa | 2.5V | 00:00:00 | 00:00:00 | 00:00:00 | |
| PG1ADW-2 | 2026-09-04 13:02:21 | 49.15746 | 18.05167 | 118° | 66km/h | 15212m | -17.8m/s | -58.4°C | 5.7% | 0hPa | 2.5V | 00:00:00 | 00:00:00 | 00:00:00 | |
| HA6NAB-11 | 2026-09-04 13:02:18 | 49.15760 | 18.05126 | 118° | 58km/h | 15248m | -18.0m/s | -58.4°C | 2.2% | 0hPa | 2.5V | 08:18:00 | 00:00:00 | 00:00:00 | |
| PETON7-10 | 2026-09-04 13:02:12 | 49.15814 | 18.04972 | 123° | 68km/h | 15371m | -17.7m/s | -57.7°C | 5.5% | 0hPa | 2.5V | 00:00:00 | 02:20:15 | 00:00:00 | |
| POL2MAQ | 2026-09-04 13:02:11 | 49.15814 | 18.04972 | 123° | 71km/h | 15371m | -17.7m/s | -57.8°C | 2.1% | 0hPa | 2.5V | 08:18:00 | 00:00:00 | 00:00:00 | |
| OE3OSB-13 | 2026-09-04 13:02:10 | 49.15844 | 18.04904 | 124° | 71km/h | 15423m | -17.0m/s | -57.7°C | 1.8% | -1.0hPa | 2.5V | 00:00:00 | 00:00:00 | 00:00:00 | |
| OE5DRO-10 | 2026-09-04 13:02:05 | 49.15884 | 18.04816 | 124° | 60km/h | 15492m | -17.5m/s | -57.8°C | 5.4% | 0hPa | 2.5V | 00:00:00 | 00:00:00 | 00:00:00 | |
| HA6NAB-11 | 2026-09-04 13:02:04 | 49.15884 | 18.04816 | 124° | 66km/h | 15492m | -17.6m/s | -57.9°C | 2.0% | 0hPa | 2.5V | 00:00:00 | 00:00:00 | 00:00:00 | |
| PG1ADW-2 | 2026-09-04 13:02:01 | 49.15919 | 18.04732 | 121° | 57km/h | 15563m | -17.9m/s | -57.6°C | 5.4% | 0hPa | 2.5V | 00:00:00 | 02:20:04 | 00:00:00 | |
| HA6NAB-11 | 2026-09-04 13:01:58 | 49.15934 | 18.04689 | 120° | 62km/h | 15599m | -18.0m/s | -57.6°C | 1.9% | 0hPa | 2.5V | 00:00:00 | 00:00:00 | 00:00:00 | |
| PETON7-10 | 2026-09-04 13:01:57 | 49.15949 | 18.04646 | 117° | 55km/h | 15636m | -17.9m/s | -57.4°C | 5.3% | 0hPa | 2.5V | 00:00:00 | 00:00:00 | 00:00:00 | |
| POL2MAQ | 2026-09-04 13:01:50 | 49.15984 | 18.04519 | 112° | 58km/h | 15744m | -18.4m/s | -57.3°C | 1.8% | 0hPa | 2.5V | 08:19:00 | 00:00:00 | 00:00:00 | |
| OE3JTB-15 | 2026-09-04 13:01:49 | 49.15994 | 18.04477 | 111° | 35km/h | 15781m | -17.7m/s | -56.9°C | 4.9% | 0hPa | 2.5V | 00:00:00 | 00:00:00 | 00:00:00 | |
| OE5DRO-10 | 2026-09-04 13:01:46 | 49.16007 | 18.04421 | 108° | 51km/h | 15835m | -17.8m/s | -56.7°C | 4.9% | 0hPa | 2.5V | 00:00:00 | 00:00:00 | 00:00:00 | |
| PETON7-10 | 2026-09-04 13:01:42 | 49.16019 | 18.04349 | 100° | 53km/h | 15905m | -17.8m/s | -56.7°C | 5.1% | 0hPa | 2.5V | 00:00:00 | 00:00:00 | 00:00:00 | |
| PG1ADW-2 | 2026-09-04 13:01:41 | 49.16021 | 18.04331 | 98° | 49km/h | 15923m | -17.7m/s | -56.6°C | 5.0% | 0hPa | 2.5V | 00:00:00 | 00:00:00 | 00:00:00 | |
| OE3OSB-13 | 2026-09-04 13:01:39 | 49.16025 | 18.04273 | 96° | 51km/h | 15975m | -17.1m/s | -56.8°C | 1.5% | -1.0hPa | 2.5V | 00:00:00 | 00:00:00 | 00:00:00 | |
| OE5DXL-15 | 2026-09-04 13:01:35 | 49.16031 | 18.04210 | 101° | 46km/h | 16027m | -17.2m/s | -56.9°C | 5.1% | 0hPa | 2.5V | 00:00:00 | 00:00:00 | 00:00:00 | |
| POL2MAQ | 2026-09-04 13:01:30 | 49.16045 | 18.04124 | 107° | 55km/h | 16097m | -17.8m/s | -56.6°C | 1.7% | 0hPa | 2.5V | 08:19:00 | 00:00:00 | 00:00:00 | |
| PETON7-10 | 2026-09-04 13:01:27 | 49.16060 | 18.04051 | 108° | 44km/h | 16168m | -17.7m/s | -56.3°C | 4.8% | 0hPa | 2.5V | 00:00:00 | 02:19:30 | 00:00:00 | |
| PG1ADW-2 | 2026-09-04 13:01:21 | 49.16076 | 18.03961 | 106° | 46km/h | 16273m | -17.2m/s | -55.7°C | 4.6% | 0hPa | 2.5V | 00:00:00 | 00:00:00 | 00:00:00 | |
| SP3WXH-11 | 2026-09-04 13:01:15 | 49.16095 | 18.03861 | 108° | 44km/h | 16381m | -18.1m/s | -55.9°C | 1.4% | -1.0hPa | 2.5V | 00:00:00 | 00:00:00 | 00:00:00 | |
| PETON7-10 | 2026-09-04 13:01:12 | 49.16106 | 18.03810 | 108° | 47km/h | 16436m | -18.6m/s | -56.1°C | 4.8% | 0hPa | 2.5V | 00:00:00 | 00:00:00 | 00:00:00 | |
| POL2MAQ | 2026-09-04 13:01:10 | 49.16109 | 18.03795 | 107° | 42km/h | 16455m | -18.4m/s | -56.1°C | 1.6% | 0hPa | 2.5V | 08:20:00 | 00:00:00 | 00:00:00 | |
| OE3OSB-13 | 2026-09-04 13:01:09 | 49.16122 | 18.03729 | 106° | 44km/h | 16529m | -18.7m/s | -56.3°C | 1.5% | -1.0hPa | 2.5V | 00:00:00 | 00:00:00 | 00:00:00 | |
| OE5DXL-15 | 2026-09-04 13:01:05 | 49.16130 | 18.03693 | 107° | 38km/h | 16566m | -18.5m/s | -56.3°C | 4.8% | 0hPa | 2.5V | 00:00:00 | 00:00:00 | 00:00:00 | |
| PG1ADW-2 | 2026-09-04 13:01:01 | 49.16147 | 18.03619 | 112° | 37km/h | 16640m | -18.8m/s | -56.1°C | 4.7% | 0hPa | 2.5V | 00:00:00 | 00:00:00 | 00:00:00 | |
| PETON7-10 | 2026-09-04 13:00:57 | 49.16169 | 18.03549 | 118° | 35km/h | 16717m | -19.7m/s | -55.7°C | 4.5% | 0hPa | 2.5V | 00:00:00 | 00:00:00 | 00:00:00 | |
| DO3MHA-11 | 2026-09-04 13:00:52 | 49.16194 | 18.03478 | 119° | 29km/h | 16815m | -19.6m/s | -55.2°C | 4.2% | 0hPa | 2.5V | 00:00:00 | 02:18:55 | 00:00:00 | |
| OE5DRO-10 | 2026-09-04 13:00:49 | 49.16205 | 18.03444 | 117° | 31km/h | 16875m | -19.7m/s | -55.3°C | 4.3% | 0hPa | 2.5V | 00:00:00 | 00:00:00 | 00:00:00 | |
| SP3WXH-11 | 2026-09-04 13:00:45 | 49.16217 | 18.03394 | 98° | 26km/h | 16975m | -19.7m/s | -55.6°C | 1.3% | -1.0hPa | 2.5V | 00:00:00 | 00:00:00 | 00:00:00 | |
| PETON7-10 | 2026-09-04 13:00:42 | 49.16218 | 18.03373 | 89° | 33km/h | 17014m | -19.2m/s | -55.9°C | 4.4% | 0hPa | 2.5V | 00:00:00 | 02:18:45 | 00:00:00 | |
| PG1ADW-2 | 2026-09-04 13:00:41 | 49.16217 | 18.03362 | 87° | 38km/h | 17033m | -19.4m/s | -56.1°C | 4.5% | 0hPa | 2.5V | 00:00:00 | 02:18:44 | 00:00:00 | |
| OE3OSB-13 | 2026-09-04 13:00:36 | 49.16214 | 18.03300 | 86° | 35km/h | 17132m | -20.5m/s | -56.6°C | 1.3% | -1.0hPa | 2.5V | 00:00:00 | 00:00:00 | 00:00:00 | |
| OE5DXL-15 | 2026-09-04 13:00:35 | 49.16213 | 18.03286 | 89° | 44km/h | 17153m | -20.4m/s | -56.5°C | 4.6% | 0hPa | 2.5V | 00:00:00 | 00:00:00 | 00:00:00 | |
| DO3MHA-11 | 2026-09-04 13:00:32 | 49.16215 | 18.03248 | 103° | 42km/h | 17215m | -20.6m/s | -56.4°C | 4.6% | 0hPa | 2.5V | 08:20:00 | 02:18:35 | 00:00:00 | |
| OE5DRO-10 | 2026-09-04 13:00:30 | 49.16219 | 18.03222 | 107° | 47km/h | 17257m | -21.1m/s | -56.5°C | 4.6% | 0hPa | 2.5V | 00:00:00 | 00:00:00 | 00:00:00 | |
| POL2MAQ | 2026-09-04 13:00:29 | 49.16219 | 18.03222 | 107° | 35km/h | 17257m | -21.1m/s | -56.6°C | 1.5% | 0hPa | 2.5V | 08:20:00 | 00:00:00 | 00:00:00 | |
| PETON7-10 | 2026-09-04 13:00:27 | 49.16230 | 18.03182 | 115° | 51km/h | 17321m | -21.1m/s | -56.9°C | 4.8% | 0hPa | 2.5V | 08:20:00 | 00:00:00 | 00:00:00 | |
| HA6NAB-11 | 2026-09-04 13:00:26 | 49.16230 | 18.03182 | 116° | 40km/h | 17321m | -21.1m/s | -57.0°C | 1.5% | 0hPa | 2.5V | 00:00:00 | 00:00:00 | 00:00:00 | |
| DO3MHA-11 | 2026-09-04 13:00:22 | 49.16256 | 18.03098 | 121° | 53km/h | 17426m | -20.8m/s | -56.8°C | 4.7% | 0hPa | 2.5V | 00:00:00 | 02:18:25 | 00:00:00 | |
| PG1ADW-2 | 2026-09-04 13:00:21 | 49.16263 | 18.03080 | 122° | 44km/h | 17447m | -21.0m/s | -56.9°C | 4.8% | 0hPa | 2.5V | 08:20:00 | 00:00:00 | 00:00:00 | |
| HA6NAB-11 | 2026-09-04 13:00:16 | 49.16302 | 18.02990 | 127° | 53km/h | 17552m | -20.7m/s | -56.9°C | 1.3% | 0hPa | 2.5V | 00:00:00 | 00:00:00 | 00:00:00 | |
| SP3WXH-11 | 2026-09-04 13:00:13 | 49.16324 | 18.02946 | 128° | 42km/h | 17615m | -20.7m/s | -57.0°C | 1.3% | -1.0hPa | 2.5V | 00:00:00 | 00:00:00 | 00:00:00 | |
| PETON7-10 | 2026-09-04 13:00:12 | 49.16331 | 18.02933 | 127° | 38km/h | 17636m | -20.7m/s | -56.9°C | 4.8% | 0hPa | 2.5V | 00:00:00 | 00:00:00 | 00:00:00 | |
| OE5DRO-10 | 2026-09-04 13:00:11 | 49.16337 | 18.02920 | 129° | 37km/h | 17656m | -20.1m/s | -56.9°C | 4.8% | 0hPa | 2.5V | 08:20:00 | 00:00:00 | 00:00:00 | |
| POL2MAQ | 2026-09-04 13:00:08 | 49.16349 | 18.02897 | 125° | 38km/h | 17698m | -20.7m/s | -57.0°C | 1.5% | 0hPa | 2.5V | 08:21:00 | 00:00:00 | 00:00:00 | |
| OE3OSB-13 | 2026-09-04 13:00:06 | 49.16368 | 18.02852 | 121° | 33km/h | 17781m | -20.7m/s | -56.9°C | 1.3% | -1.0hPa | 2.5V | 00:00:00 | 00:00:00 | 00:00:00 | |
| OE5DXL-15 | 2026-09-04 13:00:05 | 49.16368 | 18.02852 | 122° | 37km/h | 17782m | -20.6m/s | -56.9°C | 4.9% | 0hPa | 2.5V | 08:21:00 | 00:00:00 | 00:00:00 | |
| DO3MHA-11 | 2026-09-04 13:00:02 | 49.16381 | 18.02815 | 118° | 38km/h | 17844m | -20.5m/s | -56.4°C | 4.7% | 0hPa | 2.6V | 00:00:00 | 02:18:05 | 00:00:00 | |
| PG1ADW-2 | 2026-09-04 13:00:01 | 49.16385 | 18.02802 | 117° | 37km/h | 17864m | -19.6m/s | -56.2°C | 4.7% | 0hPa | 2.6V | 00:00:00 | 00:00:00 | 00:00:00 | |
| PETON7-10 | 2026-09-04 12:59:57 | 49.16404 | 18.02747 | 118° | 37km/h | 17945m | -20.8m/s | -56.4°C | 4.7% | 0hPa | 2.6V | 00:00:00 | 02:18:00 | 00:00:00 | |
| GYPAP8-17 | 2026-09-04 12:59:56 | 49.16404 | 18.02747 | 119° | 42km/h | 17945m | -20.8m/s | -56.4°C | 1.4% | 0hPa | 2.6V | 00:00:00 | 00:00:00 | 00:00:00 | |
| DO3MHA-11 | 2026-09-04 12:59:52 | 49.16426 | 18.02683 | 114° | 35km/h | 18048m | -20.1m/s | -56.7°C | 5.0% | 0hPa | 2.6V | 00:00:00 | 02:17:55 | 00:00:00 | |
| POL2MAQ | 2026-09-04 12:59:47 | 49.16440 | 18.02634 | 116° | 33km/h | 18129m | -19.9m/s | -56.4°C | 1.5% | 0hPa | 2.6V | 08:21:00 | 00:00:00 | 00:00:00 | |
| PETON7-10 | 2026-09-04 12:59:42 | 49.16465 | 18.02560 | 120° | 26km/h | 18251m | -20.6m/s | -55.4°C | 4.6% | 0hPa | 2.6V | 00:00:00 | 00:00:00 | 00:00:00 | |
| PG1ADW-2 | 2026-09-04 12:59:41 | 49.16469 | 18.02547 | 122° | 22km/h | 18272m | -21.4m/s | -55.3°C | 4.6% | 0hPa | 2.6V | 00:00:00 | 00:00:00 | 00:00:00 | |
| OE5DXL-15 | 2026-09-04 12:59:35 | 49.16497 | 18.02486 | 125° | 18km/h | 18400m | -20.7m/s | -54.5°C | 4.3% | 0hPa | 2.6V | 00:00:00 | 00:00:00 | 00:00:00 | |
| OE3OSB-13 | 2026-09-04 12:59:34 | 49.16500 | 18.02479 | 126° | 20km/h | 18421m | -21.3m/s | -54.2°C | 1.1% | -1.0hPa | 2.6V | 00:00:00 | 00:00:00 | 00:00:00 | |
| OE5DRO-10 | 2026-09-04 12:59:33 | 49.16503 | 18.02473 | 131° | 16km/h | 18443m | -19.9m/s | -54.1°C | 4.2% | 0hPa | 2.6V | 00:00:00 | 00:00:00 | 00:00:00 | |
| DO3MHA-11 | 2026-09-04 12:59:32 | 49.16506 | 18.02468 | 136° | 16km/h | 18463m | -19.7m/s | -54.2°C | 4.2% | 0hPa | 2.6V | 00:00:00 | 02:17:35 | 00:00:00 | |
| PETON7-10 | 2026-09-04 12:59:27 | 49.16521 | 18.02442 | 127° | 16km/h | 18568m | -20.4m/s | -53.5°C | 3.9% | 0hPa | 2.6V | 00:00:00 | 00:00:00 | 00:00:00 | |
| POL2MAQ | 2026-09-04 12:59:26 | 49.16521 | 18.02442 | 128° | 20km/h | 18568m | -20.5m/s | -53.5°C | 1.1% | 0hPa | 2.6V | 08:22:00 | 00:00:00 | 00:00:00 | |
| DO3MHA-11 | 2026-09-04 12:59:22 | 49.16531 | 18.02416 | 110° | 18km/h | 18676m | -21.4m/s | -53.8°C | 4.0% | 0hPa | 2.6V | 00:00:00 | 02:17:25 | 00:00:00 | |
| PG1ADW-2 | 2026-09-04 12:59:21 | 49.16532 | 18.02411 | 101° | 16km/h | 18697m | -19.7m/s | -53.4°C | 3.9% | 0hPa | 2.6V | 00:00:00 | 02:17:24 | 00:00:00 | |
| OE5DRO-10 | 2026-09-04 12:59:14 | 49.16527 | 18.02364 | 81° | 15km/h | 18844m | -20.8m/s | -53.5°C | 3.9% | 0hPa | 2.6V | 00:00:00 | 00:00:00 | 00:00:00 | |
| PETON7-10 | 2026-09-04 12:59:12 | 49.16526 | 18.02348 | 93° | 15km/h | 18886m | -19.9m/s | -53.6°C | 3.9% | 0hPa | 2.6V | 00:00:00 | 02:17:15 | 00:00:00 | |
| SP3WXH-11 | 2026-09-04 12:59:11 | 49.16527 | 18.02332 | 98° | 20km/h | 18924m | -19.8m/s | -53.8°C | 1.1% | -1.0hPa | 2.6V | 00:00:00 | 00:00:00 | 00:00:00 | |
| OE5DXL-15 | 2026-09-04 12:59:05 | 49.16528 | 18.02299 | 70° | 13km/h | 19016m | -17.3m/s | -54.5°C | 4.2% | 0hPa | 2.6V | 00:00:00 | 00:00:00 | 00:00:00 | |
| OE3OSB-13 | 2026-09-04 12:59:03 | 49.16525 | 18.02290 | 57° | 11km/h | 19052m | -17.2m/s | -54.7°C | 1.1% | -1.0hPa | 2.6V | 00:00:00 | 00:00:00 | 00:00:00 | |
| DO3MHA-11 | 2026-09-04 12:59:02 | 49.16523 | 18.02286 | 57° | 7km/h | 19070m | -18.6m/s | -54.7°C | 4.3% | 0hPa | 2.6V | 08:22:00 | 02:17:05 | 00:00:00 | |
| PG1ADW-2 | 2026-09-04 12:59:01 | 49.16522 | 18.02282 | 61° | 13km/h | 19088m | -18.8m/s | -54.6°C | 4.3% | 0hPa | 2.6V | 00:00:00 | 00:00:00 | 00:00:00 | |
| PETON7-10 | 2026-09-04 12:58:57 | 49.16519 | 18.02271 | 88° | 13km/h | 19166m | -19.1m/s | -54.5°C | 4.3% | 0hPa | 2.6V | 00:00:00 | 00:00:00 | 00:00:00 | |
| OE5DRO-10 | 2026-09-04 12:58:55 | 49.16519 | 18.02266 | 88° | 15km/h | 19204m | -19.5m/s | -54.3°C | 4.2% | 0hPa | 2.5V | 00:00:00 | 00:00:00 | 00:00:00 | |
| DO3MHA-11 | 2026-09-04 12:58:52 | 49.16516 | 18.02258 | 39° | 16km/h | 19264m | -20.0m/s | -54.4°C | 4.1% | 0hPa | 2.5V | 00:00:00 | 02:16:55 | 00:00:00 | |
| POL2MAQ | 2026-09-04 12:58:45 | 49.16493 | 18.02239 | 19° | 18km/h | 19386m | -20.9m/s | -53.9°C | 1.2% | 0hPa | 2.5V | 08:23:00 | 00:00:00 | 00:00:00 | |
| PETON7-10 | 2026-09-04 12:58:42 | 49.16477 | 18.02233 | 12° | 20km/h | 19467m | -19.7m/s | -54.0°C | 3.9% | 0hPa | 2.5V | 00:00:00 | 00:00:00 | 00:00:00 | |
| PG1ADW-2 | 2026-09-04 12:58:41 | 49.16474 | 18.02232 | 16° | 24km/h | 19487m | -20.7m/s | -54.1°C | 4.0% | 0hPa | 2.5V | 00:00:00 | 00:00:00 | 00:00:00 | |
| SP3WXH-11 | 2026-09-04 12:58:40 | 49.16470 | 18.02230 | 21° | 13km/h | 19508m | -20.5m/s | -54.3°C | 1.0% | -1.0hPa | 2.5V | 00:00:00 | 00:00:00 | 00:00:00 | |
| OE5DRO-10 | 2026-09-04 12:58:36 | 49.16457 | 18.02216 | 47° | 27km/h | 19591m | -21.4m/s | -54.7°C | 4.1% | 0hPa | 2.5V | 00:00:00 | 00:00:00 | 00:00:00 | |
| GYPAP8-17 | 2026-09-04 12:58:35 | 49.16454 | 18.02211 | 46° | 18km/h | 19613m | -21.5m/s | -55.0°C | 1.2% | 0hPa | 2.5V | 00:00:00 | 00:00:00 | 00:00:00 | |
| DO3MHA-11 | 2026-09-04 12:58:32 | 49.16445 | 18.02190 | 61° | 29km/h | 19678m | -21.5m/s | -55.2°C | 4.4% | 0hPa | 2.5V | 00:00:00 | 02:16:35 | 00:00:00 | |
| PETON7-10 | 2026-09-04 12:58:27 | 49.16430 | 18.02142 | 74° | 31km/h | 19786m | -21.2m/s | -55.9°C | 4.7% | 0hPa | 2.6V | 00:00:00 | 02:16:30 | 00:00:00 | |
| POL2MAQ | 2026-09-04 12:58:25 | 49.16428 | 18.02131 | 74° | 29km/h | 19808m | -22.0m/s | -56.1°C | 1.4% | 0hPa | 2.6V | 08:23:00 | 00:00:00 | 00:00:00 | |
| DO3MHA-11 | 2026-09-04 12:58:22 | 49.16420 | 18.02085 | 78° | 31km/h | 19894m | -21.2m/s | -56.2°C | 4.9% | 0hPa | 2.6V | 00:00:00 | 02:16:25 | 00:00:00 | |
| PG1ADW-2 | 2026-09-04 12:58:21 | 49.16419 | 18.02072 | 82° | 22km/h | 19916m | -21.7m/s | -56.1°C | 4.9% | 0hPa | 2.6V | 00:00:00 | 00:00:00 | 00:00:00 | |
| OE5DRO-10 | 2026-09-04 12:58:17 | 49.16419 | 18.02022 | 101° | 18km/h | 20003m | -21.6m/s | -55.7°C | 4.7% | 0hPa | 2.5V | 00:00:00 | 00:00:00 | 00:00:00 | |
| PETON7-10 | 2026-09-04 12:58:12 | 49.16430 | 18.01973 | 121° | 15km/h | 20113m | -23.0m/s | -55.0°C | 4.4% | 0hPa | 2.5V | 08:22:00 | 00:00:00 | 00:00:00 | |
| SP3WXH-11 | 2026-09-04 12:58:09 | 49.16438 | 18.01955 | 130° | 13km/h | 20182m | -23.2m/s | -54.6°C | 1.1% | -1.0hPa | 2.5V | 00:00:00 | 00:00:00 | 00:00:00 | |
| OE5DXL-15 | 2026-09-04 12:58:05 | 49.16445 | 18.01940 | 126° | 20km/h | 20272m | -22.7m/s | -54.0°C | 4.0% | 0hPa | 2.5V | 00:00:00 | 00:00:00 | 00:00:00 | |
| POL2MAQ | 2026-09-04 12:58:04 | 49.16445 | 18.01940 | 126° | 11km/h | 20272m | -22.7m/s | -54.1°C | 1.1% | 0hPa | 2.5V | 08:23:00 | 00:00:00 | 00:00:00 | |
| DO3MHA-11 | 2026-09-04 12:58:02 | 49.16450 | 18.01930 | 121° | 18km/h | 20341m | -23.5m/s | -54.0°C | 4.0% | 0hPa | 2.5V | 00:00:00 | 02:16:05 | 00:00:00 | |
| PG1ADW-2 | 2026-09-04 12:58:01 | 49.16451 | 18.01926 | 113° | 24km/h | 20365m | -23.7m/s | -53.8°C | 3.9% | 0hPa | 2.6V | 00:00:00 | 02:16:04 | 00:00:00 | |
| OE5DRO-10 | 2026-09-04 12:57:58 | 49.16453 | 18.01910 | 93° | 26km/h | 20436m | -23.0m/s | -53.9°C | 3.9% | 0hPa | 2.6V | 00:00:00 | 00:00:00 | 00:00:00 | |
| PETON7-10 | 2026-09-04 12:57:57 | 49.16453 | 18.01903 | 89° | 26km/h | 20459m | -23.4m/s | -54.1°C | 4.0% | 0hPa | 2.6V | 00:00:00 | 00:00:00 | 00:00:00 | |
| OE3JTB-15 | 2026-09-04 12:57:53 | 49.16452 | 18.01867 | 91° | 26km/h | 20550m | -22.5m/s | -54.8°C | 4.2% | 0hPa | 2.6V | 00:00:00 | 02:15:56 | 00:00:00 | |
| DO3MHA-11 | 2026-09-04 12:57:52 | 49.16452 | 18.01856 | 92° | 27km/h | 20573m | -22.5m/s | -55.0°C | 4.3% | 0hPa | 2.6V | 00:00:00 | 02:15:55 | 00:00:00 | |
| OE5MMP-10 | 2026-09-04 12:57:50 | 49.16453 | 18.01835 | 96° | 24km/h | 20618m | -22.8m/s | -55.3°C | 4.4% | 0hPa | 2.6V | 00:00:00 | 02:15:53 | 00:00:00 | |
| POL2MAQ | 2026-09-04 12:57:43 | 49.16461 | 18.01775 | 114° | 26km/h | 20761m | -23.4m/s | -55.3°C | 1.2% | 0hPa | 2.6V | 08:24:00 | 00:00:00 | 00:00:00 | |
| PETON7-10 | 2026-09-04 12:57:42 | 49.16467 | 18.01758 | 120° | 22km/h | 20808m | -23.4m/s | -55.3°C | 4.6% | 0hPa | 2.6V | 00:00:00 | 02:15:45 | 00:00:00 | |
| PG1ADW-2 | 2026-09-04 12:57:41 | 49.16470 | 18.01750 | 120° | 22km/h | 20831m | -23.1m/s | -55.2°C | 4.5% | 0hPa | 2.6V | 00:00:00 | 00:00:00 | 00:00:00 | |
| OE5DRO-10 | 2026-09-04 12:57:39 | 49.16475 | 18.01736 | 124° | 22km/h | 20877m | -22.7m/s | -55.0°C | 4.4% | 0hPa | 2.6V | 00:00:00 | 00:00:00 | 00:00:00 | |
| OE5MMP-10 | 2026-09-04 12:57:38 | 49.16478 | 18.01730 | 124° | 20km/h | 20900m | -23.0m/s | -55.0°C | 4.5% | 0hPa | 2.6V | 00:00:00 | 02:15:41 | 00:00:00 | |
| OE5DXL-15 | 2026-09-04 12:57:35 | 49.16486 | 18.01715 | 130° | 16km/h | 20971m | -23.8m/s | -54.8°C | 4.4% | 0hPa | 2.6V | 00:00:00 | 00:00:00 | 00:00:00 | |
| OE3OSB-13 | 2026-09-04 12:57:30 | 49.16505 | 18.01686 | 139° | 26km/h | 21089m | -23.4m/s | -54.6°C | 1.0% | -1.0hPa | 2.6V | 00:00:00 | 00:00:00 | 00:00:00 | |
| DO3MHA-11 | 2026-09-04 12:57:29 | 49.16510 | 18.01679 | 139° | 24km/h | 21112m | -23.2m/s | -54.5°C | 4.4% | 0hPa | 2.6V | 08:23:00 | 02:15:32 | 00:00:00 | |
| OE5MMP-10 | 2026-09-04 12:57:28 | 49.16515 | 18.01671 | 137° | 24km/h | 21136m | -23.7m/s | -54.3°C | 4.3% | 0hPa | 2.6V | 00:00:00 | 02:15:31 | 00:00:00 | |
| PETON7-10 | 2026-09-04 12:57:27 | 49.16521 | 18.01664 | 137° | 18km/h | 21160m | -23.2m/s | -54.0°C | 4.2% | 0hPa | 2.5V | 00:00:00 | 00:00:00 | 00:00:00 | |
| OE5WHR-10 | 2026-09-04 12:57:25 | 49.16532 | 18.01649 | 144° | 16km/h | 21205m | -23.0m/s | -54.2°C | 4.3% | 0hPa | 2.6V | 00:00:00 | 02:15:28 | 00:00:00 | |
| OE3JTB-15 | 2026-09-04 12:57:24 | 49.16537 | 18.01643 | 147° | 13km/h | 21228m | -22.4m/s | -54.1°C | 4.3% | 0hPa | 2.6V | 00:00:00 | 00:00:00 | 00:00:00 | |
| POL2MAQ | 2026-09-04 12:57:23 | 49.16537 | 18.01643 | 148° | 24km/h | 21228m | -22.5m/s | -54.2°C | 1.2% | 0hPa | 2.6V | 08:24:00 | 00:00:00 | 00:00:00 | |
| PG1ADW-2 | 2026-09-04 12:57:21 | 49.16551 | 18.01634 | 171° | 7km/h | 21297m | -23.6m/s | -53.6°C | 4.1% | 0hPa | 2.6V | 08:23:00 | 00:00:00 | 00:00:00 | |
| OE5DRO-10 | 2026-09-04 12:57:20 | 49.16554 | 18.01634 | 192° | 7km/h | 21321m | -23.3m/s | -53.4°C | 4.0% | 0hPa | 2.6V | 08:23:00 | 00:00:00 | 00:00:00 | |
| DO3MHA-11 | 2026-09-04 12:57:19 | 49.16558 | 18.01636 | 206° | 9km/h | 21344m | -23.2m/s | -53.2°C | 3.9% | 0hPa | 2.6V | 00:00:00 | 02:15:22 | 00:00:00 | |
| OE5MMP-10 | 2026-09-04 12:57:18 | 49.16561 | 18.01638 | 220° | 9km/h | 21367m | -22.9m/s | -53.2°C | 4.0% | 0hPa | 2.6V | 00:00:00 | 02:15:21 | 00:00:00 | |
| PETON7-10 | 2026-09-04 12:57:12 | 49.16570 | 18.01660 | 236° | 5km/h | 21507m | -23.6m/s | -53.4°C | 4.0% | 0hPa | 2.6V | 00:00:00 | 00:00:00 | 00:00:00 | |
| DO3MHA-11 | 2026-09-04 12:57:09 | 49.16573 | 18.01662 | 167° | 5km/h | 21578m | -23.7m/s | -53.5°C | 4.0% | 0hPa | 2.6V | 00:00:00 | 02:15:12 | 00:00:00 | |
| OE5MMP-10 | 2026-09-04 12:57:08 | 49.16574 | 18.01661 | 148° | 5km/h | 21602m | -23.4m/s | -53.5°C | 4.1% | 0hPa | 2.6V | 00:00:00 | 02:15:11 | 00:00:00 | |
| SP3WXH-11 | 2026-09-04 12:57:07 | 49.16576 | 18.01659 | 140° | 2km/h | 21651m | -24.8m/s | -53.4°C | 0.9% | -1.0hPa | 2.6V | 00:00:00 | 00:00:00 | 00:00:00 | |
| OE5DXL-15 | 2026-09-04 12:57:05 | 49.16576 | 18.01658 | 140° | 15km/h | 21675m | -24.7m/s | -53.3°C | 4.0% | 0hPa | 2.6V | 00:00:00 | 00:00:00 | 00:00:00 | |
| POL2MAQ | 2026-09-04 12:57:02 | 49.16576 | 18.01658 | 336° | 2km/h | 21724m | -23.9m/s | -53.2°C | 1.0% | 0hPa | 2.6V | 08:24:00 | 00:00:00 | 00:00:00 | |
| PG1ADW-2 | 2026-09-04 12:57:01 | 49.16573 | 18.01659 | 354° | 13km/h | 21772m | -23.6m/s | -53.1°C | 3.9% | 0hPa | 2.6V | 00:00:00 | 00:00:00 | 00:00:00 | |
| DO3MHA-11 | 2026-09-04 12:56:59 | 49.16568 | 18.01661 | 348° | 9km/h | 21819m | -22.8m/s | -53.3°C | 3.9% | 0hPa | 2.6V | 00:00:00 | 02:15:02 | 00:00:00 | |
| OE5MMP-10 | 2026-09-04 12:56:58 | 49.16565 | 18.01661 | 1° | 9km/h | 21843m | -24.0m/s | -53.3°C | 3.9% | 0hPa | 2.7V | 00:00:00 | 02:15:01 | 00:00:00 | |
| PETON7-10 | 2026-09-04 12:56:57 | 49.16562 | 18.01661 | 17° | 11km/h | 21867m | -23.6m/s | -53.4°C | 4.0% | 0hPa | 2.5V | 00:00:00 | 02:15:00 | 00:00:00 | |
| OE3JTB-15 | 2026-09-04 12:56:55 | 49.16556 | 18.01657 | 28° | 27km/h | 21938m | -23.0m/s | -53.6°C | 4.2% | 0hPa | 2.5V | 00:00:00 | 00:00:00 | 00:00:00 | |
| DO3MHA-11 | 2026-09-04 12:56:49 | 49.16553 | 18.01644 | 85° | 11km/h | 22058m | -24.3m/s | -52.9°C | 3.9% | 0hPa | 2.5V | 00:00:00 | 02:14:52 | 00:00:00 | |
| OE5MMP-10 | 2026-09-04 12:56:48 | 49.16553 | 18.01640 | 91° | 22km/h | 22082m | -24.2m/s | -52.9°C | 3.9% | 0hPa | 2.5V | 00:00:00 | 02:14:51 | 00:00:00 | |
| SQ9EZE-14 | 2026-09-04 12:56:45 | 49.16554 | 18.01623 | 101° | 18km/h | 22158m | -25.2m/s | 0°C | 0% | 0hPa | 2.5V | 00:00:00 | 00:00:00 | 00:00:00 | |
| PETON7-10 | 2026-09-04 12:56:43 | 49.16560 | 18.01599 | 119° | 20km/h | 22231m | -24.3m/s | -53.3°C | 4.1% | 0hPa | 2.5V | 00:00:00 | 00:00:00 | 00:00:00 | |
| PG1ADW-2 | 2026-09-04 12:56:41 | 49.16564 | 18.01590 | 126° | 16km/h | 22255m | -23.6m/s | -53.4°C | 4.1% | 0hPa | 2.7V | 00:00:00 | 02:14:44 | 00:00:00 | |
| OE5MMP-10 | 2026-09-04 12:56:38 | 49.16578 | 18.01563 | 134° | 18km/h | 22328m | -24.2m/s | -53.6°C | 4.2% | 0hPa | 2.7V | 00:00:00 | 02:14:41 | 00:00:00 | |
| SP3WXH-11 | 2026-09-04 12:56:36 | 49.16594 | 18.01542 | 139° | 24km/h | 22401m | -24.4m/s | -53.2°C | 0.9% | -1.0hPa | 2.7V | 00:00:00 | 00:00:00 | 00:00:00 | |
| OE5DXL-15 | 2026-09-04 12:56:35 | 49.16594 | 18.01542 | 140° | 13km/h | 22401m | -24.3m/s | -53.2°C | 4.1% | 0hPa | 2.7V | 00:00:00 | 00:00:00 | 00:00:00 | |
| OE5MMP-10 | 2026-09-04 12:56:28 | 49.16612 | 18.01518 | 117° | 9km/h | 22570m | -23.7m/s | -52.3°C | 3.8% | 0hPa | 2.7V | 08:24:00 | 02:14:31 | 00:00:00 | |
| DO3MHA-11 | 2026-09-04 12:56:27 | 49.16612 | 18.01515 | 108° | 11km/h | 22594m | -23.2m/s | -52.3°C | 3.8% | 0hPa | 2.6V | 00:00:00 | 02:14:30 | 00:00:00 | |
| OE5DRO-10 | 2026-09-04 12:56:23 | 49.16614 | 18.01503 | 97° | 13km/h | 22693m | -24.4m/s | -52.4°C | 3.9% | 0hPa | 2.6V | 00:00:00 | 00:00:00 | 00:00:00 | |
| OE5WHR-10 | 2026-09-04 12:56:21 | 49.16615 | 18.01494 | 100° | 18km/h | 22742m | -24.8m/s | -52.3°C | 3.8% | 0hPa | 2.7V | 00:00:00 | 00:00:00 | 00:00:00 | |
| OE5MMP-10 | 2026-09-04 12:56:18 | 49.16616 | 18.01480 | 90° | 11km/h | 22818m | -25.0m/s | -51.9°C | 3.6% | 0hPa | 2.6V | 00:00:00 | 02:14:21 | 00:00:00 | |
| DO3MHA-11 | 2026-09-04 12:56:17 | 49.16616 | 18.01475 | 89° | 11km/h | 22843m | -25.2m/s | -51.6°C | 3.5% | 0hPa | 2.6V | 00:00:00 | 02:14:20 | 00:00:00 | |
| PETON7-10 | 2026-09-04 12:56:12 | 49.16610 | 18.01464 | 360° | 20km/h | 22967m | -24.6m/s | -51.6°C | 3.5% | 0hPa | 2.7V | 00:00:00 | 02:14:15 | 00:00:00 | |
| OE5MMP-10 | 2026-09-04 12:56:08 | 49.16595 | 18.01469 | 351° | 22km/h | 23066m | -24.2m/s | -51.8°C | 3.6% | 0hPa | 2.7V | 00:00:00 | 02:14:11 | 00:00:00 | |
| DO3MHA-11 | 2026-09-04 12:56:07 | 49.16590 | 18.01470 | 353° | 18km/h | 23090m | -24.6m/s | -51.9°C | 3.7% | 0hPa | 2.7V | 00:00:00 | 02:14:10 | 00:00:00 | |
| SP3WXH-11 | 2026-09-04 12:56:05 | 49.16574 | 18.01469 | 13° | 22km/h | 23165m | -25.1m/s | -52.3°C | 0.8% | -1.0hPa | 2.7V | 00:00:00 | 00:00:00 | 00:00:00 | |
| OE5DRO-10 | 2026-09-04 12:56:04 | 49.16573 | 18.01469 | 14° | 16km/h | 23165m | -25.0m/s | -52.3°C | 3.8% | 0hPa | 2.7V | 00:00:00 | 00:00:00 | 00:00:00 | |
| PG1ADW-2 | 2026-09-04 12:56:01 | 49.16558 | 18.01458 | 38° | 15km/h | 23241m | -24.7m/s | -52.7°C | 3.9% | 0hPa | 2.7V | 00:00:00 | 00:00:00 | 00:00:00 | |
| OE5WHR-10 | 2026-09-04 12:56:00 | 49.16554 | 18.01452 | 42° | 15km/h | 23266m | -25.6m/s | -52.7°C | 3.9% | 0hPa | 2.7V | 00:00:00 | 00:00:00 | 00:00:00 | |
| HA6NAB-11 | 2026-09-04 12:55:59 | 49.16554 | 18.01452 | 43° | 24km/h | 23266m | -25.6m/s | -52.7°C | 0.8% | 0hPa | 2.7V | 00:00:00 | 00:00:00 | 00:00:00 | |
| OE5MMP-10 | 2026-09-04 12:55:58 | 49.16545 | 18.01441 | 42° | 13km/h | 23317m | -24.6m/s | -52.8°C | 3.9% | 0hPa | 2.7V | 00:00:00 | 02:14:01 | 00:00:00 | |
| PETON7-10 | 2026-09-04 12:55:57 | 49.16542 | 18.01436 | 47° | 13km/h | 23342m | -25.1m/s | -52.8°C | 3.9% | 0hPa | 2.7V | 08:25:00 | 00:00:00 | 00:00:00 | |
| GYPAP8-17 | 2026-09-04 12:55:49 | 49.16535 | 18.01411 | 105° | 11km/h | 23532m | -30.3m/s | -52.5°C | 0.9% | 0hPa | 2.6V | 00:00:00 | 00:00:00 | 00:00:00 | |
| OE5MMP-10 | 2026-09-04 12:55:48 | 49.16536 | 18.01402 | 99° | 11km/h | 23594m | -31.4m/s | -52.5°C | 3.9% | 0hPa | 2.6V | 00:00:00 | 02:13:51 | 00:00:00 | |
| PETON7-10 | 2026-09-04 12:55:42 | 49.16538 | 18.01373 | 99° | 11km/h | 23761m | -27.6m/s | -52.2°C | 3.9% | 0hPa | 2.6V | 00:00:00 | 00:00:00 | 00:00:00 | |
| PG1ADW-2 | 2026-09-04 12:55:41 | 49.16538 | 18.01369 | 101° | 13km/h | 23788m | -26.6m/s | -52.1°C | 3.9% | 0hPa | 2.6V | 00:00:00 | 00:00:00 | 00:00:00 | |
| OE5WHR-10 | 2026-09-04 12:55:39 | 49.16538 | 18.01362 | 85° | 11km/h | 23844m | -28.5m/s | -52.0°C | 3.8% | 0hPa | 2.6V | 00:00:00 | 02:13:42 | 00:00:00 | |
| OE5MMP-10 | 2026-09-04 12:55:38 | 49.16538 | 18.01360 | 65° | 13km/h | 23872m | -28.1m/s | -51.9°C | 3.8% | 0hPa | 2.6V | 00:00:00 | 02:13:41 | 00:00:00 | |
| DO3MHA-11 | 2026-09-04 12:55:36 | 49.16536 | 18.01356 | 47° | 13km/h | 23931m | -29.4m/s | -51.9°C | 3.8% | 0hPa | 2.6V | 00:00:00 | 02:13:39 | 00:00:00 | |
| OE5DXL-15 | 2026-09-04 12:55:35 | 49.16534 | 18.01353 | 30° | 11km/h | 23961m | -30.9m/s | -51.8°C | 3.8% | 0hPa | 2.6V | 08:25:00 | 00:00:00 | 00:00:00 | |
| SP3WXH-11 | 2026-09-04 12:55:34 | 49.16529 | 18.01347 | 37° | 15km/h | 24023m | -30.8m/s | -51.6°C | 0.8% | -1.0hPa | 2.7V | 00:00:00 | 00:00:00 | 00:00:00 | |
| OE5MMP-10 | 2026-09-04 12:55:28 | 49.16514 | 18.01327 | 54° | 13km/h | 24170m | -29.9m/s | -51.3°C | 3.7% | 0hPa | 2.7V | 00:00:00 | 02:13:31 | 00:00:00 | |
| PETON7-10 | 2026-09-04 12:55:27 | 49.16513 | 18.01322 | 83° | 11km/h | 24200m | -31.0m/s | -51.3°C | 3.7% | 0hPa | 2.6V | 00:00:00 | 02:13:30 | 00:00:00 | |
| OE5DRO-10 | 2026-09-04 12:55:26 | 49.16513 | 18.01318 | 90° | 9km/h | 24231m | -31.3m/s | -51.2°C | 3.7% | 0hPa | 2.6V | 00:00:00 | 00:00:00 | 00:00:00 | |
| DO3MHA-11 | 2026-09-04 12:55:25 | 49.16513 | 18.01313 | 98° | 11km/h | 24263m | -32.5m/s | -51.0°C | 3.7% | 0hPa | 2.5V | 08:25:00 | 02:13:28 | 00:00:00 | |
| PG1ADW-2 | 2026-09-04 12:55:21 | 49.16516 | 18.01293 | 104° | 9km/h | 24387m | -30.5m/s | -50.9°C | 3.6% | 0hPa | 2.7V | 00:00:00 | 02:13:24 | 00:00:00 | |
| POL2MAQ | 2026-09-04 12:55:19 | 49.16517 | 18.01284 | 107° | 9km/h | 24449m | -31.3m/s | -51.0°C | 0.8% | 0hPa | 2.6V | 08:26:00 | 00:00:00 | 00:00:00 | |
| OE5MMP-10 | 2026-09-04 12:55:17 | 49.16518 | 18.01277 | 96° | 7km/h | 24512m | -31.0m/s | -50.9°C | 3.6% | 0hPa | 2.6V | 00:00:00 | 02:13:20 | 00:00:00 | |
| DO3MHA-11 | 2026-09-04 12:55:15 | 49.16519 | 18.01272 | 107° | 7km/h | 24573m | -29.3m/s | -50.6°C | 3.5% | 0hPa | 2.6V | 00:00:00 | 02:13:18 | 00:00:00 | |
| PETON7-10 | 2026-09-04 12:55:12 | 49.16521 | 18.01270 | 191° | 9km/h | 24657m | -28.1m/s | -50.4°C | 3.4% | 0hPa | 2.6V | 00:00:00 | 00:00:00 | 00:00:00 | |
| OE5WHR-10 | 2026-09-04 12:55:10 | 49.16524 | 18.01273 | 229° | 11km/h | 24714m | -27.7m/s | -50.4°C | 3.5% | 0hPa | 2.7V | 08:25:00 | 00:00:00 | 00:00:00 | |
| OE5MMP-10 | 2026-09-04 12:55:07 | 49.16526 | 18.01281 | 283° | 11km/h | 24797m | -27.3m/s | -50.5°C | 3.6% | 0hPa | 2.6V | 00:00:00 | 02:13:10 | 00:00:00 | |
| OE5DXL-15 | 2026-09-04 12:55:05 | 49.16524 | 18.01286 | 327° | 9km/h | 24852m | -27.3m/s | -50.4°C | 3.5% | 0hPa | 2.6V | 00:00:00 | 00:00:00 | 00:00:00 | |
| SP3WXH-11 | 2026-09-04 12:55:03 | 49.16516 | 18.01290 | 1° | 11km/h | 24934m | -26.7m/s | -50.4°C | 0.8% | -1.0hPa | 2.6V | 00:00:00 | 00:00:00 | 00:00:00 | |
| OE3OSB-13 | 2026-09-04 12:54:55 | 49.16510 | 18.01268 | 135° | 15km/h | 25153m | -28.0m/s | -50.4°C | 0.8% | -1.0hPa | 2.6V | 00:00:00 | 00:00:00 | 00:00:00 | |
| DO3MHA-11 | 2026-09-04 12:54:54 | 49.16510 | 18.01268 | 136° | 11km/h | 25154m | -28.0m/s | -50.3°C | 3.6% | 0hPa | 2.6V | 00:00:00 | 02:12:57 | 00:00:00 | |
| OE5DRO-10 | 2026-09-04 12:54:48 | 49.16527 | 18.01254 | 175° | 9km/h | 25321m | -27.3m/s | -49.5°C | 3.3% | 0hPa | 2.7V | 00:00:00 | 00:00:00 | 00:00:00 | |
| OE5WHR-10 | 2026-09-04 12:54:47 | 49.16529 | 18.01253 | 173° | 7km/h | 25349m | -27.2m/s | -49.3°C | 3.2% | 0hPa | 2.7V | 00:00:00 | 00:00:00 | 00:00:00 | |
| DO3MHA-11 | 2026-09-04 12:54:44 | 49.16534 | 18.01254 | 194° | 5km/h | 25432m | -28.8m/s | -49.2°C | 3.2% | 0hPa | 2.7V | 00:00:00 | 02:12:47 | 00:00:00 | |
| PETON7-10 | 2026-09-04 12:54:42 | 49.16536 | 18.01254 | 183° | 11km/h | 25489m | -28.8m/s | -49.3°C | 3.2% | 0hPa | 2.7V | 00:00:00 | 02:12:45 | 00:00:00 | |
| PG1ADW-2 | 2026-09-04 12:54:41 | 49.16537 | 18.01254 | 138° | 13km/h | 25516m | -27.3m/s | -49.4°C | 3.3% | 0hPa | 2.7V | 00:00:00 | 00:00:00 | 00:00:00 | |
| POL2MAQ | 2026-09-04 12:54:38 | 49.16538 | 18.01253 | 0° | 0km/h | 25570m | -25.5m/s | -49.7°C | 0.8% | 0hPa | 2.7V | 08:26:00 | 00:00:00 | 00:00:00 | |
| OE5MMP-10 | 2026-09-04 12:54:37 | 49.16537 | 18.01252 | 46° | 15km/h | 25624m | -28.2m/s | -49.7°C | 3.4% | 0hPa | 2.7V | 00:00:00 | 02:12:40 | 00:00:00 | |
| OE5DXL-15 | 2026-09-04 12:54:35 | 49.16534 | 18.01248 | 38° | 13km/h | 25682m | -28.3m/s | -49.6°C | 3.4% | 0hPa | 2.7V | 00:00:00 | 00:00:00 | 00:00:00 | |
| DO3MHA-11 | 2026-09-04 12:54:34 | 49.16532 | 18.01245 | 41° | 16km/h | 25709m | -27.4m/s | -49.7°C | 3.4% | 0hPa | 2.7V | 00:00:00 | 02:12:37 | 00:00:00 | |
| SP3WXH-11 | 2026-09-04 12:54:31 | 49.16525 | 18.01231 | 73° | 16km/h | 25790m | -27.3m/s | -49.9°C | 0.7% | -1.0hPa | 2.7V | 00:00:00 | 00:00:00 | 00:00:00 | |
| OE5DRO-10 | 2026-09-04 12:54:29 | 49.16524 | 18.01217 | 103° | 11km/h | 25845m | -28.4m/s | -50.0°C | 3.6% | 0hPa | 2.7V | 08:26:00 | 00:00:00 | 00:00:00 | |
| OE5MMP-10 | 2026-09-04 12:54:27 | 49.16529 | 18.01206 | 135° | 9km/h | 25900m | -28.7m/s | -49.9°C | 3.6% | 0hPa | 2.6V | 00:00:00 | 02:12:30 | 00:00:00 | |
| OE5WHR-10 | 2026-09-04 12:54:25 | 49.16535 | 18.01199 | 152° | 11km/h | 25959m | -29.7m/s | -49.7°C | 3.6% | 0hPa | 2.7V | 00:00:00 | 02:12:28 | 00:00:00 | |
| OE3OSB-13 | 2026-09-04 12:54:24 | 49.16541 | 18.01197 | 181° | 9km/h | 26020m | -32.0m/s | -49.5°C | 0.7% | -1.0hPa | 2.7V | 00:00:00 | 00:00:00 | 00:00:00 | |
| POL2MAQ | 2026-09-04 12:54:19 | 49.16546 | 18.01194 | 95° | 5km/h | 26145m | -30.2m/s | -49.0°C | 0.7% | 0hPa | 2.7V | 08:27:00 | 00:00:00 | 00:00:00 | |
| OE5MMP-10 | 2026-09-04 12:54:17 | 49.16546 | 18.01188 | 98° | 13km/h | 26204m | -29.7m/s | -48.8°C | 3.4% | 0hPa | 2.7V | 00:00:00 | 02:12:20 | 00:00:00 | |
| DO3MHA-11 | 2026-09-04 12:54:14 | 49.16547 | 18.01174 | 94° | 13km/h | 26296m | -31.8m/s | -48.5°C | 3.3% | 0hPa | 2.7V | 00:00:00 | 02:12:17 | 00:00:00 | |
| PETON7-10 | 2026-09-04 12:54:12 | 49.16547 | 18.01164 | 91° | 9km/h | 26357m | -29.6m/s | -48.3°C | 3.2% | 0hPa | 2.7V | 00:00:00 | 00:00:00 | 00:00:00 | |
| OE5DRO-10 | 2026-09-04 12:54:10 | 49.16547 | 18.01154 | 90° | 7km/h | 26418m | -30.0m/s | -48.2°C | 3.2% | 0hPa | 2.7V | 00:00:00 | 00:00:00 | 00:00:00 | |
| NBG1-10 | 2026-09-04 12:54:09 | 49.16548 | 18.01149 | 99° | 15km/h | 26448m | -29.8m/s | -48.1°C | 3.2% | 0hPa | 2.7V | 00:00:00 | 02:12:12 | 00:00:00 | |
| OE5MMP-10 | 2026-09-04 12:54:07 | 49.16550 | 18.01142 | 130° | 9km/h | 26507m | -30.4m/s | -47.9°C | 3.2% | 0hPa | 2.6V | 00:00:00 | 02:12:10 | 00:00:00 | |
| OE5DXL-15 | 2026-09-04 12:54:05 | 49.16554 | 18.01137 | 162° | 13km/h | 26568m | -31.2m/s | -47.7°C | 3.2% | 0hPa | 2.6V | 00:00:00 | 00:00:00 | 00:00:00 | |
| DO3MHA-11 | 2026-09-04 12:54:04 | 49.16558 | 18.01135 | 166° | 7km/h | 26600m | -31.9m/s | -47.6°C | 3.2% | 0hPa | 2.6V | 00:00:00 | 02:12:07 | 00:00:00 | |
| SP3WXH-11 | 2026-09-04 12:54:00 | 49.16567 | 18.01132 | 167° | 4km/h | 26731m | -31.4m/s | -47.2°C | 0.6% | -1.0hPa | 2.6V | 00:00:00 | 00:00:00 | 00:00:00 | |
| OE3OSB-13 | 2026-09-04 12:53:53 | 49.16561 | 18.01125 | 64° | 4km/h | 26971m | -32.0m/s | -47.2°C | 0.6% | -1.0hPa | 2.6V | 00:00:00 | 00:00:00 | 00:00:00 | |
| OE5DRO-10 | 2026-09-04 12:53:51 | 49.16560 | 18.01123 | 64° | 18km/h | 27004m | -32.5m/s | -47.2°C | 3.0% | 0hPa | 2.6V | 00:00:00 | 00:00:00 | 00:00:00 | |
| OE5MMP-10 | 2026-09-04 12:53:47 | 49.16554 | 18.01107 | 59° | 24km/h | 27131m | -30.8m/s | -47.0°C | 3.0% | 0hPa | 2.6V | 00:00:00 | 02:11:50 | 00:00:00 | |
| DO3MHA-11 | 2026-09-04 12:53:44 | 49.16546 | 18.01084 | 65° | 22km/h | 27218m | -27.4m/s | -47.1°C | 3.0% | 0hPa | 2.6V | 00:00:00 | 02:11:47 | 00:00:00 | |
| OE5WHR-10 | 2026-09-04 12:53:43 | 49.16543 | 18.01075 | 66° | 16km/h | 27246m | -28.2m/s | -47.1°C | 3.0% | 0hPa | 2.6V | 00:00:00 | 00:00:00 | 00:00:00 | |
| PETON7-10 | 2026-09-04 12:53:42 | 49.16540 | 18.01065 | 68° | 16km/h | 27274m | -27.5m/s | -47.1°C | 3.1% | 0hPa | 2.6V | 08:27:00 | 00:00:00 | 00:00:00 | |
| POL2MAQ | 2026-09-04 12:53:38 | 49.16535 | 18.01031 | 94° | 16km/h | 27385m | -28.3m/s | -46.9°C | 0.7% | 0hPa | 2.6V | 08:28:00 | 00:00:00 | 00:00:00 | |
| OE5MMP-10 | 2026-09-04 12:53:36 | 49.16537 | 18.01021 | 125° | 15km/h | 27441m | -27.5m/s | -46.7°C | 3.0% | 0hPa | 2.6V | 00:00:00 | 02:11:39 | 00:00:00 | |
| OE5DXL-15 | 2026-09-04 12:53:35 | 49.16539 | 18.01018 | 147° | 11km/h | 27469m | -28.6m/s | -46.6°C | 2.9% | 0hPa | 2.6V | 00:00:00 | 00:00:00 | 00:00:00 | |
| DO3MHA-11 | 2026-09-04 12:53:34 | 49.16541 | 18.01016 | 161° | 15km/h | 27498m | -27.9m/s | -46.7°C | 3.0% | 0hPa | 2.6V | 00:00:00 | 02:11:37 | 00:00:00 | |
| OE5DRO-10 | 2026-09-04 12:53:32 | 49.16548 | 18.01015 | 194° | 13km/h | 27555m | -28.2m/s | -46.6°C | 3.0% | 0hPa | 2.6V | 00:00:00 | 00:00:00 | 00:00:00 | |
| OK1HGA | 2026-09-04 12:53:31 | 49.16548 | 18.01015 | 194° | 15km/h | 27555m | -28.3m/s | 0°C | 0% | 0hPa | 2.7V | 00:00:00 | 00:00:00 | 00:00:00 | |
| SP3WXH-11 | 2026-09-04 12:53:29 | 49.16558 | 18.01023 | 221° | 15km/h | 27645m | -31.0m/s | -46.8°C | 0.6% | -1.0hPa | 2.7V | 00:00:00 | 00:00:00 | 00:00:00 | |
| PETON7-10 | 2026-09-04 12:53:27 | 49.16563 | 18.01031 | 229° | 11km/h | 27705m | -28.5m/s | -46.6°C | 3.0% | 0hPa | 2.7V | 00:00:00 | 00:00:00 | 00:00:00 | |
| GYPAP8-17 | 2026-09-04 12:53:26 | 49.16563 | 18.01031 | 229° | 15km/h | 27705m | -28.6m/s | -46.6°C | 0.6% | 0hPa | 2.7V | 00:00:00 | 00:00:00 | 00:00:00 | |
| DO3MHA-11 | 2026-09-04 12:53:24 | 49.16568 | 18.01044 | 246° | 11km/h | 27793m | -29.3m/s | -46.2°C | 2.9% | 0hPa | 2.7V | 00:00:00 | 02:11:27 | 00:00:00 | |
| OE3OSB-13 | 2026-09-04 12:53:21 | 49.16568 | 18.01050 | 352° | 2km/h | 27883m | -30.1m/s | -46.2°C | 0.5% | -1.0hPa | 2.6V | 00:00:00 | 00:00:00 | 00:00:00 | |
| POL2MAQ | 2026-09-04 12:53:17 | 49.16563 | 18.01044 | 50° | 13km/h | 27975m | -30.5m/s | -46.4°C | 0.7% | 0hPa | 2.6V | 08:28:00 | 00:00:00 | 00:00:00 | |
| DO3MHA-11 | 2026-09-04 12:53:14 | 49.16554 | 18.01026 | 54° | 7km/h | 28101m | -32.2m/s | -45.7°C | 2.9% | 0hPa | 2.6V | 00:00:00 | 02:11:17 | 00:00:00 | |
| OE5MMP-10 | 2026-09-04 12:53:13 | 49.16552 | 18.01022 | 55° | 7km/h | 28134m | -33.7m/s | -45.6°C | 2.8% | 0hPa | 2.6V | 00:00:00 | 02:11:16 | 00:00:00 | |
| PETON7-10 | 2026-09-04 12:53:12 | 49.16551 | 18.01019 | 55° | 9km/h | 28168m | -34.7m/s | -45.6°C | 2.8% | 0hPa | 2.6V | 00:00:00 | 02:11:15 | 00:00:00 | |
| OE5WHR-10 | 2026-09-04 12:53:10 | 49.16549 | 18.01016 | 16° | 11km/h | 28240m | -35.7m/s | -45.4°C | 2.7% | 0hPa | 2.6V | 00:00:00 | 02:11:13 | 00:00:00 | |
| OE5DXL-15 | 2026-09-04 12:53:05 | 49.16543 | 18.01021 | 336° | 18km/h | 28433m | -40.3m/s | -44.9°C | 2.7% | 0hPa | 2.6V | 00:00:00 | 00:00:00 | 00:00:00 | |
| DO3MHA-11 | 2026-09-04 12:53:04 | 49.16541 | 18.01021 | 13° | 13km/h | 28473m | -39.6m/s | -45.0°C | 2.7% | 0hPa | 2.6V | 00:00:00 | 02:11:07 | 00:00:00 | |
| SP3WXH-11 | 2026-09-04 12:52:58 | 49.16528 | 18.01001 | 64° | 11km/h | 28705m | -39.7m/s | -45.6°C | 0.6% | -1.0hPa | 2.6V | 00:00:00 | 00:00:00 | 00:00:00 | |
| OE3OSB-13 | 2026-09-04 12:52:50 | 49.16514 | 18.00974 | 74° | 16km/h | 29020m | -38.2m/s | -45.5°C | 0.5% | -1.0hPa | 2.6V | 00:00:00 | 00:00:00 | 00:00:00 | |
| OE5WHR-10 | 2026-09-04 12:52:49 | 49.16514 | 18.00966 | 95° | 24km/h | 29059m | -40.6m/s | -45.3°C | 2.9% | 0hPa | 2.6V | 00:00:00 | 00:00:00 | 00:00:00 | |
| DO3MHA-11 | 2026-09-04 12:52:44 | 49.16523 | 18.00917 | 111° | 22km/h | 29260m | -40.5m/s | -44.8°C | 2.8% | 0hPa | 2.5V | 00:00:00 | 02:10:47 | 00:00:00 | |
| PETON7-10 | 2026-09-04 12:52:42 | 49.16526 | 18.00898 | 98° | 22km/h | 29345m | -45.0m/s | -44.4°C | 2.7% | 0hPa | 2.5V | 00:00:00 | 00:00:00 | 00:00:00 | |
| OK1SLM-15 | 2026-09-04 12:52:41 | 49.16526 | 18.00898 | 98° | 22km/h | 29345m | -45.1m/s | -44.4°C | 0.6% | 0hPa | 2.5V | 00:00:00 | 00:00:00 | 00:00:00 | |
| POL2MAQ | 2026-09-04 12:52:35 | 49.16523 | 18.00841 | 78° | 22km/h | 29656m | -42.6m/s | -44.2°C | 0.5% | 0hPa | 2.5V | 08:29:00 | 00:00:00 | 00:00:00 | |
| DO3MHA-11 | 2026-09-04 12:52:34 | 49.16521 | 18.00833 | 68° | 22km/h | 29698m | -44.0m/s | -44.0°C | 2.7% | 0hPa | 2.5V | 00:00:00 | 02:10:37 | 00:00:00 | |
| OE5MMP-10 | 2026-09-04 12:52:32 | 49.16516 | 18.00819 | 60° | 22km/h | 29786m | -44.8m/s | -44.1°C | 2.8% | 0hPa | 2.5V | 00:00:00 | 02:10:35 | 00:00:00 | |
| PG1ADW-2 | 2026-09-04 12:52:29 | 49.16508 | 18.00795 | 75° | 20km/h | 29914m | -42.7m/s | -44.1°C | 2.8% | 0hPa | 2.5V | 08:28:00 | 00:00:00 | 00:00:00 | |
| DO3MHA-11 | 2026-09-04 12:52:24 | 49.16508 | 18.00752 | 103° | 13km/h | 30124m | -42.7m/s | -43.6°C | 2.9% | 0hPa | 2.5V | 08:28:00 | 02:10:27 | 00:00:00 | |
| OE5MMP-10 | 2026-09-04 12:52:22 | 49.16509 | 18.00742 | 69° | 15km/h | 30212m | -46.0m/s | -43.3°C | 2.8% | 0hPa | 2.6V | 00:00:00 | 02:10:25 | 00:00:00 | |
| GYPAP8-17 | 2026-09-04 12:52:19 | 49.16505 | 18.00737 | 25° | 9km/h | 30302m | -44.2m/s | -42.9°C | 0.5% | 0hPa | 2.7V | 00:00:00 | 00:00:00 | 00:00:00 | |
| OE5DRO-10 | 2026-09-04 12:52:16 | 49.16494 | 18.00729 | 48° | 16km/h | 30481m | -45.6m/s | -41.8°C | 2.6% | 0hPa | 2.7V | 00:00:00 | 00:00:00 | 00:00:00 | |
| DO3MHA-11 | 2026-09-04 12:52:14 | 49.16490 | 18.00718 | 74° | 22km/h | 30574m | -47.0m/s | -41.4°C | 2.5% | 0hPa | 2.7V | 00:00:00 | 02:10:17 | 00:00:00 | |
| POL2MAQ | 2026-09-04 12:52:13 | 49.16490 | 18.00718 | 75° | 16km/h | 30574m | -47.0m/s | -41.4°C | 0.5% | 0hPa | 2.7V | 08:29:00 | 00:00:00 | 00:00:00 | |
| OE5MMP-10 | 2026-09-04 12:52:12 | 49.16488 | 18.00702 | 85° | 20km/h | 30667m | -46.7m/s | -41.1°C | 2.4% | 0hPa | 2.7V | 00:00:00 | 02:10:15 | 00:00:00 | |
| PG1ADW-2 | 2026-09-04 12:52:09 | 49.16486 | 18.00675 | 90° | 18km/h | 30808m | -49.4m/s | -40.5°C | 2.3% | 0hPa | 2.7V | 00:00:00 | 02:10:12 | 00:00:00 | |
| OE5WHR-10 | 2026-09-04 12:52:07 | 49.16487 | 18.00657 | 97° | 16km/h | 30904m | -49.8m/s | -40.0°C | 2.3% | 0hPa | 2.7V | 00:00:00 | 02:10:10 | 00:00:00 | |
| OE5DXL-15 | 2026-09-04 12:52:05 | 49.16489 | 18.00644 | 115° | 18km/h | 31005m | -49.6m/s | -39.4°C | 2.2% | 0hPa | 2.7V | 00:00:00 | 00:00:00 | 00:00:00 | |
| DO3MHA-11 | 2026-09-04 12:52:04 | 49.16490 | 18.00639 | 112° | 11km/h | 31053m | -47.6m/s | -39.2°C | 2.1% | 0hPa | 2.7V | 00:00:00 | 02:10:07 | 00:00:00 | |
| SP3WXH-11 | 2026-09-04 12:51:57 | 49.16479 | 18.00619 | 35° | 16km/h | 31414m | -44.2m/s | -38.6°C | 0.3% | -1.0hPa | 2.7V | 00:00:00 | 00:00:00 | 00:00:00 | |
| OE3OSB-13 | 2026-09-04 12:51:48 | 49.16450 | 18.00559 | 49° | 22km/h | 31814m | -52.1m/s | -37.7°C | 0.3% | -1.0hPa | 2.7V | 00:00:00 | 00:00:00 | 00:00:00 | |
| DO3MHA-11 | 2026-09-04 12:51:44 | 49.16432 | 18.00538 | 22° | 22km/h | 32017m | -50.0m/s | -37.2°C | 1.9% | 0hPa | 2.7V | 00:00:00 | 02:09:47 | 00:00:00 | |
| OE5MMP-10 | 2026-09-04 12:51:42 | 49.16422 | 18.00532 | 26° | 20km/h | 32117m | -51.0m/s | -37.5°C | 1.9% | 0hPa | 2.7V | 00:00:00 | 02:09:45 | 00:00:00 | |
| PETON7-10 | 2026-09-04 12:51:41 | 49.16417 | 18.00528 | 33° | 18km/h | 32169m | -53.7m/s | -37.6°C | 1.9% | 0hPa | 2.7V | 00:00:00 | 02:09:44 | 00:00:00 | |
| OK1SLM-15 | 2026-09-04 12:51:39 | 49.16413 | 18.00524 | 38° | 16km/h | 32223m | -53.7m/s | -37.8°C | 0.3% | 0hPa | 2.7V | 00:00:00 | 00:00:00 | 00:00:00 | |
| OE5DRO-10 | 2026-09-04 12:51:38 | 49.16409 | 18.00513 | 78° | 16km/h | 32333m | -56.4m/s | -37.8°C | 2.0% | 0hPa | 2.7V | 00:00:00 | 00:00:00 | 08:30:00 | |
| OE5DXL-15 | 2026-09-04 12:51:35 | 49.16407 | 18.00486 | 88° | 15km/h | 32505m | -57.5m/s | -37.8°C | 2.0% | 0hPa | 2.6V | 00:00:00 | 00:00:00 | 00:00:00 | |
| DO3MHA-11 | 2026-09-04 12:51:34 | 49.16407 | 18.00477 | 86° | 18km/h | 32563m | -58.0m/s | -37.5°C | 1.9% | 0hPa | 2.6V | 00:00:00 | 02:09:37 | 00:00:00 | |
| OK1SLM-15 | 2026-09-04 12:51:33 | 49.16406 | 18.00477 | 87° | 20km/h | 32563m | -58.0m/s | -37.5°C | 0.3% | 0hPa | 2.6V | 00:00:00 | 00:00:00 | 00:00:00 | |
| POL2MAQ | 2026-09-04 12:51:32 | 49.16404 | 18.00463 | 65° | 18km/h | 32677m | -56.5m/s | -37.2°C | 0.3% | 0hPa | 2.6V | 00:00:00 | 00:00:00 | 00:00:00 | |
| PG1ADW-2 | 2026-09-04 12:51:29 | 49.16396 | 18.00451 | 16° | 13km/h | 32843m | -56.7m/s | -37.3°C | 1.9% | 0hPa | 2.6V | 00:00:00 | 00:00:00 | 00:00:00 | |
| OK1SLM-15 | 2026-09-04 12:51:28 | 49.16396 | 18.00451 | 16° | 15km/h | 32843m | -56.8m/s | -37.4°C | 0.3% | 0hPa | 2.6V | 00:00:00 | 00:00:00 | 00:00:00 | |
| PETON7-10 | 2026-09-04 12:51:26 | 49.16388 | 18.00445 | 26° | 15km/h | 33006m | -51.4m/s | -37.3°C | 2.0% | 0hPa | 2.6V | 00:00:00 | 00:00:00 | 08:30:00 | |
| SP3WXH-11 | 2026-09-04 12:51:25 | 49.16387 | 18.00444 | 58° | 4km/h | 33055m | -49.3m/s | -37.4°C | 0.3% | -1.0hPa | 2.7V | 00:00:00 | 00:00:00 | 00:00:00 | |
| NBG1-10 | 2026-09-04 12:51:21 | 49.16390 | 18.00429 | 110° | 27km/h | 33244m | -46.7m/s | -36.9°C | 2.0% | 0hPa | 2.7V | 00:00:00 | 02:09:24 | 00:00:00 | |
| OE5DRO-10 | 2026-09-04 12:51:19 | 49.16390 | 18.00417 | 75° | 20km/h | 33340m | -49.2m/s | -36.5°C | 1.9% | 0hPa | 2.7V | 00:00:00 | 00:00:00 | 00:00:00 | |
| OE3OSB-13 | 2026-09-04 12:51:18 | 49.16385 | 18.00403 | 54° | 22km/h | 33442m | -53.2m/s | -36.6°C | 0.3% | -1.0hPa | 2.7V | 00:00:00 | 00:00:00 | 00:00:00 | |
| GYPAP8-17 | 2026-09-04 12:51:15 | 49.16382 | 18.00396 | 53° | 22km/h | 33494m | -51.8m/s | -36.6°C | 0.3% | 0hPa | 2.7V | 00:00:00 | 00:00:00 | 00:00:00 | |
| DO3MHA-11 | 2026-09-04 12:51:12 | 49.16376 | 18.00374 | 94° | 16km/h | 33707m | -50.1m/s | -36.0°C | 1.9% | 0hPa | 2.7V | 00:00:00 | 02:09:15 | 00:00:00 | |
| PETON7-10 | 2026-09-04 12:51:11 | 49.16377 | 18.00369 | 122° | 26km/h | 33758m | -51.1m/s | -35.7°C | 1.8% | 0hPa | 2.7V | 00:00:00 | 00:00:00 | 00:00:00 | |
| POL2MAQ | 2026-09-04 12:51:10 | 49.16377 | 18.00369 | 123° | 13km/h | 33758m | -51.1m/s | -35.7°C | 0.3% | 0hPa | 2.7V | 00:00:00 | 00:00:00 | 00:00:00 | |
| PG1ADW-2 | 2026-09-04 12:51:09 | 49.16382 | 18.00361 | 129° | 31km/h | 33859m | -50.5m/s | -35.2°C | 1.8% | 0hPa | 2.7V | 00:00:00 | 00:00:00 | 00:00:00 | |
| OE5DXL-15 | 2026-09-04 12:51:05 | 49.16385 | 18.00341 | 68° | 29km/h | 34051m | -45.3m/s | -34.6°C | 1.8% | 0hPa | 2.7V | 00:00:00 | 00:00:00 | 08:30:00 | |
| SP3WXH-11 | 2026-09-04 12:50:54 | 49.16322 | 18.00236 | 62° | 35km/h | 34525m | -46.5m/s | -32.8°C | 0.2% | -1.0hPa | 2.6V | 00:00:00 | 00:00:00 | 00:00:00 | |
| OE3OSB-13 | 2026-09-04 12:50:46 | 49.16280 | 18.00142 | 77° | 18km/h | 34906m | -61.9m/s | -32.7°C | 0.2% | -1.0hPa | 2.6V | 00:00:00 | 00:00:00 | 00:00:00 | |
| PETON7-10 | 2026-09-04 12:50:41 | 49.16277 | 18.00108 | 82° | 24km/h | 35116m | -19.7m/s | -33.0°C | 1.6% | 0hPa | 2.6V | 00:00:00 | 00:00:00 | 00:00:00 | |
| OE5DXL-15 | 2026-09-04 12:50:35 | 49.16272 | 18.00061 | 88° | 27km/h | 35099m | 6.1m/s | -33.1°C | 1.6% | 0hPa | 2.7V | 00:00:00 | 00:00:00 | 00:00:00 | |
| OK1SLM-15 | 2026-09-04 12:50:33 | 49.16271 | 18.00048 | 86° | 33km/h | 35093m | 5.6m/s | -33.1°C | 0.2% | 0hPa | 2.7V | 00:00:00 | 00:00:00 | 00:00:00 | |
| POL2MAQ | 2026-09-04 12:50:30 | 49.16264 | 18.00007 | 69° | 22km/h | 35066m | 6.1m/s | -33.1°C | 0.2% | 0hPa | 2.7V | 00:00:00 | 00:00:00 | 00:00:00 | |
| PG1ADW-2 | 2026-09-04 12:50:29 | 49.16263 | 17.99999 | 78° | 26km/h | 35060m | 5.8m/s | -33.0°C | 1.7% | 0hPa | 2.7V | 00:00:00 | 00:00:00 | 00:00:00 | |
| OK1SLM-15 | 2026-09-04 12:50:28 | 49.16263 | 17.99999 | 78° | 20km/h | 35060m | 5.9m/s | -33.1°C | 0.2% | 0hPa | 2.6V | 00:00:00 | 00:00:00 | 00:00:00 | |
| OE5MMP-10 | 2026-09-04 12:50:27 | 49.16263 | 17.99983 | 105° | 24km/h | 35046m | 7.6m/s | -33.0°C | 1.6% | 0hPa | 2.6V | 00:00:00 | 02:08:30 | 00:00:00 | |
| PETON7-10 | 2026-09-04 12:50:25 | 49.16267 | 17.99966 | 112° | 27km/h | 35033m | 5.4m/s | -33.1°C | 1.6% | 0hPa | 2.6V | 00:00:00 | 00:00:00 | 00:00:00 | |
| NBG1-10 | 2026-09-04 12:50:24 | 49.16269 | 17.99958 | 104° | 24km/h | 35027m | 6.5m/s | -33.1°C | 1.7% | 0hPa | 2.6V | 00:00:00 | 02:08:27 | 00:00:00 | |
| SP3WXH-11 | 2026-09-04 12:50:23 | 49.16269 | 17.99950 | 85° | 16km/h | 35020m | 7.8m/s | -33.1°C | 0.2% | -1.0hPa | 2.6V | 00:00:00 | 00:00:00 | 00:00:00 | |
| OE5DRO-10 | 2026-09-04 12:50:22 | 49.16268 | 17.99943 | 64° | 29km/h | 35012m | 7.0m/s | -33.0°C | 1.6% | 0hPa | 2.6V | 00:00:00 | 00:00:00 | 00:00:00 | |
| OE5MMP-10 | 2026-09-04 12:50:17 | 49.16252 | 17.99892 | 75° | 29km/h | 34979m | 5.8m/s | -33.0°C | 1.6% | 0hPa | 2.6V | 00:00:00 | 02:08:20 | 00:00:00 | |
| OE3OSB-13 | 2026-09-04 12:50:15 | 49.16244 | 17.99855 | 65° | 29km/h | 34959m | 7.8m/s | -33.2°C | 0.2% | -1.0hPa | 2.6V | 00:00:00 | 00:00:00 | 00:00:00 | |
| PETON7-10 | 2026-09-04 12:50:10 | 49.16233 | 17.99821 | 78° | 35km/h | 34934m | 7.6m/s | -33.4°C | 1.6% | 0hPa | 2.6V | 00:00:00 | 02:08:13 | 00:00:00 | |
| PG1ADW-2 | 2026-09-04 12:50:09 | 49.16232 | 17.99811 | 86° | 35km/h | 34927m | 7.6m/s | -33.4°C | 1.7% | 0hPa | 2.6V | 00:00:00 | 00:00:00 | 00:00:00 | |
| POL2MAQ | 2026-09-04 12:50:08 | 49.16233 | 17.99811 | 87° | 27km/h | 34927m | 7.7m/s | -33.4°C | 0.3% | 0hPa | 2.6V | 00:00:00 | 00:00:00 | 00:00:00 | |
| OE5MMP-10 | 2026-09-04 12:50:07 | 49.16231 | 17.99788 | 78° | 33km/h | 34914m | 5.3m/s | -33.5°C | 1.7% | 0hPa | 2.6V | 00:00:00 | 02:08:10 | 00:00:00 | |
| OE5DXL-15 | 2026-09-04 12:50:05 | 49.16224 | 17.99766 | 52° | 35km/h | 34902m | 7.9m/s | -33.5°C | 1.7% | 0hPa | 2.6V | 00:00:00 | 02:08:08 | 00:00:00 | |
| SP3WXH-11 | 2026-09-04 12:49:52 | 49.16154 | 17.99634 | 31° | 31km/h | 34815m | 6.6m/s | -33.2°C | 0% | -1.0hPa | 2.6V | 00:00:00 | 00:00:00 | 00:00:00 | |
| PG1ADW-2 | 2026-09-04 12:49:49 | 49.16134 | 17.99611 | 47° | 35km/h | 34796m | 7.3m/s | -33.0°C | 1.6% | 0hPa | 2.6V | 00:00:00 | 00:00:00 | 00:00:00 | |
| POL2MAQ | 2026-09-04 12:49:48 | 49.16133 | 17.99611 | 48° | 35km/h | 34796m | 7.4m/s | -33.1°C | 0.2% | 0hPa | 2.6V | 00:00:00 | 00:00:00 | 00:00:00 | |
| OE5DRO-10 | 2026-09-04 12:49:44 | 49.16110 | 17.99549 | 54° | 37km/h | 34762m | 8.1m/s | -33.0°C | 1.6% | 0hPa | 2.6V | 00:00:00 | 00:00:00 | 00:00:00 | |
| OK1SLM-15 | 2026-09-04 12:49:41 | 49.16096 | 17.99525 | 46° | 40km/h | 34747m | 6.0m/s | -32.8°C | 0.2% | 0hPa | 2.7V | 00:00:00 | 00:00:00 | 00:00:00 | |
| PETON7-10 | 2026-09-04 12:49:40 | 49.16083 | 17.99504 | 52° | 35km/h | 34735m | 7.4m/s | -32.8°C | 1.6% | 0hPa | 2.7V | 00:00:00 | 00:00:00 | 00:00:00 | |
| OE5MMP-10 | 2026-09-04 12:49:39 | 49.16078 | 17.99493 | 60° | 35km/h | 34727m | 7.8m/s | -32.7°C | 1.5% | 0hPa | 2.7V | 00:00:00 | 02:07:42 | 00:00:00 | |
| OK1SLM-15 | 2026-09-04 12:49:36 | 49.16072 | 17.99474 | 61° | 26km/h | 34715m | 5.4m/s | -32.8°C | 0.2% | 0hPa | 2.7V | 00:00:00 | 00:00:00 | 00:00:00 | |
| OE5DXL-15 | 2026-09-04 12:49:35 | 49.16063 | 17.99459 | 38° | 37km/h | 34701m | 8.3m/s | -32.7°C | 1.5% | 0hPa | 2.7V | 00:00:00 | 00:00:00 | 00:00:00 | |
| OE5MMP-10 | 2026-09-04 12:49:30 | 49.16022 | 17.99408 | 58° | 42km/h | 34659m | 6.6m/s | -33.2°C | 1.5% | 0hPa | 2.6V | 00:00:00 | 02:07:32 | 00:00:00 | |
| POL2MAQ | 2026-09-04 12:49:27 | 49.16016 | 17.99394 | 59° | 44km/h | 34653m | 5.6m/s | -33.3°C | 0.2% | 0hPa | 2.6V | 00:00:00 | 00:00:00 | 00:00:00 | |
| PETON7-10 | 2026-09-04 12:49:25 | 49.15995 | 17.99356 | 37° | 37km/h | 34633m | 7.0m/s | -33.1°C | 1.6% | 0hPa | 2.6V | 00:00:00 | 02:07:28 | 00:00:00 | |
| SP3WXH-11 | 2026-09-04 12:49:21 | 49.15961 | 17.99329 | 30° | 31km/h | 34606m | 7.8m/s | -32.9°C | 0.2% | -1.0hPa | 2.6V | 00:00:00 | 00:00:00 | 00:00:00 | |
| OE5MMP-10 | 2026-09-04 12:49:19 | 49.15948 | 17.99314 | 43° | 35km/h | 34592m | 6.4m/s | -32.9°C | 1.5% | 0hPa | 2.6V | 00:00:00 | 02:07:22 | 00:00:00 | |
| OE3OSB-13 | 2026-09-04 12:49:13 | 49.15903 | 17.99263 | 38° | 40km/h | 34552m | 5.0m/s | -33.1°C | 0.2% | -1.0hPa | 2.6V | 00:00:00 | 00:00:00 | 00:00:00 | |
| GYPAP8-17 | 2026-09-04 12:49:11 | 49.15895 | 17.99253 | 47° | 40km/h | 34547m | 7.1m/s | -33.2°C | 0.2% | 0hPa | 2.6V | 00:00:00 | 00:00:00 | 00:00:00 | |
| PETON7-10 | 2026-09-04 12:49:10 | 49.15885 | 17.99229 | 69° | 37km/h | 34531m | 7.4m/s | -33.5°C | 1.5% | 0hPa | 2.6V | 00:00:00 | 00:00:00 | 08:30:00 | |
| OE5MMP-10 | 2026-09-04 12:49:09 | 49.15882 | 17.99216 | 74° | 42km/h | 34524m | 6.0m/s | -33.5°C | 1.6% | 0hPa | 2.6V | 00:00:00 | 02:07:12 | 00:00:00 | |
| DO3MHA-11 | 2026-09-04 12:49:07 | 49.15877 | 17.99195 | 58° | 37km/h | 34512m | 7.5m/s | -33.6°C | 1.6% | 0hPa | 2.6V | 00:00:00 | 02:07:10 | 00:00:00 | |
| POL2MAQ | 2026-09-04 12:49:06 | 49.15877 | 17.99195 | 59° | 26km/h | 34512m | 7.5m/s | -33.6°C | 0.2% | 0hPa | 2.6V | 00:00:00 | 00:00:00 | 00:00:00 | |
| OE5DXL-15 | 2026-09-04 12:49:05 | 49.15867 | 17.99182 | 26° | 35km/h | 34497m | 6.8m/s | -33.4°C | 1.6% | 0hPa | 2.6V | 00:00:00 | 00:00:00 | 00:00:00 | |
| SP3WXH-11 | 2026-09-04 12:48:50 | 49.15769 | 17.99028 | 57° | 29km/h | 34393m | 5.3m/s | -34.2°C | 0.3% | -1.0hPa | 2.6V | 00:00:00 | 00:00:00 | 00:00:00 | |
| PG1ADW-2 | 2026-09-04 12:48:49 | 49.15765 | 17.99019 | 46° | 27km/h | 34388m | 6.4m/s | -34.2°C | 1.7% | 0hPa | 2.6V | 00:00:00 | 00:00:00 | 00:00:00 | |
| OE5DRO-10 | 2026-09-04 12:48:47 | 49.15750 | 17.99003 | 27° | 27km/h | 34373m | 7.4m/s | -34.1°C | 1.6% | 0hPa | 2.6V | 00:00:00 | 00:00:00 | 08:30:00 | |
| POL2MAQ | 2026-09-04 12:48:46 | 49.15750 | 17.99003 | 27° | 42km/h | 34373m | 7.5m/s | -34.1°C | 0.3% | 0hPa | 2.7V | 00:00:00 | 00:00:00 | 00:00:00 | |
| OK1SLM-15 | 2026-09-04 12:48:44 | 49.15729 | 17.98988 | 28° | 47km/h | 34360m | 5.1m/s | -34.2°C | 0.3% | 0hPa | 2.7V | 00:00:00 | 00:00:00 | 00:00:00 | |
| OE5MMP-10 | 2026-09-04 12:48:43 | 49.15711 | 17.98969 | 45° | 24km/h | 34348m | 7.8m/s | -33.9°C | 1.6% | 0hPa | 2.7V | 00:00:00 | 02:06:46 | 00:00:00 | |
| OE3OSB-13 | 2026-09-04 12:48:42 | 49.15706 | 17.98958 | 60° | 33km/h | 34340m | 7.8m/s | -33.9°C | 0.2% | -1.0hPa | 2.7V | 00:00:00 | 00:00:00 | 00:00:00 | |
| PETON7-10 | 2026-09-04 12:48:40 | 49.15702 | 17.98937 | 87° | 22km/h | 34326m | 6.6m/s | -33.9°C | 1.6% | 0hPa | 2.7V | 00:00:00 | 02:06:43 | 00:00:00 | |
| OK1SLM-15 | 2026-09-04 12:48:39 | 49.15702 | 17.98937 | 87° | 24km/h | 34326m | 6.6m/s | -33.9°C | 0.2% | 0hPa | 2.7V | 00:00:00 | 00:00:00 | 00:00:00 | |
| OE5DXL-15 | 2026-09-04 12:48:35 | 49.15695 | 17.98916 | 13° | 22km/h | 34292m | 6.4m/s | -33.6°C | 1.6% | 0hPa | 2.7V | 00:00:00 | 00:00:00 | 00:00:00 | |
| DO3MHA-11 | 2026-09-04 12:48:34 | 49.15692 | 17.98915 | 22° | 26km/h | 34285m | 7.6m/s | -33.6°C | 1.5% | 0hPa | 2.7V | 00:00:00 | 02:06:37 | 00:00:00 | |
| OE5MMP-10 | 2026-09-04 12:48:33 | 49.15689 | 17.98912 | 36° | 27km/h | 34278m | 6.9m/s | -33.6°C | 1.6% | 0hPa | 2.7V | 00:00:00 | 02:06:36 | 00:00:00 | |
| OE5DRO-10 | 2026-09-04 12:48:28 | 49.15662 | 17.98880 | 34° | 24km/h | 34245m | 6.9m/s | -34.0°C | 1.6% | 0hPa | 2.7V | 00:00:00 | 00:00:00 | 00:00:00 | |
| POL2MAQ | 2026-09-04 12:48:26 | 49.15656 | 17.98873 | 41° | 33km/h | 34239m | 5.6m/s | -34.2°C | 0.3% | 0hPa | 2.7V | 00:00:00 | 00:00:00 | 00:00:00 | |
| PETON7-10 | 2026-09-04 12:48:25 | 49.15647 | 17.98855 | 74° | 22km/h | 34227m | 6.7m/s | -34.4°C | 1.6% | 0hPa | 2.7V | 00:00:00 | 00:00:00 | 00:00:00 | |
| DO3MHA-11 | 2026-09-04 12:48:24 | 49.15647 | 17.98845 | 96° | 20km/h | 34219m | 8.7m/s | -34.5°C | 1.7% | 0hPa | 2.7V | 00:00:00 | 02:06:27 | 00:00:00 | |
| OE5MMP-10 | 2026-09-04 12:48:21 | 49.15658 | 17.98822 | 156° | 24km/h | 34199m | 5.1m/s | -34.5°C | 1.7% | 0hPa | 2.7V | 00:00:00 | 02:06:24 | 00:00:00 | |
| SP3WXH-11 | 2026-09-04 12:48:19 | 49.15665 | 17.98824 | 312° | 9km/h | 34179m | 6.7m/s | -34.8°C | 0.3% | -1.0hPa | 2.7V | 00:00:00 | 00:00:00 | 00:00:00 | |
| DO3MHA-11 | 2026-09-04 12:48:14 | 49.15647 | 17.98820 | 50° | 16km/h | 34153m | 6.4m/s | -34.7°C | 1.7% | 0hPa | 2.7V | 00:00:00 | 02:06:17 | 00:00:00 | |
| OE3OSB-13 | 2026-09-04 12:48:11 | 49.15646 | 17.98795 | 115° | 22km/h | 34133m | 6.9m/s | -34.8°C | 0.2% | -1.0hPa | 2.7V | 00:00:00 | 00:00:00 | 00:00:00 | |
| OE5DRO-10 | 2026-09-04 12:48:09 | 49.15653 | 17.98783 | 151° | 11km/h | 34119m | 7.6m/s | -34.7°C | 1.6% | 0hPa | 2.7V | 00:00:00 | 00:00:00 | 00:00:00 | |
| OE5MMP-10 | 2026-09-04 12:48:07 | 49.15660 | 17.98780 | 189° | 9km/h | 34104m | 6.4m/s | -34.8°C | 1.6% | 0hPa | 2.7V | 00:00:00 | 02:06:10 | 08:30:00 | |
| POL2MAQ | 2026-09-04 12:48:06 | 49.15660 | 17.98780 | 190° | 9km/h | 34104m | 6.5m/s | -34.9°C | 0.3% | 0hPa | 2.6V | 00:00:00 | 00:00:00 | 00:00:00 | |
| OE5DXL-15 | 2026-09-04 12:48:05 | 49.15661 | 17.98781 | 26° | 16km/h | 34092m | 6.3m/s | -35.0°C | 1.7% | 0hPa | 2.6V | 00:00:00 | 00:00:00 | 00:00:00 | |
| DO3MHA-11 | 2026-09-04 12:48:04 | 49.15660 | 17.98779 | 50° | 13km/h | 34085m | 7.2m/s | -35.0°C | 1.7% | 0hPa | 2.6V | 00:00:00 | 02:06:07 | 00:00:00 | |
| SP3WXH-11 | 2026-09-04 12:47:48 | 49.15648 | 17.98710 | 88° | 15km/h | 33974m | 5.4m/s | -35.4°C | 0.3% | -1.0hPa | 2.7V | 00:00:00 | 00:00:00 | 00:00:00 | |
| OK1SLM-15 | 2026-09-04 12:47:46 | 49.15649 | 17.98710 | 89° | 15km/h | 33974m | 5.4m/s | -35.4°C | 0.3% | 0hPa | 2.7V | 00:00:00 | 00:00:00 | 00:00:00 | |
| OE5MMP-10 | 2026-09-04 12:47:45 | 49.15652 | 17.98695 | 121° | 29km/h | 33959m | 9.1m/s | -35.6°C | 1.7% | 0hPa | 2.7V | 00:00:00 | 02:05:48 | 00:00:00 | |
| DO3MHA-11 | 2026-09-04 12:47:44 | 49.15656 | 17.98686 | 128° | 26km/h | 33951m | 7.0m/s | -35.7°C | 1.7% | 0hPa | 2.7V | 00:00:00 | 02:05:47 | 00:00:00 | |
| OE3OSB-13 | 2026-09-04 12:47:40 | 49.15670 | 17.98655 | 86° | 13km/h | 33925m | 7.2m/s | -35.8°C | 0.3% | -1.0hPa | 2.7V | 00:00:00 | 00:00:00 | 00:00:00 | |
| DO3MHA-11 | 2026-09-04 12:47:35 | 49.15649 | 17.98604 | 68° | 24km/h | 33883m | 5.9m/s | -35.9°C | 1.8% | 0hPa | 2.7V | 00:00:00 | 02:05:37 | 08:30:00 | |
| OE5DRO-10 | 2026-09-04 12:47:31 | 49.15645 | 17.98578 | 95° | 24km/h | 33862m | 6.2m/s | -35.7°C | 1.8% | 0hPa | 2.7V | 00:00:00 | 00:00:00 | 00:00:00 | |
| PG1ADW-2 | 2026-09-04 12:47:29 | 49.15649 | 17.98565 | 125° | 24km/h | 33850m | 6.5m/s | -35.7°C | 1.8% | 0hPa | 2.7V | 00:00:00 | 00:00:00 | 00:00:00 | |
| NBG1-10 | 2026-09-04 12:47:26 | 49.15659 | 17.98537 | 107° | 20km/h | 33829m | 5.2m/s | -35.7°C | 1.8% | 0hPa | 2.6V | 00:00:00 | 02:05:29 | 00:00:00 | |
| OE5MMP-10 | 2026-09-04 12:47:25 | 49.15660 | 17.98526 | 93° | 18km/h | 33824m | 4.8m/s | -35.8°C | 1.7% | 0hPa | 2.7V | 00:00:00 | 02:05:28 | 00:00:00 | |
| DO3MHA-11 | 2026-09-04 12:47:24 | 49.15659 | 17.98517 | 73° | 20km/h | 33818m | 6.2m/s | -35.7°C | 1.8% | 0hPa | 2.7V | 00:00:00 | 02:05:27 | 00:00:00 | |
| SP3WXH-11 | 2026-09-04 12:47:17 | 49.15638 | 17.98496 | 100° | 27km/h | 33765m | 7.7m/s | -36.3°C | 0.3% | -1.0hPa | 2.7V | 00:00:00 | 00:00:00 | 00:00:00 | |
| OE5MMP-10 | 2026-09-04 12:47:15 | 49.15639 | 17.98484 | 99° | 31km/h | 33757m | 6.9m/s | -36.5°C | 1.8% | 0hPa | 2.7V | 00:00:00 | 02:05:18 | 00:00:00 | |
| DO3MHA-11 | 2026-09-04 12:47:14 | 49.15640 | 17.98469 | 93° | 26km/h | 33751m | 5.6m/s | -36.6°C | 1.8% | 0hPa | 2.7V | 00:00:00 | 02:05:17 | 00:00:00 | |
| OE5DRO-10 | 2026-09-04 12:47:12 | 49.15637 | 17.98443 | 67° | 20km/h | 33741m | 5.3m/s | -36.8°C | 1.8% | 0hPa | 2.7V | 00:00:00 | 00:00:00 | 00:00:00 | |
| PETON7-10 | 2026-09-04 12:47:10 | 49.15630 | 17.98433 | 2° | 20km/h | 33727m | 8.4m/s | -36.7°C | 1.9% | 0hPa | 2.7V | 00:00:00 | 02:05:13 | 00:00:00 | |
| PG1ADW-2 | 2026-09-04 12:47:09 | 49.15626 | 17.98436 | 323° | 20km/h | 33718m | 8.5m/s | -36.6°C | 1.8% | 0hPa | 2.7V | 00:00:00 | 00:00:00 | 00:00:00 | |
| OE5DXL-15 | 2026-09-04 12:47:05 | 49.15610 | 17.98464 | 334° | 18km/h | 33691m | 6.4m/s | -36.6°C | 1.9% | 0hPa | 2.7V | 00:00:00 | 00:00:00 | 00:00:00 | |
| DO3MHA-11 | 2026-09-04 12:47:04 | 49.15604 | 17.98467 | 358° | 18km/h | 33684m | 7.0m/s | -36.5°C | 1.8% | 0hPa | 2.7V | 00:00:00 | 02:05:07 | 00:00:00 | |
| SP3WXH-11 | 2026-09-04 12:46:46 | 49.15556 | 17.98392 | 84° | 31km/h | 33555m | 5.7m/s | -36.7°C | 0.3% | -1.0hPa | 2.7V | 00:00:00 | 00:00:00 | 00:00:00 | |
| OE5MMP-10 | 2026-09-04 12:46:44 | 49.15556 | 17.98381 | 93° | 15km/h | 33548m | 7.1m/s | -36.7°C | 1.9% | 0hPa | 2.7V | 00:00:00 | 02:04:47 | 00:00:00 | |
| POL2MAQ | 2026-09-04 12:46:43 | 49.15556 | 17.98381 | 94° | 27km/h | 33548m | 7.2m/s | -36.8°C | 0.3% | 0hPa | 2.7V | 00:00:00 | 00:00:00 | 00:00:00 | |
| OK1SLM-15 | 2026-09-04 12:46:42 | 49.15557 | 17.98372 | 106° | 22km/h | 33540m | 8.8m/s | -36.8°C | 0.3% | 0hPa | 2.7V | 00:00:00 | 00:00:00 | 00:00:00 | |
| PETON7-10 | 2026-09-04 12:46:40 | 49.15562 | 17.98358 | 129° | 22km/h | 33520m | 6.9m/s | -36.5°C | 1.8% | 0hPa | 2.7V | 00:00:00 | 00:00:00 | 00:00:00 | |
| HA6NAB-11 | 2026-09-04 12:46:39 | 49.15562 | 17.98358 | 130° | 7km/h | 33520m | 7.0m/s | -36.5°C | 0.3% | 0hPa | 2.7V | 00:00:00 | 00:00:00 | 00:00:00 | |
| OE3OSB-13 | 2026-09-04 12:46:38 | 49.15560 | 17.98350 | 34° | 13km/h | 33498m | 5.9m/s | -36.7°C | 0.3% | -1.0hPa | 2.7V | 00:00:00 | 00:00:00 | 00:00:00 | |
| OE5DXL-15 | 2026-09-04 12:46:35 | 49.15554 | 17.98344 | 35° | 20km/h | 33485m | 8.1m/s | -36.7°C | 1.8% | 0hPa | 2.7V | 00:00:00 | 00:00:00 | 08:30:00 | |
| DO3MHA-11 | 2026-09-04 12:46:34 | 49.15551 | 17.98340 | 50° | 31km/h | 33477m | 6.1m/s | -36.6°C | 1.9% | 0hPa | 2.7V | 00:00:00 | 02:04:37 | 00:00:00 | |
| NBG1-10 | 2026-09-04 12:46:33 | 49.15545 | 17.98325 | 70° | 22km/h | 33466m | 6.6m/s | -36.8°C | 1.9% | 0hPa | 2.6V | 00:00:00 | 02:04:35 | 00:00:00 | |
| PG1ADW-2 | 2026-09-04 12:46:27 | 49.15538 | 17.98256 | 98° | 18km/h | 33431m | 8.4m/s | -36.7°C | 1.9% | 0hPa | 2.6V | 00:00:00 | 00:00:00 | 08:30:00 | |
| PETON7-10 | 2026-09-04 12:46:25 | 49.15542 | 17.98241 | 129° | 20km/h | 33416m | 6.0m/s | -36.6°C | 1.8% | 0hPa | 2.7V | 00:00:00 | 02:04:28 | 00:00:00 | |
| SP3BTT-10 | 2026-09-04 12:46:24 | 49.15543 | 17.98238 | 125° | 22km/h | 33410m | 5.3m/s | 0°C | 0% | 0hPa | 2.7V | 00:00:00 | 00:00:00 | 00:00:00 | |
| OE5MMP-10 | 2026-09-04 12:46:23 | 49.15544 | 17.98234 | 100° | 22km/h | 33403m | 7.6m/s | -36.6°C | 1.8% | 0hPa | 2.7V | 00:00:00 | 02:04:26 | 00:00:00 | |
| HA6NAB-11 | 2026-09-04 12:46:22 | 49.15545 | 17.98234 | 100° | 9km/h | 33403m | 7.6m/s | -36.6°C | 0.3% | 0hPa | 2.7V | 00:00:00 | 00:00:00 | 00:00:00 | |
| HA6NAB-11 | 2026-09-04 12:46:16 | 49.15535 | 17.98191 | 87° | 26km/h | 33361m | 7.0m/s | -36.7°C | 0.3% | 0hPa | 2.7V | 00:00:00 | 00:00:00 | 00:00:00 | |
| SP3WXH-11 | 2026-09-04 12:46:15 | 49.15534 | 17.98159 | 80° | 27km/h | 33339m | 7.0m/s | -36.6°C | 0.3% | -1.0hPa | 2.7V | 00:00:00 | 00:00:00 | 00:00:00 | |
| DO3MHA-11 | 2026-09-04 12:46:14 | 49.15534 | 17.98159 | 81° | 18km/h | 33339m | 7.0m/s | -36.5°C | 1.8% | 0hPa | 2.7V | 00:00:00 | 02:04:17 | 00:00:00 | |
| OE3JTB-15 | 2026-09-04 12:46:13 | 49.15531 | 17.98132 | 115° | 18km/h | 33314m | 8.6m/s | -36.6°C | 1.8% | 0hPa | 2.7V | 00:00:00 | 00:00:00 | 00:00:00 | |
| PETON7-10 | 2026-09-04 12:46:10 | 49.15531 | 17.98132 | 115° | 16km/h | 33314m | 8.6m/s | -36.6°C | 1.8% | 0hPa | 2.7V | 00:00:00 | 00:00:00 | 00:00:00 | |
| OE3OSB-13 | 2026-09-04 12:46:07 | 49.15531 | 17.98128 | 52° | 13km/h | 33290m | 7.2m/s | -37.0°C | 0.3% | -1.0hPa | 2.6V | 00:00:00 | 00:00:00 | 00:00:00 | |
| OE5DXL-15 | 2026-09-04 12:46:05 | 49.15528 | 17.98123 | 54° | 20km/h | 33282m | 8.3m/s | -37.0°C | 1.9% | 0hPa | 2.6V | 00:00:00 | 00:00:00 | 00:00:00 | |
| OE5MMP-10 | 2026-09-04 12:46:03 | 49.15520 | 17.98104 | 57° | 22km/h | 33267m | 6.4m/s | -37.0°C | 1.9% | 0hPa | 2.6V | 00:00:00 | 02:04:06 | 00:00:00 | |
| POL2MAQ | 2026-09-04 12:46:02 | 49.15520 | 17.98104 | 58° | 35km/h | 33267m | 6.5m/s | -37.1°C | 0.3% | 0hPa | 2.6V | 00:00:00 | 00:00:00 | 00:00:00 | |
| OE5DRO-10 | 2026-09-04 12:45:56 | 49.15493 | 17.98073 | 345° | 18km/h | 33219m | 7.0m/s | -37.2°C | 1.9% | 0hPa | 2.6V | 00:00:00 | 00:00:00 | 08:30:00 | |
| PETON7-10 | 2026-09-04 12:45:55 | 49.15488 | 17.98076 | 340° | 18km/h | 33212m | 5.8m/s | -37.3°C | 1.9% | 0hPa | 2.7V | 00:00:00 | 00:00:00 | 00:00:00 | |
| GYPAP8-17 | 2026-09-04 12:45:54 | 49.15488 | 17.98076 | 340° | 22km/h | 33212m | 5.9m/s | -37.3°C | 0.3% | 0hPa | 2.7V | 00:00:00 | 00:00:00 | 00:00:00 | |
| OE5MMP-10 | 2026-09-04 12:45:53 | 49.15479 | 17.98083 | 328° | 20km/h | 33199m | 7.6m/s | -37.1°C | 1.9% | 0hPa | 2.7V | 00:00:00 | 02:03:56 | 00:00:00 | |
| DO3MHA-11 | 2026-09-04 12:45:48 | 49.15467 | 17.98076 | 60° | 20km/h | 33165m | 8.8m/s | -37.3°C | 1.9% | 0hPa | 2.7V | 00:00:00 | 02:03:51 | 08:30:00 | |
| PG1ADW-2 | 2026-09-04 12:45:47 | 49.15463 | 17.98066 | 58° | 15km/h | 33157m | 7.8m/s | -37.4°C | 1.9% | 0hPa | 2.6V | 00:00:00 | 00:00:00 | 00:00:00 | |
| SP3WXH-11 | 2026-09-04 12:45:44 | 49.15449 | 17.98033 | 57° | 7km/h | 33132m | 8.1m/s | -37.5°C | 0.3% | -1.0hPa | 2.6V | 00:00:00 | 00:00:00 | 00:00:00 | |
| OE5MMP-10 | 2026-09-04 12:45:43 | 49.15449 | 17.98033 | 58° | 16km/h | 33132m | 8.1m/s | -37.4°C | 2.0% | 0hPa | 2.6V | 00:00:00 | 02:03:46 | 00:00:00 | |
| OK1SLM-15 | 2026-09-04 12:45:41 | 49.15448 | 17.98032 | 265° | 4km/h | 33124m | 7.1m/s | -37.5°C | 0.3% | 0hPa | 2.6V | 00:00:00 | 00:00:00 | 00:00:00 | |
| PETON7-10 | 2026-09-04 12:45:40 | 49.15447 | 17.98039 | 289° | 15km/h | 33113m | 6.6m/s | -37.4°C | 2.0% | 0hPa | 2.6V | 00:00:00 | 02:03:43 | 00:00:00 | |
| DO3MHA-11 | 2026-09-04 12:45:38 | 49.15442 | 17.98047 | 338° | 16km/h | 33098m | 6.6m/s | -37.4°C | 1.9% | 0hPa | 2.6V | 00:00:00 | 02:03:41 | 00:00:00 | |
| OE5DRO-10 | 2026-09-04 12:45:37 | 49.15438 | 17.98048 | 1° | 15km/h | 33092m | 4.5m/s | -37.4°C | 1.9% | 0hPa | 2.6V | 00:00:00 | 00:00:00 | 00:00:00 | |
| OE5DXL-15 | 2026-09-04 12:45:35 | 49.15431 | 17.98045 | 36° | 15km/h | 33080m | 7.8m/s | -37.5°C | 1.9% | 0hPa | 2.6V | 00:00:00 | 00:00:00 | 00:00:00 | |
| GYPAP8-17 | 2026-09-04 12:45:33 | 49.15428 | 17.98040 | 56° | 15km/h | 33072m | 8.4m/s | -37.5°C | 0.3% | 0hPa | 2.6V | 00:00:00 | 00:00:00 | 00:00:00 | |
| OE5MMP-10 | 2026-09-04 12:45:31 | 49.15422 | 17.98022 | 56° | 11km/h | 33052m | 8.1m/s | -37.7°C | 1.9% | 0hPa | 2.6V | 00:00:00 | 02:03:34 | 00:00:00 | |
| DO3MHA-11 | 2026-09-04 12:45:28 | 49.15413 | 17.98008 | 45° | 13km/h | 33032m | 5.4m/s | -37.5°C | 1.9% | 0hPa | 2.6V | 00:00:00 | 02:03:31 | 00:00:00 | |
| PETON7-10 | 2026-09-04 12:45:25 | 49.15414 | 17.98003 | 150° | 13km/h | 33010m | 5.8m/s | -37.6°C | 1.9% | 0hPa | 2.6V | 00:00:00 | 00:00:00 | 00:00:00 | |
| OE5MMP-10 | 2026-09-04 12:45:21 | 49.15412 | 17.97988 | 53° | 16km/h | 32983m | 6.1m/s | -37.8°C | 2.0% | 0hPa | 2.7V | 00:00:00 | 02:03:24 | 00:00:00 | |
| POL2MAQ | 2026-09-04 12:45:20 | 49.15412 | 17.97988 | 54° | 20km/h | 32983m | 6.1m/s | -37.9°C | 0.4% | 0hPa | 2.7V | 00:00:00 | 00:00:00 | 00:00:00 | |
| DO3MHA-11 | 2026-09-04 12:45:18 | 49.15404 | 17.97968 | 70° | 13km/h | 32963m | 7.9m/s | -37.7°C | 1.9% | 0hPa | 2.7V | 00:00:00 | 02:03:21 | 00:00:00 | |
| PG1ADW-2 | 2026-09-04 12:45:17 | 49.15403 | 17.97962 | 74° | 20km/h | 32956m | 6.1m/s | -37.7°C | 2.0% | 0hPa | 2.7V | 00:00:00 | 02:03:20 | 00:00:00 | |
| SP3WXH-11 | 2026-09-04 12:45:13 | 49.15394 | 17.97943 | 62° | 9km/h | 32922m | 5.7m/s | -37.7°C | 0.3% | -1.0hPa | 2.6V | 00:00:00 | 00:00:00 | 00:00:00 | |
| OE5MMP-10 | 2026-09-04 12:45:11 | 49.15393 | 17.97939 | 93° | 16km/h | 32916m | 8.3m/s | -37.7°C | 2.0% | 0hPa | 2.6V | 00:00:00 | 02:03:14 | 00:00:00 | |
| PETON7-10 | 2026-09-04 12:45:10 | 49.15394 | 17.97935 | 118° | 22km/h | 32907m | 8.4m/s | -37.6°C | 2.0% | 0hPa | 2.6V | 00:00:00 | 00:00:00 | 00:00:00 | |
| DO3MHA-11 | 2026-09-04 12:45:08 | 49.15397 | 17.97923 | 105° | 22km/h | 32896m | 4.5m/s | -37.6°C | 2.0% | 0hPa | 2.6V | 00:00:00 | 02:03:11 | 00:00:00 | |
| OE3OSB-13 | 2026-09-04 12:45:05 | 49.15392 | 17.97895 | 55° | 16km/h | 32868m | 3.7m/s | -37.8°C | 0.3% | -1.0hPa | 2.6V | 00:00:00 | 00:00:00 | 00:00:00 | |
| OE5MMP-10 | 2026-09-04 12:45:01 | 49.15390 | 17.97876 | 102° | 24km/h | 32849m | 9.5m/s | -37.6°C | 2.0% | 0hPa | 2.6V | 00:00:00 | 02:03:04 | 08:30:00 | |
| POL2MAQ | 2026-09-04 12:45:00 | 49.15390 | 17.97876 | 103° | 20km/h | 32849m | 9.5m/s | -37.6°C | 0.4% | 0hPa | 2.7V | 00:00:00 | 00:00:00 | 00:00:00 | |
| OE5DRO-10 | 2026-09-04 12:44:59 | 49.15393 | 17.97856 | 106° | 27km/h | 32836m | 5.5m/s | -37.5°C | 2.0% | 0hPa | 2.7V | 00:00:00 | 00:00:00 | 00:00:00 | |
| DO3MHA-11 | 2026-09-04 12:44:58 | 49.15395 | 17.97844 | 102° | 26km/h | 32829m | 6.9m/s | -37.5°C | 1.9% | 0hPa | 2.7V | 00:00:00 | 02:03:01 | 00:00:00 | |
| PG1ADW-2 | 2026-09-04 12:44:57 | 49.15396 | 17.97834 | 93° | 35km/h | 32822m | 7.4m/s | -37.5°C | 2.0% | 0hPa | 2.7V | 00:00:00 | 00:00:00 | 00:00:00 | |
| PETON7-10 | 2026-09-04 12:44:55 | 49.15395 | 17.97820 | 73° | 29km/h | 32809m | 6.5m/s | -37.5°C | 2.0% | 0hPa | 2.7V | 00:00:00 | 02:02:58 | 00:00:00 | |
| OE5MMP-10 | 2026-09-04 12:44:51 | 49.15388 | 17.97792 | 68° | 33km/h | 32783m | 5.5m/s | -37.6°C | 2.0% | 0hPa | 2.7V | 00:00:00 | 02:02:54 | 00:00:00 | |
| DO3MHA-11 | 2026-09-04 12:44:48 | 49.15375 | 17.97753 | 60° | 31km/h | 32761m | 8.1m/s | -37.6°C | 1.9% | 0hPa | 2.7V | 00:00:00 | 02:02:51 | 00:00:00 | |
| OE3JTB-15 | 2026-09-04 12:44:44 | 49.15380 | 17.97676 | 106° | 33km/h | 32718m | 5.0m/s | -37.5°C | 1.9% | 0hPa | 2.6V | 00:00:00 | 00:00:00 | 00:00:00 | |
| SP3WXH-11 | 2026-09-04 12:44:42 | 49.15380 | 17.97676 | 105° | 31km/h | 32718m | 5.0m/s | -37.6°C | 0.3% | -1.0hPa | 2.6V | 00:00:00 | 00:00:00 | 00:00:00 | |
| OE5MMP-10 | 2026-09-04 12:44:41 | 49.15380 | 17.97676 | 106° | 38km/h | 32718m | 5.0m/s | -37.5°C | 1.9% | 0hPa | 2.6V | 00:00:00 | 02:02:44 | 00:00:00 | |
| OK1SLM-15 | 2026-09-04 12:44:40 | 49.15381 | 17.97664 | 93° | 31km/h | 32712m | 7.2m/s | -37.7°C | 0.4% | 0hPa | 2.6V | 00:00:00 | 00:00:00 | 00:00:00 | |
| POL2MAQ | 2026-09-04 12:44:39 | 49.15381 | 17.97664 | 93° | 31km/h | 32712m | 7.2m/s | -37.7°C | 0.4% | 0hPa | 2.6V | 00:00:00 | 00:00:00 | 00:00:00 | |
| DO3MHA-11 | 2026-09-04 12:44:38 | 49.15377 | 17.97642 | 53° | 35km/h | 32695m | 6.8m/s | -37.7°C | 1.9% | 0hPa | 2.6V | 00:00:00 | 02:02:41 | 00:00:00 | |
| OK1SLM-15 | 2026-09-04 12:44:35 | 49.15358 | 17.97610 | 53° | 42km/h | 32675m | 7.4m/s | -37.6°C | 0% | 0hPa | 2.6V | 00:00:00 | 00:00:00 | 00:00:00 | |
| OE3OSB-13 | 2026-09-04 12:44:34 | 49.15348 | 17.97582 | 69° | 40km/h | 32662m | 5.8m/s | -37.5°C | 0.3% | -1.0hPa | 2.6V | 00:00:00 | 00:00:00 | 00:00:00 | |
| PG1ADW-2 | 2026-09-04 12:44:32 | 49.15345 | 17.97568 | 76° | 29km/h | 32656m | 6.9m/s | -37.4°C | 1.9% | 0hPa | 2.6V | 00:00:00 | 00:00:00 | 00:00:00 | |
| OE5MMP-10 | 2026-09-04 12:44:31 | 49.15342 | 17.97554 | 80° | 27km/h | 32648m | 8.5m/s | -37.3°C | 1.9% | 0hPa | 2.6V | 00:00:00 | 02:02:34 | 00:00:00 | |
| DO3MHA-11 | 2026-09-04 12:44:28 | 49.15341 | 17.97525 | 87° | 31km/h | 32628m | 6.9m/s | -37.3°C | 1.8% | 0hPa | 2.7V | 00:00:00 | 02:02:31 | 00:00:00 | |
| PETON7-10 | 2026-09-04 12:44:25 | 49.15338 | 17.97497 | 77° | 27km/h | 32605m | 5.6m/s | -37.6°C | 1.9% | 0hPa | 2.7V | 00:00:00 | 00:00:00 | 00:00:00 | |
| OE5MMP-10 | 2026-09-04 12:44:21 | 49.15323 | 17.97453 | 49° | 26km/h | 32575m | 6.5m/s | -37.7°C | 1.9% | 0hPa | 2.7V | 00:00:00 | 02:02:24 | 00:00:00 | |
| POL2MAQ | 2026-09-04 12:44:20 | 49.15318 | 17.97443 | 53° | 35km/h | 32569m | 5.1m/s | -37.9°C | 0.4% | 0hPa | 2.7V | 00:00:00 | 00:00:00 | 00:00:00 | |
| DO3MHA-11 | 2026-09-04 12:44:18 | 49.15309 | 17.97421 | 68° | 22km/h | 32555m | 9.2m/s | -38.0°C | 2.0% | 0hPa | 2.7V | 00:00:00 | 02:02:21 | 08:30:00 | |
| SP3BTT-10 | 2026-09-04 12:44:15 | 49.15307 | 17.97386 | 103° | 22km/h | 32535m | 5.9m/s | 0°C | 0% | 0hPa | 2.7V | 00:00:00 | 00:00:00 | 00:00:00 | |
| PG1ADW-2 | 2026-09-04 12:44:12 | 49.15308 | 17.97371 | 41° | 24km/h | 32514m | 5.0m/s | -38.4°C | 2.0% | 0hPa | 2.7V | 00:00:00 | 00:00:00 | 00:00:00 | |
| SP3WXH-11 | 2026-09-04 12:44:11 | 49.15301 | 17.97363 | 38° | 22km/h | 32501m | 8.2m/s | -38.6°C | 0.3% | -1.0hPa | 2.6V | 00:00:00 | 00:00:00 | 00:00:00 | |
| PETON7-10 | 2026-09-04 12:44:10 | 49.15301 | 17.97363 | 39° | 24km/h | 32501m | 8.1m/s | -38.5°C | 2.0% | 0hPa | 2.6V | 00:00:00 | 02:02:13 | 00:00:00 | |
| DO3MHA-11 | 2026-09-04 12:44:08 | 49.15291 | 17.97349 | 45° | 22km/h | 32486m | 5.6m/s | -38.5°C | 2.0% | 0hPa | 2.6V | 00:00:00 | 02:02:11 | 00:00:00 | |
| OE5DXL-15 | 2026-09-04 12:44:05 | 49.15275 | 17.97328 | 34° | 18km/h | 32465m | 7.8m/s | -38.5°C | 2.0% | 0hPa | 2.6V | 00:00:00 | 00:00:00 | 00:00:00 | |
| GYPAP8-17 | 2026-09-04 12:44:04 | 49.15271 | 17.97324 | 37° | 16km/h | 32458m | 6.0m/s | -38.4°C | 0.4% | 0hPa | 2.6V | 00:00:00 | 00:00:00 | 00:00:00 | |
| OE5DRO-10 | 2026-09-04 12:44:02 | 49.15265 | 17.97314 | 62° | 20km/h | 32444m | 8.0m/s | -38.2°C | 2.0% | 0hPa | 2.6V | 00:00:00 | 00:00:00 | 00:00:00 | |
| OE5MMP-10 | 2026-09-04 12:44:01 | 49.15264 | 17.97308 | 69° | 27km/h | 32436m | 8.0m/s | -38.2°C | 2.0% | 0hPa | 2.6V | 00:00:00 | 02:02:04 | 00:00:00 | |
| DO3MHA-11 | 2026-09-04 12:43:58 | 49.15255 | 17.97289 | 35° | 27km/h | 32417m | 7.3m/s | -38.2°C | 2.0% | 0hPa | 2.6V | 00:00:00 | 02:02:01 | 00:00:00 | |
| PETON7-10 | 2026-09-04 12:43:55 | 49.15236 | 17.97282 | 8° | 18km/h | 32395m | 5.8m/s | -38.2°C | 2.0% | 0hPa | 2.6V | 00:00:00 | 00:00:00 | 00:00:00 | |
| PG1ADW-2 | 2026-09-04 12:43:52 | 49.15214 | 17.97269 | 36° | 16km/h | 32375m | 6.7m/s | -38.2°C | 2.0% | 0hPa | 2.7V | 00:00:00 | 02:01:55 | 00:00:00 | |
| OE5MMP-10 | 2026-09-04 12:43:51 | 49.15208 | 17.97262 | 47° | 15km/h | 32369m | 6.0m/s | -38.3°C | 2.0% | 0hPa | 2.7V | 00:00:00 | 02:01:54 | 00:00:00 | |
| DO3MHA-11 | 2026-09-04 12:43:48 | 49.15199 | 17.97244 | 52° | 11km/h | 32348m | 7.6m/s | -38.5°C | 2.0% | 0hPa | 2.7V | 00:00:00 | 02:01:51 | 00:00:00 | |
| NBG1-10 | 2026-09-04 12:43:46 | 49.15197 | 17.97241 | 3° | 9km/h | 32335m | 5.7m/s | -38.4°C | 2.0% | 0hPa | 2.7V | 00:00:00 | 02:01:49 | 08:30:00 | |
| OE5DRO-10 | 2026-09-04 12:43:43 | 49.15195 | 17.97237 | 72° | 20km/h | 32315m | 6.8m/s | -38.2°C | 2.0% | 0hPa | 2.6V | 00:00:00 | 00:00:00 | 00:00:00 | |
| OE5MMP-10 | 2026-09-04 12:43:41 | 49.15192 | 17.97227 | 52° | 20km/h | 32302m | 5.9m/s | -38.3°C | 2.0% | 0hPa | 2.6V | 00:00:00 | 02:01:44 | 00:00:00 | |
| PETON7-10 | 2026-09-04 12:43:40 | 49.15188 | 17.97223 | 34° | 20km/h | 32295m | 6.9m/s | -38.4°C | 2.0% | 0hPa | 2.6V | 00:00:00 | 00:00:00 | 00:00:00 | |
| OK1SLM-15 | 2026-09-04 12:43:39 | 49.15188 | 17.97223 | 35° | 18km/h | 32295m | 7.0m/s | -38.4°C | 0% | 0hPa | 2.6V | 00:00:00 | 00:00:00 | 00:00:00 | |
| DO3MHA-11 | 2026-09-04 12:43:37 | 49.15173 | 17.97217 | 10° | 22km/h | 32275m | 4.8m/s | -38.4°C | 2.0% | 0hPa | 2.6V | 00:00:00 | 02:01:40 | 00:00:00 | |
| OK1SLM-15 | 2026-09-04 12:43:35 | 49.15163 | 17.97211 | 38° | 22km/h | 32262m | 7.9m/s | -38.4°C | 0% | 0hPa | 2.6V | 00:00:00 | 00:00:00 | 00:00:00 | |
| PG1ADW-2 | 2026-09-04 12:43:32 | 49.15150 | 17.97191 | 40° | 16km/h | 32245m | 4.5m/s | -38.3°C | 2.1% | 0hPa | 2.6V | 00:00:00 | 00:00:00 | 00:00:00 | |
| OE5MMP-10 | 2026-09-04 12:43:31 | 49.15145 | 17.97186 | 27° | 13km/h | 32239m | 7.5m/s | -38.3°C | 2.0% | 0hPa | 2.6V | 00:00:00 | 02:01:34 | 08:30:00 | |
| DO3MHA-11 | 2026-09-04 12:43:27 | 49.15125 | 17.97182 | 10° | 11km/h | 32213m | 6.3m/s | -38.1°C | 2.0% | 0hPa | 2.7V | 00:00:00 | 02:01:30 | 00:00:00 | |
| PETON7-10 | 2026-09-04 12:43:25 | 49.15121 | 17.97177 | 86° | 13km/h | 32197m | 7.3m/s | -38.1°C | 2.0% | 0hPa | 2.7V | 00:00:00 | 02:01:28 | 00:00:00 | |
| OE5DRO-10 | 2026-09-04 12:43:24 | 49.15121 | 17.97172 | 105° | 13km/h | 32190m | 5.7m/s | -38.1°C | 2.0% | 0hPa | 2.7V | 00:00:00 | 00:00:00 | 00:00:00 | |
| OE5MMP-10 | 2026-09-04 12:43:19 | 49.15118 | 17.97159 | 27° | 15km/h | 32157m | 6.0m/s | -37.8°C | 1.9% | 0hPa | 2.7V | 00:00:00 | 02:01:22 | 00:00:00 | |
| DO3MHA-11 | 2026-09-04 12:43:17 | 49.15112 | 17.97152 | 39° | 15km/h | 32141m | 7.7m/s | -37.8°C | 1.9% | 0hPa | 2.7V | 00:00:00 | 02:01:20 | 00:00:00 | |
| PG1ADW-2 | 2026-09-04 12:43:12 | 49.15090 | 17.97146 | 327° | 15km/h | 32108m | 5.7m/s | -37.8°C | 1.9% | 0hPa | 2.7V | 00:00:00 | 00:00:00 | 08:30:00 | |
| OE5WHR-10 | 2026-09-04 12:43:11 | 49.15088 | 17.97148 | 314° | 16km/h | 32102m | 6.2m/s | -37.8°C | 1.9% | 0hPa | 2.7V | 00:00:00 | 00:00:00 | 00:00:00 | |
| PETON7-10 | 2026-09-04 12:43:10 | 49.15088 | 17.97149 | 296° | 18km/h | 32095m | 8.4m/s | -37.8°C | 1.9% | 0hPa | 2.7V | 00:00:00 | 00:00:00 | 00:00:00 | |
| OE5MMP-10 | 2026-09-04 12:43:09 | 49.15088 | 17.97149 | 116° | 20km/h | 32087m | 8.0m/s | -37.8°C | 1.9% | 0hPa | 2.7V | 00:00:00 | 02:01:12 | 00:00:00 | |
| SP3WXH-11 | 2026-09-04 12:43:08 | 49.15089 | 17.97145 | 100° | 11km/h | 32080m | 5.8m/s | -37.8°C | 0.3% | -1.0hPa | 2.7V | 00:00:00 | 00:00:00 | 00:00:00 | |
| DO3MHA-11 | 2026-09-04 12:43:07 | 49.15088 | 17.97140 | 83° | 22km/h | 32074m | 5.4m/s | -37.8°C | 1.9% | 0hPa | 2.7V | 00:00:00 | 02:01:10 | 00:00:00 | |
| OE5DXL-15 | 2026-09-04 12:43:05 | 49.15085 | 17.97131 | 38° | 18km/h | 32060m | 7.4m/s | -37.7°C | 1.9% | 0hPa | 2.7V | 00:00:00 | 00:00:00 | 00:00:00 | |
| OE3OSB-13 | 2026-09-04 12:43:00 | 49.15056 | 17.97104 | 33° | 26km/h | 32026m | 5.8m/s | -37.9°C | 0.3% | -1.0hPa | 2.7V | 00:00:00 | 00:00:00 | 00:00:00 | |
| OE5MMP-10 | 2026-09-04 12:42:59 | 49.15051 | 17.97099 | 27° | 15km/h | 32020m | 6.0m/s | -37.9°C | 2.0% | 0hPa | 2.7V | 00:00:00 | 02:01:02 | 00:00:00 | |
| DO3MHA-11 | 2026-09-04 12:42:57 | 49.15042 | 17.97096 | 352° | 18km/h | 32006m | 7.6m/s | -37.9°C | 2.0% | 0hPa | 2.7V | 00:00:00 | 02:01:00 | 00:00:00 | |
| PETON7-10 | 2026-09-04 12:42:55 | 49.15038 | 17.97099 | 315° | 16km/h | 31993m | 6.0m/s | -38.1°C | 1.9% | 0hPa | 2.7V | 00:00:00 | 00:00:00 | 00:00:00 | |
| PG1ADW-2 | 2026-09-04 12:42:52 | 49.15042 | 17.97089 | 106° | 16km/h | 31971m | 5.3m/s | -38.2°C | 2.0% | 0hPa | 2.7V | 00:00:00 | 00:00:00 | 00:00:00 | |
| OE5WHR-10 | 2026-09-04 12:42:50 | 49.15042 | 17.97073 | 80° | 24km/h | 31961m | 6.6m/s | -38.3°C | 2.0% | 0hPa | 2.7V | 00:00:00 | 02:00:53 | 00:00:00 | |
| OE5MMP-10 | 2026-09-04 12:42:49 | 49.15040 | 17.97065 | 59° | 18km/h | 31953m | 8.0m/s | -38.4°C | 1.9% | 0hPa | 2.7V | 00:00:00 | 02:00:52 | 00:00:00 | |
| NBG1-10 | 2026-09-04 12:42:47 | 49.15031 | 17.97054 | 31° | 15km/h | 31939m | 6.2m/s | -38.6°C | 2.0% | 0hPa | 2.7V | 00:00:00 | 02:00:50 | 00:00:00 | |
| OE5DRO-10 | 2026-09-04 12:42:46 | 49.15026 | 17.97048 | 32° | 22km/h | 31933m | 6.2m/s | -38.7°C | 2.0% | 0hPa | 2.7V | 00:00:00 | 00:00:00 | 00:00:00 | |
| GYPAP8-17 | 2026-09-04 12:42:45 | 49.15026 | 17.97048 | 32° | 27km/h | 31933m | 6.2m/s | -38.8°C | 0.4% | 0hPa | 2.7V | 00:00:00 | 00:00:00 | 00:00:00 | |
| PETON7-10 | 2026-09-04 12:42:40 | 49.15012 | 17.97020 | 99° | 22km/h | 31892m | 6.0m/s | -38.8°C | 2.0% | 0hPa | 2.7V | 00:00:00 | 02:00:43 | 00:00:00 | |
| OE5MMP-10 | 2026-09-04 12:42:39 | 49.15012 | 17.97017 | 100° | 24km/h | 31887m | 4.7m/s | -38.9°C | 2.0% | 0hPa | 2.7V | 00:00:00 | 02:00:42 | 00:00:00 | |
| POL2MAQ | 2026-09-04 12:42:37 | 49.15013 | 17.97006 | 99° | 20km/h | 31875m | 7.4m/s | -39.1°C | 0.4% | 0hPa | 2.7V | 00:00:00 | 00:00:00 | 00:00:00 | |
| OE5DXL-15 | 2026-09-04 12:42:35 | 49.15014 | 17.96986 | 93° | 20km/h | 31861m | 5.8m/s | -39.0°C | 2.0% | 0hPa | 2.7V | 00:00:00 | 00:00:00 | 00:00:00 | |
| OE5MMP-10 | 2026-09-04 12:42:29 | 49.14995 | 17.96938 | 17° | 22km/h | 31823m | 5.0m/s | -39.3°C | 2.1% | 0hPa | 2.7V | 00:00:00 | 02:00:32 | 00:00:00 | |
| DO3MHA-11 | 2026-09-04 12:42:27 | 49.14984 | 17.96930 | 42° | 18km/h | 31813m | 7.0m/s | -39.3°C | 2.1% | 0hPa | 2.6V | 00:00:00 | 02:00:30 | 08:30:00 | |
| PETON7-10 | 2026-09-04 12:42:25 | 49.14980 | 17.96915 | 92° | 16km/h | 31798m | 6.8m/s | -39.4°C | 2.1% | 0hPa | 2.6V | 00:00:00 | 00:00:00 | 08:30:00 | |
| GYPAP8-17 | 2026-09-04 12:42:24 | 49.14981 | 17.96905 | 105° | 27km/h | 31792m | 5.9m/s | -39.4°C | 0.4% | 0hPa | 2.6V | 00:00:00 | 00:00:00 | 00:00:00 | |
| OE5MMP-10 | 2026-09-04 12:42:19 | 49.14988 | 17.96872 | 90° | 13km/h | 31759m | 5.9m/s | -39.4°C | 2.1% | 0hPa | 2.6V | 00:00:00 | 02:00:22 | 00:00:00 | |
| DO3MHA-11 | 2026-09-04 12:42:17 | 49.14987 | 17.96863 | 73° | 15km/h | 31745m | 7.4m/s | -39.3°C | 2.1% | 0hPa | 2.6V | 00:00:00 | 02:00:20 | 00:00:00 | |
| POL2MAQ | 2026-09-04 12:42:16 | 49.14987 | 17.96863 | 74° | 15km/h | 31745m | 7.5m/s | -39.4°C | 0.4% | 0hPa | 2.6V | 00:00:00 | 00:00:00 | 00:00:00 | |
| PETON7-10 | 2026-09-04 12:42:10 | 49.14972 | 17.96838 | 84° | 15km/h | 31698m | 7.9m/s | -39.5°C | 2.1% | 0hPa | 2.6V | 00:00:00 | 00:00:00 | 00:00:00 | |
| OE5MMP-10 | 2026-09-04 12:42:09 | 49.14972 | 17.96832 | 100° | 18km/h | 31690m | 7.7m/s | -39.4°C | 2.1% | 0hPa | 2.6V | 00:00:00 | 02:00:12 | 00:00:00 | |
| OE5DRO-10 | 2026-09-04 12:42:08 | 49.14973 | 17.96825 | 107° | 13km/h | 31684m | 4.8m/s | -39.5°C | 2.1% | 0hPa | 2.6V | 00:00:00 | 00:00:00 | 00:00:00 | |
| DO3MHA-11 | 2026-09-04 12:42:07 | 49.14975 | 17.96818 | 102° | 16km/h | 31680m | 3.7m/s | -39.5°C | 2.1% | 0hPa | 2.6V | 00:00:00 | 02:00:10 | 00:00:00 | |
| SP3WXH-11 | 2026-09-04 12:42:06 | 49.14975 | 17.96814 | 83° | 9km/h | 31675m | 6.5m/s | -39.6°C | 0.4% | -1.0hPa | 2.6V | 00:00:00 | 00:00:00 | 00:00:00 | |
| PG1ADW-2 | 2026-09-04 12:42:05 | 49.14973 | 17.96811 | 28° | 11km/h | 31667m | 8.5m/s | -39.5°C | 2.1% | 0hPa | 2.6V | 00:00:00 | 02:00:08 | 00:00:00 | |
| OE3OSB-13 | 2026-09-04 12:41:58 | 49.14943 | 17.96803 | 37° | 4km/h | 31622m | 6.1m/s | -39.8°C | 0.4% | -1.0hPa | 2.6V | 00:00:00 | 00:00:00 | 00:00:00 | |
| DO3MHA-11 | 2026-09-04 12:41:57 | 49.14942 | 17.96803 | 312° | 9km/h | 31615m | 8.6m/s | -39.8°C | 2.2% | 0hPa | 2.6V | 00:00:00 | 02:00:00 | 00:00:00 | |
| PETON7-10 | 2026-09-04 12:41:55 | 49.14942 | 17.96807 | 265° | 9km/h | 31601m | 5.3m/s | -39.8°C | 2.2% | 0hPa | 2.6V | 00:00:00 | 01:59:58 | 00:00:00 | |
| OE5MMP-10 | 2026-09-04 12:41:49 | 49.14933 | 17.96805 | 360° | 9km/h | 31558m | 8.2m/s | -39.8°C | 2.1% | 0hPa | 2.6V | 00:00:00 | 01:59:52 | 00:00:00 | |
| OK1SLM-15 | 2026-09-04 12:41:48 | 49.14929 | 17.96806 | 342° | 15km/h | 31550m | 7.3m/s | -39.9°C | 0% | 0hPa | 2.6V | 00:00:00 | 00:00:00 | 00:00:00 | |
| DO3MHA-11 | 2026-09-04 12:41:47 | 49.14925 | 17.96808 | 332° | 7km/h | 31544m | 5.6m/s | -40.0°C | 2.2% | 0hPa | 2.6V | 00:00:00 | 01:59:50 | 00:00:00 | |
| NBG1-10 | 2026-09-04 12:41:46 | 49.14923 | 17.96810 | 328° | 20km/h | 31538m | 6.3m/s | -39.9°C | 2.2% | 0hPa | 2.6V | 00:00:00 | 01:59:49 | 00:00:00 | |
| PG1ADW-2 | 2026-09-04 12:41:44 | 49.14921 | 17.96812 | 148° | 11km/h | 31522m | 7.7m/s | -40.1°C | 2.2% | 0hPa | 2.6V | 00:00:00 | 00:00:00 | 00:00:00 | |
| OK1SLM-15 | 2026-09-04 12:41:42 | 49.14923 | 17.96811 | 168° | 7km/h | 31515m | 6.2m/s | -40.2°C | 0% | 0hPa | 2.6V | 00:00:00 | 00:00:00 | 00:00:00 | |
| PETON7-10 | 2026-09-04 12:41:40 | 49.14929 | 17.96814 | 217° | 9km/h | 31494m | 6.7m/s | -40.2°C | 2.2% | 0hPa | 2.6V | 00:00:00 | 00:00:00 | 00:00:00 | |
| OE5MMP-10 | 2026-09-04 12:41:39 | 49.14930 | 17.96815 | 220° | 7km/h | 31488m | 5.8m/s | -40.3°C | 2.2% | 0hPa | 2.7V | 00:00:00 | 01:59:42 | 00:00:00 | |
| DO3MHA-11 | 2026-09-04 12:41:37 | 49.14932 | 17.96815 | 99° | 9km/h | 31475m | 8.6m/s | -40.2°C | 2.2% | 0hPa | 2.7V | 00:00:00 | 01:59:40 | 00:00:00 | |
| OE5DXL-15 | 2026-09-04 12:41:35 | 49.14932 | 17.96808 | 84° | 15km/h | 31459m | 6.0m/s | -40.3°C | 2.3% | 0hPa | 2.7V | 00:00:00 | 00:00:00 | 00:00:00 | |
| POL2MAQ | 2026-09-04 12:41:34 | 49.14931 | 17.96808 | 84° | 13km/h | 31459m | 6.0m/s | -40.4°C | 0.5% | 0hPa | 2.7V | 00:00:00 | 00:00:00 | 00:00:00 | |
| OE5DRO-10 | 2026-09-04 12:41:30 | 49.14932 | 17.96802 | 205° | 15km/h | 31427m | 5.7m/s | -40.4°C | 2.2% | 0hPa | 2.7V | 00:00:00 | 00:00:00 | 00:00:00 | |
| OE5MMP-10 | 2026-09-04 12:41:29 | 49.14934 | 17.96803 | 178° | 18km/h | 31420m | 7.9m/s | -40.3°C | 2.3% | 0hPa | 2.7V | 00:00:00 | 01:59:32 | 00:00:00 | |
| DO3MHA-11 | 2026-09-04 12:41:27 | 49.14942 | 17.96798 | 153° | 20km/h | 31405m | 6.7m/s | -40.1°C | 2.2% | 0hPa | 2.6V | 00:00:00 | 01:59:30 | 00:00:00 | |
| PETON7-10 | 2026-09-04 12:41:25 | 49.14953 | 17.96790 | 156° | 15km/h | 31392m | 6.7m/s | -40.0°C | 2.2% | 0hPa | 2.6V | 00:00:00 | 00:00:00 | 00:00:00 | |
| PG1ADW-2 | 2026-09-04 12:41:24 | 49.14959 | 17.96786 | 161° | 16km/h | 31385m | 8.1m/s | -40.0°C | 2.2% | 0hPa | 2.6V | 00:00:00 | 00:00:00 | 00:00:00 | |
| OE5MMP-10 | 2026-09-04 12:41:19 | 49.14977 | 17.96769 | 115° | 15km/h | 31349m | 6.9m/s | -40.0°C | 2.2% | 0hPa | 2.6V | 00:00:00 | 01:59:22 | 00:00:00 | |
| DO3MHA-11 | 2026-09-04 12:41:17 | 49.14978 | 17.96759 | 84° | 16km/h | 31335m | 7.1m/s | -39.9°C | 2.2% | 0hPa | 2.6V | 00:00:00 | 01:59:20 | 00:00:00 | |
| POL2MAQ | 2026-09-04 12:41:14 | 49.14978 | 17.96757 | 0° | 0km/h | 31321m | 5.4m/s | -39.8°C | 0.4% | 0hPa | 2.6V | 00:00:00 | 00:00:00 | 00:00:00 | |
| OE5DRO-10 | 2026-09-04 12:41:11 | 49.14990 | 17.96747 | 137° | 20km/h | 31295m | 8.5m/s | -39.9°C | 2.2% | 0hPa | 2.6V | 00:00:00 | 00:00:00 | 00:00:00 | |
| PETON7-10 | 2026-09-04 12:41:10 | 49.14995 | 17.96738 | 131° | 18km/h | 31288m | 4.6m/s | -40.0°C | 2.2% | 0hPa | 2.7V | 00:00:00 | 01:59:13 | 00:00:00 | |
| OE5MMP-10 | 2026-09-04 12:41:09 | 49.15000 | 17.96730 | 128° | 16km/h | 31283m | 5.5m/s | -40.1°C | 2.2% | 0hPa | 2.7V | 00:00:00 | 01:59:12 | 00:00:00 | |
| DO3MHA-11 | 2026-09-04 12:41:07 | 49.15007 | 17.96715 | 129° | 15km/h | 31267m | 8.7m/s | -39.9°C | 2.2% | 0hPa | 2.7V | 00:00:00 | 01:59:10 | 00:00:00 | |
| OE5DXL-15 | 2026-09-04 12:41:05 | 49.15011 | 17.96709 | 141° | 26km/h | 31256m | 4.6m/s | -39.9°C | 2.2% | 0hPa | 2.7V | 00:00:00 | 00:00:00 | 00:00:00 | |
| HA6NAB-11 | 2026-09-04 12:41:04 | 49.15013 | 17.96706 | 134° | 11km/h | 31250m | 7.2m/s | -40.0°C | 0.4% | 0hPa | 2.7V | 00:00:00 | 00:00:00 | 00:00:00 | |
| OE3OSB-13 | 2026-09-04 12:40:56 | 49.15017 | 17.96660 | 124° | 20km/h | 31194m | 7.2m/s | -40.2°C | 0.4% | -1.0hPa | 2.7V | 00:00:00 | 00:00:00 | 00:00:00 | |
| PETON7-10 | 2026-09-04 12:40:55 | 49.15020 | 17.96653 | 128° | 27km/h | 31186m | 9.9m/s | -40.2°C | 2.2% | 0hPa | 2.7V | 00:00:00 | 00:00:00 | 00:00:00 | |
| POL2MAQ | 2026-09-04 12:40:54 | 49.15025 | 17.96643 | 129° | 35km/h | 31177m | 7.8m/s | -40.2°C | 0.5% | 0hPa | 2.7V | 00:00:00 | 00:00:00 | 00:00:00 | |
| OE5DRO-10 | 2026-09-04 12:40:52 | 49.15036 | 17.96622 | 130° | 31km/h | 31165m | 6.1m/s | -40.2°C | 2.2% | 0hPa | 2.7V | 00:00:00 | 00:00:00 | 00:00:00 | |
| HA6NAB-11 | 2026-09-04 12:40:51 | 49.15036 | 17.96622 | 131° | 35km/h | 31165m | 6.2m/s | -40.2°C | 0.4% | 0hPa | 2.7V | 00:00:00 | 00:00:00 | 00:00:00 | |
| OK1SLM-15 | 2026-09-04 12:40:50 | 49.15042 | 17.96613 | 132° | 31km/h | 31158m | 7.9m/s | -40.2°C | 0% | 0hPa | 2.7V | 00:00:00 | 00:00:00 | 00:00:00 | |
| OE5MMP-10 | 2026-09-04 12:40:49 | 49.15050 | 17.96597 | 128° | 26km/h | 31144m | 6.1m/s | -40.1°C | 2.2% | 0hPa | 2.7V | 00:00:00 | 01:58:52 | 00:00:00 | |
| DO3MHA-11 | 2026-09-04 12:40:47 | 49.15056 | 17.96581 | 115° | 29km/h | 31129m | 8.8m/s | -40.1°C | 2.2% | 0hPa | 2.7V | 00:00:00 | 01:58:50 | 00:00:00 | |
| HA6NAB-11 | 2026-09-04 12:40:46 | 49.15059 | 17.96572 | 108° | 27km/h | 31121m | 6.9m/s | -40.2°C | 0.4% | 0hPa | 2.7V | 00:00:00 | 00:00:00 | 00:00:00 | |
| OK1SLM-15 | 2026-09-04 12:40:45 | 49.15059 | 17.96572 | 108° | 27km/h | 31121m | 6.9m/s | -40.2°C | 0% | 0hPa | 2.7V | 00:00:00 | 00:00:00 | 00:00:00 | |
| PG1ADW-2 | 2026-09-04 12:40:44 | 49.15062 | 17.96553 | 98° | 27km/h | 31108m | 7.0m/s | -40.4°C | 2.2% | 0hPa | 2.7V | 00:00:00 | 01:58:47 | 00:00:00 | |
| OE5WHR-10 | 2026-09-04 12:40:43 | 49.15062 | 17.96544 | 95° | 35km/h | 31100m | 8.1m/s | -40.5°C | 2.2% | 0hPa | 2.7V | 00:00:00 | 01:58:46 | 00:00:00 | |
| HA6NAB-11 | 2026-09-04 12:40:40 | 49.15064 | 17.96516 | 100° | 31km/h | 31081m | 7.5m/s | -40.7°C | 0.4% | 0hPa | 2.7V | 00:00:00 | 00:00:00 | 00:00:00 | |
| OE5MMP-10 | 2026-09-04 12:40:39 | 49.15066 | 17.96503 | 103° | 38km/h | 31073m | 8.4m/s | -40.5°C | 2.2% | 0hPa | 2.7V | 00:00:00 | 01:58:42 | 00:00:00 | |
| DO3MHA-11 | 2026-09-04 12:40:37 | 49.15072 | 17.96471 | 111° | 37km/h | 31059m | 6.2m/s | -40.5°C | 2.2% | 0hPa | 2.7V | 00:00:00 | 01:58:40 | 00:00:00 | |
| OE5DXL-15 | 2026-09-04 12:40:35 | 49.15081 | 17.96440 | 118° | 29km/h | 31044m | 7.7m/s | -40.6°C | 2.2% | 0hPa | 2.7V | 00:00:00 | 00:00:00 | 00:00:00 | |
| OE5DRO-10 | 2026-09-04 12:40:33 | 49.15089 | 17.96417 | 119° | 33km/h | 31031m | 5.5m/s | -40.6°C | 2.2% | 0hPa | 2.6V | 00:00:00 | 00:00:00 | 00:00:00 | |
| OE5MMP-10 | 2026-09-04 12:40:29 | 49.15098 | 17.96362 | 93° | 31km/h | 31003m | 6.4m/s | -40.8°C | 2.2% | 0hPa | 2.6V | 00:00:00 | 01:58:32 | 08:30:00 | |
| DO3MHA-11 | 2026-09-04 12:40:25 | 49.15097 | 17.96308 | 87° | 27km/h | 30974m | 6.7m/s | -41.0°C | 2.3% | 0hPa | 2.7V | 00:00:00 | 01:58:28 | 00:00:00 | |
| OE5WHR-10 | 2026-09-04 12:40:22 | 49.15097 | 17.96281 | 96° | 27km/h | 30955m | 7.9m/s | -41.1°C | 2.3% | 0hPa | 2.6V | 00:00:00 | 00:00:00 | 08:30:00 | |
| PG1ADW-2 | 2026-09-04 12:40:21 | 49.15098 | 17.96269 | 97° | 24km/h | 30948m | 7.0m/s | -41.1°C | 2.3% | 0hPa | 2.7V | 00:00:00 | 00:00:00 | 00:00:00 | |
| OE5MMP-10 | 2026-09-04 12:40:19 | 49.15100 | 17.96243 | 97° | 31km/h | 30935m | 6.0m/s | -41.2°C | 2.3% | 0hPa | 2.7V | 00:00:00 | 01:58:22 | 00:00:00 | |
| DO3MHA-11 | 2026-09-04 12:40:15 | 49.15098 | 17.96199 | 71° | 24km/h | 30908m | 6.9m/s | -41.2°C | 2.3% | 0hPa | 2.7V | 00:00:00 | 01:58:18 | 00:00:00 | |
| OE5DRO-10 | 2026-09-04 12:40:14 | 49.15095 | 17.96188 | 70° | 31km/h | 30900m | 8.6m/s | -41.2°C | 2.3% | 0hPa | 2.7V | 00:00:00 | 00:00:00 | 08:30:00 | |
| POL2MAQ | 2026-09-04 12:40:12 | 49.15092 | 17.96174 | 71° | 38km/h | 30892m | 7.2m/s | -41.3°C | 0.5% | 0hPa | 2.6V | 00:00:00 | 00:00:00 | 00:00:00 | |
| PETON7-10 | 2026-09-04 12:40:10 | 49.15084 | 17.96139 | 72° | 24km/h | 30873m | 7.9m/s | -41.2°C | 2.3% | 0hPa | 2.6V | 00:00:00 | 00:00:00 | 08:30:00 | |
| OE5MMP-10 | 2026-09-04 12:40:09 | 49.15082 | 17.96132 | 73° | 26km/h | 30865m | 8.7m/s | -41.2°C | 2.3% | 0hPa | 2.6V | 00:00:00 | 01:58:12 | 00:00:00 | |
| DO3MHA-11 | 2026-09-04 12:40:05 | 49.15082 | 17.96113 | 83° | 29km/h | 30838m | 7.2m/s | -41.3°C | 2.3% | 0hPa | 2.6V | 00:00:00 | 01:58:08 | 00:00:00 | |
| GYPAP8-17 | 2026-09-04 12:40:02 | 49.15074 | 17.96084 | 58° | 31km/h | 30816m | 8.6m/s | -41.4°C | 0.5% | 0hPa | 2.6V | 00:00:00 | 00:00:00 | 00:00:00 | |
| OE5WHR-10 | 2026-09-04 12:40:01 | 49.15069 | 17.96074 | 51° | 26km/h | 30809m | 6.1m/s | -41.4°C | 2.3% | 0hPa | 2.6V | 00:00:00 | 00:00:00 | 00:00:00 | |
| OE5MMP-10 | 2026-09-04 12:39:58 | 49.15054 | 17.96041 | 61° | 15km/h | 30790m | 7.6m/s | -41.1°C | 2.3% | 0hPa | 2.6V | 00:00:00 | 01:58:01 | 00:00:00 | |
| DB0DAN | 2026-09-04 12:39:55 | 49.15046 | 17.96017 | 51° | 11km/h | 30772m | 6.6m/s | 0°C | 0% | 0hPa | 2.7V | 00:00:00 | 00:00:00 | 00:00:00 | |
| OE3OSB-13 | 2026-09-04 12:39:54 | 49.15042 | 17.96017 | 316° | 9km/h | 30756m | 7.1m/s | -41.2°C | 0.4% | -1.0hPa | 2.6V | 00:00:00 | 00:00:00 | 00:00:00 | |
| POL2MAQ | 2026-09-04 12:39:52 | 49.15040 | 17.96019 | 315° | 9km/h | 30751m | 4.0m/s | -41.3°C | 0.5% | 0hPa | 2.6V | 00:00:00 | 00:00:00 | 00:00:00 | |
| OK1SLM-15 | 2026-09-04 12:39:49 | 49.15038 | 17.96020 | 51° | 5km/h | 30740m | 7.6m/s | -41.5°C | 0% | 0hPa | 2.6V | 00:00:00 | 00:00:00 | 00:00:00 | |
| OE5MMP-10 | 2026-09-04 12:39:48 | 49.15036 | 17.96009 | 77° | 24km/h | 30725m | 6.2m/s | -41.7°C | 2.4% | 0hPa | 2.6V | 00:00:00 | 01:57:51 | 00:00:00 | |
| DO3MHA-11 | 2026-09-04 12:39:45 | 49.15027 | 17.95982 | 49° | 18km/h | 30704m | 6.8m/s | -41.8°C | 2.3% | 0hPa | 2.6V | 00:00:00 | 01:57:48 | 00:00:00 | |
| PETON7-10 | 2026-09-04 12:39:40 | 49.15001 | 17.95953 | 12° | 18km/h | 30671m | 6.0m/s | -41.8°C | 2.4% | 0hPa | 2.6V | 00:00:00 | 01:57:43 | 00:00:00 | |
| PG1ADW-2 | 2026-09-04 12:39:39 | 49.14997 | 17.95953 | 352° | 15km/h | 30663m | 8.4m/s | -41.8°C | 2.4% | 0hPa | 2.6V | 00:00:00 | 00:00:00 | 00:00:00 | |
| OE5MMP-10 | 2026-09-04 12:39:38 | 49.14992 | 17.95955 | 332° | 22km/h | 30655m | 8.1m/s | -41.8°C | 2.4% | 0hPa | 2.6V | 00:00:00 | 01:57:41 | 00:00:00 | |
| OE5DXL-15 | 2026-09-04 12:39:35 | 49.14982 | 17.95963 | 16° | 16km/h | 30638m | 6.5m/s | -41.8°C | 2.3% | 0hPa | 2.6V | 00:00:00 | 00:00:00 | 00:00:00 | |
| OE5DRO-10 | 2026-09-04 12:39:34 | 49.14981 | 17.95960 | 66° | 22km/h | 30631m | 8.4m/s | -41.9°C | 2.3% | 0hPa | 2.6V | 00:00:00 | 00:00:00 | 00:00:00 | |
| SP3WXH-11 | 2026-09-04 12:39:31 | 49.14974 | 17.95931 | 63° | 33km/h | 30610m | 7.0m/s | -41.9°C | 0.5% | -1.0hPa | 2.6V | 00:00:00 | 00:00:00 | 00:00:00 | |
| HA6NAB-11 | 2026-09-04 12:39:28 | 49.14961 | 17.95910 | 17° | 16km/h | 30593m | 4.9m/s | -41.7°C | 0.5% | 0hPa | 2.6V | 00:00:00 | 00:00:00 | 00:00:00 | |
| OE3JTB-15 | 2026-09-04 12:39:27 | 49.14955 | 17.95911 | 325° | 15km/h | 30578m | 9.0m/s | -41.7°C | 2.4% | 0hPa | 2.6V | 00:00:00 | 00:00:00 | 00:00:00 | |
| PETON7-10 | 2026-09-04 12:39:25 | 49.14954 | 17.95914 | 298° | 18km/h | 30571m | 5.8m/s | -41.7°C | 2.4% | 0hPa | 2.7V | 00:00:00 | 00:00:00 | 00:00:00 | |
| DO3MHA-11 | 2026-09-04 12:39:24 | 49.14952 | 17.95919 | 304° | 22km/h | 30565m | 5.0m/s | -41.7°C | 2.3% | 0hPa | 2.6V | 00:00:00 | 01:57:27 | 00:00:00 | |
| OE3OSB-13 | 2026-09-04 12:39:23 | 49.14945 | 17.95927 | 334° | 20km/h | 30552m | 8.1m/s | -41.9°C | 0.4% | -1.0hPa | 2.6V | 00:00:00 | 00:00:00 | 00:00:00 | |
| HA6NAB-11 | 2026-09-04 12:39:22 | 49.14945 | 17.95927 | 335° | 22km/h | 30552m | 8.1m/s | -41.9°C | 0.5% | 0hPa | 2.6V | 00:00:00 | 00:00:00 | 00:00:00 | |
| OE5MMP-10 | 2026-09-04 12:39:18 | 49.14923 | 17.95917 | 51° | 13km/h | 30525m | 8.6m/s | -42.1°C | 2.3% | 0hPa | 2.6V | 00:00:00 | 01:57:21 | 00:00:00 | |
| OE5WHR-10 | 2026-09-04 12:39:16 | 49.14918 | 17.95902 | 68° | 15km/h | 30512m | 5.7m/s | -42.1°C | 2.4% | 0hPa | 2.6V | 00:00:00 | 00:00:00 | 00:00:00 | |
| OE5DRO-10 | 2026-09-04 12:39:15 | 49.14916 | 17.95895 | 61° | 11km/h | 30506m | 7.4m/s | -42.1°C | 2.4% | 0hPa | 2.6V | 00:00:00 | 00:00:00 | 00:00:00 | |
| DO3MHA-11 | 2026-09-04 12:39:14 | 49.14913 | 17.95890 | 41° | 9km/h | 30498m | 7.4m/s | -42.1°C | 2.4% | 0hPa | 2.6V | 00:00:00 | 01:57:17 | 08:30:00 | |
| PETON7-10 | 2026-09-04 12:39:10 | 49.14907 | 17.95892 | 265° | 11km/h | 30471m | 7.7m/s | -42.3°C | 2.4% | 0hPa | 2.7V | 00:00:00 | 00:00:00 | 00:00:00 | |
| OE5MMP-10 | 2026-09-04 12:39:08 | 49.14907 | 17.95894 | 329° | 13km/h | 30458m | 5.8m/s | -42.4°C | 2.4% | 0hPa | 2.7V | 00:00:00 | 01:57:11 | 00:00:00 | |
| PG1ADW-2 | 2026-09-04 12:39:07 | 49.14906 | 17.95894 | 10° | 15km/h | 30452m | 7.7m/s | -42.6°C | 2.4% | 0hPa | 2.7V | 00:00:00 | 00:00:00 | 08:30:00 | |
| OE5DXL-15 | 2026-09-04 12:39:05 | 49.14900 | 17.95890 | 38° | 15km/h | 30439m | 5.1m/s | -42.6°C | 2.4% | 0hPa | 2.6V | 00:00:00 | 00:00:00 | 00:00:00 | |
| DO3MHA-11 | 2026-09-04 12:39:04 | 49.14897 | 17.95885 | 51° | 13km/h | 30433m | 6.2m/s | -42.7°C | 2.4% | 0hPa | 2.6V | 00:00:00 | 01:57:07 | 00:00:00 | |
| SP3WXH-11 | 2026-09-04 12:39:00 | 49.14892 | 17.95861 | 78° | 13km/h | 30405m | 7.2m/s | -42.5°C | 0.5% | -1.0hPa | 2.6V | 00:00:00 | 00:00:00 | 00:00:00 | |
| OE3OSB-13 | 2026-09-04 12:38:52 | 49.14900 | 17.95829 | 66° | 15km/h | 30347m | 9.4m/s | -43.1°C | 0.5% | -1.0hPa | 2.6V | 00:00:00 | 00:00:00 | 00:00:00 | |
| POL2MAQ | 2026-09-04 12:38:50 | 49.14900 | 17.95829 | 68° | 15km/h | 30348m | 9.4m/s | -43.1°C | 0.5% | 0hPa | 2.6V | 00:00:00 | 00:00:00 | 00:00:00 | |
| OE5MMP-10 | 2026-09-04 12:38:48 | 49.14890 | 17.95813 | 49° | 13km/h | 30330m | 5.5m/s | -43.1°C | 2.5% | 0hPa | 2.6V | 00:00:00 | 01:56:51 | 00:00:00 | |
| PG1ADW-2 | 2026-09-04 12:38:47 | 49.14888 | 17.95808 | 68° | 13km/h | 30323m | 8.5m/s | -43.1°C | 2.5% | 0hPa | 2.6V | 00:00:00 | 01:56:50 | 00:00:00 | |
| GYPAP8-17 | 2026-09-04 12:38:45 | 49.14890 | 17.95800 | 156° | 15km/h | 30310m | 4.1m/s | -43.2°C | 0.5% | 0hPa | 2.6V | 00:00:00 | 00:00:00 | 00:00:00 | |
| DO3MHA-11 | 2026-09-04 12:38:44 | 49.14893 | 17.95799 | 172° | 15km/h | 30305m | 5.2m/s | -43.2°C | 2.6% | 0hPa | 2.6V | 00:00:00 | 01:56:47 | 00:00:00 | |
| OK1SLM-15 | 2026-09-04 12:38:42 | 49.14897 | 17.95798 | 179° | 13km/h | 30299m | 7.5m/s | -43.2°C | 0% | 0hPa | 2.6V | 00:00:00 | 00:00:00 | 00:00:00 | |
| PETON7-10 | 2026-09-04 12:38:40 | 49.14902 | 17.95793 | 93° | 15km/h | 30280m | 6.5m/s | -43.0°C | 2.5% | 0hPa | 2.6V | 00:00:00 | 00:00:00 | 00:00:00 | |
| OE5MMP-10 | 2026-09-04 12:38:38 | 49.14901 | 17.95780 | 88° | 15km/h | 30266m | 5.4m/s | -42.9°C | 2.5% | 0hPa | 2.7V | 00:00:00 | 01:56:41 | 00:00:00 | |
| OE5DRO-10 | 2026-09-04 12:38:37 | 49.14901 | 17.95772 | 89° | 16km/h | 30261m | 5.1m/s | -42.9°C | 2.5% | 0hPa | 2.7V | 00:00:00 | 00:00:00 | 00:00:00 | |
| OE5DXL-15 | 2026-09-04 12:38:35 | 49.14901 | 17.95757 | 82° | 20km/h | 30248m | 7.9m/s | -43.0°C | 2.5% | 0hPa | 2.7V | 00:00:00 | 00:00:00 | 00:00:00 | |
| DO3MHA-11 | 2026-09-04 12:38:34 | 49.14900 | 17.95752 | 68° | 13km/h | 30240m | 7.3m/s | -43.0°C | 2.5% | 0hPa | 2.7V | 00:00:00 | 01:56:37 | 00:00:00 | |
| POL2MAQ | 2026-09-04 12:38:30 | 49.14897 | 17.95744 | 74° | 9km/h | 30221m | 7.4m/s | -43.3°C | 0.6% | 0hPa | 2.7V | 00:00:00 | 00:00:00 | 00:00:00 | |
| OE3JTB-15 | 2026-09-04 12:38:29 | 49.14897 | 17.95736 | 88° | 22km/h | 30208m | 6.2m/s | -43.3°C | 2.6% | 0hPa | 2.7V | 00:00:00 | 01:56:32 | 00:00:00 | |
| OE5MMP-10 | 2026-09-04 12:38:28 | 49.14896 | 17.95730 | 83° | 18km/h | 30201m | 7.1m/s | -43.4°C | 2.6% | 0hPa | 2.7V | 00:00:00 | 01:56:31 | 00:00:00 | |
| PG1ADW-2 | 2026-09-04 12:38:27 | 49.14895 | 17.95724 | 73° | 22km/h | 30194m | 7.1m/s | -43.4°C | 2.6% | 0hPa | 2.6V | 00:00:00 | 00:00:00 | 00:00:00 | |
| PETON7-10 | 2026-09-04 12:38:25 | 49.14892 | 17.95713 | 61° | 22km/h | 30182m | 6.1m/s | -43.4°C | 2.6% | 0hPa | 2.6V | 00:00:00 | 00:00:00 | 00:00:00 | |
| DO3MHA-11 | 2026-09-04 12:38:24 | 49.14890 | 17.95707 | 65° | 20km/h | 30175m | 7.3m/s | -43.3°C | 2.6% | 0hPa | 2.6V | 00:00:00 | 01:56:27 | 00:00:00 | |
| OE5WHR-10 | 2026-09-04 12:38:23 | 49.14888 | 17.95699 | 72° | 31km/h | 30168m | 7.6m/s | -43.3°C | 2.6% | 0hPa | 2.6V | 00:00:00 | 01:56:26 | 00:00:00 | |
| OE3OSB-13 | 2026-09-04 12:38:20 | 49.14884 | 17.95674 | 77° | 20km/h | 30148m | 7.5m/s | -43.4°C | 0.5% | -1.0hPa | 2.6V | 00:00:00 | 00:00:00 | 00:00:00 | |
| OE5MMP-10 | 2026-09-04 12:38:18 | 49.14881 | 17.95662 | 49° | 24km/h | 30134m | 5.4m/s | -43.4°C | 2.7% | 0hPa | 2.6V | 00:00:00 | 01:56:21 | 00:00:00 | |
| DO3MHA-11 | 2026-09-04 12:38:14 | 49.14870 | 17.95640 | 74° | 31km/h | 30108m | 5.9m/s | -43.3°C | 2.6% | 0hPa | 2.6V | 00:00:00 | 01:56:17 | 00:00:00 | |
| PETON7-10 | 2026-09-04 12:38:10 | 49.14862 | 17.95602 | 64° | 27km/h | 30081m | 5.2m/s | -43.3°C | 2.6% | 0hPa | 2.6V | 00:00:00 | 01:56:13 | 00:00:00 | |
| OE5MMP-10 | 2026-09-04 12:38:08 | 49.14855 | 17.95579 | 62° | 29km/h | 30068m | 8.0m/s | -43.3°C | 2.6% | 0hPa | 2.6V | 00:00:00 | 01:56:11 | 00:00:00 | |
| PG1ADW-2 | 2026-09-04 12:38:07 | 49.14850 | 17.95566 | 66° | 26km/h | 30059m | 8.8m/s | -43.3°C | 2.6% | 0hPa | 2.6V | 00:00:00 | 00:00:00 | 00:00:00 | |
| OE5DXL-15 | 2026-09-04 12:38:05 | 49.14844 | 17.95542 | 70° | 26km/h | 30047m | 5.0m/s | -43.4°C | 2.6% | 0hPa | 2.7V | 00:00:00 | 00:00:00 | 00:00:00 | |
| DO3MHA-11 | 2026-09-04 12:38:04 | 49.14841 | 17.95532 | 64° | 24km/h | 30041m | 7.0m/s | -43.4°C | 2.6% | 0hPa | 2.7V | 00:00:00 | 01:56:07 | 00:00:00 | |
| OE5WHR-10 | 2026-09-04 12:38:02 | 49.14834 | 17.95519 | 34° | 26km/h | 30025m | 6.0m/s | -43.4°C | 2.6% | 0hPa | 2.7V | 00:00:00 | 00:00:00 | 00:00:00 | |
| OE3JTB-15 | 2026-09-04 12:38:00 | 49.14826 | 17.95511 | 37° | 26km/h | 30013m | 7.0m/s | -43.5°C | 2.6% | 0hPa | 2.6V | 00:00:00 | 00:00:00 | 08:30:00 | |
| SP3BTT-10 | 2026-09-04 12:37:59 | 49.14823 | 17.95505 | 50° | 15km/h | 30006m | 7.2m/s | 0°C | 0% | 0hPa | 2.7V | 00:00:00 | 00:00:00 | 00:00:00 | |
| OE5MMP-10 | 2026-09-04 12:37:58 | 49.14819 | 17.95498 | 60° | 26km/h | 29999m | 6.6m/s | -43.5°C | 2.6% | 0hPa | 2.7V | 00:00:00 | 01:56:01 | 00:00:00 | |
| DB0DAN | 2026-09-04 12:37:55 | 49.14810 | 17.95472 | 62° | 27km/h | 29979m | 5.5m/s | 0°C | 0% | 0hPa | 2.6V | 00:00:00 | 00:00:00 | 00:00:00 | |
| OE3OSB-13 | 2026-09-04 12:37:50 | 49.14793 | 17.95415 | 59° | 18km/h | 29939m | 6.9m/s | -43.4°C | 0.5% | -1.0hPa | 2.6V | 00:00:00 | 00:00:00 | 00:00:00 | |
| OE5MMP-10 | 2026-09-04 12:37:48 | 49.14790 | 17.95410 | 42° | 29km/h | 29932m | 7.9m/s | -43.4°C | 2.5% | 0hPa | 2.6V | 00:00:00 | 01:55:51 | 00:00:00 | |
| DO3MHA-11 | 2026-09-04 12:37:44 | 49.14773 | 17.95394 | 47° | 29km/h | 29905m | 7.2m/s | -43.7°C | 2.5% | 0hPa | 2.6V | 00:00:00 | 01:55:47 | 08:30:00 | |
| PG1ADW-2 | 2026-09-04 12:37:43 | 49.14768 | 17.95385 | 57° | 31km/h | 29898m | 6.7m/s | -43.6°C | 2.6% | 0hPa | 2.7V | 00:00:00 | 00:00:00 | 00:00:00 | |
| OE5WHR-10 | 2026-09-04 12:37:41 | 49.14760 | 17.95364 | 62° | 27km/h | 29883m | 7.8m/s | -43.5°C | 2.6% | 0hPa | 2.7V | 00:00:00 | 00:00:00 | 00:00:00 | |
| PETON7-10 | 2026-09-04 12:37:40 | 49.14756 | 17.95352 | 62° | 26km/h | 29876m | 6.5m/s | -43.5°C | 2.5% | 0hPa | 2.7V | 00:00:00 | 00:00:00 | 00:00:00 | |
| OE5MMP-10 | 2026-09-04 12:37:38 | 49.14749 | 17.95331 | 68° | 22km/h | 29863m | 6.6m/s | -43.6°C | 2.6% | 0hPa | 2.7V | 00:00:00 | 01:55:41 | 00:00:00 | |
| OE5DXL-15 | 2026-09-04 12:37:35 | 49.14745 | 17.95303 | 83° | 24km/h | 29842m | 6.7m/s | -43.6°C | 2.7% | 0hPa | 2.7V | 00:00:00 | 00:00:00 | 08:30:00 | |
| DO3MHA-11 | 2026-09-04 12:37:34 | 49.14744 | 17.95296 | 76° | 24km/h | 29835m | 7.7m/s | -43.6°C | 2.7% | 0hPa | 2.6V | 00:00:00 | 01:55:37 | 00:00:00 | |
| OE3JTB-15 | 2026-09-04 12:37:31 | 49.14736 | 17.95282 | 33° | 26km/h | 29814m | 7.2m/s | -43.6°C | 2.6% | 0hPa | 2.6V | 00:00:00 | 00:00:00 | 00:00:00 | |
| POL2MAQ | 2026-09-04 12:37:29 | 49.14728 | 17.95272 | 48° | 27km/h | 29800m | 5.5m/s | -43.5°C | 0.6% | 0hPa | 2.6V | 00:00:00 | 00:00:00 | 00:00:00 | |
| OE5MMP-10 | 2026-09-04 12:37:28 | 49.14723 | 17.95264 | 52° | 27km/h | 29794m | 6.7m/s | -43.5°C | 2.6% | 0hPa | 2.6V | 00:00:00 | 01:55:31 | 08:30:00 | |
| SP3WXH-11 | 2026-09-04 12:37:27 | 49.14713 | 17.95244 | 51° | 33km/h | 29778m | 8.7m/s | -43.6°C | 0.5% | -1.0hPa | 2.7V | 00:00:00 | 00:00:00 | 00:00:00 | |
| PETON7-10 | 2026-09-04 12:37:25 | 49.14708 | 17.95234 | 49° | 26km/h | 29771m | 5.9m/s | -43.5°C | 2.6% | 0hPa | 2.7V | 00:00:00 | 01:55:28 | 00:00:00 | |
| DO3MHA-11 | 2026-09-04 12:37:24 | 49.14703 | 17.95226 | 50° | 24km/h | 29765m | 5.5m/s | -43.6°C | 2.6% | 0hPa | 2.7V | 00:00:00 | 01:55:27 | 00:00:00 | |
| OE5DRO-10 | 2026-09-04 12:37:21 | 49.14692 | 17.95201 | 68° | 24km/h | 29744m | 6.7m/s | -43.4°C | 2.7% | 0hPa | 2.7V | 00:00:00 | 00:00:00 | 08:30:00 | |
| OE5WHR-10 | 2026-09-04 12:37:20 | 49.14690 | 17.95193 | 67° | 24km/h | 29738m | 5.4m/s | -43.4°C | 2.6% | 0hPa | 2.7V | 00:00:00 | 01:55:23 | 00:00:00 | |
| OE5MMP-10 | 2026-09-04 12:37:18 | 49.14684 | 17.95180 | 43° | 26km/h | 29725m | 8.2m/s | -43.5°C | 2.6% | 0hPa | 2.7V | 00:00:00 | 01:55:21 | 00:00:00 | |
| OK1SLM-15 | 2026-09-04 12:37:14 | 49.14660 | 17.95166 | 27° | 29km/h | 29697m | 8.5m/s | -43.6°C | 0% | 0hPa | 2.7V | 00:00:00 | 00:00:00 | 00:00:00 | |
| PETON7-10 | 2026-09-04 12:37:10 | 49.14642 | 17.95134 | 62° | 22km/h | 29669m | 7.4m/s | -43.3°C | 2.6% | 0hPa | 2.7V | 00:00:00 | 00:00:00 | 00:00:00 | |
| PG1ADW-2 | 2026-09-04 12:37:09 | 49.14639 | 17.95126 | 60° | 22km/h | 29662m | 5.9m/s | -43.1°C | 2.5% | 0hPa | 2.7V | 00:00:00 | 01:55:12 | 00:00:00 | |
| OK1SLM-15 | 2026-09-04 12:37:08 | 49.14636 | 17.95118 | 62° | 22km/h | 29656m | 5.9m/s | -43.2°C | 0% | 0hPa | 2.7V | 00:00:00 | 00:00:00 | 00:00:00 | |
| OE5DXL-15 | 2026-09-04 12:37:05 | 49.14629 | 17.95095 | 66° | 22km/h | 29635m | 6.3m/s | -43.2°C | 2.6% | 0hPa | 2.7V | 00:00:00 | 00:00:00 | 00:00:00 | |
| DO3MHA-11 | 2026-09-04 12:37:04 | 49.14626 | 17.95087 | 59° | 22km/h | 29629m | 6.4m/s | -43.2°C | 2.5% | 0hPa | 2.7V | 00:00:00 | 01:55:07 | 00:00:00 | |
| SP3WXH-11 | 2026-09-04 12:36:56 | 49.14588 | 17.95044 | 63° | 20km/h | 29564m | 7.2m/s | -43.4°C | 0.5% | -1.0hPa | 2.7V | 00:00:00 | 00:00:00 | 00:00:00 | |
| OE3OSB-13 | 2026-09-04 12:36:47 | 49.14583 | 17.94989 | 32° | 18km/h | 29510m | 7.5m/s | -43.7°C | 0.5% | -1.0hPa | 2.7V | 00:00:00 | 00:00:00 | 00:00:00 | |
| DO3MHA-11 | 2026-09-04 12:36:44 | 49.14563 | 17.94977 | 23° | 22km/h | 29489m | 8.1m/s | -43.8°C | 2.6% | 0hPa | 2.7V | 00:00:00 | 01:54:47 | 00:00:00 | |
| OE5DRO-10 | 2026-09-04 12:36:43 | 49.14556 | 17.94972 | 33° | 20km/h | 29481m | 7.3m/s | -43.7°C | 2.6% | 0hPa | 2.7V | 00:00:00 | 00:00:00 | 00:00:00 | |
| PETON7-10 | 2026-09-04 12:36:40 | 49.14543 | 17.94952 | 59° | 20km/h | 29462m | 7.8m/s | -43.5°C | 2.5% | 0hPa | 2.7V | 00:00:00 | 01:54:43 | 00:00:00 | |
| OE5MMP-10 | 2026-09-04 12:36:38 | 49.14540 | 17.94941 | 71° | 20km/h | 29449m | 5.7m/s | -43.6°C | 2.6% | 0hPa | 2.7V | 00:00:00 | 01:54:41 | 00:00:00 | |
| OE5DXL-15 | 2026-09-04 12:36:35 | 49.14537 | 17.94922 | 81° | 22km/h | 29428m | 5.7m/s | -43.7°C | 2.6% | 0hPa | 2.7V | 00:00:00 | 00:00:00 | 00:00:00 | |
| OE3JTB-15 | 2026-09-04 12:36:34 | 49.14532 | 17.94900 | 46° | 22km/h | 29409m | 6.9m/s | -43.6°C | 2.6% | 0hPa | 2.7V | 00:00:00 | 00:00:00 | 00:00:00 | |
| OE5MMP-10 | 2026-09-04 12:36:28 | 49.14512 | 17.94884 | 31° | 24km/h | 29380m | 6.3m/s | -43.6°C | 2.6% | 0hPa | 2.7V | 00:00:00 | 01:54:31 | 00:00:00 | |
| POL2MAQ | 2026-09-04 12:36:27 | 49.14512 | 17.94884 | 32° | 22km/h | 29380m | 6.3m/s | -43.7°C | 0.6% | 0hPa | 2.7V | 00:00:00 | 00:00:00 | 00:00:00 | |
| PG1ADW-2 | 2026-09-04 12:36:25 | 49.14499 | 17.94869 | 39° | 20km/h | 29360m | 8.0m/s | -43.9°C | 2.6% | 0hPa | 2.7V | 00:00:00 | 00:00:00 | 00:00:00 | |
| OE5DRO-10 | 2026-09-04 12:36:24 | 49.14494 | 17.94863 | 43° | 22km/h | 29353m | 5.0m/s | -43.8°C | 2.6% | 0hPa | 2.7V | 00:00:00 | 00:00:00 | 00:00:00 | |
| GYPAP8-17 | 2026-09-04 12:36:22 | 49.14490 | 17.94857 | 50° | 24km/h | 29348m | 5.3m/s | -43.9°C | 0.6% | 0hPa | 2.6V | 00:00:00 | 00:00:00 | 00:00:00 | |
| OK1SLM-15 | 2026-09-04 12:36:20 | 49.14484 | 17.94841 | 71° | 26km/h | 29335m | 8.4m/s | -43.9°C | 0% | 0hPa | 2.6V | 00:00:00 | 00:00:00 | 00:00:00 | |
| OE5MMP-10 | 2026-09-04 12:36:18 | 49.14483 | 17.94809 | 98° | 16km/h | 29315m | 6.3m/s | -43.8°C | 2.6% | 0hPa | 2.6V | 00:00:00 | 01:54:21 | 00:00:00 | |
| OE5WHR-10 | 2026-09-04 12:36:17 | 49.14484 | 17.94800 | 100° | 20km/h | 29308m | 8.2m/s | -43.9°C | 2.6% | 0hPa | 2.6V | 00:00:00 | 01:54:20 | 00:00:00 | |
| OE3OSB-13 | 2026-09-04 12:36:16 | 49.14485 | 17.94794 | 96° | 11km/h | 29300m | 7.4m/s | -44.0°C | 0.5% | -1.0hPa | 2.6V | 00:00:00 | 00:00:00 | 00:00:00 | |
| OK1SLM-15 | 2026-09-04 12:36:15 | 49.14484 | 17.94794 | 97° | 13km/h | 29300m | 7.4m/s | -44.0°C | 0% | 0hPa | 2.6V | 00:00:00 | 00:00:00 | 00:00:00 | |
| DO3MHA-11 | 2026-09-04 12:36:14 | 49.14484 | 17.94787 | 77° | 18km/h | 29288m | 6.0m/s | -44.1°C | 2.6% | 0hPa | 2.6V | 00:00:00 | 01:54:17 | 08:30:00 | |
| PETON7-10 | 2026-09-04 12:36:10 | 49.14482 | 17.94764 | 82° | 18km/h | 29260m | 7.1m/s | -44.2°C | 2.6% | 0hPa | 2.6V | 00:00:00 | 00:00:00 | 00:00:00 | |
| OE5MMP-10 | 2026-09-04 12:36:08 | 49.14480 | 17.94747 | 77° | 18km/h | 29246m | 5.8m/s | -44.3°C | 2.6% | 0hPa | 2.6V | 00:00:00 | 01:54:11 | 00:00:00 | |
| POL2MAQ | 2026-09-04 12:36:06 | 49.14479 | 17.94738 | 81° | 26km/h | 29240m | 6.0m/s | -44.4°C | 0.6% | 0hPa | 2.6V | 00:00:00 | 00:00:00 | 00:00:00 | |
| PG1ADW-2 | 2026-09-04 12:36:05 | 49.14478 | 17.94718 | 99° | 16km/h | 29227m | 6.2m/s | -44.3°C | 2.6% | 0hPa | 2.6V | 00:00:00 | 00:00:00 | 00:00:00 | |
| DO3MHA-11 | 2026-09-04 12:36:04 | 49.14480 | 17.94709 | 112° | 16km/h | 29221m | 5.6m/s | -44.3°C | 2.6% | 0hPa | 2.6V | 00:00:00 | 01:54:07 | 00:00:00 | |
| SP3WXH-11 | 2026-09-04 12:35:54 | 49.14489 | 17.94656 | 55° | 22km/h | 29148m | 5.7m/s | -45.0°C | 0.6% | -1.0hPa | 2.6V | 00:00:00 | 00:00:00 | 00:00:00 | |
| OE5WHR-10 | 2026-09-04 12:35:53 | 49.14489 | 17.94656 | 56° | 15km/h | 29149m | 5.7m/s | -44.9°C | 2.7% | 0hPa | 2.6V | 00:00:00 | 00:00:00 | 00:00:00 | |
| OE3JTB-15 | 2026-09-04 12:35:48 | 49.14484 | 17.94618 | 74° | 15km/h | 29096m | 5.8m/s | -45.0°C | 2.7% | 0hPa | 2.7V | 00:00:00 | 00:00:00 | 00:00:00 | |
| PG1ADW-2 | 2026-09-04 12:35:45 | 49.14484 | 17.94618 | 74° | 15km/h | 29096m | 5.8m/s | -45.0°C | 2.7% | 0hPa | 2.7V | 00:00:00 | 01:53:48 | 08:30:00 | |
| DO3MHA-11 | 2026-09-04 12:35:44 | 49.14483 | 17.94614 | 72° | 18km/h | 29090m | 7.0m/s | -45.1°C | 2.7% | 0hPa | 2.6V | 00:00:00 | 01:53:47 | 00:00:00 | |
| OE5DRO-10 | 2026-09-04 12:35:43 | 49.14482 | 17.94609 | 74° | 16km/h | 29082m | 7.8m/s | -45.1°C | 2.7% | 0hPa | 2.7V | 00:00:00 | 00:00:00 | 00:00:00 | |
| PETON7-10 | 2026-09-04 12:35:40 | 49.14477 | 17.94585 | 71° | 15km/h | 29062m | 7.2m/s | -45.2°C | 2.7% | 0hPa | 2.7V | 00:00:00 | 00:00:00 | 08:30:00 | |
| OE5MMP-10 | 2026-09-04 12:35:38 | 49.14472 | 17.94570 | 57° | 11km/h | 29048m | 5.5m/s | -45.3°C | 2.7% | 0hPa | 2.7V | 00:00:00 | 01:53:41 | 00:00:00 | |
| NBG1-10 | 2026-09-04 12:35:35 | 49.14468 | 17.94556 | 98° | 16km/h | 29028m | 7.7m/s | -45.5°C | 2.9% | 0hPa | 2.7V | 00:00:00 | 01:53:38 | 00:00:00 | |
| DO3MHA-11 | 2026-09-04 12:35:34 | 49.14469 | 17.94552 | 127° | 15km/h | 29021m | 6.0m/s | -45.4°C | 2.8% | 0hPa | 2.7V | 00:00:00 | 01:53:37 | 00:00:00 | |
| OE5WHR-10 | 2026-09-04 12:35:32 | 49.14473 | 17.94547 | 157° | 13km/h | 29008m | 6.8m/s | -45.4°C | 2.9% | 0hPa | 2.7V | 00:00:00 | 00:00:00 | 00:00:00 | |
| OE5MMP-10 | 2026-09-04 12:35:28 | 49.14473 | 17.94540 | 57° | 18km/h | 28983m | 7.8m/s | -45.6°C | 2.8% | 0hPa | 2.7V | 00:00:00 | 01:53:31 | 00:00:00 | |
| POL2MAQ | 2026-09-04 12:35:25 | 49.14464 | 17.94519 | 54° | 24km/h | 28963m | 7.3m/s | -45.7°C | 0.6% | 0hPa | 2.7V | 00:00:00 | 00:00:00 | 00:00:00 | |
| DO3MHA-11 | 2026-09-04 12:35:24 | 49.14460 | 17.94512 | 46° | 11km/h | 28956m | 6.0m/s | -45.6°C | 2.8% | 0hPa | 2.7V | 00:00:00 | 01:53:27 | 00:00:00 | |
| SP3WXH-11 | 2026-09-04 12:35:23 | 49.14452 | 17.94501 | 41° | 16km/h | 28944m | 6.5m/s | -45.5°C | 0.6% | -1.0hPa | 2.7V | 00:00:00 | 00:00:00 | 00:00:00 | |
| OE5MMP-10 | 2026-09-04 12:35:18 | 49.14447 | 17.94488 | 72° | 15km/h | 28917m | 7.1m/s | -45.6°C | 2.8% | 0hPa | 2.7V | 00:00:00 | 01:53:21 | 00:00:00 | |
| GYPAP8-17 | 2026-09-04 12:35:15 | 49.14443 | 17.94487 | 359° | 9km/h | 28897m | 6.9m/s | -45.8°C | 0% | 0hPa | 2.7V | 00:00:00 | 00:00:00 | 00:00:00 | |
| DO3MHA-11 | 2026-09-04 12:35:14 | 49.14440 | 17.94486 | 18° | 18km/h | 28889m | 8.0m/s | -45.9°C | 2.9% | 0hPa | 2.7V | 00:00:00 | 01:53:17 | 00:00:00 | |
| OK1SLM-15 | 2026-09-04 12:35:12 | 49.14437 | 17.94484 | 37° | 16km/h | 28882m | 6.1m/s | -46.0°C | 0% | 0hPa | 2.6V | 00:00:00 | 00:00:00 | 00:00:00 | |
| OE5WHR-10 | 2026-09-04 12:35:11 | 49.14430 | 17.94473 | 43° | 13km/h | 28868m | 7.4m/s | -46.1°C | 2.9% | 0hPa | 2.6V | 00:00:00 | 01:53:14 | 00:00:00 | |
| PETON7-10 | 2026-09-04 12:35:10 | 49.14425 | 17.94467 | 42° | 13km/h | 28861m | 6.6m/s | -46.0°C | 2.9% | 0hPa | 2.6V | 00:00:00 | 01:53:13 | 00:00:00 | |
| OE5MMP-10 | 2026-09-04 12:35:08 | 49.14417 | 17.94454 | 51° | 9km/h | 28849m | 6.3m/s | -46.2°C | 2.9% | 0hPa | 2.6V | 00:00:00 | 01:53:11 | 00:00:00 | |
| OK1SLM-15 | 2026-09-04 12:35:07 | 49.14417 | 17.94454 | 51° | 20km/h | 28849m | 6.4m/s | -46.3°C | 0% | 0hPa | 2.6V | 00:00:00 | 00:00:00 | 00:00:00 | |
| PG1ADW-2 | 2026-09-04 12:35:05 | 49.14413 | 17.94438 | 105° | 9km/h | 28829m | 6.7m/s | -46.1°C | 2.9% | 0hPa | 2.6V | 00:00:00 | 00:00:00 | 00:00:00 | |
| DO3MHA-11 | 2026-09-04 12:35:04 | 49.14414 | 17.94434 | 122° | 9km/h | 28822m | 7.7m/s | -46.1°C | 2.9% | 0hPa | 2.6V | 00:00:00 | 01:53:07 | 00:00:00 | |
| POL2MAQ | 2026-09-04 12:35:02 | 49.14415 | 17.94432 | 143° | 4km/h | 28814m | 8.0m/s | -46.1°C | 0.7% | 0hPa | 2.6V | 00:00:00 | 00:00:00 | 00:00:00 | |
| SP3WXH-11 | 2026-09-04 12:34:52 | 49.14394 | 17.94397 | 93° | 7km/h | 28734m | 6.9m/s | -46.0°C | 0.6% | -1.0hPa | 2.6V | 00:00:00 | 00:00:00 | 00:00:00 | |
| OE5WHR-10 | 2026-09-04 12:34:50 | 49.14394 | 17.94394 | 123° | 11km/h | 28727m | 6.8m/s | -46.0°C | 2.9% | 0hPa | 2.6V | 00:00:00 | 00:00:00 | 00:00:00 | |
| OE5MMP-10 | 2026-09-04 12:34:48 | 49.14397 | 17.94391 | 160° | 11km/h | 28714m | 5.5m/s | -46.1°C | 3.0% | 0hPa | 2.6V | 00:00:00 | 01:52:51 | 00:00:00 | |
| OE5DRO-10 | 2026-09-04 12:34:46 | 49.14399 | 17.94389 | 112° | 11km/h | 28701m | 7.4m/s | -46.1°C | 2.9% | 0hPa | 2.6V | 00:00:00 | 00:00:00 | 00:00:00 | |
| PG1ADW-2 | 2026-09-04 12:34:45 | 49.14399 | 17.94387 | 82° | 11km/h | 28694m | 7.8m/s | -46.2°C | 3.0% | 0hPa | 2.6V | 00:00:00 | 00:00:00 | 00:00:00 | |
| DO3MHA-11 | 2026-09-04 12:34:44 | 49.14398 | 17.94383 | 65° | 15km/h | 28686m | 6.7m/s | -46.2°C | 3.0% | 0hPa | 2.6V | 00:00:00 | 01:52:47 | 08:30:00 | |
| OE3OSB-13 | 2026-09-04 12:34:43 | 49.14396 | 17.94379 | 48° | 15km/h | 28680m | 6.6m/s | -46.3°C | 0.6% | -1.0hPa | 2.7V | 00:00:00 | 00:00:00 | 00:00:00 | |
| POL2MAQ | 2026-09-04 12:34:42 | 49.14393 | 17.94375 | 35° | 18km/h | 28673m | 7.2m/s | -46.3°C | 0.7% | 0hPa | 2.7V | 00:00:00 | 00:00:00 | 00:00:00 | |
| PETON7-10 | 2026-09-04 12:34:40 | 49.14383 | 17.94368 | 20° | 11km/h | 28659m | 6.7m/s | -46.1°C | 3.0% | 0hPa | 2.7V | 00:00:00 | 00:00:00 | 00:00:00 | |
| OE5MMP-10 | 2026-09-04 12:34:38 | 49.14374 | 17.94362 | 32° | 9km/h | 28647m | 5.0m/s | -46.0°C | 2.9% | 0hPa | 2.7V | 00:00:00 | 01:52:41 | 00:00:00 | |
| OE5DXL-15 | 2026-09-04 12:34:35 | 49.14369 | 17.94353 | 95° | 9km/h | 28626m | 8.2m/s | -45.8°C | 2.9% | 0hPa | 2.7V | 00:00:00 | 00:00:00 | 00:00:00 | |
| DO3MHA-11 | 2026-09-04 12:34:34 | 49.14370 | 17.94351 | 120° | 9km/h | 28619m | 4.7m/s | -45.8°C | 2.9% | 0hPa | 2.7V | 00:00:00 | 01:52:37 | 00:00:00 | |
| OE3JTB-15 | 2026-09-04 12:34:33 | 49.14373 | 17.94343 | 118° | 7km/h | 28598m | 8.0m/s | -45.7°C | 2.8% | 0hPa | 2.7V | 00:00:00 | 00:00:00 | 00:00:00 | |
| OE5WHR-10 | 2026-09-04 12:34:29 | 49.14375 | 17.94336 | 109° | 9km/h | 28586m | 6.0m/s | -45.8°C | 2.8% | 0hPa | 2.6V | 00:00:00 | 00:00:00 | 00:00:00 | |
| OE5MMP-10 | 2026-09-04 12:34:28 | 49.14375 | 17.94335 | 40° | 11km/h | 28580m | 6.9m/s | -45.9°C | 2.8% | 0hPa | 2.6V | 00:00:00 | 01:52:31 | 08:30:00 | |
| OE5DRO-10 | 2026-09-04 12:34:27 | 49.14373 | 17.94335 | 345° | 9km/h | 28572m | 8.3m/s | -45.9°C | 2.8% | 0hPa | 2.7V | 00:00:00 | 00:00:00 | 08:30:00 | |
| PETON7-10 | 2026-09-04 12:34:25 | 49.14366 | 17.94338 | 345° | 9km/h | 28560m | 5.0m/s | -45.9°C | 2.9% | 0hPa | 2.6V | 00:00:00 | 01:52:28 | 00:00:00 | |
| DO3MHA-11 | 2026-09-04 12:34:24 | 49.14362 | 17.94340 | 351° | 9km/h | 28555m | 6.1m/s | -45.9°C | 2.8% | 0hPa | 2.6V | 00:00:00 | 01:52:27 | 00:00:00 | |
| POL2MAQ | 2026-09-04 12:34:21 | 49.14357 | 17.94340 | 82° | 2km/h | 28540m | 6.0m/s | -45.8°C | 0.7% | 0hPa | 2.6V | 00:00:00 | 00:00:00 | 00:00:00 | |
| SP3WXH-11 | 2026-09-04 12:34:20 | 49.14360 | 17.94341 | 199° | 9km/h | 28529m | 6.0m/s | -45.9°C | 0.6% | -1.0hPa | 2.6V | 00:00:00 | 00:00:00 | 00:00:00 | |
| OE5MMP-10 | 2026-09-04 12:34:18 | 49.14364 | 17.94346 | 240° | 7km/h | 28515m | 5.7m/s | -46.0°C | 2.8% | 0hPa | 2.6V | 00:00:00 | 01:52:21 | 00:00:00 | |
| DO3MHA-11 | 2026-09-04 12:34:14 | 49.14367 | 17.94359 | 281° | 5km/h | 28489m | 5.6m/s | -46.2°C | 2.9% | 0hPa | 2.6V | 00:00:00 | 01:52:17 | 00:00:00 | |
| OE3OSB-13 | 2026-09-04 12:34:12 | 49.14366 | 17.94362 | 313° | 4km/h | 28476m | 7.9m/s | -46.4°C | 0.6% | -1.0hPa | 2.7V | 00:00:00 | 00:00:00 | 00:00:00 | |
| PETON7-10 | 2026-09-04 12:34:10 | 49.14363 | 17.94366 | 320° | 5km/h | 28462m | 5.4m/s | -46.4°C | 3.0% | 0hPa | 2.7V | 00:00:00 | 00:00:00 | 00:00:00 | |
| OE5MMP-10 | 2026-09-04 12:34:08 | 49.14359 | 17.94369 | 339° | 5km/h | 28450m | 7.5m/s | -46.5°C | 3.0% | 0hPa | 2.6V | 00:00:00 | 01:52:11 | 00:00:00 | |
| OE5WHR-10 | 2026-09-04 12:34:07 | 49.14358 | 17.94369 | 48° | 7km/h | 28442m | 7.0m/s | -46.5°C | 3.0% | 0hPa | 2.6V | 00:00:00 | 01:52:10 | 00:00:00 | |
| OE5DXL-15 | 2026-09-04 12:34:05 | 49.14358 | 17.94366 | 97° | 11km/h | 28430m | 6.7m/s | -46.5°C | 2.9% | 0hPa | 2.6V | 00:00:00 | 00:00:00 | 00:00:00 | |
| DO3MHA-11 | 2026-09-04 12:34:04 | 49.14358 | 17.94363 | 90° | 5km/h | 28422m | 8.2m/s | -46.5°C | 2.9% | 0hPa | 2.6V | 00:00:00 | 01:52:07 | 00:00:00 | |
| OK1SLM-15 | 2026-09-04 12:34:02 | 49.14357 | 17.94362 | 55° | 4km/h | 28414m | 6.7m/s | 0°C | 0% | 0hPa | 2.6V | 00:00:00 | 00:00:00 | 00:00:00 | |
| SP3WXH-11 | 2026-09-04 12:33:49 | 49.14348 | 17.94325 | 85° | 5km/h | 28318m | 8.1m/s | -46.9°C | 0.7% | -1.0hPa | 2.6V | 00:00:00 | 00:00:00 | 00:00:00 | |
| OE5DRO-10 | 2026-09-04 12:33:48 | 49.14348 | 17.94323 | 50° | 16km/h | 28312m | 5.5m/s | -46.8°C | 3.0% | 0hPa | 2.6V | 00:00:00 | 00:00:00 | 00:00:00 | |
| OK1ALN | 2026-09-04 12:33:46 | 49.14346 | 17.94319 | 61° | 7km/h | 28300m | 7.0m/s | -46.9°C | 0.7% | 0hPa | 2.6V | 00:00:00 | 00:00:00 | 00:00:00 | |
| OE5WHR-10 | 2026-09-04 12:33:45 | 49.14345 | 17.94316 | 75° | 18km/h | 28293m | 7.1m/s | -46.9°C | 3.0% | 0hPa | 2.6V | 00:00:00 | 00:00:00 | 08:30:00 | |
| DO3MHA-11 | 2026-09-04 12:33:44 | 49.14345 | 17.94311 | 78° | 18km/h | 28286m | 5.4m/s | -46.9°C | 3.0% | 0hPa | 2.6V | 00:00:00 | 01:51:47 | 00:00:00 | |
| OE3OSB-13 | 2026-09-04 12:33:41 | 49.14340 | 17.94294 | 51° | 15km/h | 28266m | 7.0m/s | -46.9°C | 0.7% | -1.0hPa | 2.6V | 00:00:00 | 00:00:00 | 00:00:00 | |
| PETON7-10 | 2026-09-04 12:33:40 | 49.14337 | 17.94289 | 46° | 20km/h | 28259m | 5.8m/s | -46.8°C | 3.1% | 0hPa | 2.6V | 00:00:00 | 01:51:43 | 00:00:00 | |
| OE5MMP-10 | 2026-09-04 12:33:38 | 49.14332 | 17.94279 | 62° | 20km/h | 28245m | 8.3m/s | -46.8°C | 3.0% | 0hPa | 2.6V | 00:00:00 | 01:51:41 | 00:00:00 | |
| OE5DXL-15 | 2026-09-04 12:33:35 | 49.14326 | 17.94257 | 68° | 15km/h | 28225m | 7.3m/s | -46.7°C | 2.9% | 0hPa | 2.6V | 00:00:00 | 00:00:00 | 00:00:00 | |
| DO3MHA-11 | 2026-09-04 12:33:34 | 49.14324 | 17.94250 | 57° | 20km/h | 28218m | 6.7m/s | -46.7°C | 2.9% | 0hPa | 2.6V | 00:00:00 | 01:51:37 | 00:00:00 | |
| OE3JTB-15 | 2026-09-04 12:33:31 | 49.14306 | 17.94221 | 49° | 7km/h | 28184m | 7.3m/s | -46.9°C | 3.0% | 0hPa | 2.6V | 00:00:00 | 01:51:32 | 00:00:00 | |
| OE5DRO-10 | 2026-09-04 12:33:29 | 49.14306 | 17.94221 | 49° | 15km/h | 28184m | 7.3m/s | -46.9°C | 3.0% | 0hPa | 2.6V | 00:00:00 | 00:00:00 | 00:00:00 | |
| OE5MMP-10 | 2026-09-04 12:33:28 | 49.14303 | 17.94215 | 47° | 18km/h | 28176m | 8.5m/s | -46.9°C | 3.0% | 0hPa | 2.6V | 00:00:00 | 01:51:31 | 00:00:00 | |
| PG1ADW-2 | 2026-09-04 12:33:25 | 49.14291 | 17.94198 | 48° | 11km/h | 28155m | 6.8m/s | -46.9°C | 3.1% | 0hPa | 2.6V | 00:00:00 | 00:00:00 | 00:00:00 | |
| OE5WHR-10 | 2026-09-04 12:33:24 | 49.14288 | 17.94192 | 57° | 13km/h | 28147m | 8.0m/s | -47.0°C | 3.1% | 0hPa | 2.6V | 00:00:00 | 00:00:00 | 00:00:00 | |
| OE5MMP-10 | 2026-09-04 12:33:18 | 49.14273 | 17.94172 | 359° | 9km/h | 28107m | 7.0m/s | -47.4°C | 3.1% | 0hPa | 2.6V | 00:00:00 | 01:51:21 | 00:00:00 | |
| POL2MAQ | 2026-09-04 12:33:17 | 49.14273 | 17.94172 | 360° | 18km/h | 28107m | 7.0m/s | -47.4°C | 0.7% | 0hPa | 2.6V | 00:00:00 | 00:00:00 | 00:00:00 | |
| OK1ALN | 2026-09-04 12:33:15 | 49.14264 | 17.94171 | 13° | 16km/h | 28093m | 5.4m/s | -47.3°C | 0.7% | 0hPa | 2.6V | 00:00:00 | 00:00:00 | 00:00:00 | |
| DO3MHA-11 | 2026-09-04 12:33:14 | 49.14258 | 17.94167 | 32° | 7km/h | 28079m | 7.7m/s | -47.2°C | 3.1% | 0hPa | 2.6V | 00:00:00 | 01:51:17 | 08:30:00 | |
| PETON7-10 | 2026-09-04 12:33:10 | 49.14255 | 17.94162 | 100° | 9km/h | 28050m | 8.3m/s | -46.9°C | 3.1% | 0hPa | 2.6V | 00:00:00 | 00:00:00 | 00:00:00 | |
| OE5MMP-10 | 2026-09-04 12:33:07 | 49.14253 | 17.94156 | 37° | 13km/h | 28030m | 6.4m/s | -46.9°C | 3.0% | 0hPa | 2.6V | 00:00:00 | 01:51:10 | 00:00:00 | |
| PG1ADW-2 | 2026-09-04 12:33:05 | 49.14249 | 17.94156 | 344° | 11km/h | 28014m | 8.2m/s | -46.7°C | 3.0% | 0hPa | 2.6V | 00:00:00 | 01:51:08 | 00:00:00 | |
| DO3MHA-11 | 2026-09-04 12:33:04 | 49.14245 | 17.94159 | 339° | 9km/h | 28007m | 6.3m/s | -46.7°C | 2.9% | 0hPa | 2.6V | 00:00:00 | 01:51:07 | 00:00:00 | |
| OE5WHR-10 | 2026-09-04 12:33:03 | 49.14240 | 17.94161 | 340° | 9km/h | 28000m | 6.5m/s | -46.8°C | 2.9% | 0hPa | 2.6V | 00:00:00 | 01:51:06 | 00:00:00 | |
| POL2MAQ | 2026-09-04 12:32:58 | 49.14227 | 17.94160 | 63° | 5km/h | 27966m | 9.0m/s | -46.9°C | 0.7% | 0hPa | 2.6V | 00:00:00 | 00:00:00 | 00:00:00 | |
| OE5MMP-10 | 2026-09-04 12:32:57 | 49.14226 | 17.94159 | 63° | 7km/h | 27958m | 6.2m/s | -46.9°C | 3.0% | 0hPa | 2.6V | 00:00:00 | 01:51:00 | 08:30:00 | |
| OK1ALN | 2026-09-04 12:32:55 | 49.14227 | 17.94159 | 206° | 2km/h | 27946m | 7.1m/s | -47.0°C | 0.7% | 0hPa | 2.6V | 00:00:00 | 00:00:00 | 00:00:00 | |
| DO3MHA-11 | 2026-09-04 12:32:54 | 49.14227 | 17.94159 | 195° | 11km/h | 27938m | 8.6m/s | -46.9°C | 3.1% | 0hPa | 2.6V | 00:00:00 | 01:50:57 | 00:00:00 | |
| NBG1-10 | 2026-09-04 12:32:53 | 49.14228 | 17.94159 | 197° | 11km/h | 27930m | 6.9m/s | -47.0°C | 3.1% | 0hPa | 2.6V | 00:00:00 | 01:50:56 | 00:00:00 | |
| OE5DRO-10 | 2026-09-04 12:32:51 | 49.14230 | 17.94164 | 250° | 13km/h | 27919m | 6.2m/s | -47.1°C | 3.0% | 0hPa | 2.6V | 00:00:00 | 00:00:00 | 00:00:00 | |
| OE5MMP-10 | 2026-09-04 12:32:47 | 49.14227 | 17.94188 | 295° | 9km/h | 27891m | 6.2m/s | -47.0°C | 3.0% | 0hPa | 2.6V | 00:00:00 | 01:50:50 | 00:00:00 | |
| PG1ADW-2 | 2026-09-04 12:32:45 | 49.14225 | 17.94196 | 238° | 13km/h | 27875m | 7.3m/s | -47.0°C | 3.0% | 0hPa | 2.6V | 00:00:00 | 00:00:00 | 08:30:00 | |
| DO3MHA-11 | 2026-09-04 12:32:44 | 49.14226 | 17.94196 | 165° | 11km/h | 27869m | 5.8m/s | -47.0°C | 3.0% | 0hPa | 2.6V | 00:00:00 | 01:50:47 | 00:00:00 | |
| OE5WHR-10 | 2026-09-04 12:32:42 | 49.14231 | 17.94194 | 173° | 15km/h | 27855m | 7.8m/s | -47.1°C | 3.1% | 0hPa | 2.7V | 00:00:00 | 00:00:00 | 00:00:00 | |
| PETON7-10 | 2026-09-04 12:32:40 | 49.14236 | 17.94195 | 205° | 15km/h | 27842m | 6.4m/s | -47.0°C | 3.1% | 0hPa | 2.7V | 00:00:00 | 00:00:00 | 00:00:00 | |
| OE3OSB-13 | 2026-09-04 12:32:39 | 49.14239 | 17.94199 | 218° | 9km/h | 27827m | 6.3m/s | -47.1°C | 0.7% | -1.0hPa | 2.7V | 00:00:00 | 00:00:00 | 00:00:00 | |
| OE5MMP-10 | 2026-09-04 12:32:37 | 49.14242 | 17.94201 | 222° | 15km/h | 27821m | 6.3m/s | -47.1°C | 3.0% | 0hPa | 2.7V | 00:00:00 | 01:50:40 | 00:00:00 | |
| OE5DXL-15 | 2026-09-04 12:32:35 | 49.14247 | 17.94211 | 239° | 15km/h | 27806m | 8.8m/s | -47.4°C | 3.1% | 0hPa | 2.7V | 00:00:00 | 00:00:00 | 00:00:00 | |
| DO3MHA-11 | 2026-09-04 12:32:34 | 49.14249 | 17.94217 | 252° | 16km/h | 27799m | 5.7m/s | -47.4°C | 3.1% | 0hPa | 2.7V | 00:00:00 | 01:50:37 | 00:00:00 | |
| OK1ALN | 2026-09-04 12:32:33 | 49.14249 | 17.94217 | 252° | 16km/h | 27799m | 5.7m/s | -47.5°C | 0.7% | 0hPa | 2.7V | 00:00:00 | 00:00:00 | 00:00:00 | |
| OE5DRO-10 | 2026-09-04 12:32:31 | 49.14252 | 17.94228 | 198° | 15km/h | 27781m | 8.4m/s | -47.4°C | 3.1% | 0hPa | 2.7V | 00:00:00 | 00:00:00 | 00:00:00 | |
| GYPAP8-17 | 2026-09-04 12:32:29 | 49.14255 | 17.94228 | 172° | 15km/h | 27773m | 7.2m/s | 0°C | 0% | 0hPa | 2.6V | 00:00:00 | 00:00:00 | 00:00:00 | |
| OE5MMP-10 | 2026-09-04 12:32:27 | 49.14269 | 17.94227 | 191° | 16km/h | 27754m | 6.9m/s | -47.6°C | 3.2% | 0hPa | 2.6V | 00:00:00 | 01:50:30 | 00:00:00 | |
| PETON7-10 | 2026-09-04 12:32:25 | 49.14278 | 17.94233 | 219° | 16km/h | 27741m | 6.5m/s | -47.5°C | 3.2% | 0hPa | 2.7V | 00:00:00 | 00:00:00 | 00:00:00 | |
| OE5WHR-10 | 2026-09-04 12:32:21 | 49.14293 | 17.94255 | 227° | 13km/h | 27714m | 6.1m/s | -47.5°C | 3.1% | 0hPa | 2.7V | 00:00:00 | 00:00:00 | 00:00:00 | |
| NBG1-10 | 2026-09-04 12:32:20 | 49.14296 | 17.94260 | 231° | 16km/h | 27707m | 7.6m/s | -47.5°C | 3.1% | 0hPa | 2.7V | 00:00:00 | 01:50:23 | 08:30:00 | |
| SP3WXH-11 | 2026-09-04 12:32:16 | 49.14303 | 17.94268 | 148° | 7km/h | 27680m | 8.9m/s | -47.3°C | 0.7% | -1.0hPa | 2.7V | 00:00:00 | 00:00:00 | 00:00:00 | |
| OE5MMP-10 | 2026-09-04 12:32:15 | 49.14305 | 17.94265 | 137° | 15km/h | 27672m | 6.8m/s | -47.2°C | 3.1% | 0hPa | 2.7V | 00:00:00 | 01:50:18 | 00:00:00 | |
| DO3MHA-11 | 2026-09-04 12:32:14 | 49.14308 | 17.94260 | 133° | 15km/h | 27666m | 6.1m/s | -47.2°C | 3.0% | 0hPa | 2.7V | 00:00:00 | 01:50:17 | 00:00:00 | |
| OE5DRO-10 | 2026-09-04 12:32:11 | 49.14317 | 17.94245 | 136° | 15km/h | 27645m | 5.6m/s | -47.3°C | 3.1% | 0hPa | 2.7V | 00:00:00 | 00:00:00 | 00:00:00 | |
| PETON7-10 | 2026-09-04 12:32:10 | 49.14319 | 17.94243 | 172° | 13km/h | 27639m | 5.2m/s | -47.3°C | 3.1% | 0hPa | 2.7V | 00:00:00 | 01:50:13 | 00:00:00 | |
| OE3OSB-13 | 2026-09-04 12:32:09 | 49.14327 | 17.94249 | 211° | 16km/h | 27619m | 5.6m/s | -47.5°C | 0.7% | -1.0hPa | 2.7V | 00:00:00 | 00:00:00 | 00:00:00 | |
| OE5DXL-15 | 2026-09-04 12:32:05 | 49.14334 | 17.94255 | 207° | 18km/h | 27607m | 6.9m/s | -47.4°C | 3.1% | 0hPa | 2.7V | 00:00:00 | 00:00:00 | 00:00:00 | |
| DO3MHA-11 | 2026-09-04 12:32:04 | 49.14336 | 17.94257 | 195° | 16km/h | 27601m | 6.6m/s | -47.4°C | 3.2% | 0hPa | 2.7V | 00:00:00 | 01:50:07 | 00:00:00 | |
| SP3WXH-11 | 2026-09-04 12:31:46 | 49.14326 | 17.94153 | 81° | 37km/h | 27472m | 6.3m/s | -47.5°C | 0.7% | -1.0hPa | 2.7V | 00:00:00 | 00:00:00 | 00:00:00 | |
| OE5MMP-10 | 2026-09-04 12:31:45 | 49.14325 | 17.94153 | 82° | 26km/h | 27472m | 6.2m/s | -47.4°C | 3.0% | 0hPa | 2.7V | 00:00:00 | 01:49:48 | 00:00:00 | |
| DO3MHA-11 | 2026-09-04 12:31:44 | 49.14324 | 17.94139 | 84° | 24km/h | 27466m | 6.6m/s | -47.4°C | 3.0% | 0hPa | 2.7V | 00:00:00 | 01:49:47 | 08:30:00 | |
| PG1ADW-2 | 2026-09-04 12:31:42 | 49.14321 | 17.94112 | 73° | 22km/h | 27451m | 5.9m/s | -47.4°C | 3.1% | 0hPa | 2.6V | 00:00:00 | 01:49:45 | 00:00:00 | |
| PETON7-10 | 2026-09-04 12:31:40 | 49.14315 | 17.94092 | 59° | 24km/h | 27439m | 6.8m/s | -47.5°C | 3.1% | 0hPa | 2.6V | 00:00:00 | 00:00:00 | 00:00:00 | |
| OE3OSB-13 | 2026-09-04 12:31:37 | 49.14304 | 17.94075 | 24° | 15km/h | 27412m | 6.9m/s | -47.6°C | 0.7% | -1.0hPa | 2.6V | 00:00:00 | 00:00:00 | 00:00:00 | |
| OE5WHR-10 | 2026-09-04 12:31:36 | 49.14304 | 17.94075 | 25° | 22km/h | 27412m | 6.9m/s | -47.5°C | 3.1% | 0hPa | 2.6V | 00:00:00 | 00:00:00 | 00:00:00 | |
| OE5MMP-10 | 2026-09-04 12:31:35 | 49.14300 | 17.94072 | 23° | 27km/h | 27405m | 6.1m/s | -47.6°C | 3.2% | 0hPa | 2.7V | 00:00:00 | 01:49:38 | 00:00:00 | |
| DO3MHA-11 | 2026-09-04 12:31:34 | 49.14295 | 17.94068 | 28° | 27km/h | 27399m | 5.8m/s | -47.8°C | 3.2% | 0hPa | 2.7V | 00:00:00 | 01:49:37 | 00:00:00 | |
| OE5DRO-10 | 2026-09-04 12:31:33 | 49.14290 | 17.94063 | 36° | 24km/h | 27393m | 6.7m/s | -48.0°C | 3.2% | 0hPa | 2.7V | 00:00:00 | 00:00:00 | 08:30:00 | |
| OK1SLM-15 | 2026-09-04 12:31:32 | 49.14284 | 17.94056 | 50° | 27km/h | 27386m | 7.2m/s | 0°C | 0% | 0hPa | 2.7V | 00:00:00 | 00:00:00 | 00:00:00 | |
| OK1ALN | 2026-09-04 12:31:30 | 49.14281 | 17.94047 | 62° | 29km/h | 27380m | 6.2m/s | -48.1°C | 0.8% | 0hPa | 2.7V | 00:00:00 | 00:00:00 | 00:00:00 | |
| PETON7-10 | 2026-09-04 12:31:25 | 49.14262 | 17.93990 | 59° | 20km/h | 27339m | 6.8m/s | -47.9°C | 3.3% | 0hPa | 2.7V | 00:00:00 | 01:49:28 | 00:00:00 | |
| DO3MHA-11 | 2026-09-04 12:31:24 | 49.14260 | 17.93984 | 53° | 18km/h | 27332m | 5.9m/s | -47.9°C | 3.3% | 0hPa | 2.7V | 00:00:00 | 01:49:27 | 00:00:00 | |
| PG1ADW-2 | 2026-09-04 12:31:17 | 49.14232 | 17.93964 | 43° | 20km/h | 27286m | 5.6m/s | -47.5°C | 3.1% | 0hPa | 2.7V | 00:00:00 | 00:00:00 | 00:00:00 | |
| HA6NAB-11 | 2026-09-04 12:31:16 | 49.14232 | 17.93964 | 44° | 18km/h | 27286m | 5.6m/s | -47.6°C | 0.7% | 0hPa | 2.7V | 00:00:00 | 00:00:00 | 00:00:00 | |
| OE5MMP-10 | 2026-09-04 12:31:15 | 49.14225 | 17.93951 | 53° | 18km/h | 27273m | 8.2m/s | -47.6°C | 3.1% | 0hPa | 2.7V | 00:00:00 | 01:49:18 | 00:00:00 | |
| DO3MHA-11 | 2026-09-04 12:31:14 | 49.14221 | 17.93944 | 51° | 18km/h | 27266m | 5.9m/s | -47.4°C | 3.1% | 0hPa | 2.7V | 00:00:00 | 01:49:17 | 00:00:00 | |
| PETON7-10 | 2026-09-04 12:31:10 | 49.14206 | 17.93920 | 37° | 16km/h | 27240m | 6.0m/s | -47.3°C | 3.1% | 0hPa | 2.6V | 00:00:00 | 00:00:00 | 08:30:00 | |
| OE3OSB-13 | 2026-09-04 12:31:07 | 49.14187 | 17.93922 | 347° | 20km/h | 27208m | 7.2m/s | -47.4°C | 0.7% | -1.0hPa | 2.6V | 00:00:00 | 00:00:00 | 00:00:00 | |
| OE5MMP-10 | 2026-09-04 12:31:05 | 49.14187 | 17.93921 | 348° | 16km/h | 27208m | 7.2m/s | -47.3°C | 3.2% | 0hPa | 2.6V | 00:00:00 | 01:49:08 | 00:00:00 | |
| DO3MHA-11 | 2026-09-04 12:31:04 | 49.14182 | 17.93923 | 356° | 15km/h | 27201m | 6.5m/s | -47.3°C | 3.1% | 0hPa | 2.6V | 00:00:00 | 01:49:07 | 00:00:00 | |
| HA6NAB-11 | 2026-09-04 12:30:59 | 49.14166 | 17.93913 | 33° | 20km/h | 27175m | 5.1m/s | -47.4°C | 0.7% | 0hPa | 2.6V | 00:00:00 | 00:00:00 | 00:00:00 | |
| PG1ADW-2 | 2026-09-04 12:30:57 | 49.14155 | 17.93905 | 11° | 11km/h | 27157m | 8.0m/s | -47.1°C | 3.1% | 0hPa | 2.6V | 00:00:00 | 00:00:00 | 00:00:00 | |
| PETON7-10 | 2026-09-04 12:30:55 | 49.14151 | 17.93906 | 313° | 13km/h | 27144m | 5.4m/s | -47.2°C | 3.1% | 0hPa | 2.6V | 00:00:00 | 00:00:00 | 00:00:00 | |
| OE5WHR-10 | 2026-09-04 12:30:54 | 49.14150 | 17.93908 | 318° | 13km/h | 27138m | 6.8m/s | -47.2°C | 3.1% | 0hPa | 2.6V | 00:00:00 | 01:48:57 | 00:00:00 | |
| HA6NAB-11 | 2026-09-04 12:30:49 | 49.14136 | 17.93913 | 11° | 16km/h | 27111m | 7.3m/s | -47.3°C | 0.8% | 0hPa | 2.6V | 00:00:00 | 00:00:00 | 00:00:00 | |
| OK1ALN | 2026-09-04 12:30:46 | 49.14125 | 17.93904 | 38° | 18km/h | 27092m | 7.7m/s | -47.3°C | 0.7% | 0hPa | 2.6V | 00:00:00 | 00:00:00 | 00:00:00 | |
| OE5MMP-10 | 2026-09-04 12:30:45 | 49.14118 | 17.93896 | 34° | 9km/h | 27078m | 5.6m/s | -47.3°C | 3.1% | 0hPa | 2.6V | 00:00:00 | 01:48:48 | 00:00:00 | |
| DO3MHA-11 | 2026-09-04 12:30:44 | 49.14115 | 17.93893 | 35° | 9km/h | 27073m | 5.8m/s | -47.3°C | 3.1% | 0hPa | 2.6V | 00:00:00 | 01:48:47 | 00:00:00 | |
| SP3WXH-11 | 2026-09-04 12:30:43 | 49.14113 | 17.93892 | 40° | 5km/h | 27066m | 6.7m/s | -47.4°C | 0.7% | -1.0hPa | 2.7V | 00:00:00 | 00:00:00 | 00:00:00 | |
| PETON7-10 | 2026-09-04 12:30:40 | 49.14114 | 17.93894 | 247° | 13km/h | 27047m | 7.7m/s | -47.3°C | 3.2% | 0hPa | 2.7V | 00:00:00 | 01:48:43 | 00:00:00 | |
| PG1ADW-2 | 2026-09-04 12:30:37 | 49.14111 | 17.93904 | 325° | 11km/h | 27028m | 6.4m/s | -47.5°C | 3.2% | 0hPa | 2.7V | 00:00:00 | 00:00:00 | 00:00:00 | |
| OE5DRO-10 | 2026-09-04 12:30:36 | 49.14108 | 17.93906 | 343° | 11km/h | 27021m | 7.6m/s | -47.4°C | 3.2% | 0hPa | 2.7V | 00:00:00 | 00:00:00 | 00:00:00 | |
| OE3OSB-13 | 2026-09-04 12:30:35 | 49.14101 | 17.93906 | 11° | 15km/h | 27007m | 5.5m/s | -47.5°C | 0.7% | -1.0hPa | 2.7V | 00:00:00 | 00:00:00 | 00:00:00 | |
| DO3MHA-11 | 2026-09-04 12:30:34 | 49.14101 | 17.93906 | 12° | 11km/h | 27008m | 5.5m/s | -47.4°C | 3.1% | 0hPa | 2.7V | 00:00:00 | 01:48:37 | 00:00:00 | |
| POL2MAQ | 2026-09-04 12:30:33 | 49.14101 | 17.93906 | 12° | 15km/h | 27008m | 5.5m/s | -47.5°C | 0.8% | 0hPa | 2.7V | 00:00:00 | 00:00:00 | 00:00:00 | |
| OE5WHR-10 | 2026-09-04 12:30:32 | 49.14093 | 17.93904 | 5° | 11km/h | 26995m | 6.4m/s | -47.4°C | 3.1% | 0hPa | 2.7V | 00:00:00 | 00:00:00 | 08:30:00 | |
| OK1ALN | 2026-09-04 12:30:26 | 49.14077 | 17.93906 | 320° | 4km/h | 26963m | 6.9m/s | -47.1°C | 0.7% | 0hPa | 2.6V | 00:00:00 | 00:00:00 | 00:00:00 | |
| PETON7-10 | 2026-09-04 12:30:25 | 49.14075 | 17.93908 | 340° | 9km/h | 26949m | 4.5m/s | -47.0°C | 3.0% | 0hPa | 2.6V | 00:00:00 | 00:00:00 | 00:00:00 | |
| DO3MHA-11 | 2026-09-04 12:30:24 | 49.14074 | 17.93909 | 353° | 9km/h | 26944m | 5.7m/s | -47.2°C | 3.1% | 0hPa | 2.6V | 00:00:00 | 01:48:27 | 00:00:00 | |
| OE5DRO-10 | 2026-09-04 12:30:18 | 49.14061 | 17.93913 | 313° | 11km/h | 26896m | 5.4m/s | -47.5°C | 3.1% | 0hPa | 2.6V | 00:00:00 | 00:00:00 | 00:00:00 | |
| PG1ADW-2 | 2026-09-04 12:30:17 | 49.14061 | 17.93913 | 313° | 11km/h | 26896m | 5.4m/s | -47.5°C | 3.1% | 0hPa | 2.6V | 00:00:00 | 01:48:20 | 00:00:00 | |
| OE5MMP-10 | 2026-09-04 12:30:15 | 49.14058 | 17.93921 | 272° | 13km/h | 26884m | 6.6m/s | -47.4°C | 3.1% | 0hPa | 2.6V | 00:00:00 | 01:48:18 | 00:00:00 | |
| DO3MHA-11 | 2026-09-04 12:30:14 | 49.14059 | 17.93925 | 232° | 13km/h | 26877m | 5.8m/s | -47.4°C | 3.1% | 0hPa | 2.6V | 00:00:00 | 01:48:17 | 08:30:00 | |
| SP3WXH-11 | 2026-09-04 12:30:12 | 49.14065 | 17.93930 | 206° | 13km/h | 26864m | 7.3m/s | -47.4°C | 0.7% | -1.0hPa | 2.7V | 00:00:00 | 00:00:00 | 00:00:00 | |
| OE5WHR-10 | 2026-09-04 12:30:11 | 49.14068 | 17.93933 | 212° | 11km/h | 26857m | 6.5m/s | -47.4°C | 3.1% | 0hPa | 2.7V | 00:00:00 | 00:00:00 | 00:00:00 | |
| PETON7-10 | 2026-09-04 12:30:10 | 49.14071 | 17.93936 | 215° | 11km/h | 26852m | 5.0m/s | -47.5°C | 3.1% | 0hPa | 2.7V | 00:00:00 | 00:00:00 | 00:00:00 | |
| OK1ALN | 2026-09-04 12:30:06 | 49.14083 | 17.93947 | 198° | 11km/h | 26826m | 5.1m/s | -47.5°C | 0.8% | 0hPa | 2.7V | 00:00:00 | 00:00:00 | 00:00:00 | |
| OE5MMP-10 | 2026-09-04 12:30:05 | 49.14085 | 17.93948 | 205° | 9km/h | 26821m | 6.1m/s | -47.5°C | 3.1% | 0hPa | 2.7V | 00:00:00 | 01:48:08 | 00:00:00 | |
| DO3MHA-11 | 2026-09-04 12:30:04 | 49.14086 | 17.93949 | 258° | 9km/h | 26814m | 7.3m/s | -47.6°C | 3.1% | 0hPa | 2.7V | 00:00:00 | 01:48:07 | 00:00:00 | |
| OE5DRO-10 | 2026-09-04 12:29:58 | 49.14088 | 17.93963 | 210° | 9km/h | 26778m | 6.0m/s | -47.4°C | 3.1% | 0hPa | 2.7V | 00:00:00 | 00:00:00 | 00:00:00 | |
| OE5MMP-10 | 2026-09-04 12:29:55 | 49.14097 | 17.93972 | 215° | 13km/h | 26758m | 4.9m/s | -47.5°C | 3.0% | 0hPa | 2.7V | 00:00:00 | 01:47:58 | 08:30:00 | |
| DO3MHA-11 | 2026-09-04 12:29:54 | 49.14099 | 17.93973 | 192° | 7km/h | 26752m | 6.2m/s | -47.6°C | 3.0% | 0hPa | 2.7V | 00:00:00 | 01:47:57 | 00:00:00 | |
| POL2MAQ | 2026-09-04 12:29:51 | 49.14101 | 17.93970 | 119° | 9km/h | 26739m | 5.7m/s | -47.9°C | 0.7% | 0hPa | 2.7V | 00:00:00 | 00:00:00 | 00:00:00 | |
| OE5WHR-10 | 2026-09-04 12:29:50 | 49.14103 | 17.93965 | 111° | 11km/h | 26727m | 6.9m/s | -47.8°C | 3.1% | 0hPa | 2.7V | 00:00:00 | 01:47:53 | 00:00:00 | |
| SP9KGR-15 | 2026-09-04 12:29:49 | 49.14103 | 17.93965 | 111° | 5km/h | 26727m | 6.9m/s | 0°C | 0% | 0hPa | 2.7V | 00:00:00 | 00:00:00 | 00:00:00 | |
| DO3MHA-11 | 2026-09-04 12:29:44 | 49.14114 | 17.93975 | 203° | 11km/h | 26689m | 6.5m/s | -48.0°C | 3.2% | 0hPa | 2.7V | 00:00:00 | 01:47:47 | 00:00:00 | |
| OE5MMP-10 | 2026-09-04 12:29:42 | 49.14119 | 17.93978 | 191° | 11km/h | 26676m | 5.5m/s | -48.1°C | 3.2% | 0hPa | 2.7V | 00:00:00 | 01:47:45 | 00:00:00 | |
| SP3WXH-11 | 2026-09-04 12:29:41 | 49.14121 | 17.93978 | 159° | 5km/h | 26670m | 6.7m/s | -48.3°C | 0.7% | -1.0hPa | 2.7V | 00:00:00 | 00:00:00 | 00:00:00 | |
| PETON7-10 | 2026-09-04 12:29:40 | 49.14123 | 17.93976 | 129° | 11km/h | 26663m | 7.9m/s | -48.3°C | 3.2% | 0hPa | 2.7V | 00:00:00 | 00:00:00 | 00:00:00 | |
| OE5DRO-10 | 2026-09-04 12:29:39 | 49.14124 | 17.93972 | 114° | 11km/h | 26655m | 6.3m/s | -48.3°C | 3.2% | 0hPa | 2.6V | 00:00:00 | 00:00:00 | 00:00:00 | |
| PG1ADW-2 | 2026-09-04 12:29:36 | 49.14127 | 17.93955 | 100° | 11km/h | 26636m | 5.4m/s | -48.1°C | 3.2% | 0hPa | 2.7V | 00:00:00 | 00:00:00 | 08:30:00 | |
| OE5DXL-15 | 2026-09-04 12:29:35 | 49.14127 | 17.93951 | 104° | 11km/h | 26630m | 5.6m/s | -48.2°C | 3.2% | 0hPa | 2.6V | 00:00:00 | 00:00:00 | 00:00:00 | |
| DO3MHA-11 | 2026-09-04 12:29:34 | 49.14128 | 17.93948 | 122° | 9km/h | 26624m | 6.9m/s | -48.2°C | 3.2% | 0hPa | 2.6V | 00:00:00 | 01:47:37 | 00:00:00 | |
| SP9KGR-15 | 2026-09-04 12:29:33 | 49.14128 | 17.93948 | 123° | 7km/h | 26624m | 7.0m/s | 0°C | 0% | 0hPa | 2.6V | 00:00:00 | 00:00:00 | 00:00:00 | |
| OE5MMP-10 | 2026-09-04 12:29:32 | 49.14132 | 17.93944 | 162° | 9km/h | 26610m | 5.8m/s | -48.3°C | 3.2% | 0hPa | 2.6V | 00:00:00 | 01:47:35 | 00:00:00 | |
| POL2MAQ | 2026-09-04 12:29:31 | 49.14132 | 17.93944 | 162° | 13km/h | 26610m | 5.8m/s | -48.3°C | 0.8% | 0hPa | 2.6V | 00:00:00 | 00:00:00 | 00:00:00 | |
| OE5WHR-10 | 2026-09-04 12:29:27 | 49.14145 | 17.93947 | 201° | 11km/h | 26579m | 6.8m/s | -48.3°C | 3.2% | 0hPa | 2.6V | 00:00:00 | 00:00:00 | 00:00:00 | |
| PETON7-10 | 2026-09-04 12:29:25 | 49.14149 | 17.93946 | 143° | 9km/h | 26566m | 5.9m/s | -48.3°C | 3.2% | 0hPa | 2.6V | 00:00:00 | 00:00:00 | 00:00:00 | |
| DO3MHA-11 | 2026-09-04 12:29:24 | 49.14151 | 17.93943 | 130° | 9km/h | 26559m | 6.7m/s | -48.3°C | 3.2% | 0hPa | 2.6V | 00:00:00 | 01:47:27 | 00:00:00 | |
| OK1ALN | 2026-09-04 12:29:23 | 49.14151 | 17.93943 | 131° | 11km/h | 26559m | 6.7m/s | -48.4°C | 0.8% | 0hPa | 2.6V | 00:00:00 | 00:00:00 | 00:00:00 | |
| OE5MMP-10 | 2026-09-04 12:29:21 | 49.14154 | 17.93932 | 104° | 11km/h | 26540m | 5.9m/s | -48.3°C | 3.2% | 0hPa | 2.6V | 00:00:00 | 01:47:24 | 00:00:00 | |
| OE5DRO-10 | 2026-09-04 12:29:20 | 49.14155 | 17.93929 | 111° | 11km/h | 26533m | 7.0m/s | -48.4°C | 3.2% | 0hPa | 2.7V | 00:00:00 | 00:00:00 | 00:00:00 | |
| PG1ADW-2 | 2026-09-04 12:29:16 | 49.14162 | 17.93916 | 144° | 11km/h | 26508m | 7.6m/s | -48.7°C | 3.3% | 0hPa | 2.7V | 00:00:00 | 00:00:00 | 00:00:00 | |
| DO3MHA-11 | 2026-09-04 12:29:14 | 49.14163 | 17.93914 | 105° | 15km/h | 26495m | 6.4m/s | -48.9°C | 3.3% | 0hPa | 2.7V | 00:00:00 | 01:47:17 | 00:00:00 | |
| POL2MAQ | 2026-09-04 12:29:11 | 49.14163 | 17.93909 | 90° | 11km/h | 26482m | 5.5m/s | -48.8°C | 0.8% | 0hPa | 2.6V | 00:00:00 | 00:00:00 | 00:00:00 | |
| PETON7-10 | 2026-09-04 12:29:10 | 49.14162 | 17.93898 | 80° | 11km/h | 26470m | 6.8m/s | -48.9°C | 3.3% | 0hPa | 2.6V | 00:00:00 | 01:47:13 | 00:00:00 | |
| OE5MMP-10 | 2026-09-04 12:29:08 | 49.14159 | 17.93884 | 65° | 9km/h | 26456m | 5.6m/s | -49.0°C | 3.3% | 0hPa | 2.6V | 00:00:00 | 01:47:11 | 00:00:00 | |
| OE5WHR-10 | 2026-09-04 12:29:06 | 49.14156 | 17.93871 | 73° | 7km/h | 26444m | 7.1m/s | -48.9°C | 3.3% | 0hPa | 2.6V | 00:00:00 | 00:00:00 | 00:00:00 | |
| OE5DXL-15 | 2026-09-04 12:29:05 | 49.14155 | 17.93865 | 86° | 7km/h | 26437m | 5.7m/s | -48.9°C | 3.3% | 0hPa | 2.6V | 00:00:00 | 00:00:00 | 00:00:00 | |
| DO3MHA-11 | 2026-09-04 12:29:04 | 49.14155 | 17.93860 | 98° | 5km/h | 26431m | 6.2m/s | -48.9°C | 3.3% | 0hPa | 2.6V | 00:00:00 | 01:47:07 | 00:00:00 | |
| OK1ALN | 2026-09-04 12:29:02 | 49.14156 | 17.93856 | 104° | 9km/h | 26424m | 7.5m/s | -49.1°C | 0.8% | 0hPa | 2.6V | 00:00:00 | 00:00:00 | 00:00:00 | |
| OE5DRO-10 | 2026-09-04 12:29:01 | 49.14156 | 17.93852 | 125° | 5km/h | 26412m | 6.3m/s | -49.0°C | 3.3% | 0hPa | 2.6V | 00:00:00 | 00:00:00 | 00:00:00 | |
| SP9KGR-15 | 2026-09-04 12:28:58 | 49.14157 | 17.93851 | 133° | 4km/h | 26398m | 6.8m/s | 0°C | 0% | 0hPa | 2.6V | 00:00:00 | 00:00:00 | 00:00:00 | |
| OE5MMP-10 | 2026-09-04 12:28:57 | 49.14158 | 17.93847 | 104° | 5km/h | 26386m | 6.8m/s | -49.1°C | 3.3% | 0hPa | 2.6V | 00:00:00 | 01:47:00 | 00:00:00 | |
| PG1ADW-2 | 2026-09-04 12:28:56 | 49.14158 | 17.93845 | 82° | 9km/h | 26378m | 8.1m/s | -49.0°C | 3.3% | 0hPa | 2.6V | 00:00:00 | 01:46:59 | 00:00:00 | |
| DO3MHA-11 | 2026-09-04 12:28:55 | 49.14156 | 17.93839 | 49° | 5km/h | 26366m | 5.6m/s | -49.1°C | 3.3% | 0hPa | 2.6V | 00:00:00 | 01:46:57 | 00:00:00 | |
| HA6NAB-11 | 2026-09-04 12:28:53 | 49.14156 | 17.93839 | 49° | 11km/h | 26366m | 5.7m/s | -49.2°C | 0.8% | 0hPa | 2.6V | 00:00:00 | 00:00:00 | 00:00:00 | |
| POL2MAQ | 2026-09-04 12:28:51 | 49.14153 | 17.93833 | 62° | 9km/h | 26352m | 8.2m/s | -49.4°C | 0.8% | 0hPa | 2.6V | 00:00:00 | 00:00:00 | 00:00:00 | |
| HA6NAB-11 | 2026-09-04 12:28:48 | 49.14153 | 17.93828 | 163° | 2km/h | 26333m | 5.8m/s | -49.3°C | 0.8% | 0hPa | 2.6V | 00:00:00 | 00:00:00 | 00:00:00 | |
| OE5MMP-10 | 2026-09-04 12:28:45 | 49.14152 | 17.93831 | 336° | 7km/h | 26308m | 7.2m/s | -49.4°C | 3.4% | 0hPa | 2.6V | 00:00:00 | 01:46:48 | 00:00:00 | |
| DO3MHA-11 | 2026-09-04 12:28:44 | 49.14152 | 17.93830 | 134° | 9km/h | 26301m | 6.4m/s | -49.5°C | 3.4% | 0hPa | 2.6V | 00:00:00 | 01:46:47 | 08:30:00 | |
| HA6NAB-11 | 2026-09-04 12:28:43 | 49.14152 | 17.93831 | 135° | 4km/h | 26301m | 6.4m/s | -49.5°C | 0.9% | 0hPa | 2.7V | 00:00:00 | 00:00:00 | 00:00:00 | |
| OE5DRO-10 | 2026-09-04 12:28:42 | 49.14155 | 17.93827 | 146° | 9km/h | 26288m | 7.0m/s | -49.5°C | 3.4% | 0hPa | 2.7V | 00:00:00 | 00:00:00 | 08:30:00 | |
| OK1ALN | 2026-09-04 12:28:41 | 49.14155 | 17.93827 | 147° | 7km/h | 26288m | 7.1m/s | -49.6°C | 0.8% | 0hPa | 2.6V | 00:00:00 | 00:00:00 | 00:00:00 | |
| PETON7-10 | 2026-09-04 12:28:40 | 49.14158 | 17.93825 | 172° | 11km/h | 26275m | 6.1m/s | -49.6°C | 3.4% | 0hPa | 2.6V | 00:00:00 | 00:00:00 | 00:00:00 | |
| SP3WXH-11 | 2026-09-04 12:28:39 | 49.14160 | 17.93825 | 186° | 5km/h | 26268m | 7.4m/s | -49.8°C | 0.8% | -1.0hPa | 2.6V | 00:00:00 | 00:00:00 | 00:00:00 | |
| HA6NAB-11 | 2026-09-04 12:28:38 | 49.14160 | 17.93825 | 187° | 7km/h | 26268m | 7.4m/s | -49.8°C | 0.9% | 0hPa | 2.6V | 00:00:00 | 00:00:00 | 00:00:00 | |
| OE5MMP-10 | 2026-09-04 12:28:35 | 49.14170 | 17.93829 | 201° | 11km/h | 26241m | 7.7m/s | -49.7°C | 3.4% | 0hPa | 2.6V | 00:00:00 | 01:46:38 | 00:00:00 | |
| DO3MHA-11 | 2026-09-04 12:28:34 | 49.14173 | 17.93831 | 210° | 11km/h | 26234m | 6.4m/s | -49.8°C | 3.4% | 0hPa | 2.6V | 00:00:00 | 01:46:37 | 00:00:00 | |
| HA6NAB-11 | 2026-09-04 12:28:32 | 49.14175 | 17.93833 | 205° | 9km/h | 26227m | 5.4m/s | -49.8°C | 0.9% | 0hPa | 2.6V | 00:00:00 | 00:00:00 | 00:00:00 | |
| OE3OSB-13 | 2026-09-04 12:28:30 | 49.14184 | 17.93832 | 158° | 15km/h | 26207m | 6.5m/s | -49.9°C | 0.8% | -1.0hPa | 2.6V | 00:00:00 | 00:00:00 | 00:00:00 | |
| HA6NAB-11 | 2026-09-04 12:28:26 | 49.14193 | 17.93826 | 163° | 9km/h | 26187m | 6.3m/s | -49.8°C | 0.8% | 0hPa | 2.6V | 00:00:00 | 00:00:00 | 00:00:00 | |
| OE5MMP-10 | 2026-09-04 12:28:25 | 49.14197 | 17.93825 | 183° | 11km/h | 26173m | 7.6m/s | -49.9°C | 3.4% | 0hPa | 2.6V | 00:00:00 | 01:46:28 | 00:00:00 | |
| DO3MHA-11 | 2026-09-04 12:28:24 | 49.14198 | 17.93826 | 191° | 13km/h | 26166m | 5.8m/s | -50.0°C | 3.5% | 0hPa | 2.6V | 00:00:00 | 01:46:27 | 00:00:00 | |
| OE5WHR-10 | 2026-09-04 12:28:23 | 49.14200 | 17.93827 | 197° | 13km/h | 26160m | 6.6m/s | -50.0°C | 3.5% | 0hPa | 2.6V | 00:00:00 | 00:00:00 | 00:00:00 | |
| OK1ALN | 2026-09-04 12:28:20 | 49.14204 | 17.93830 | 215° | 9km/h | 26146m | 4.9m/s | -50.1°C | 0.9% | 0hPa | 2.7V | 00:00:00 | 00:00:00 | 00:00:00 | |
| HA6NAB-11 | 2026-09-04 12:28:19 | 49.14206 | 17.93832 | 211° | 9km/h | 26141m | 5.7m/s | -50.3°C | 0.9% | 0hPa | 2.7V | 00:00:00 | 00:00:00 | 00:00:00 | |
| OE5MMP-10 | 2026-09-04 12:28:15 | 49.14224 | 17.93825 | 149° | 13km/h | 26107m | 7.8m/s | -50.6°C | 3.6% | 0hPa | 2.7V | 00:00:00 | 01:46:18 | 08:30:00 | |
| DO3MHA-11 | 2026-09-04 12:28:14 | 49.14227 | 17.93821 | 143° | 11km/h | 26099m | 7.4m/s | -50.6°C | 3.5% | 0hPa | 2.6V | 00:00:00 | 01:46:17 | 00:00:00 | |
| HA6NAB-11 | 2026-09-04 12:28:12 | 49.14231 | 17.93817 | 134° | 15km/h | 26093m | 5.6m/s | -50.6°C | 0.9% | 0hPa | 2.7V | 00:00:00 | 00:00:00 | 00:00:00 | |
| PETON7-10 | 2026-09-04 12:28:11 | 49.14238 | 17.93804 | 127° | 13km/h | 26073m | 6.0m/s | -50.5°C | 3.6% | 0hPa | 2.7V | 00:00:00 | 00:00:00 | 00:00:00 | |
| SP3WXH-11 | 2026-09-04 12:28:08 | 49.14242 | 17.93796 | 130° | 9km/h | 26059m | 7.7m/s | -50.5°C | 0.8% | -1.0hPa | 2.6V | 00:00:00 | 00:00:00 | 00:00:00 | |
| HA6NAB-11 | 2026-09-04 12:28:05 | 49.14244 | 17.93793 | 186° | 2km/h | 26039m | 7.8m/s | -50.6°C | 0.9% | 0hPa | 2.6V | 00:00:00 | 00:00:00 | 00:00:00 | |
| DO3MHA-11 | 2026-09-04 12:28:04 | 49.14245 | 17.93793 | 160° | 15km/h | 26031m | 7.7m/s | -50.6°C | 3.7% | 0hPa | 2.6V | 00:00:00 | 01:46:07 | 00:00:00 | |
| OE3OSB-13 | 2026-09-04 12:27:59 | 49.14246 | 17.93774 | 70° | 18km/h | 25997m | 7.5m/s | -50.8°C | 0.8% | -1.0hPa | 2.6V | 00:00:00 | 00:00:00 | 00:00:00 | |
| HA6NAB-11 | 2026-09-04 12:27:58 | 49.14246 | 17.93773 | 71° | 20km/h | 25998m | 7.5m/s | -50.8°C | 0.9% | 0hPa | 2.6V | 00:00:00 | 00:00:00 | 00:00:00 | |
| OE5MMP-10 | 2026-09-04 12:27:55 | 49.14241 | 17.93742 | 81° | 13km/h | 25969m | 6.7m/s | -50.6°C | 3.7% | 0hPa | 2.6V | 00:00:00 | 01:45:58 | 00:00:00 | |
| DO3MHA-11 | 2026-09-04 12:27:54 | 49.14240 | 17.93736 | 72° | 13km/h | 25962m | 8.2m/s | -50.6°C | 3.7% | 0hPa | 2.6V | 00:00:00 | 01:45:57 | 00:00:00 | |
| HA6NAB-11 | 2026-09-04 12:27:53 | 49.14240 | 17.93736 | 73° | 15km/h | 25962m | 8.3m/s | -50.7°C | 0.9% | 0hPa | 2.6V | 00:00:00 | 00:00:00 | 00:00:00 | |
| POL2MAQ | 2026-09-04 12:27:49 | 49.14234 | 17.93723 | 73° | 9km/h | 25933m | 6.5m/s | -50.7°C | 0.9% | 0hPa | 2.6V | 00:00:00 | 00:00:00 | 00:00:00 | |
| HA6NAB-11 | 2026-09-04 12:27:47 | 49.14233 | 17.93716 | 71° | 11km/h | 25920m | 7.2m/s | -50.7°C | 0.9% | 0hPa | 2.6V | 00:00:00 | 00:00:00 | 00:00:00 | |
| OE5MMP-10 | 2026-09-04 12:27:45 | 49.14227 | 17.93703 | 50° | 15km/h | 25899m | 7.3m/s | -50.7°C | 3.7% | 0hPa | 2.6V | 00:00:00 | 01:45:48 | 00:00:00 | |
| DO3MHA-11 | 2026-09-04 12:27:44 | 49.14224 | 17.93697 | 54° | 13km/h | 25891m | 8.0m/s | -50.6°C | 3.7% | 0hPa | 2.6V | 00:00:00 | 01:45:47 | 00:00:00 | |
| OE5WHR-10 | 2026-09-04 12:27:41 | 49.14215 | 17.93677 | 53° | 11km/h | 25871m | 7.7m/s | -50.4°C | 3.6% | 0hPa | 2.6V | 00:00:00 | 01:45:44 | 00:00:00 | |
| PETON7-10 | 2026-09-04 12:27:40 | 49.14212 | 17.93672 | 37° | 11km/h | 25864m | 7.6m/s | -50.4°C | 3.6% | 0hPa | 2.6V | 00:00:00 | 01:45:43 | 00:00:00 | |
| HA6NAB-11 | 2026-09-04 12:27:39 | 49.14209 | 17.93670 | 6° | 13km/h | 25857m | 5.8m/s | -50.5°C | 0.9% | 0hPa | 2.6V | 00:00:00 | 00:00:00 | 00:00:00 | |
| OK1ALN | 2026-09-04 12:27:38 | 49.14209 | 17.93670 | 6° | 13km/h | 25857m | 5.8m/s | 0°C | 0% | 0hPa | 2.6V | 00:00:00 | 00:00:00 | 00:00:00 | |
| SP3WXH-11 | 2026-09-04 12:27:37 | 49.14204 | 17.93674 | 290° | 4km/h | 25835m | 7.3m/s | -50.4°C | 0.9% | -1.0hPa | 2.6V | 00:00:00 | 00:00:00 | 00:00:00 | |
| OE5MMP-10 | 2026-09-04 12:27:35 | 49.14203 | 17.93675 | 75° | 11km/h | 25830m | 4.8m/s | -50.3°C | 3.7% | 0hPa | 2.6V | 00:00:00 | 01:45:38 | 00:00:00 | |
| PG1ADW-2 | 2026-09-04 12:27:34 | 49.14203 | 17.93673 | 66° | 11km/h | 25824m | 6.2m/s | -50.3°C | 3.6% | 0hPa | 2.6V | 00:00:00 | 01:45:37 | 00:00:00 | |
| HA6NAB-11 | 2026-09-04 12:27:33 | 49.14203 | 17.93673 | 66° | 5km/h | 25824m | 6.2m/s | -50.3°C | 0.9% | 0hPa | 2.7V | 00:00:00 | 00:00:00 | 00:00:00 | |
| POL2MAQ | 2026-09-04 12:27:29 | 49.14190 | 17.93656 | 51° | 13km/h | 25790m | 7.8m/s | -50.3°C | 0.9% | 0hPa | 2.7V | 00:00:00 | 00:00:00 | 00:00:00 | |
| OE3OSB-13 | 2026-09-04 12:27:28 | 49.14189 | 17.93652 | 75° | 9km/h | 25783m | 6.6m/s | -50.2°C | 0.8% | -1.0hPa | 2.7V | 00:00:00 | 00:00:00 | 00:00:00 | |
| HA6NAB-11 | 2026-09-04 12:27:27 | 49.14189 | 17.93652 | 77° | 11km/h | 25783m | 6.6m/s | -50.2°C | 0.9% | 0hPa | 2.7V | 00:00:00 | 00:00:00 | 00:00:00 | |
| OE5DRO-10 | 2026-09-04 12:27:26 | 49.14189 | 17.93644 | 89° | 9km/h | 25771m | 6.7m/s | -50.1°C | 3.5% | 0hPa | 2.7V | 00:00:00 | 00:00:00 | 00:00:00 | |
| OE5MMP-10 | 2026-09-04 12:27:25 | 49.14188 | 17.93640 | 72° | 9km/h | 25764m | 7.9m/s | -50.1°C | 3.6% | 0hPa | 2.7V | 00:00:00 | 01:45:28 | 00:00:00 | |
| DO3MHA-11 | 2026-09-04 12:27:24 | 49.14187 | 17.93636 | 40° | 9km/h | 25757m | 5.0m/s | -50.0°C | 3.6% | 0hPa | 2.7V | 00:00:00 | 01:45:27 | 00:00:00 | |
| HA6NAB-11 | 2026-09-04 12:27:22 | 49.14185 | 17.93634 | 20° | 9km/h | 25752m | 6.2m/s | -50.1°C | 0.9% | 0hPa | 2.7V | 00:00:00 | 00:00:00 | 00:00:00 | |
| OE5WHR-10 | 2026-09-04 12:27:20 | 49.14179 | 17.93634 | 7° | 9km/h | 25734m | 6.2m/s | -50.1°C | 3.6% | 0hPa | 2.7V | 00:00:00 | 00:00:00 | 08:30:00 | |
| OK1ALN | 2026-09-04 12:27:17 | 49.14175 | 17.93632 | 28° | 13km/h | 25719m | 7.6m/s | 0°C | 0% | 0hPa | 2.7V | 00:00:00 | 00:00:00 | 00:00:00 | |
| HA6NAB-11 | 2026-09-04 12:27:16 | 49.14172 | 17.93629 | 27° | 15km/h | 25713m | 5.6m/s | -50.3°C | 0.9% | 0hPa | 2.7V | 00:00:00 | 00:00:00 | 00:00:00 | |
| OE5MMP-10 | 2026-09-04 12:27:15 | 49.14166 | 17.93626 | 4° | 9km/h | 25700m | 7.4m/s | -50.2°C | 3.6% | 0hPa | 2.7V | 00:00:00 | 01:45:18 | 00:00:00 | |
| PG1ADW-2 | 2026-09-04 12:27:14 | 49.14164 | 17.93627 | 334° | 7km/h | 25693m | 6.4m/s | -50.2°C | 3.6% | 0hPa | 2.7V | 00:00:00 | 00:00:00 | 00:00:00 | |
| PETON7-10 | 2026-09-04 12:27:10 | 49.14155 | 17.93637 | 327° | 7km/h | 25665m | 5.9m/s | -50.1°C | 3.6% | 0hPa | 2.7V | 00:00:00 | 00:00:00 | 00:00:00 | |
| HA6NAB-11 | 2026-09-04 12:27:09 | 49.14155 | 17.93637 | 328° | 13km/h | 25665m | 6.0m/s | -50.2°C | 0.9% | 0hPa | 2.7V | 00:00:00 | 00:00:00 | 00:00:00 | |
| OE5DRO-10 | 2026-09-04 12:27:07 | 49.14151 | 17.93642 | 202° | 5km/h | 25646m | 6.6m/s | -50.1°C | 3.6% | 0hPa | 2.7V | 00:00:00 | 00:00:00 | 00:00:00 | |
| SP3WXH-11 | 2026-09-04 12:27:06 | 49.14153 | 17.93640 | 117° | 5km/h | 25632m | 7.1m/s | -50.0°C | 0.9% | -1.0hPa | 2.7V | 00:00:00 | 00:00:00 | 00:00:00 | |
| OE5MMP-10 | 2026-09-04 12:27:05 | 49.14153 | 17.93640 | 118° | 7km/h | 25632m | 7.0m/s | -49.9°C | 3.6% | 0hPa | 2.7V | 00:00:00 | 01:45:08 | 00:00:00 | |
| DO3MHA-11 | 2026-09-04 12:27:04 | 49.14153 | 17.93638 | 101° | 7km/h | 25625m | 5.8m/s | -49.9°C | 3.6% | 0hPa | 2.7V | 00:00:00 | 01:45:07 | 00:00:00 | |
| HA6NAB-11 | 2026-09-04 12:27:02 | 49.14153 | 17.93635 | 80° | 5km/h | 25619m | 7.1m/s | -50.0°C | 0.9% | 0hPa | 2.7V | 00:00:00 | 00:00:00 | 00:00:00 | |
| OE3OSB-13 | 2026-09-04 12:26:57 | 49.14147 | 17.93643 | 323° | 7km/h | 25577m | 5.8m/s | -49.9°C | 0.8% | -1.0hPa | 2.7V | 00:00:00 | 00:00:00 | 00:00:00 | |
| HA6NAB-11 | 2026-09-04 12:26:56 | 49.14147 | 17.93643 | 324° | 9km/h | 25577m | 5.8m/s | -49.9°C | 0.9% | 0hPa | 2.7V | 00:00:00 | 00:00:00 | 00:00:00 | |
| OE5MMP-10 | 2026-09-04 12:26:55 | 49.14145 | 17.93647 | 274° | 4km/h | 25564m | 6.9m/s | -49.7°C | 3.4% | 0hPa | 2.7V | 00:00:00 | 01:44:58 | 00:00:00 | |
| DO3MHA-11 | 2026-09-04 12:26:54 | 49.14145 | 17.93649 | 230° | 4km/h | 25557m | 5.6m/s | -49.8°C | 3.5% | 0hPa | 2.7V | 00:00:00 | 01:44:57 | 00:00:00 | |
| HA6NAB-11 | 2026-09-04 12:26:50 | 49.14149 | 17.93651 | 137° | 4km/h | 25537m | 6.1m/s | -49.7°C | 0.9% | 0hPa | 2.7V | 00:00:00 | 00:00:00 | 00:00:00 | |
| OE5DRO-10 | 2026-09-04 12:26:48 | 49.14149 | 17.93650 | 282° | 5km/h | 25518m | 6.2m/s | -49.6°C | 3.5% | 0hPa | 2.7V | 00:00:00 | 00:00:00 | 00:00:00 | |
| POL2MAQ | 2026-09-04 12:26:46 | 49.14149 | 17.93652 | 267° | 4km/h | 25512m | 5.9m/s | -49.6°C | 0.9% | 0hPa | 2.6V | 00:00:00 | 00:00:00 | 00:00:00 | |
| HA6NAB-11 | 2026-09-04 12:26:45 | 49.14149 | 17.93655 | 277° | 4km/h | 25498m | 8.0m/s | -49.7°C | 0.9% | 0hPa | 2.6V | 00:00:00 | 00:00:00 | 00:00:00 | |
| DO3MHA-11 | 2026-09-04 12:26:44 | 49.14148 | 17.93656 | 322° | 4km/h | 25492m | 4.9m/s | -49.5°C | 3.4% | 0hPa | 2.6V | 00:00:00 | 01:44:47 | 00:00:00 | |
| PETON7-10 | 2026-09-04 12:26:40 | 49.14148 | 17.93659 | 210° | 7km/h | 25466m | 6.1m/s | -49.6°C | 3.3% | 0hPa | 2.6V | 00:00:00 | 00:00:00 | 08:30:00 | |
| OE5WHR-10 | 2026-09-04 12:26:37 | 49.14151 | 17.93658 | 107° | 9km/h | 25445m | 5.6m/s | -49.6°C | 3.3% | 0hPa | 2.6V | 00:00:00 | 01:44:40 | 00:00:00 | |
| SP3WXH-11 | 2026-09-04 12:26:35 | 49.14154 | 17.93652 | 150° | 9km/h | 25426m | 4.9m/s | -49.8°C | 0.8% | -1.0hPa | 2.6V | 00:00:00 | 00:00:00 | 00:00:00 | |
| DO3MHA-11 | 2026-09-04 12:26:34 | 49.14154 | 17.93652 | 151° | 7km/h | 25426m | 4.9m/s | -49.8°C | 3.4% | 0hPa | 2.6V | 00:00:00 | 01:44:37 | 00:00:00 | |
| OE5DRO-10 | 2026-09-04 12:26:29 | 49.14164 | 17.93647 | 161° | 9km/h | 25393m | 6.4m/s | -50.1°C | 3.6% | 0hPa | 2.6V | 00:00:00 | 00:00:00 | 00:00:00 | |
| OE3OSB-13 | 2026-09-04 12:26:26 | 49.14169 | 17.93644 | 158° | 7km/h | 25373m | 5.4m/s | -50.3°C | 0.8% | -1.0hPa | 2.6V | 00:00:00 | 00:00:00 | 00:00:00 | |
| PETON7-10 | 2026-09-04 12:26:25 | 49.14171 | 17.93642 | 147° | 11km/h | 25367m | 7.1m/s | -50.4°C | 3.5% | 0hPa | 2.6V | 00:00:00 | 00:00:00 | 00:00:00 | |
| DO3MHA-11 | 2026-09-04 12:26:24 | 49.14172 | 17.93640 | 122° | 11km/h | 25360m | 7.4m/s | -50.4°C | 3.5% | 0hPa | 2.6V | 00:00:00 | 01:44:27 | 00:00:00 | |
| OE5WHR-10 | 2026-09-04 12:26:16 | 49.14192 | 17.93625 | 155° | 11km/h | 25308m | 6.8m/s | -50.4°C | 3.6% | 0hPa | 2.6V | 00:00:00 | 00:00:00 | 00:00:00 | |
| OE5MMP-10 | 2026-09-04 12:26:15 | 49.14194 | 17.93623 | 144° | 9km/h | 25301m | 7.5m/s | -50.4°C | 3.6% | 0hPa | 2.7V | 00:00:00 | 01:44:18 | 00:00:00 | |
| PG1ADW-2 | 2026-09-04 12:26:14 | 49.14196 | 17.93620 | 129° | 11km/h | 25295m | 4.7m/s | -50.3°C | 3.6% | 0hPa | 2.6V | 00:00:00 | 01:44:17 | 00:00:00 | |
| PETON7-10 | 2026-09-04 12:26:10 | 49.14197 | 17.93606 | 53° | 9km/h | 25269m | 5.1m/s | -50.4°C | 3.6% | 0hPa | 2.6V | 00:00:00 | 01:44:13 | 00:00:00 | |
| OE5MMP-10 | 2026-09-04 12:26:05 | 49.14195 | 17.93594 | 144° | 11km/h | 25238m | 5.1m/s | -50.4°C | 3.6% | 0hPa | 2.6V | 00:00:00 | 01:44:08 | 00:00:00 | |
| SP3WXH-11 | 2026-09-04 12:26:04 | 49.14197 | 17.93589 | 97° | 9km/h | 25225m | 7.1m/s | -50.4°C | 0.9% | -1.0hPa | 2.6V | 00:00:00 | 00:00:00 | 00:00:00 | |
| SP3BTT-10 | 2026-09-04 12:25:57 | 49.14190 | 17.93564 | 52° | 15km/h | 25187m | 7.3m/s | 0°C | 0% | 0hPa | 2.6V | 00:00:00 | 00:00:00 | 00:00:00 | |
| OE5WHR-10 | 2026-09-04 12:25:55 | 49.14184 | 17.93556 | 36° | 13km/h | 25174m | 6.3m/s | -50.4°C | 3.6% | 0hPa | 2.6V | 00:00:00 | 00:00:00 | 00:00:00 | |
| PG1ADW-2 | 2026-09-04 12:25:54 | 49.14181 | 17.93553 | 33° | 18km/h | 25167m | 7.7m/s | -50.3°C | 3.6% | 0hPa | 2.6V | 00:00:00 | 00:00:00 | 00:00:00 | |
| OE5DRO-10 | 2026-09-04 12:25:51 | 49.14175 | 17.93547 | 46° | 18km/h | 25148m | 6.5m/s | -50.4°C | 3.6% | 0hPa | 2.6V | 00:00:00 | 00:00:00 | 08:30:00 | |
| OE5MMP-10 | 2026-09-04 12:25:45 | 49.14161 | 17.93530 | 35° | 22km/h | 25110m | 6.3m/s | -50.5°C | 3.7% | 0hPa | 2.6V | 00:00:00 | 01:43:48 | 00:00:00 | |
| DO3MHA-11 | 2026-09-04 12:25:44 | 49.14157 | 17.93526 | 37° | 24km/h | 25103m | 7.5m/s | -50.4°C | 3.7% | 0hPa | 2.6V | 00:00:00 | 01:43:47 | 08:30:00 | |
| PETON7-10 | 2026-09-04 12:25:40 | 49.14136 | 17.93505 | 21° | 20km/h | 25077m | 5.5m/s | -50.3°C | 3.7% | 0hPa | 2.6V | 00:00:00 | 00:00:00 | 00:00:00 | |
| OE5MMP-10 | 2026-09-04 12:25:35 | 49.14108 | 17.93498 | 3° | 18km/h | 25045m | 6.2m/s | -50.0°C | 3.6% | 0hPa | 2.6V | 00:00:00 | 01:43:38 | 00:00:00 | |
| PG1ADW-2 | 2026-09-04 12:25:34 | 49.14103 | 17.93498 | 358° | 18km/h | 25038m | 7.2m/s | -50.1°C | 3.6% | 0hPa | 2.6V | 00:00:00 | 00:00:00 | 00:00:00 | |
| SP3WXH-11 | 2026-09-04 12:25:33 | 49.14094 | 17.93500 | 354° | 16km/h | 25026m | 5.8m/s | -50.2°C | 0.8% | -1.0hPa | 2.7V | 00:00:00 | 00:00:00 | 00:00:00 | |
| OE5DRO-10 | 2026-09-04 12:25:32 | 49.14094 | 17.93500 | 355° | 16km/h | 25026m | 5.8m/s | -50.1°C | 3.6% | 0hPa | 2.7V | 00:00:00 | 00:00:00 | 00:00:00 | |
| OE5MMP-10 | 2026-09-04 12:25:25 | 49.14061 | 17.93495 | 2° | 16km/h | 24981m | 6.9m/s | -49.8°C | 3.6% | 0hPa | 2.7V | 00:00:00 | 01:43:28 | 00:00:00 | |
| DO3MHA-11 | 2026-09-04 12:25:24 | 49.14057 | 17.93494 | 3° | 16km/h | 24974m | 6.6m/s | -49.8°C | 3.6% | 0hPa | 2.7V | 00:00:00 | 01:43:27 | 00:00:00 | |
| OE5MMP-10 | 2026-09-04 12:25:15 | 49.14021 | 17.93505 | 7° | 11km/h | 24918m | 7.4m/s | -49.8°C | 3.6% | 0hPa | 2.7V | 00:00:00 | 01:43:18 | 08:30:00 | |
| PG1ADW-2 | 2026-09-04 12:25:14 | 49.14018 | 17.93504 | 12° | 11km/h | 24911m | 5.0m/s | -49.6°C | 3.6% | 0hPa | 2.6V | 00:00:00 | 00:00:00 | 00:00:00 | |
| OE5DRO-10 | 2026-09-04 12:25:13 | 49.14016 | 17.93503 | 18° | 11km/h | 24906m | 5.9m/s | -49.5°C | 3.5% | 0hPa | 2.6V | 00:00:00 | 00:00:00 | 00:00:00 | |
| PETON7-10 | 2026-09-04 12:25:10 | 49.14009 | 17.93500 | 9° | 11km/h | 24887m | 5.4m/s | -49.4°C | 3.4% | 0hPa | 2.6V | 00:00:00 | 00:00:00 | 00:00:00 | |
| OE5MMP-10 | 2026-09-04 12:25:05 | 49.13999 | 17.93512 | 304° | 9km/h | 24855m | 6.9m/s | -49.3°C | 3.4% | 0hPa | 2.6V | 00:00:00 | 01:43:08 | 00:00:00 | |
| DO3MHA-11 | 2026-09-04 12:25:04 | 49.13997 | 17.93516 | 314° | 9km/h | 24848m | 5.7m/s | -49.3°C | 3.5% | 0hPa | 2.6V | 00:00:00 | 01:43:07 | 00:00:00 | |
| SP3WXH-11 | 2026-09-04 12:25:02 | 49.13993 | 17.93524 | 292° | 5km/h | 24829m | 4.8m/s | -49.3°C | 0.8% | -1.0hPa | 2.6V | 00:00:00 | 00:00:00 | 00:00:00 | |
| OE3OSB-13 | 2026-09-04 12:24:53 | 49.13986 | 17.93554 | 273° | 13km/h | 24777m | 6.9m/s | -49.7°C | 0.8% | -1.0hPa | 2.6V | 00:00:00 | 00:00:00 | 00:00:00 | |
| HA6NAB-11 | 2026-09-04 12:24:52 | 49.13986 | 17.93554 | 274° | 15km/h | 24777m | 6.9m/s | -49.7°C | 0.9% | 0hPa | 2.6V | 00:00:00 | 00:00:00 | 00:00:00 | |
| HA6NAB-11 | 2026-09-04 12:24:46 | 49.13985 | 17.93587 | 254° | 16km/h | 24740m | 6.4m/s | -49.7°C | 0.9% | 0hPa | 2.6V | 00:00:00 | 00:00:00 | 00:00:00 | |
| OE5MMP-10 | 2026-09-04 12:24:45 | 49.13987 | 17.93598 | 259° | 9km/h | 24727m | 4.3m/s | -49.7°C | 3.5% | 0hPa | 2.6V | 00:00:00 | 01:42:48 | 00:00:00 | |
| DO3MHA-11 | 2026-09-04 12:24:44 | 49.13988 | 17.93603 | 265° | 9km/h | 24722m | 5.7m/s | -49.8°C | 3.5% | 0hPa | 2.6V | 00:00:00 | 01:42:47 | 00:00:00 | |
| PETON7-10 | 2026-09-04 12:24:40 | 49.13990 | 17.93620 | 235° | 7km/h | 24696m | 6.4m/s | -49.6°C | 3.4% | 0hPa | 2.6V | 00:00:00 | 01:42:43 | 00:00:00 | |
| OE5WHR-10 | 2026-09-04 12:24:38 | 49.13993 | 17.93623 | 173° | 9km/h | 24682m | 5.8m/s | -49.7°C | 3.5% | 0hPa | 2.6V | 00:00:00 | 00:00:00 | 00:00:00 | |
| OE5DXL-15 | 2026-09-04 12:24:35 | 49.13997 | 17.93620 | 172° | 11km/h | 24666m | 7.6m/s | -49.7°C | 3.6% | 0hPa | 2.6V | 00:00:00 | 00:00:00 | 00:00:00 | |
| PG1ADW-2 | 2026-09-04 12:24:34 | 49.14000 | 17.93620 | 187° | 11km/h | 24658m | 9.2m/s | -49.6°C | 3.6% | 0hPa | 2.6V | 00:00:00 | 00:00:00 | 00:00:00 | |
| SP3WXH-11 | 2026-09-04 12:24:30 | 49.14011 | 17.93626 | 213° | 4km/h | 24634m | 6.8m/s | -49.7°C | 0.8% | -1.0hPa | 2.7V | 00:00:00 | 00:00:00 | 00:00:00 | |
| HA6NAB-11 | 2026-09-04 12:24:28 | 49.14012 | 17.93627 | 292° | 4km/h | 24628m | 5.6m/s | -49.7°C | 0.9% | 0hPa | 2.7V | 00:00:00 | 00:00:00 | 00:00:00 | |
| PETON7-10 | 2026-09-04 12:24:25 | 49.14011 | 17.93629 | 104° | 11km/h | 24603m | 5.9m/s | -49.7°C | 3.4% | 0hPa | 2.7V | 00:00:00 | 00:00:00 | 08:30:00 | |
| OE5MMP-10 | 2026-09-04 12:24:24 | 49.14011 | 17.93627 | 100° | 24km/h | 24596m | 6.6m/s | -49.6°C | 3.4% | 0hPa | 2.7V | 00:00:00 | 01:42:27 | 00:00:00 | |
| POL2MAQ | 2026-09-04 12:24:23 | 49.14011 | 17.93627 | 100° | 9km/h | 24596m | 6.6m/s | -49.7°C | 0.9% | 0hPa | 2.7V | 00:00:00 | 00:00:00 | 00:00:00 | |
| OE3OSB-13 | 2026-09-04 12:24:22 | 49.14021 | 17.93600 | 137° | 18km/h | 24564m | 7.4m/s | -49.7°C | 0.8% | -1.0hPa | 2.7V | 00:00:00 | 00:00:00 | 00:00:00 | |
| OE5WHR-10 | 2026-09-04 12:24:17 | 49.14026 | 17.93592 | 138° | 15km/h | 24550m | 6.0m/s | -49.7°C | 3.5% | 0hPa | 2.7V | 00:00:00 | 00:00:00 | 00:00:00 | |
| OE5DRO-10 | 2026-09-04 12:24:16 | 49.14029 | 17.93589 | 147° | 15km/h | 24543m | 6.9m/s | -49.7°C | 3.5% | 0hPa | 2.7V | 00:00:00 | 00:00:00 | 00:00:00 | |
| DO3MHA-11 | 2026-09-04 12:24:14 | 49.14032 | 17.93588 | 194° | 11km/h | 24530m | 5.4m/s | -49.8°C | 3.5% | 0hPa | 2.7V | 00:00:00 | 01:42:17 | 08:30:00 | |
| PETON7-10 | 2026-09-04 12:24:10 | 49.14033 | 17.93588 | 59° | 16km/h | 24505m | 5.9m/s | -50.1°C | 3.5% | 0hPa | 2.6V | 00:00:00 | 00:00:00 | 00:00:00 | |
| OE5DXL-15 | 2026-09-04 12:24:05 | 49.14045 | 17.93563 | 127° | 16km/h | 24472m | 9.2m/s | -50.2°C | 3.6% | 0hPa | 2.6V | 00:00:00 | 00:00:00 | 08:30:00 | |
| DO3MHA-11 | 2026-09-04 12:24:04 | 49.14049 | 17.93554 | 124° | 15km/h | 24465m | 4.8m/s | -50.2°C | 3.5% | 0hPa | 2.7V | 00:00:00 | 01:42:07 | 00:00:00 | |
| NBG1-10 | 2026-09-04 12:24:03 | 49.14053 | 17.93545 | 125° | 16km/h | 24461m | 4.6m/s | -50.3°C | 3.6% | 0hPa | 2.7V | 00:00:00 | 01:42:06 | 00:00:00 | |
| POL2MAQ | 2026-09-04 12:24:02 | 49.14053 | 17.93545 | 125° | 27km/h | 24461m | 4.6m/s | -50.3°C | 1.0% | 0hPa | 2.7V | 00:00:00 | 00:00:00 | 00:00:00 | |
| SP3WXH-11 | 2026-09-04 12:23:59 | 49.14066 | 17.93525 | 146° | 7km/h | 24437m | 5.8m/s | -50.2°C | 0.9% | -1.0hPa | 2.7V | 00:00:00 | 00:00:00 | 00:00:00 | |
| OE5DRO-10 | 2026-09-04 12:23:57 | 49.14067 | 17.93521 | 60° | 15km/h | 24423m | 6.3m/s | -50.2°C | 3.6% | 0hPa | 2.7V | 00:00:00 | 00:00:00 | 00:00:00 | |
| OE5WHR-10 | 2026-09-04 12:23:56 | 49.14066 | 17.93519 | 49° | 16km/h | 24417m | 5.3m/s | -50.2°C | 3.6% | 0hPa | 2.6V | 00:00:00 | 01:41:59 | 00:00:00 | |
| PETON7-10 | 2026-09-04 12:23:55 | 49.14065 | 17.93516 | 58° | 16km/h | 24411m | 5.5m/s | -50.2°C | 3.6% | 0hPa | 2.6V | 00:00:00 | 01:41:58 | 00:00:00 | |
| PG1ADW-2 | 2026-09-04 12:23:54 | 49.14064 | 17.93513 | 90° | 16km/h | 24406m | 4.6m/s | -50.2°C | 3.6% | 0hPa | 2.6V | 00:00:00 | 00:00:00 | 00:00:00 | |
| OE3OSB-13 | 2026-09-04 12:23:51 | 49.14093 | 17.93465 | 105° | 13km/h | 24339m | 6.8m/s | -50.2°C | 0.9% | -1.0hPa | 2.6V | 00:00:00 | 00:00:00 | 00:00:00 | |
| OE5MMP-10 | 2026-09-04 12:23:42 | 49.14094 | 17.93459 | 97° | 20km/h | 24332m | 7.9m/s | -50.1°C | 3.5% | 0hPa | 2.6V | 00:00:00 | 01:41:45 | 00:00:00 | |
| DO3MHA-11 | 2026-09-04 12:23:41 | 49.14094 | 17.93452 | 95° | 20km/h | 24325m | 5.6m/s | -50.1°C | 3.5% | 0hPa | 2.6V | 00:00:00 | 01:41:44 | 00:00:00 | |
| PETON7-10 | 2026-09-04 12:23:40 | 49.14094 | 17.93445 | 92° | 20km/h | 24319m | 5.5m/s | -50.1°C | 3.4% | 0hPa | 2.7V | 00:00:00 | 00:00:00 | 00:00:00 | |
| OE5DRO-10 | 2026-09-04 12:23:38 | 49.14094 | 17.93430 | 84° | 20km/h | 24306m | 6.2m/s | -50.1°C | 3.5% | 0hPa | 2.7V | 00:00:00 | 00:00:00 | 00:00:00 | |
| OE5DXL-15 | 2026-09-04 12:23:35 | 49.14095 | 17.93407 | 117° | 16km/h | 24287m | 5.9m/s | -50.2°C | 3.6% | 0hPa | 2.7V | 00:00:00 | 00:00:00 | 00:00:00 | |
| PG1ADW-2 | 2026-09-04 12:23:34 | 49.14098 | 17.93400 | 129° | 18km/h | 24281m | 5.7m/s | -50.2°C | 3.6% | 0hPa | 2.7V | 00:00:00 | 01:41:37 | 08:30:00 | |
| OE5MMP-10 | 2026-09-04 12:23:32 | 49.14105 | 17.93389 | 133° | 20km/h | 24267m | 7.8m/s | -50.2°C | 3.6% | 0hPa | 2.6V | 00:00:00 | 01:41:35 | 08:30:00 | |
| DO3MHA-11 | 2026-09-04 12:23:31 | 49.14107 | 17.93384 | 127° | 20km/h | 24261m | 5.5m/s | -50.2°C | 3.6% | 0hPa | 2.7V | 00:00:00 | 01:41:34 | 00:00:00 | |
| NBG1-10 | 2026-09-04 12:23:30 | 49.14110 | 17.93379 | 121° | 16km/h | 24255m | 5.9m/s | 0°C | 0% | 0hPa | 2.7V | 00:00:00 | 01:41:33 | 00:00:00 | |
| SP3WXH-11 | 2026-09-04 12:23:28 | 49.14114 | 17.93368 | 115° | 18km/h | 24242m | 5.4m/s | -50.3°C | 0.9% | -1.0hPa | 2.7V | 00:00:00 | 00:00:00 | 00:00:00 | |
| PETON7-10 | 2026-09-04 12:23:25 | 49.14118 | 17.93344 | 94° | 16km/h | 24222m | 6.4m/s | -50.3°C | 3.5% | 0hPa | 2.7V | 00:00:00 | 00:00:00 | 00:00:00 | |
| OE5MMP-10 | 2026-09-04 12:23:22 | 49.14119 | 17.93317 | 99° | 13km/h | 24203m | 6.2m/s | -50.3°C | 3.5% | 0hPa | 2.7V | 00:00:00 | 01:41:25 | 00:00:00 | |
| DO3MHA-11 | 2026-09-04 12:23:21 | 49.14120 | 17.93310 | 108° | 13km/h | 24197m | 5.9m/s | -50.3°C | 3.5% | 0hPa | 2.7V | 00:00:00 | 01:41:24 | 00:00:00 | |
| OE3OSB-13 | 2026-09-04 12:23:20 | 49.14123 | 17.93299 | 115° | 11km/h | 24183m | 7.4m/s | -50.4°C | 0.9% | -1.0hPa | 2.7V | 00:00:00 | 00:00:00 | 00:00:00 | |
| OE5DRO-10 | 2026-09-04 12:23:19 | 49.14123 | 17.93299 | 116° | 13km/h | 24183m | 7.3m/s | -50.3°C | 3.5% | 0hPa | 2.7V | 00:00:00 | 00:00:00 | 00:00:00 | |
| PG1ADW-2 | 2026-09-04 12:23:14 | 49.14130 | 17.93282 | 119° | 16km/h | 24151m | 6.1m/s | -50.6°C | 3.5% | 0hPa | 2.7V | 00:00:00 | 00:00:00 | 00:00:00 | |
| OE5WHR-10 | 2026-09-04 12:23:13 | 49.14130 | 17.93277 | 98° | 16km/h | 24145m | 6.9m/s | -50.7°C | 3.6% | 0hPa | 2.7V | 00:00:00 | 00:00:00 | 00:00:00 | |
| DO3MHA-11 | 2026-09-04 12:23:11 | 49.14129 | 17.93265 | 70° | 15km/h | 24133m | 6.2m/s | -50.6°C | 3.6% | 0hPa | 2.7V | 00:00:00 | 01:41:14 | 00:00:00 | |
| PETON7-10 | 2026-09-04 12:23:10 | 49.14127 | 17.93258 | 71° | 16km/h | 24126m | 7.6m/s | -50.6°C | 3.6% | 0hPa | 2.6V | 00:00:00 | 01:41:13 | 00:00:00 | |
| OE5DXL-15 | 2026-09-04 12:23:05 | 49.14120 | 17.93228 | 56° | 15km/h | 24094m | 6.6m/s | -51.0°C | 3.6% | 0hPa | 2.6V | 00:00:00 | 00:00:00 | 00:00:00 | |
| SP3WXH-11 | 2026-09-04 12:22:57 | 49.14112 | 17.93189 | 88° | 20km/h | 24041m | 7.7m/s | -51.2°C | 0.9% | -1.0hPa | 2.6V | 00:00:00 | 00:00:00 | 00:00:00 | |
| OE3OSB-13 | 2026-09-04 12:22:49 | 49.14107 | 17.93159 | 277° | 9km/h | 23985m | 7.1m/s | -51.2°C | 0.9% | -1.0hPa | 2.6V | 00:00:00 | 00:00:00 | 00:00:00 | |
| OE5DRO-10 | 2026-09-04 12:22:41 | 49.14106 | 17.93147 | 96° | 18km/h | 23938m | 7.0m/s | -51.7°C | 3.9% | 0hPa | 2.6V | 00:00:00 | 00:00:00 | 00:00:00 | |
| OE5DXL-15 | 2026-09-04 12:22:35 | 49.14115 | 17.93109 | 178° | 16km/h | 23899m | 8.3m/s | -51.6°C | 3.8% | 0hPa | 2.6V | 00:00:00 | 00:00:00 | 00:00:00 | |
| PG1ADW-2 | 2026-09-04 12:22:34 | 49.14117 | 17.93110 | 233° | 15km/h | 23891m | 6.2m/s | -51.7°C | 3.9% | 0hPa | 2.6V | 00:00:00 | 00:00:00 | 00:00:00 | |
| OE5MMP-10 | 2026-09-04 12:22:31 | 49.14121 | 17.93118 | 190° | 20km/h | 23873m | 5.2m/s | -51.6°C | 3.8% | 0hPa | 2.7V | 00:00:00 | 01:40:34 | 00:00:00 | |
| SP3WXH-11 | 2026-09-04 12:22:26 | 49.14131 | 17.93087 | 101° | 29km/h | 23841m | 7.4m/s | -51.6°C | -1.0% | -1.0hPa | 2.7V | 00:00:00 | 00:00:00 | 00:00:00 | |
| OE5DRO-10 | 2026-09-04 12:22:22 | 49.14138 | 17.93054 | 124° | 15km/h | 23817m | 5.0m/s | -51.6°C | 3.8% | 0hPa | 2.7V | 00:00:00 | 00:00:00 | 00:00:00 | |
| OE5MMP-10 | 2026-09-04 12:22:21 | 49.14139 | 17.93051 | 148° | 15km/h | 23811m | 6.8m/s | -51.6°C | 3.8% | 0hPa | 2.7V | 00:00:00 | 01:40:24 | 00:00:00 | |
| OE3OSB-13 | 2026-09-04 12:22:17 | 49.14146 | 17.93048 | 131° | 9km/h | 23785m | 6.9m/s | -51.7°C | 0.9% | -1.0hPa | 2.7V | 00:00:00 | 00:00:00 | 00:00:00 | |
| PG1ADW-2 | 2026-09-04 12:22:14 | 49.14148 | 17.93030 | 89° | 22km/h | 23765m | 7.4m/s | -51.7°C | 3.8% | 0hPa | 2.7V | 00:00:00 | 01:40:17 | 00:00:00 | |
| OE5MMP-10 | 2026-09-04 12:22:11 | 49.14148 | 17.92999 | 95° | 15km/h | 23746m | 5.6m/s | -51.7°C | 3.8% | 0hPa | 2.7V | 00:00:00 | 01:40:14 | 00:00:00 | |
| OE5WHR-10 | 2026-09-04 12:22:10 | 49.14149 | 17.92990 | 92° | 15km/h | 23739m | 7.7m/s | 0°C | 0% | 0hPa | 2.7V | 00:00:00 | 00:00:00 | 00:00:00 | |
| NBG1-10 | 2026-09-04 12:22:07 | 49.14150 | 17.92977 | 140° | 13km/h | 23720m | 7.8m/s | 0°C | 0% | 0hPa | 2.7V | 00:00:00 | 01:40:10 | 00:00:00 | |
| OE5DXL-15 | 2026-09-04 12:22:05 | 49.14154 | 17.92975 | 175° | 18km/h | 23707m | 6.0m/s | -51.8°C | 3.8% | 0hPa | 2.7V | 00:00:00 | 00:00:00 | 00:00:00 | |
| OE5DRO-10 | 2026-09-04 12:22:03 | 49.14161 | 17.92973 | 161° | 18km/h | 23694m | 6.9m/s | -51.7°C | 3.8% | 0hPa | 2.7V | 00:00:00 | 00:00:00 | 00:00:00 | |
| OE3OSB-13 | 2026-09-04 12:21:46 | 49.14206 | 17.92884 | 153° | 16km/h | 23587m | 6.2m/s | -52.3°C | 1.0% | -1.0hPa | 2.7V | 00:00:00 | 00:00:00 | 00:00:00 | |
| OE5DRO-10 | 2026-09-04 12:21:44 | 49.14213 | 17.92875 | 125° | 16km/h | 23574m | 6.2m/s | -52.2°C | 4.0% | 0hPa | 2.7V | 00:00:00 | 00:00:00 | 00:00:00 | |
| OE5MMP-10 | 2026-09-04 12:21:41 | 49.14220 | 17.92850 | 111° | 18km/h | 23554m | 7.1m/s | -52.1°C | 4.0% | 0hPa | 2.7V | 00:00:00 | 01:39:44 | 00:00:00 | |
| PETON7-10 | 2026-09-04 12:21:40 | 49.14223 | 17.92840 | 112° | 13km/h | 23548m | 5.4m/s | -52.1°C | 4.0% | 0hPa | 2.7V | 00:00:00 | 01:39:43 | 00:00:00 | |
| OE5DXL-15 | 2026-09-04 12:21:35 | 49.14231 | 17.92807 | 130° | 11km/h | 23517m | 7.2m/s | -52.1°C | 3.8% | 0hPa | 2.7V | 00:00:00 | 00:00:00 | 00:00:00 | |
| PG1ADW-2 | 2026-09-04 12:21:34 | 49.14233 | 17.92804 | 153° | 9km/h | 23510m | 5.9m/s | -52.1°C | 3.8% | 0hPa | 2.7V | 00:00:00 | 00:00:00 | 00:00:00 | |
| OE5MMP-10 | 2026-09-04 12:21:31 | 49.14240 | 17.92800 | 153° | 9km/h | 23491m | 5.0m/s | -52.1°C | 3.8% | 0hPa | 2.6V | 00:00:00 | 01:39:34 | 00:00:00 | |
| PETON7-10 | 2026-09-04 12:21:25 | 49.14245 | 17.92780 | 68° | 9km/h | 23452m | 6.2m/s | -52.0°C | 4.0% | 0hPa | 2.7V | 00:00:00 | 00:00:00 | 00:00:00 | |
| DO3MHA-11 | 2026-09-04 12:21:21 | 49.14240 | 17.92769 | 50° | 9km/h | 23427m | 5.9m/s | -52.2°C | 3.9% | 0hPa | 2.7V | 00:00:00 | 01:39:24 | 00:00:00 | |
| OE5MMP-10 | 2026-09-04 12:21:20 | 49.14239 | 17.92768 | 25° | 11km/h | 23421m | 6.9m/s | -52.3°C | 3.8% | 0hPa | 2.7V | 00:00:00 | 01:39:23 | 00:00:00 | |
| POL2MAQ | 2026-09-04 12:21:19 | 49.14240 | 17.92768 | 25° | 2km/h | 23421m | 6.9m/s | -52.3°C | 1.0% | 0hPa | 2.7V | 00:00:00 | 00:00:00 | 00:00:00 | |
| OE3OSB-13 | 2026-09-04 12:21:15 | 49.14237 | 17.92763 | 104° | 11km/h | 23389m | 5.8m/s | -52.5°C | 1.0% | -1.0hPa | 2.7V | 00:00:00 | 00:00:00 | 00:00:00 | |
| PG1ADW-2 | 2026-09-04 12:21:14 | 49.14238 | 17.92757 | 98° | 15km/h | 23382m | 6.2m/s | -52.4°C | 4.1% | 0hPa | 2.7V | 00:00:00 | 00:00:00 | 00:00:00 | |
| DO3MHA-11 | 2026-09-04 12:21:11 | 49.14235 | 17.92736 | 71° | 13km/h | 23364m | 6.2m/s | -52.4°C | 4.1% | 0hPa | 2.7V | 00:00:00 | 01:39:14 | 08:30:00 | |
| PETON7-10 | 2026-09-04 12:21:10 | 49.14234 | 17.92729 | 70° | 13km/h | 23357m | 7.5m/s | -52.4°C | 4.1% | 0hPa | 2.7V | 00:00:00 | 00:00:00 | 00:00:00 | |
| OE5DRO-10 | 2026-09-04 12:21:06 | 49.14227 | 17.92709 | 38° | 16km/h | 23332m | 5.5m/s | -52.2°C | 3.9% | 0hPa | 2.7V | 00:00:00 | 00:00:00 | 00:00:00 | |
| OE5DXL-15 | 2026-09-04 12:21:05 | 49.14224 | 17.92706 | 29° | 15km/h | 23326m | 6.6m/s | -52.2°C | 3.9% | 0hPa | 2.7V | 00:00:00 | 00:00:00 | 00:00:00 | |
| HA6NAB-11 | 2026-09-04 12:21:04 | 49.14224 | 17.92706 | 29° | 13km/h | 23326m | 6.7m/s | -52.2°C | 1.1% | 0hPa | 2.7V | 00:00:00 | 00:00:00 | 00:00:00 | |
| DO3MHA-11 | 2026-09-04 12:21:01 | 49.14217 | 17.92697 | 56° | 20km/h | 23300m | 7.6m/s | -52.1°C | 4.0% | 0hPa | 2.7V | 00:00:00 | 01:39:04 | 00:00:00 | |
| OE5MMP-10 | 2026-09-04 12:21:00 | 49.14216 | 17.92693 | 57° | 20km/h | 23293m | 4.5m/s | -52.1°C | 4.0% | 0hPa | 2.7V | 00:00:00 | 01:39:03 | 00:00:00 | |
| HA6NAB-11 | 2026-09-04 12:20:58 | 49.14214 | 17.92689 | 57° | 15km/h | 23288m | 6.8m/s | -52.2°C | 1.1% | 0hPa | 2.6V | 00:00:00 | 00:00:00 | 00:00:00 | |
| PETON7-10 | 2026-09-04 12:20:55 | 49.14204 | 17.92666 | 51° | 15km/h | 23262m | 6.7m/s | -52.3°C | 4.0% | 0hPa | 2.6V | 00:00:00 | 01:38:58 | 00:00:00 | |
| PG1ADW-2 | 2026-09-04 12:20:54 | 49.14200 | 17.92659 | 39° | 16km/h | 23255m | 7.6m/s | -52.3°C | 4.0% | 0hPa | 2.6V | 00:00:00 | 01:38:57 | 00:00:00 | |
| HA6NAB-11 | 2026-09-04 12:20:52 | 49.14194 | 17.92654 | 28° | 27km/h | 23249m | 5.5m/s | -52.3°C | 1.1% | 0hPa | 2.6V | 00:00:00 | 00:00:00 | 00:00:00 | |
| DO3MHA-11 | 2026-09-04 12:20:51 | 49.14182 | 17.92646 | 22° | 11km/h | 23237m | 6.8m/s | -52.3°C | 3.9% | 0hPa | 2.6V | 00:00:00 | 01:38:54 | 00:00:00 | |
| OE5MMP-10 | 2026-09-04 12:20:50 | 49.14177 | 17.92643 | 22° | 9km/h | 23230m | 5.6m/s | -52.4°C | 4.0% | 0hPa | 2.6V | 00:00:00 | 01:38:53 | 00:00:00 | |
| OE5DRO-10 | 2026-09-04 12:20:47 | 49.14169 | 17.92639 | 3° | 11km/h | 23211m | 6.9m/s | -52.4°C | 4.0% | 0hPa | 2.6V | 00:00:00 | 00:00:00 | 00:00:00 | |
| HA6NAB-11 | 2026-09-04 12:20:42 | 49.14162 | 17.92636 | 45° | 7km/h | 23186m | 6.0m/s | -52.2°C | 1.1% | 0hPa | 2.6V | 00:00:00 | 00:00:00 | 00:00:00 | |
| DO3MHA-11 | 2026-09-04 12:20:41 | 49.14158 | 17.92632 | 15° | 16km/h | 23173m | 6.7m/s | -52.1°C | 3.9% | 0hPa | 2.6V | 00:00:00 | 01:38:44 | 00:00:00 | |
| OE5MMP-10 | 2026-09-04 12:20:40 | 49.14154 | 17.92632 | 8° | 15km/h | 23166m | 6.1m/s | -52.1°C | 3.9% | 0hPa | 2.6V | 00:00:00 | 01:38:43 | 00:00:00 | |
| POL2MAQ | 2026-09-04 12:20:38 | 49.14150 | 17.92631 | 7° | 18km/h | 23160m | 7.0m/s | -52.1°C | 1.1% | 0hPa | 2.6V | 00:00:00 | 00:00:00 | 00:00:00 | |
| HA6NAB-11 | 2026-09-04 12:20:36 | 49.14140 | 17.92629 | 9° | 20km/h | 23147m | 6.0m/s | -52.0°C | 1.1% | 0hPa | 2.6V | 00:00:00 | 00:00:00 | 00:00:00 | |
| OE5DXL-15 | 2026-09-04 12:20:35 | 49.14131 | 17.92628 | 356° | 7km/h | 23135m | 5.6m/s | -52.0°C | 3.9% | 0hPa | 2.6V | 00:00:00 | 00:00:00 | 00:00:00 | |
| PG1ADW-2 | 2026-09-04 12:20:34 | 49.14127 | 17.92629 | 348° | 5km/h | 23129m | 5.8m/s | -52.0°C | 3.9% | 0hPa | 2.6V | 00:00:00 | 00:00:00 | 08:30:00 | |
| OE5MMP-10 | 2026-09-04 12:20:30 | 49.14119 | 17.92635 | 275° | 5km/h | 23102m | 6.9m/s | -52.1°C | 3.9% | 0hPa | 2.6V | 00:00:00 | 01:38:33 | 08:30:00 | |
| NBG1-10 | 2026-09-04 12:20:28 | 49.14119 | 17.92640 | 271° | 9km/h | 23088m | 4.4m/s | 0°C | 0% | 0hPa | 2.7V | 00:00:00 | 01:38:31 | 00:00:00 | |
| PETON7-10 | 2026-09-04 12:20:25 | 49.14119 | 17.92647 | 254° | 4km/h | 23069m | 7.3m/s | -52.1°C | 4.0% | 0hPa | 2.7V | 00:00:00 | 00:00:00 | 00:00:00 | |
| OE5MMP-10 | 2026-09-04 12:20:20 | 49.14117 | 17.92651 | 338° | 5km/h | 23039m | 5.6m/s | -52.1°C | 3.9% | 0hPa | 2.7V | 00:00:00 | 01:38:23 | 00:00:00 | |
| POL2MAQ | 2026-09-04 12:20:18 | 49.14116 | 17.92651 | 14° | 4km/h | 23032m | 7.3m/s | -52.2°C | 1.1% | 0hPa | 2.7V | 00:00:00 | 00:00:00 | 00:00:00 | |
| PG1ADW-2 | 2026-09-04 12:20:14 | 49.14116 | 17.92644 | 160° | 11km/h | 23001m | 6.4m/s | -51.9°C | 3.9% | 0hPa | 2.7V | 00:00:00 | 00:00:00 | 00:00:00 | |
| OE3OSB-13 | 2026-09-04 12:20:13 | 49.14117 | 17.92644 | 175° | 4km/h | 22994m | 7.7m/s | -52.0°C | 1.0% | -1.0hPa | 2.7V | 00:00:00 | 00:00:00 | 00:00:00 | |
| SQ9EZE-14 | 2026-09-04 12:20:11 | 49.14118 | 17.92643 | 174° | 7km/h | 22987m | 5.5m/s | 0°C | 0% | 0hPa | 2.7V | 00:00:00 | 00:00:00 | 00:00:00 | |
| PETON7-10 | 2026-09-04 12:20:10 | 49.14121 | 17.92642 | 162° | 15km/h | 22975m | 7.1m/s | -51.7°C | 3.8% | 0hPa | 2.7V | 00:00:00 | 01:38:13 | 00:00:00 | |
| OE5DRO-10 | 2026-09-04 12:20:09 | 49.14122 | 17.92641 | 128° | 13km/h | 22969m | 4.3m/s | -51.8°C | 3.8% | 0hPa | 2.7V | 00:00:00 | 00:00:00 | 08:30:00 | |
| OE5DXL-15 | 2026-09-04 12:20:05 | 49.14122 | 17.92627 | 87° | 11km/h | 22945m | 6.1m/s | -52.0°C | 3.8% | 0hPa | 2.6V | 00:00:00 | 00:00:00 | 00:00:00 | |
| DO3MHA-11 | 2026-09-04 12:20:04 | 49.14122 | 17.92619 | 86° | 9km/h | 22938m | 6.7m/s | -52.1°C | 3.8% | 0hPa | 2.6V | 00:00:00 | 01:38:07 | 00:00:00 | |
| OE5MMP-10 | 2026-09-04 12:20:00 | 49.14122 | 17.92593 | 109° | 11km/h | 22912m | 8.0m/s | -52.0°C | 3.9% | 0hPa | 2.6V | 00:00:00 | 01:38:03 | 00:00:00 | |
| POL2MAQ | 2026-09-04 12:19:57 | 49.14127 | 17.92582 | 137° | 18km/h | 22899m | 5.8m/s | -52.1°C | 1.1% | 0hPa | 2.6V | 00:00:00 | 00:00:00 | 00:00:00 | |
| PETON7-10 | 2026-09-04 12:19:55 | 49.14135 | 17.92573 | 149° | 9km/h | 22880m | 6.0m/s | -52.4°C | 4.0% | 0hPa | 2.6V | 00:00:00 | 00:00:00 | 08:30:00 | |
| OE5MMP-10 | 2026-09-04 12:19:50 | 49.14136 | 17.92563 | 64° | 9km/h | 22848m | 5.2m/s | -52.5°C | 4.0% | 0hPa | 2.7V | 00:00:00 | 01:37:53 | 00:00:00 | |
| OE3OSB-13 | 2026-09-04 12:19:42 | 49.14148 | 17.92541 | 116° | 11km/h | 22798m | 7.7m/s | -52.6°C | 1.0% | -1.0hPa | 2.7V | 00:00:00 | 00:00:00 | 00:00:00 | |
| OE5MMP-10 | 2026-09-04 12:19:40 | 49.14151 | 17.92533 | 111° | 7km/h | 22786m | 5.9m/s | -52.6°C | 3.9% | 0hPa | 2.7V | 00:00:00 | 01:37:43 | 00:00:00 | |
| DO3MHA-11 | 2026-09-04 12:19:39 | 49.14151 | 17.92530 | 103° | 7km/h | 22779m | 7.3m/s | -52.7°C | 4.0% | 0hPa | 2.7V | 00:00:00 | 01:37:42 | 00:00:00 | |
| POL2MAQ | 2026-09-04 12:19:37 | 49.14151 | 17.92527 | 89° | 5km/h | 22773m | 6.0m/s | -52.9°C | 1.1% | 0hPa | 2.6V | 00:00:00 | 00:00:00 | 00:00:00 | |
| OE5DXL-15 | 2026-09-04 12:19:35 | 49.14151 | 17.92521 | 99° | 5km/h | 22755m | 5.3m/s | -52.7°C | 4.1% | 0hPa | 2.6V | 00:00:00 | 00:00:00 | 08:30:00 | |
| PG1ADW-2 | 2026-09-04 12:19:34 | 49.14151 | 17.92518 | 98° | 4km/h | 22749m | 6.5m/s | -52.7°C | 4.1% | 0hPa | 2.7V | 00:00:00 | 01:37:37 | 00:00:00 | |
| OE5DRO-10 | 2026-09-04 12:19:31 | 49.14151 | 17.92507 | 83° | 4km/h | 22730m | 6.6m/s | -52.8°C | 4.0% | 0hPa | 2.6V | 00:00:00 | 00:00:00 | 00:00:00 | |
| DO3MHA-11 | 2026-09-04 12:19:29 | 49.14151 | 17.92502 | 122° | 4km/h | 22716m | 4.8m/s | -52.8°C | 4.1% | 0hPa | 2.6V | 00:00:00 | 01:37:32 | 00:00:00 | |
| PETON7-10 | 2026-09-04 12:19:25 | 49.14153 | 17.92499 | 271° | 4km/h | 22691m | 5.4m/s | -52.8°C | 4.1% | 0hPa | 2.6V | 00:00:00 | 01:37:28 | 00:00:00 | |
| OE5MMP-10 | 2026-09-04 12:19:20 | 49.14156 | 17.92501 | 83° | 5km/h | 22662m | 5.1m/s | -52.7°C | 4.0% | 0hPa | 2.6V | 00:00:00 | 01:37:23 | 00:00:00 | |
| DO3MHA-11 | 2026-09-04 12:19:19 | 49.14156 | 17.92501 | 40° | 13km/h | 22656m | 6.0m/s | -52.7°C | 4.0% | 0hPa | 2.6V | 00:00:00 | 01:37:22 | 00:00:00 | |
| POL2MAQ | 2026-09-04 12:19:17 | 49.14156 | 17.92501 | 0° | 0km/h | 22649m | 7.3m/s | -52.7°C | 1.1% | 0hPa | 2.6V | 00:00:00 | 00:00:00 | 00:00:00 | |
| PG1ADW-2 | 2026-09-04 12:19:14 | 49.14160 | 17.92502 | 160° | 13km/h | 22624m | 6.4m/s | -52.6°C | 4.0% | 0hPa | 2.6V | 00:00:00 | 00:00:00 | 00:00:00 | |
| OE5DRO-10 | 2026-09-04 12:19:12 | 49.14162 | 17.92499 | 133° | 15km/h | 22612m | 6.6m/s | -52.7°C | 3.9% | 0hPa | 2.6V | 00:00:00 | 00:00:00 | 00:00:00 | |
| OE3OSB-13 | 2026-09-04 12:19:11 | 49.14167 | 17.92492 | 143° | 15km/h | 22599m | 5.3m/s | -52.8°C | 1.0% | -1.0hPa | 2.7V | 00:00:00 | 00:00:00 | 00:00:00 | |
| PETON7-10 | 2026-09-04 12:19:10 | 49.14167 | 17.92492 | 144° | 15km/h | 22599m | 5.3m/s | -52.8°C | 4.0% | 0hPa | 2.7V | 00:00:00 | 00:00:00 | 00:00:00 | |
| OE5DXL-15 | 2026-09-04 12:19:05 | 49.14179 | 17.92480 | 157° | 22km/h | 22568m | 5.5m/s | -52.9°C | 4.0% | 0hPa | 2.7V | 00:00:00 | 00:00:00 | 00:00:00 | |
| OE5MMP-10 | 2026-09-04 12:19:00 | 49.14192 | 17.92469 | 156° | 18km/h | 22537m | 7.7m/s | -53.1°C | 4.0% | 0hPa | 2.7V | 00:00:00 | 01:37:03 | 08:30:00 | |
| POL2MAQ | 2026-09-04 12:18:57 | 49.14200 | 17.92463 | 155° | 20km/h | 22524m | 5.7m/s | -53.0°C | 1.1% | 0hPa | 2.7V | 00:00:00 | 00:00:00 | 00:00:00 | |
| PETON7-10 | 2026-09-04 12:18:55 | 49.14212 | 17.92451 | 141° | 24km/h | 22506m | 5.3m/s | -53.1°C | 4.0% | 0hPa | 2.7V | 00:00:00 | 00:00:00 | 00:00:00 | |
| PG1ADW-2 | 2026-09-04 12:18:54 | 49.14216 | 17.92447 | 143° | 26km/h | 22500m | 6.4m/s | -53.2°C | 4.0% | 0hPa | 2.7V | 00:00:00 | 00:00:00 | 00:00:00 | |
| OE5DRO-10 | 2026-09-04 12:18:53 | 49.14219 | 17.92443 | 150° | 26km/h | 22494m | 6.7m/s | -53.3°C | 4.0% | 0hPa | 2.7V | 00:00:00 | 00:00:00 | 00:00:00 | |
| OE5MMP-10 | 2026-09-04 12:18:50 | 49.14233 | 17.92431 | 143° | 27km/h | 22475m | 6.8m/s | -53.4°C | 4.1% | 0hPa | 2.7V | 00:00:00 | 01:36:53 | 00:00:00 | |
| PETON7-10 | 2026-09-04 12:18:40 | 49.14274 | 17.92349 | 131° | 26km/h | 22412m | 4.8m/s | -53.6°C | 4.2% | 0hPa | 2.7V | 00:00:00 | 01:36:43 | 00:00:00 | |
| OE5MMP-10 | 2026-09-04 12:18:39 | 49.14279 | 17.92341 | 131° | 27km/h | 22407m | 6.0m/s | -53.6°C | 4.2% | 0hPa | 2.7V | 00:00:00 | 01:36:42 | 00:00:00 | |
| POL2MAQ | 2026-09-04 12:18:36 | 49.14288 | 17.92324 | 122° | 26km/h | 22394m | 5.4m/s | -53.8°C | 1.2% | 0hPa | 2.7V | 00:00:00 | 00:00:00 | 00:00:00 | |
| OE5DXL-15 | 2026-09-04 12:18:35 | 49.14293 | 17.92306 | 113° | 20km/h | 22382m | 6.9m/s | -53.8°C | 4.3% | 0hPa | 2.7V | 00:00:00 | 00:00:00 | 00:00:00 | |
| OE5DRO-10 | 2026-09-04 12:18:34 | 49.14296 | 17.92296 | 114° | 22km/h | 22375m | 7.2m/s | -53.8°C | 4.2% | 0hPa | 2.7V | 00:00:00 | 00:00:00 | 00:00:00 | |
| OE5MMP-10 | 2026-09-04 12:18:29 | 49.14307 | 17.92246 | 100° | 18km/h | 22345m | 6.5m/s | -53.9°C | 4.3% | 0hPa | 2.7V | 00:00:00 | 01:36:32 | 00:00:00 | |
| GYPAP8-17 | 2026-09-04 12:18:26 | 49.14312 | 17.92224 | 120° | 18km/h | 22326m | 6.1m/s | 0°C | 0% | 0hPa | 2.6V | 00:00:00 | 00:00:00 | 00:00:00 | |
| PETON7-10 | 2026-09-04 12:18:25 | 49.14314 | 17.92218 | 118° | 18km/h | 22319m | 7.0m/s | -53.7°C | 4.2% | 0hPa | 2.6V | 00:00:00 | 00:00:00 | 00:00:00 | |
| OE5MMP-10 | 2026-09-04 12:18:19 | 49.14323 | 17.92183 | 100° | 20km/h | 22282m | 7.2m/s | -53.7°C | 4.4% | 0hPa | 2.6V | 00:00:00 | 01:36:22 | 00:00:00 | |
| OE5DRO-10 | 2026-09-04 12:18:15 | 49.14322 | 17.92152 | 88° | 16km/h | 22256m | 5.2m/s | -53.4°C | 4.2% | 0hPa | 2.6V | 00:00:00 | 00:00:00 | 00:00:00 | |
| PG1ADW-2 | 2026-09-04 12:18:14 | 49.14322 | 17.92143 | 89° | 15km/h | 22250m | 6.1m/s | -53.5°C | 4.2% | 0hPa | 2.6V | 00:00:00 | 01:36:17 | 00:00:00 | |
| PETON7-10 | 2026-09-04 12:18:10 | 49.14320 | 17.92111 | 94° | 13km/h | 22225m | 6.9m/s | -53.6°C | 4.2% | 0hPa | 2.6V | 00:00:00 | 00:00:00 | 00:00:00 | |
| OE5MMP-10 | 2026-09-04 12:18:09 | 49.14321 | 17.92105 | 106° | 16km/h | 22219m | 5.3m/s | -53.6°C | 4.2% | 0hPa | 2.6V | 00:00:00 | 01:36:12 | 00:00:00 | |
| OE5DXL-15 | 2026-09-04 12:18:05 | 49.14324 | 17.92083 | 87° | 9km/h | 22196m | 6.0m/s | -53.5°C | 4.2% | 0hPa | 2.6V | 00:00:00 | 00:00:00 | 00:00:00 | |
| DO3MHA-11 | 2026-09-04 12:18:01 | 49.14323 | 17.92056 | 79° | 7km/h | 22171m | 6.4m/s | -53.4°C | 4.3% | 0hPa | 2.7V | 00:00:00 | 01:36:04 | 00:00:00 | |
| OE5MMP-10 | 2026-09-04 12:17:59 | 49.14320 | 17.92047 | 47° | 5km/h | 22160m | 5.8m/s | -53.4°C | 4.3% | 0hPa | 2.6V | 00:00:00 | 01:36:02 | 00:00:00 | |
| OE5DRO-10 | 2026-09-04 12:17:56 | 49.14317 | 17.92043 | 288° | 7km/h | 22140m | 5.7m/s | -53.2°C | 4.2% | 0hPa | 2.6V | 00:00:00 | 00:00:00 | 00:00:00 | |
| POL2MAQ | 2026-09-04 12:17:55 | 49.14317 | 17.92043 | 0° | 0km/h | 22134m | 7.1m/s | -53.3°C | 1.2% | 0hPa | 2.6V | 00:00:00 | 00:00:00 | 00:00:00 | |
| PG1ADW-2 | 2026-09-04 12:17:54 | 49.14316 | 17.92043 | 357° | 7km/h | 22127m | 5.9m/s | -53.2°C | 4.1% | 0hPa | 2.6V | 00:00:00 | 00:00:00 | 00:00:00 | |
| OE5MMP-10 | 2026-09-04 12:17:49 | 49.14317 | 17.92034 | 98° | 9km/h | 22097m | 7.0m/s | -53.1°C | 4.1% | 0hPa | 2.6V | 00:00:00 | 01:35:52 | 00:00:00 | |
| PETON7-10 | 2026-09-04 12:17:40 | 49.14301 | 17.92027 | 15° | 13km/h | 22040m | 6.0m/s | -52.8°C | 4.0% | 0hPa | 2.6V | 00:00:00 | 00:00:00 | 08:30:00 | |
| OE5MMP-10 | 2026-09-04 12:17:39 | 49.14299 | 17.92026 | 49° | 11km/h | 22033m | 7.1m/s | -52.8°C | 4.0% | 0hPa | 2.6V | 00:00:00 | 01:35:42 | 00:00:00 | |
| OE3OSB-13 | 2026-09-04 12:17:38 | 49.14298 | 17.92021 | 82° | 7km/h | 22021m | 5.9m/s | -53.0°C | 1.1% | -1.0hPa | 2.6V | 00:00:00 | 00:00:00 | 00:00:00 | |
| OE5DRO-10 | 2026-09-04 12:17:37 | 49.14298 | 17.92021 | 83° | 15km/h | 22021m | 5.8m/s | -53.0°C | 4.1% | 0hPa | 2.6V | 00:00:00 | 00:00:00 | 00:00:00 | |
| OE5DXL-15 | 2026-09-04 12:17:35 | 49.14296 | 17.92016 | 27° | 15km/h | 22009m | 4.9m/s | -53.1°C | 4.1% | 0hPa | 2.6V | 00:00:00 | 00:00:00 | 00:00:00 | |
| PG1ADW-2 | 2026-09-04 12:17:34 | 49.14294 | 17.92014 | 16° | 16km/h | 22004m | 5.8m/s | -53.1°C | 4.0% | 0hPa | 2.6V | 00:00:00 | 00:00:00 | 08:30:00 | |
| POL2MAQ | 2026-09-04 12:17:33 | 49.14294 | 17.92014 | 16° | 11km/h | 22004m | 5.9m/s | -53.2°C | 1.1% | 0hPa | 2.6V | 00:00:00 | 00:00:00 | 00:00:00 | |
| OE5MMP-10 | 2026-09-04 12:17:29 | 49.14273 | 17.92016 | 338° | 15km/h | 21972m | 5.7m/s | -53.2°C | 4.1% | 0hPa | 2.6V | 00:00:00 | 01:35:32 | 08:30:00 | |
| SQ9EZE-14 | 2026-09-04 12:17:25 | 49.14260 | 17.92024 | 341° | 15km/h | 21952m | 5.5m/s | 0°C | 0% | 0hPa | 2.6V | 00:00:00 | 00:00:00 | 00:00:00 | |
| HA6NAB-11 | 2026-09-04 12:17:24 | 49.14254 | 17.92028 | 327° | 13km/h | 21940m | 5.9m/s | -53.3°C | 1.3% | 0hPa | 2.6V | 00:00:00 | 00:00:00 | 00:00:00 | |
| OE5MMP-10 | 2026-09-04 12:17:19 | 49.14240 | 17.92040 | 350° | 16km/h | 21912m | 6.4m/s | -53.4°C | 4.2% | 0hPa | 2.6V | 00:00:00 | 01:35:22 | 00:00:00 | |
| OE5DRO-10 | 2026-09-04 12:17:18 | 49.14236 | 17.92042 | 348° | 13km/h | 21905m | 7.3m/s | -53.3°C | 4.1% | 0hPa | 2.6V | 00:00:00 | 00:00:00 | 08:30:00 | |
| HA6NAB-11 | 2026-09-04 12:17:17 | 49.14236 | 17.92042 | 348° | 20km/h | 21905m | 7.3m/s | -53.3°C | 1.2% | 0hPa | 2.6V | 00:00:00 | 00:00:00 | 00:00:00 | |
| PG1ADW-2 | 2026-09-04 12:17:14 | 49.14214 | 17.92051 | 355° | 11km/h | 21881m | 6.1m/s | -53.3°C | 4.3% | 0hPa | 2.6V | 00:00:00 | 00:00:00 | 00:00:00 | |
| POL2MAQ | 2026-09-04 12:17:13 | 49.14214 | 17.92051 | 355° | 18km/h | 21881m | 6.1m/s | -53.3°C | 1.2% | 0hPa | 2.6V | 00:00:00 | 00:00:00 | 00:00:00 | |
| HA6NAB-11 | 2026-09-04 12:17:12 | 49.14210 | 17.92051 | 9° | 15km/h | 21876m | 4.5m/s | -53.2°C | 1.2% | 0hPa | 2.6V | 00:00:00 | 00:00:00 | 00:00:00 | |
| OE5MMP-10 | 2026-09-04 12:17:09 | 49.14201 | 17.92047 | 312° | 11km/h | 21850m | 3.9m/s | -52.9°C | 4.2% | 0hPa | 2.6V | 00:00:00 | 01:35:12 | 00:00:00 | |
| OE3OSB-13 | 2026-09-04 12:17:07 | 49.14198 | 17.92051 | 343° | 9km/h | 21833m | 5.4m/s | -52.9°C | 1.1% | -1.0hPa | 2.6V | 00:00:00 | 00:00:00 | 00:00:00 | |
| OE5DXL-15 | 2026-09-04 12:17:05 | 49.14195 | 17.92052 | 343° | 11km/h | 21828m | 5.1m/s | -52.9°C | 4.1% | 0hPa | 2.6V | 00:00:00 | 00:00:00 | 00:00:00 | |
| HA6NAB-11 | 2026-09-04 12:17:02 | 49.14189 | 17.92057 | 330° | 15km/h | 21815m | 5.9m/s | -52.8°C | 1.2% | 0hPa | 2.6V | 00:00:00 | 00:00:00 | 00:00:00 | |
| OE5MMP-10 | 2026-09-04 12:16:59 | 49.14176 | 17.92060 | 30° | 9km/h | 21792m | 5.8m/s | -52.7°C | 4.0% | 0hPa | 2.6V | 00:00:00 | 01:35:02 | 00:00:00 | |
| HA6NAB-11 | 2026-09-04 12:16:56 | 49.14172 | 17.92054 | 53° | 9km/h | 21779m | 5.6m/s | -52.6°C | 1.2% | 0hPa | 2.6V | 00:00:00 | 00:00:00 | 00:00:00 | |
| PETON7-10 | 2026-09-04 12:16:54 | 49.14168 | 17.92048 | 26° | 11km/h | 21762m | 4.9m/s | -52.6°C | 4.1% | 0hPa | 2.6V | 00:00:00 | 00:00:00 | 00:00:00 | |
| SQ9EZE-14 | 2026-09-04 12:16:53 | 49.14168 | 17.92048 | 27° | 7km/h | 21762m | 5.0m/s | 0°C | 0% | 0hPa | 2.7V | 00:00:00 | 00:00:00 | 00:00:00 | |
| POL2MAQ | 2026-09-04 12:16:52 | 49.14167 | 17.92047 | 7° | 7km/h | 21756m | 5.9m/s | -52.7°C | 1.2% | 0hPa | 2.7V | 00:00:00 | 00:00:00 | 00:00:00 | |
| HA6NAB-11 | 2026-09-04 12:16:51 | 49.14162 | 17.92050 | 315° | 13km/h | 21744m | 4.9m/s | -52.8°C | 1.2% | 0hPa | 2.7V | 00:00:00 | 00:00:00 | 00:00:00 | |
| OE5MMP-10 | 2026-09-04 12:16:49 | 49.14157 | 17.92059 | 314° | 11km/h | 21732m | 7.4m/s | -53.0°C | 4.1% | 0hPa | 2.7V | 00:00:00 | 01:34:52 | 00:00:00 | |
| HA6NAB-11 | 2026-09-04 12:16:44 | 49.14146 | 17.92070 | 331° | 4km/h | 21708m | 5.5m/s | -53.1°C | 1.2% | 0hPa | 2.7V | 00:00:00 | 00:00:00 | 00:00:00 | |
| OE5DRO-10 | 2026-09-04 12:16:40 | 49.14151 | 17.92056 | 120° | 5km/h | 21679m | 5.4m/s | -53.0°C | 4.1% | 0hPa | 2.7V | 00:00:00 | 00:00:00 | 00:00:00 | |
| PETON7-10 | 2026-09-04 12:16:39 | 49.14153 | 17.92054 | 138° | 5km/h | 21674m | 4.5m/s | -53.1°C | 4.1% | 0hPa | 2.7V | 00:00:00 | 00:00:00 | 00:00:00 | |
| OE3OSB-13 | 2026-09-04 12:16:36 | 49.14153 | 17.92056 | 311° | 7km/h | 21649m | 5.8m/s | -53.2°C | 1.1% | -1.0hPa | 2.7V | 00:00:00 | 00:00:00 | 00:00:00 | |
| OE5DXL-15 | 2026-09-04 12:16:35 | 49.14153 | 17.92056 | 312° | 7km/h | 21649m | 5.7m/s | -53.2°C | 4.2% | 0hPa | 2.7V | 00:00:00 | 00:00:00 | 00:00:00 | |
| PG1ADW-2 | 2026-09-04 12:16:34 | 49.14152 | 17.92058 | 309° | 7km/h | 21643m | 6.3m/s | -53.3°C | 4.2% | 0hPa | 2.7V | 00:00:00 | 00:00:00 | 00:00:00 | |
| HA6NAB-11 | 2026-09-04 12:16:33 | 49.14152 | 17.92058 | 310° | 9km/h | 21643m | 6.3m/s | -53.3°C | 1.3% | 0hPa | 2.7V | 00:00:00 | 00:00:00 | 00:00:00 | |
| POL2MAQ | 2026-09-04 12:16:31 | 49.14150 | 17.92064 | 293° | 5km/h | 21632m | 5.5m/s | -53.1°C | 1.2% | 0hPa | 2.7V | 00:00:00 | 00:00:00 | 00:00:00 | |
| OE5MMP-10 | 2026-09-04 12:16:29 | 49.14149 | 17.92065 | 82° | 5km/h | 21615m | 5.5m/s | -53.1°C | 4.1% | 0hPa | 2.7V | 00:00:00 | 01:34:32 | 00:00:00 | |
| OE5WHR-10 | 2026-09-04 12:16:27 | 49.14150 | 17.92062 | 136° | 7km/h | 21601m | 7.5m/s | 0°C | 0% | 0hPa | 2.6V | 00:00:00 | 01:34:30 | 00:00:00 | |
| PETON7-10 | 2026-09-04 12:16:24 | 49.14155 | 17.92056 | 134° | 7km/h | 21583m | 6.5m/s | -53.1°C | 4.1% | 0hPa | 2.6V | 00:00:00 | 01:34:27 | 00:00:00 | |
| OE5DRO-10 | 2026-09-04 12:16:21 | 49.14156 | 17.92056 | 274° | 11km/h | 21567m | 7.4m/s | -53.0°C | 4.1% | 0hPa | 2.6V | 00:00:00 | 00:00:00 | 00:00:00 | |
| OE5MMP-10 | 2026-09-04 12:16:19 | 49.14156 | 17.92064 | 264° | 7km/h | 21556m | 4.6m/s | -53.0°C | 4.1% | 0hPa | 2.6V | 00:00:00 | 01:34:22 | 00:00:00 | |
| PG1ADW-2 | 2026-09-04 12:16:14 | 49.14159 | 17.92077 | 202° | 15km/h | 21527m | 4.4m/s | -52.9°C | 4.1% | 0hPa | 2.6V | 00:00:00 | 00:00:00 | 00:00:00 | |
| POL2MAQ | 2026-09-04 12:16:10 | 49.14165 | 17.92078 | 171° | 7km/h | 21509m | 5.4m/s | -53.0°C | 1.2% | 0hPa | 2.6V | 00:00:00 | 00:00:00 | 00:00:00 | |
| PETON7-10 | 2026-09-04 12:16:09 | 49.14169 | 17.92079 | 205° | 16km/h | 21497m | 6.4m/s | -53.1°C | 4.1% | 0hPa | 2.6V | 00:00:00 | 00:00:00 | 00:00:00 | |
| OE3OSB-13 | 2026-09-04 12:16:05 | 49.14185 | 17.92101 | 228° | 16km/h | 21468m | 6.1m/s | -53.4°C | 1.1% | -1.0hPa | 2.6V | 00:00:00 | 00:00:00 | 00:00:00 | |
| OE5WHR-10 | 2026-09-04 12:16:04 | 49.14185 | 17.92101 | 229° | 18km/h | 21468m | 6.0m/s | 0°C | 0% | 0hPa | 2.6V | 00:00:00 | 00:00:00 | 00:00:00 | |
| OE5DRO-10 | 2026-09-04 12:16:02 | 49.14191 | 17.92110 | 219° | 13km/h | 21458m | 5.9m/s | -53.5°C | 4.1% | 0hPa | 2.6V | 00:00:00 | 00:00:00 | 00:00:00 | |
| OE5MMP-10 | 2026-09-04 12:15:59 | 49.14202 | 17.92116 | 183° | 11km/h | 21439m | 6.1m/s | -53.3°C | 4.1% | 0hPa | 2.6V | 00:00:00 | 01:34:02 | 08:30:00 | |
| PETON7-10 | 2026-09-04 12:15:54 | 49.14220 | 17.92124 | 210° | 13km/h | 21409m | 5.8m/s | -53.3°C | 4.1% | 0hPa | 2.6V | 00:00:00 | 00:00:00 | 00:00:00 | |
| POL2MAQ | 2026-09-04 12:15:50 | 49.14224 | 17.92129 | 228° | 7km/h | 21390m | 6.1m/s | -53.4°C | 1.2% | 0hPa | 2.6V | 00:00:00 | 00:00:00 | 00:00:00 | |
| OE5MMP-10 | 2026-09-04 12:15:49 | 49.14227 | 17.92131 | 188° | 15km/h | 21379m | 6.3m/s | -53.4°C | 4.1% | 0hPa | 2.6V | 00:00:00 | 01:33:52 | 00:00:00 | |
| OE5DRO-10 | 2026-09-04 12:15:43 | 49.14243 | 17.92113 | 152° | 26km/h | 21342m | 7.5m/s | -54.0°C | 4.1% | 0hPa | 2.6V | 00:00:00 | 00:00:00 | 00:00:00 | |
| OE5MMP-10 | 2026-09-04 12:15:39 | 49.14260 | 17.92103 | 170° | 26km/h | 21317m | 5.3m/s | -54.1°C | 4.3% | 0hPa | 2.6V | 00:00:00 | 01:33:42 | 00:00:00 | |
| OE5DXL-15 | 2026-09-04 12:15:35 | 49.14275 | 17.92090 | 130° | 27km/h | 21294m | 6.2m/s | -54.7°C | 4.5% | 0hPa | 2.6V | 00:00:00 | 00:00:00 | 00:00:00 | |
| OE3OSB-13 | 2026-09-04 12:15:34 | 49.14284 | 17.92074 | 130° | 29km/h | 21281m | 5.2m/s | -54.8°C | 1.2% | -1.0hPa | 2.6V | 00:00:00 | 00:00:00 | 00:00:00 | |
| OE5MMP-10 | 2026-09-04 12:15:29 | 49.14304 | 17.92036 | 131° | 31km/h | 21256m | 6.0m/s | -54.7°C | 4.4% | 0hPa | 2.6V | 00:00:00 | 01:33:32 | 00:00:00 | |
| PETON7-10 | 2026-09-04 12:15:24 | 49.14335 | 17.91992 | 132° | 24km/h | 21225m | 5.6m/s | -54.6°C | 4.5% | 0hPa | 2.7V | 00:00:00 | 00:00:00 | 08:30:00 | |
| OE5MMP-10 | 2026-09-04 12:15:19 | 49.14358 | 17.91948 | 123° | 20km/h | 21195m | 6.1m/s | -54.5°C | 4.4% | 0hPa | 2.6V | 00:00:00 | 01:33:22 | 00:00:00 | |
| PG1ADW-2 | 2026-09-04 12:15:14 | 49.14375 | 17.91917 | 138° | 22km/h | 21164m | 7.2m/s | -54.5°C | 4.4% | 0hPa | 2.6V | 00:00:00 | 00:00:00 | 00:00:00 | |
| OE5MMP-10 | 2026-09-04 12:15:09 | 49.14395 | 17.91889 | 137° | 22km/h | 21135m | 5.8m/s | -54.3°C | 4.3% | 0hPa | 2.6V | 00:00:00 | 01:33:12 | 00:00:00 | |
| DO3MHA-11 | 2026-09-04 12:15:06 | 49.14405 | 17.91866 | 115° | 20km/h | 21115m | 5.5m/s | -54.2°C | 4.3% | 0hPa | 2.6V | 00:00:00 | 01:33:09 | 00:00:00 | |
| OE5DXL-15 | 2026-09-04 12:15:05 | 49.14408 | 17.91858 | 117° | 22km/h | 21109m | 6.6m/s | -54.3°C | 4.3% | 0hPa | 2.6V | 00:00:00 | 00:00:00 | 08:30:00 | |
| OE5MMP-10 | 2026-09-04 12:14:59 | 49.14423 | 17.91817 | 127° | 22km/h | 21072m | 7.0m/s | -54.4°C | 4.3% | 0hPa | 2.6V | 00:00:00 | 01:33:02 | 00:00:00 | |
| DO3MHA-11 | 2026-09-04 12:14:55 | 49.14437 | 17.91794 | 120° | 24km/h | 21048m | 5.6m/s | -54.6°C | 4.4% | 0hPa | 2.7V | 00:00:00 | 01:32:58 | 00:00:00 | |
| PETON7-10 | 2026-09-04 12:14:54 | 49.14440 | 17.91786 | 113° | 24km/h | 21042m | 5.9m/s | -54.6°C | 4.4% | 0hPa | 2.7V | 00:00:00 | 01:32:57 | 00:00:00 | |
| OE5MMP-10 | 2026-09-04 12:14:49 | 49.14448 | 17.91741 | 98° | 22km/h | 21011m | 5.6m/s | -54.6°C | 4.5% | 0hPa | 2.7V | 00:00:00 | 01:32:52 | 00:00:00 | |
| POL2MAQ | 2026-09-04 12:14:48 | 49.14448 | 17.91741 | 99° | 26km/h | 21011m | 5.6m/s | -54.7°C | 1.3% | 0hPa | 2.7V | 00:00:00 | 00:00:00 | 00:00:00 | |
| OE5DRO-10 | 2026-09-04 12:14:47 | 49.14453 | 17.91714 | 115° | 18km/h | 20992m | 5.2m/s | -54.8°C | 4.5% | 0hPa | 2.7V | 00:00:00 | 00:00:00 | 00:00:00 | |
| DO3MHA-11 | 2026-09-04 12:14:45 | 49.14456 | 17.91706 | 114° | 18km/h | 20987m | 6.4m/s | -54.9°C | 4.5% | 0hPa | 2.7V | 00:00:00 | 01:32:48 | 00:00:00 | |
| PETON7-10 | 2026-09-04 12:14:39 | 49.14462 | 17.91660 | 95° | 18km/h | 20951m | 7.2m/s | -54.7°C | 4.5% | 0hPa | 2.7V | 00:00:00 | 00:00:00 | 00:00:00 | |
| OE5DXL-15 | 2026-09-04 12:14:35 | 49.14466 | 17.91637 | 124° | 24km/h | 20926m | 5.3m/s | -54.5°C | 4.5% | 0hPa | 2.6V | 00:00:00 | 00:00:00 | 00:00:00 | |
| PG1ADW-2 | 2026-09-04 12:14:34 | 49.14468 | 17.91632 | 130° | 22km/h | 20920m | 6.1m/s | -54.5°C | 4.4% | 0hPa | 2.6V | 00:00:00 | 00:00:00 | 08:30:00 | |
| OE3OSB-13 | 2026-09-04 12:14:31 | 49.14479 | 17.91608 | 125° | 18km/h | 20894m | 6.9m/s | -54.6°C | 1.2% | -1.0hPa | 2.6V | 00:00:00 | 00:00:00 | 00:00:00 | |
| OE5MMP-10 | 2026-09-04 12:14:29 | 49.14482 | 17.91602 | 125° | 20km/h | 20889m | 4.0m/s | -54.6°C | 4.4% | 0hPa | 2.6V | 00:00:00 | 01:32:32 | 08:30:00 | |
| POL2MAQ | 2026-09-04 12:14:27 | 49.14485 | 17.91595 | 122° | 20km/h | 20884m | 6.4m/s | -54.6°C | 1.3% | 0hPa | 2.6V | 00:00:00 | 00:00:00 | 00:00:00 | |
| PETON7-10 | 2026-09-04 12:14:24 | 49.14490 | 17.91562 | 93° | 26km/h | 20857m | 7.7m/s | -54.5°C | 4.3% | 0hPa | 2.6V | 00:00:00 | 00:00:00 | 00:00:00 | |
| OE5MMP-10 | 2026-09-04 12:14:19 | 49.14494 | 17.91525 | 102° | 27km/h | 20828m | 5.6m/s | -54.6°C | 4.4% | 0hPa | 2.6V | 00:00:00 | 01:32:22 | 00:00:00 | |
| PG1ADW-2 | 2026-09-04 12:14:14 | 49.14501 | 17.91478 | 98° | 24km/h | 20797m | 6.4m/s | -54.6°C | 4.4% | 0hPa | 2.6V | 00:00:00 | 01:32:17 | 00:00:00 | |
| PETON7-10 | 2026-09-04 12:14:09 | 49.14497 | 17.91421 | 71° | 22km/h | 20766m | 6.6m/s | -54.7°C | 4.4% | 0hPa | 2.6V | 00:00:00 | 01:32:12 | 00:00:00 | |
| OE5DRO-10 | 2026-09-04 12:14:08 | 49.14495 | 17.91412 | 75° | 22km/h | 20760m | 5.7m/s | -54.7°C | 4.4% | 0hPa | 2.6V | 00:00:00 | 00:00:00 | 00:00:00 | |
| POL2MAQ | 2026-09-04 12:14:06 | 49.14493 | 17.91403 | 80° | 24km/h | 20754m | 5.7m/s | -54.8°C | 1.4% | 0hPa | 2.6V | 00:00:00 | 00:00:00 | 00:00:00 | |
| DO3MHA-11 | 2026-09-04 12:14:05 | 49.14492 | 17.91387 | 92° | 22km/h | 20742m | 5.3m/s | -54.8°C | 4.5% | 0hPa | 2.6V | 00:00:00 | 01:32:08 | 00:00:00 | |
| OE3OSB-13 | 2026-09-04 12:14:00 | 49.14502 | 17.91355 | 119° | 20km/h | 20712m | 6.9m/s | -54.8°C | 1.2% | -1.0hPa | 2.7V | 00:00:00 | 00:00:00 | 00:00:00 | |
| OE5MMP-10 | 2026-09-04 12:13:59 | 49.14504 | 17.91348 | 109° | 22km/h | 20706m | 5.5m/s | -54.7°C | 4.5% | 0hPa | 2.7V | 00:00:00 | 01:32:02 | 00:00:00 | |
| PG1ADW-2 | 2026-09-04 12:13:54 | 49.14502 | 17.91306 | 71° | 31km/h | 20676m | 6.9m/s | -54.6°C | 4.4% | 0hPa | 2.7V | 00:00:00 | 00:00:00 | 00:00:00 | |
| DO3MHA-11 | 2026-09-04 12:13:52 | 49.14497 | 17.91290 | 65° | 29km/h | 20664m | 5.4m/s | -54.5°C | 4.4% | 0hPa | 2.7V | 00:00:00 | 01:31:55 | 00:00:00 | |
| OE5MMP-10 | 2026-09-04 12:13:49 | 49.14493 | 17.91264 | 86° | 31km/h | 20647m | 5.6m/s | -54.5°C | 4.4% | 0hPa | 2.7V | 00:00:00 | 01:31:52 | 00:00:00 | |
| POL2MAQ | 2026-09-04 12:13:45 | 49.14494 | 17.91234 | 100° | 27km/h | 20629m | 5.1m/s | -54.7°C | 1.4% | 0hPa | 2.7V | 00:00:00 | 00:00:00 | 00:00:00 | |
| DO3MHA-11 | 2026-09-04 12:13:42 | 49.14497 | 17.91183 | 88° | 37km/h | 20605m | 5.4m/s | -54.7°C | 4.6% | 0hPa | 2.7V | 00:00:00 | 01:31:45 | 00:00:00 | |
| OE5MMP-10 | 2026-09-04 12:13:39 | 49.14491 | 17.91142 | 67° | 35km/h | 20587m | 4.0m/s | -54.8°C | 4.5% | 0hPa | 2.7V | 00:00:00 | 01:31:42 | 00:00:00 | |
| OE5DXL-15 | 2026-09-04 12:13:35 | 49.14476 | 17.91090 | 72° | 24km/h | 20562m | 5.7m/s | -54.6°C | 4.5% | 0hPa | 2.7V | 00:00:00 | 00:00:00 | 00:00:00 | |
| PG1ADW-2 | 2026-09-04 12:13:34 | 49.14473 | 17.91077 | 76° | 26km/h | 20556m | 6.2m/s | -54.5°C | 4.6% | 0hPa | 2.7V | 00:00:00 | 00:00:00 | 00:00:00 | |
| DO3MHA-11 | 2026-09-04 12:13:32 | 49.14470 | 17.91051 | 82° | 26km/h | 20545m | 5.8m/s | -54.4°C | 4.6% | 0hPa | 2.6V | 00:00:00 | 01:31:35 | 00:00:00 | |
| OE5DRO-10 | 2026-09-04 12:13:30 | 49.14468 | 17.91030 | 86° | 22km/h | 20533m | 5.1m/s | -54.3°C | 4.6% | 0hPa | 2.7V | 00:00:00 | 00:00:00 | 00:00:00 | |
| OE5MMP-10 | 2026-09-04 12:13:29 | 49.14468 | 17.91021 | 87° | 24km/h | 20528m | 6.2m/s | -54.3°C | 4.6% | 0hPa | 2.7V | 00:00:00 | 01:31:32 | 00:00:00 | |
| POL2MAQ | 2026-09-04 12:13:25 | 49.14465 | 17.90994 | 76° | 24km/h | 20509m | 6.1m/s | -54.4°C | 1.4% | 0hPa | 2.6V | 00:00:00 | 00:00:00 | 00:00:00 | |
| PETON7-10 | 2026-09-04 12:13:24 | 49.14461 | 17.90978 | 61° | 22km/h | 20498m | 6.0m/s | -54.2°C | 4.5% | 0hPa | 2.6V | 00:00:00 | 01:31:27 | 00:00:00 | |
| DO3MHA-11 | 2026-09-04 12:13:22 | 49.14455 | 17.90962 | 64° | 22km/h | 20485m | 5.5m/s | -54.1°C | 4.5% | 0hPa | 2.6V | 00:00:00 | 01:31:25 | 00:00:00 | |
| HA6NAB-11 | 2026-09-04 12:13:21 | 49.14455 | 17.90962 | 64° | 26km/h | 20485m | 5.5m/s | -54.1°C | 1.4% | 0hPa | 2.6V | 00:00:00 | 00:00:00 | 00:00:00 | |
| OE5MMP-10 | 2026-09-04 12:13:19 | 49.14447 | 17.90934 | 73° | 20km/h | 20466m | 6.2m/s | -53.8°C | 4.5% | 0hPa | 2.6V | 00:00:00 | 01:31:22 | 00:00:00 | |
| PG1ADW-2 | 2026-09-04 12:13:14 | 49.14446 | 17.90894 | 90° | 16km/h | 20436m | 6.6m/s | -53.5°C | 4.4% | 0hPa | 2.6V | 00:00:00 | 00:00:00 | 00:00:00 | |
| DO3MHA-11 | 2026-09-04 12:13:12 | 49.14445 | 17.90880 | 76° | 18km/h | 20425m | 6.1m/s | -53.5°C | 4.3% | 0hPa | 2.6V | 00:00:00 | 01:31:15 | 00:00:00 | |
| OE5DRO-10 | 2026-09-04 12:13:11 | 49.14443 | 17.90873 | 75° | 15km/h | 20418m | 7.5m/s | -53.5°C | 4.3% | 0hPa | 2.6V | 00:00:00 | 00:00:00 | 00:00:00 | |
| OE5WHR-10 | 2026-09-04 12:13:09 | 49.14442 | 17.90860 | 78° | 16km/h | 20405m | 5.9m/s | 0°C | 0% | 0hPa | 2.6V | 00:00:00 | 00:00:00 | 00:00:00 | |
| OE5DXL-15 | 2026-09-04 12:13:05 | 49.14438 | 17.90836 | 85° | 13km/h | 20381m | 6.4m/s | -53.3°C | 4.3% | 0hPa | 2.6V | 00:00:00 | 00:00:00 | 00:00:00 | |
| POL2MAQ | 2026-09-04 12:13:04 | 49.14438 | 17.90836 | 86° | 18km/h | 20381m | 6.5m/s | -53.3°C | 1.3% | 0hPa | 2.6V | 00:00:00 | 00:00:00 | 00:00:00 | |
| DO3MHA-11 | 2026-09-04 12:13:02 | 49.14438 | 17.90814 | 91° | 13km/h | 20363m | 4.2m/s | -52.9°C | 4.3% | 0hPa | 2.6V | 00:00:00 | 01:31:05 | 08:30:00 | |
| OE5MMP-10 | 2026-09-04 12:12:59 | 49.14438 | 17.90793 | 102° | 11km/h | 20345m | 5.3m/s | -52.9°C | 4.2% | 0hPa | 2.7V | 00:00:00 | 01:31:02 | 08:30:00 | |
| PG1ADW-2 | 2026-09-04 12:12:54 | 49.14444 | 17.90775 | 119° | 11km/h | 20312m | 7.0m/s | -52.8°C | 4.0% | 0hPa | 2.6V | 00:00:00 | 01:30:57 | 00:00:00 | |
| DO3MHA-11 | 2026-09-04 12:12:52 | 49.14445 | 17.90767 | 86° | 15km/h | 20301m | 6.2m/s | -52.8°C | 4.0% | 0hPa | 2.6V | 00:00:00 | 01:30:55 | 00:00:00 | |
| OE5MMP-10 | 2026-09-04 12:12:49 | 49.14442 | 17.90751 | 85° | 15km/h | 20284m | 6.1m/s | -52.6°C | 3.9% | 0hPa | 2.6V | 00:00:00 | 01:30:52 | 00:00:00 | |
| OE5WHR-10 | 2026-09-04 12:12:47 | 49.14444 | 17.90737 | 109° | 11km/h | 20273m | 5.8m/s | 0°C | 0% | 0hPa | 2.6V | 00:00:00 | 01:30:50 | 00:00:00 | |
| POL2MAQ | 2026-09-04 12:12:43 | 49.14450 | 17.90719 | 134° | 15km/h | 20255m | 6.6m/s | -52.9°C | 1.3% | 0hPa | 2.6V | 00:00:00 | 00:00:00 | 00:00:00 | |
| DO3MHA-11 | 2026-09-04 12:12:42 | 49.14456 | 17.90714 | 159° | 7km/h | 20243m | 5.8m/s | -53.0°C | 4.2% | 0hPa | 2.6V | 00:00:00 | 01:30:45 | 00:00:00 | |
| PETON7-10 | 2026-09-04 12:12:39 | 49.14460 | 17.90713 | 219° | 15km/h | 20225m | 5.2m/s | -53.1°C | 4.2% | 0hPa | 2.6V | 00:00:00 | 01:30:42 | 00:00:00 | |
| OE5DXL-15 | 2026-09-04 12:12:35 | 49.14465 | 17.90709 | 124° | 20km/h | 20201m | 6.3m/s | -53.1°C | 4.1% | 0hPa | 2.6V | 00:00:00 | 00:00:00 | 00:00:00 | |
| PG1ADW-2 | 2026-09-04 12:12:34 | 49.14467 | 17.90706 | 126° | 18km/h | 20195m | 5.8m/s | -53.0°C | 4.0% | 0hPa | 2.6V | 00:00:00 | 00:00:00 | 00:00:00 | |
| OE5DRO-10 | 2026-09-04 12:12:33 | 49.14468 | 17.90703 | 140° | 18km/h | 20190m | 4.7m/s | -53.1°C | 4.0% | 0hPa | 2.6V | 00:00:00 | 00:00:00 | 00:00:00 | |
| DO3MHA-11 | 2026-09-04 12:12:32 | 49.14471 | 17.90700 | 148° | 16km/h | 20184m | 6.1m/s | -53.1°C | 4.0% | 0hPa | 2.7V | 00:00:00 | 01:30:35 | 00:00:00 | |
| OE5MMP-10 | 2026-09-04 12:12:29 | 49.14486 | 17.90688 | 155° | 18km/h | 20166m | 6.6m/s | -52.9°C | 4.0% | 0hPa | 2.6V | 00:00:00 | 01:30:32 | 00:00:00 | |
| OE3OSB-13 | 2026-09-04 12:12:27 | 49.14497 | 17.90680 | 157° | 22km/h | 20155m | 5.1m/s | -53.1°C | 1.1% | -1.0hPa | 2.6V | 00:00:00 | 00:00:00 | 00:00:00 | |
| OE5WHR-10 | 2026-09-04 12:12:25 | 49.14507 | 17.90673 | 150° | 16km/h | 20143m | 4.6m/s | 0°C | 0% | 0hPa | 2.6V | 00:00:00 | 00:00:00 | 00:00:00 | |
| POL2MAQ | 2026-09-04 12:12:24 | 49.14511 | 17.90668 | 145° | 18km/h | 20138m | 5.1m/s | -53.1°C | 1.3% | 0hPa | 2.6V | 00:00:00 | 00:00:00 | 00:00:00 | |
| DO3MHA-11 | 2026-09-04 12:12:19 | 49.14521 | 17.90649 | 115° | 22km/h | 20110m | 5.4m/s | -53.3°C | 4.1% | 0hPa | 2.6V | 00:00:00 | 01:30:22 | 00:00:00 | |
| OE5MMP-10 | 2026-09-04 12:12:18 | 49.14523 | 17.90643 | 121° | 26km/h | 20104m | 5.7m/s | -53.3°C | 4.1% | 0hPa | 2.6V | 00:00:00 | 01:30:21 | 00:00:00 | |
| OE5DRO-10 | 2026-09-04 12:12:14 | 49.14535 | 17.90619 | 127° | 27km/h | 20082m | 5.0m/s | -53.7°C | 4.1% | 0hPa | 2.6V | 00:00:00 | 00:00:00 | 00:00:00 | |
| PETON7-10 | 2026-09-04 12:12:09 | 49.14553 | 17.90574 | 121° | 27km/h | 20053m | 6.3m/s | -53.6°C | 4.1% | 0hPa | 2.6V | 00:00:00 | 00:00:00 | 00:00:00 | |
| OE5MMP-10 | 2026-09-04 12:12:06 | 49.14566 | 17.90547 | 132° | 26km/h | 20036m | 6.7m/s | -53.8°C | 4.1% | 0hPa | 2.6V | 00:00:00 | 01:30:09 | 00:00:00 | |
| OE5DXL-15 | 2026-09-04 12:12:05 | 49.14570 | 17.90540 | 134° | 29km/h | 20031m | 4.3m/s | -53.9°C | 4.1% | 0hPa | 2.6V | 00:00:00 | 00:00:00 | 00:00:00 | |
| POL2MAQ | 2026-09-04 12:12:02 | 49.14578 | 17.90525 | 125° | 26km/h | 20020m | 5.7m/s | -54.0°C | 1.3% | 0hPa | 2.6V | 00:00:00 | 00:00:00 | 00:00:00 | |
| DO3MHA-11 | 2026-09-04 12:11:58 | 49.14589 | 17.90478 | 101° | 29km/h | 19992m | 5.7m/s | -54.1°C | 4.1% | 0hPa | 2.6V | 00:00:00 | 01:30:01 | 00:00:00 | |
| OE5MMP-10 | 2026-09-04 12:11:56 | 49.14592 | 17.90455 | 106° | 33km/h | 19981m | 5.5m/s | -54.5°C | 4.1% | 0hPa | 2.7V | 00:00:00 | 01:29:59 | 00:00:00 | |
| OE5DRO-10 | 2026-09-04 12:11:55 | 49.14595 | 17.90443 | 108° | 31km/h | 19975m | 6.5m/s | -54.8°C | 4.3% | 0hPa | 2.7V | 00:00:00 | 00:00:00 | 00:00:00 | |
| PG1ADW-2 | 2026-09-04 12:11:54 | 49.14597 | 17.90432 | 113° | 29km/h | 19970m | 4.7m/s | -54.9°C | 4.3% | 0hPa | 2.7V | 00:00:00 | 00:00:00 | 00:00:00 | |
| PETON7-10 | 2026-09-04 12:11:53 | 49.14600 | 17.90421 | 115° | 31km/h | 19964m | 5.9m/s | -54.9°C | 4.3% | 0hPa | 2.7V | 00:00:00 | 01:29:56 | 00:00:00 | |
| DO3MHA-11 | 2026-09-04 12:11:48 | 49.14613 | 17.90370 | 102° | 31km/h | 19936m | 4.4m/s | -55.4°C | 4.5% | 0hPa | 2.7V | 00:00:00 | 01:29:51 | 00:00:00 | |
| OE5MMP-10 | 2026-09-04 12:11:42 | 49.14620 | 17.90301 | 96° | 31km/h | 19902m | 4.7m/s | -55.8°C | 4.7% | 0hPa | 2.7V | 00:00:00 | 01:29:45 | 00:00:00 | |
| POL2MAQ | 2026-09-04 12:11:41 | 49.14620 | 17.90301 | 97° | 33km/h | 19902m | 4.8m/s | -55.9°C | 1.5% | 0hPa | 2.7V | 00:00:00 | 00:00:00 | 00:00:00 | |
| PETON7-10 | 2026-09-04 12:11:38 | 49.14621 | 17.90249 | 88° | 29km/h | 19879m | 6.3m/s | -56.0°C | 4.8% | 0hPa | 2.7V | 00:00:00 | 00:00:00 | 00:00:00 | |
| OE5DRO-10 | 2026-09-04 12:11:36 | 49.14619 | 17.90227 | 82° | 26km/h | 19868m | 5.1m/s | -56.0°C | 4.7% | 0hPa | 2.6V | 00:00:00 | 00:00:00 | 08:30:00 | |
| OE5DXL-15 | 2026-09-04 12:11:35 | 49.14618 | 17.90217 | 80° | 22km/h | 19862m | 6.8m/s | -56.1°C | 4.8% | 0hPa | 2.7V | 00:00:00 | 00:00:00 | 00:00:00 | |
| PG1ADW-2 | 2026-09-04 12:11:34 | 49.14617 | 17.90206 | 78° | 26km/h | 19856m | 5.2m/s | -56.1°C | 4.8% | 0hPa | 2.7V | 00:00:00 | 01:29:37 | 08:30:00 | |
| OE5MMP-10 | 2026-09-04 12:11:32 | 49.14613 | 17.90183 | 80° | 27km/h | 19845m | 6.2m/s | -56.1°C | 4.8% | 0hPa | 2.7V | 00:00:00 | 01:29:35 | 00:00:00 | |
| DO3MHA-11 | 2026-09-04 12:11:28 | 49.14612 | 17.90135 | 96° | 22km/h | 19822m | 5.3m/s | -56.1°C | 4.9% | 0hPa | 2.7V | 00:00:00 | 01:29:31 | 08:30:00 | |
| OE3OSB-13 | 2026-09-04 12:11:25 | 49.14614 | 17.90103 | 88° | 22km/h | 19806m | 5.5m/s | -56.0°C | 1.4% | -1.0hPa | 2.7V | 00:00:00 | 00:00:00 | 00:00:00 | |
| PETON7-10 | 2026-09-04 12:11:23 | 49.14612 | 17.90087 | 68° | 20km/h | 19793m | 5.6m/s | -55.9°C | 4.8% | 0hPa | 2.7V | 00:00:00 | 00:00:00 | 00:00:00 | |
| OE5MMP-10 | 2026-09-04 12:11:22 | 49.14610 | 17.90081 | 58° | 22km/h | 19787m | 5.8m/s | -55.9°C | 4.9% | 0hPa | 2.7V | 00:00:00 | 01:29:25 | 08:30:00 | |
| POL2MAQ | 2026-09-04 12:11:21 | 49.14610 | 17.90080 | 59° | 20km/h | 19787m | 5.9m/s | -56.0°C | 1.5% | 0hPa | 2.7V | 00:00:00 | 00:00:00 | 00:00:00 | |
| DO3MHA-11 | 2026-09-04 12:11:18 | 49.14599 | 17.90059 | 65° | 22km/h | 19764m | 7.5m/s | -55.8°C | 4.6% | 0hPa | 2.7V | 00:00:00 | 01:29:21 | 00:00:00 | |
| OE5DRO-10 | 2026-09-04 12:11:17 | 49.14598 | 17.90051 | 79° | 16km/h | 19758m | 4.5m/s | -55.8°C | 4.6% | 0hPa | 2.7V | 00:00:00 | 00:00:00 | 00:00:00 | |
| PG1ADW-2 | 2026-09-04 12:11:14 | 49.14597 | 17.90024 | 98° | 13km/h | 19739m | 5.0m/s | -55.8°C | 4.7% | 0hPa | 2.7V | 00:00:00 | 00:00:00 | 00:00:00 | |
| OE5MMP-10 | 2026-09-04 12:11:12 | 49.14599 | 17.90005 | 96° | 13km/h | 19728m | 7.0m/s | -55.8°C | 4.7% | 0hPa | 2.7V | 00:00:00 | 01:29:15 | 00:00:00 | |
| PETON7-10 | 2026-09-04 12:11:08 | 49.14597 | 17.89978 | 59° | 9km/h | 19705m | 4.9m/s | -55.7°C | 4.8% | 0hPa | 2.7V | 00:00:00 | 01:29:11 | 00:00:00 | |
| OE5DXL-15 | 2026-09-04 12:11:05 | 49.14593 | 17.89972 | 43° | 7km/h | 19686m | 6.0m/s | -55.7°C | 4.8% | 0hPa | 2.7V | 00:00:00 | 00:00:00 | 00:00:00 | |
| GYPAP8-17 | 2026-09-04 12:11:03 | 49.14591 | 17.89969 | 47° | 9km/h | 19680m | 6.4m/s | 0°C | 0% | 0hPa | 2.7V | 00:00:00 | 00:00:00 | 00:00:00 | |
| OE5MMP-10 | 2026-09-04 12:11:02 | 49.14588 | 17.89964 | 58° | 9km/h | 19671m | 6.2m/s | 0°C | 0% | 0hPa | 2.7V | 00:00:00 | 01:29:05 | 00:00:00 | |
| POL2MAQ | 2026-09-04 12:11:01 | 49.14588 | 17.89964 | 59° | 9km/h | 19671m | 6.2m/s | -55.8°C | 1.5% | 0hPa | 2.7V | 00:00:00 | 00:00:00 | 00:00:00 | |
| DO3MHA-11 | 2026-09-04 12:10:58 | 49.14584 | 17.89946 | 86° | 5km/h | 19646m | 6.6m/s | -55.7°C | 4.7% | 0hPa | 2.7V | 00:00:00 | 01:29:01 | 00:00:00 | |
| PG1ADW-2 | 2026-09-04 12:10:54 | 49.14588 | 17.89938 | 152° | 5km/h | 19622m | 5.5m/s | -55.7°C | 4.7% | 0hPa | 2.7V | 00:00:00 | 00:00:00 | 00:00:00 | |
| PETON7-10 | 2026-09-04 12:10:53 | 49.14589 | 17.89937 | 179° | 5km/h | 19615m | 6.5m/s | -55.7°C | 4.7% | 0hPa | 2.7V | 00:00:00 | 00:00:00 | 08:30:00 | |
| OE5MMP-10 | 2026-09-04 12:10:52 | 49.14590 | 17.89938 | 221° | 7km/h | 19610m | 5.2m/s | 0°C | 0% | 0hPa | 2.6V | 00:00:00 | 01:28:55 | 00:00:00 | |
| DO3MHA-11 | 2026-09-04 12:10:48 | 49.14589 | 17.89933 | 75° | 7km/h | 19588m | 5.6m/s | -55.6°C | 4.6% | 0hPa | 2.6V | 00:00:00 | 01:28:51 | 00:00:00 | |
| OE5MMP-10 | 2026-09-04 12:10:42 | 49.14589 | 17.89909 | 89° | 4km/h | 19554m | 5.7m/s | 0°C | 0% | 0hPa | 2.6V | 00:00:00 | 01:28:45 | 00:00:00 | |
| POL2MAQ | 2026-09-04 12:10:40 | 49.14589 | 17.89908 | 82° | 2km/h | 19548m | 7.2m/s | -55.5°C | 1.4% | 0hPa | 2.6V | 00:00:00 | 00:00:00 | 00:00:00 | |
| OE5DRO-10 | 2026-09-04 12:10:39 | 49.14588 | 17.89908 | 292° | 5km/h | 19536m | 5.9m/s | -55.4°C | 4.5% | 0hPa | 2.6V | 00:00:00 | 00:00:00 | 00:00:00 | |
| PETON7-10 | 2026-09-04 12:10:38 | 49.14588 | 17.89909 | 323° | 7km/h | 19530m | 6.0m/s | -55.5°C | 4.6% | 0hPa | 2.7V | 00:00:00 | 00:00:00 | 00:00:00 | |
| OE5DXL-15 | 2026-09-04 12:10:35 | 49.14585 | 17.89911 | 354° | 5km/h | 19512m | 3.7m/s | -55.7°C | 4.6% | 0hPa | 2.7V | 00:00:00 | 00:00:00 | 08:30:00 | |
| PG1ADW-2 | 2026-09-04 12:10:34 | 49.14584 | 17.89911 | 354° | 7km/h | 19508m | 6.1m/s | -55.7°C | 4.6% | 0hPa | 2.7V | 00:00:00 | 00:00:00 | 00:00:00 | |
| OE5MMP-10 | 2026-09-04 12:10:32 | 49.14583 | 17.89909 | 92° | 7km/h | 19494m | 5.0m/s | 0°C | 0% | 0hPa | 2.6V | 00:00:00 | 01:28:35 | 00:00:00 | |
| DO3MHA-11 | 2026-09-04 12:10:28 | 49.14591 | 17.89902 | 173° | 7km/h | 19471m | 6.1m/s | -56.0°C | 4.8% | 0hPa | 2.6V | 00:00:00 | 01:28:31 | 00:00:00 | |
| PETON7-10 | 2026-09-04 12:10:23 | 49.14598 | 17.89903 | 327° | 5km/h | 19443m | 5.2m/s | -55.9°C | 4.8% | 0hPa | 2.7V | 00:00:00 | 01:28:26 | 00:00:00 | |
| OE5MMP-10 | 2026-09-04 12:10:22 | 49.14598 | 17.89903 | 26° | 5km/h | 19437m | 6.7m/s | 0°C | 0% | 0hPa | 2.7V | 00:00:00 | 01:28:25 | 00:00:00 | |
| OE5DRO-10 | 2026-09-04 12:10:20 | 49.14596 | 17.89899 | 67° | 7km/h | 19426m | 5.2m/s | -55.7°C | 4.7% | 0hPa | 2.7V | 00:00:00 | 00:00:00 | 00:00:00 | |
| DO3MHA-11 | 2026-09-04 12:10:18 | 49.14595 | 17.89893 | 115° | 5km/h | 19414m | 4.3m/s | -55.7°C | 4.7% | 0hPa | 2.7V | 00:00:00 | 01:28:21 | 00:00:00 | |
| PG1ADW-2 | 2026-09-04 12:10:14 | 49.14601 | 17.89889 | 170° | 9km/h | 19391m | 6.1m/s | -55.6°C | 4.6% | 0hPa | 2.7V | 00:00:00 | 01:28:17 | 00:00:00 | |
| OE5MMP-10 | 2026-09-04 12:10:12 | 49.14604 | 17.89890 | 230° | 5km/h | 19379m | 5.6m/s | 0°C | 0% | 0hPa | 2.7V | 00:00:00 | 01:28:15 | 00:00:00 | |
| PETON7-10 | 2026-09-04 12:10:08 | 49.14608 | 17.89894 | 185° | 9km/h | 19354m | 7.1m/s | -55.6°C | 4.6% | 0hPa | 2.7V | 00:00:00 | 00:00:00 | 00:00:00 | |
| OE5DXL-15 | 2026-09-04 12:10:05 | 49.14611 | 17.89892 | 129° | 9km/h | 19338m | 6.9m/s | -55.6°C | 4.7% | 0hPa | 2.6V | 00:00:00 | 00:00:00 | 00:00:00 | |
| GYPAP8-17 | 2026-09-04 12:10:02 | 49.14614 | 17.89885 | 124° | 13km/h | 19326m | 5.7m/s | 0°C | 0% | 0hPa | 2.6V | 00:00:00 | 00:00:00 | 00:00:00 | |
| OE3OSB-13 | 2026-09-04 12:09:52 | 49.14636 | 17.89857 | 94° | 5km/h | 19257m | 6.6m/s | -55.8°C | 1.3% | -1.0hPa | 2.6V | 00:00:00 | 00:00:00 | 00:00:00 | |
| DO3MHA-11 | 2026-09-04 12:09:48 | 49.14637 | 17.89849 | 97° | 11km/h | 19240m | 7.1m/s | -55.7°C | 4.7% | 0hPa | 2.6V | 00:00:00 | 01:27:51 | 00:00:00 | |
| SQ9EZE-14 | 2026-09-04 12:09:44 | 49.14638 | 17.89840 | 123° | 11km/h | 19223m | 6.0m/s | 0°C | 0% | 0hPa | 2.6V | 00:00:00 | 00:00:00 | 00:00:00 | |
| OE5DRO-10 | 2026-09-04 12:09:42 | 49.14644 | 17.89829 | 118° | 13km/h | 19206m | 5.1m/s | -55.6°C | 4.7% | 0hPa | 2.6V | 00:00:00 | 00:00:00 | 00:00:00 | |
| POL2MAQ | 2026-09-04 12:09:39 | 49.14647 | 17.89820 | 115° | 13km/h | 19195m | 6.4m/s | -55.7°C | 1.5% | 0hPa | 2.7V | 00:00:00 | 00:00:00 | 00:00:00 | |
| PETON7-10 | 2026-09-04 12:09:38 | 49.14649 | 17.89812 | 111° | 15km/h | 19185m | 5.8m/s | -55.7°C | 4.7% | 0hPa | 2.7V | 00:00:00 | 01:27:41 | 00:00:00 | |
| OE5DXL-15 | 2026-09-04 12:09:35 | 49.14649 | 17.89803 | 81° | 15km/h | 19167m | 6.2m/s | -55.5°C | 4.7% | 0hPa | 2.7V | 00:00:00 | 00:00:00 | 00:00:00 | |
| PG1ADW-2 | 2026-09-04 12:09:34 | 49.14649 | 17.89800 | 94° | 15km/h | 19162m | 5.3m/s | -55.4°C | 4.6% | 0hPa | 2.7V | 00:00:00 | 00:00:00 | 00:00:00 | |
| DO3MHA-11 | 2026-09-04 12:09:28 | 49.14652 | 17.89760 | 101° | 13km/h | 19128m | 3.5m/s | -55.3°C | 4.7% | 0hPa | 2.7V | 00:00:00 | 01:27:31 | 00:00:00 | |
| PETON7-10 | 2026-09-04 12:09:23 | 49.14650 | 17.89734 | 43° | 15km/h | 19099m | 7.0m/s | -55.3°C | 4.7% | 0hPa | 2.7V | 00:00:00 | 00:00:00 | 00:00:00 | |
| OE3OSB-13 | 2026-09-04 12:09:21 | 49.14645 | 17.89729 | 34° | 7km/h | 19081m | 7.1m/s | -55.2°C | 1.3% | -1.0hPa | 2.7V | 00:00:00 | 00:00:00 | 00:00:00 | |
| POL2MAQ | 2026-09-04 12:09:19 | 49.14645 | 17.89729 | 35° | 9km/h | 19082m | 7.1m/s | -55.2°C | 1.4% | 0hPa | 2.7V | 00:00:00 | 00:00:00 | 00:00:00 | |
| DO3MHA-11 | 2026-09-04 12:09:18 | 49.14640 | 17.89722 | 57° | 16km/h | 19069m | 6.0m/s | -55.1°C | 4.5% | 0hPa | 2.7V | 00:00:00 | 01:27:21 | 00:00:00 | |
| HA6NAB-11 | 2026-09-04 12:09:17 | 49.14638 | 17.89716 | 60° | 18km/h | 19062m | 7.4m/s | -55.2°C | 1.4% | 0hPa | 2.7V | 00:00:00 | 00:00:00 | 00:00:00 | |
| PG1ADW-2 | 2026-09-04 12:09:14 | 49.14633 | 17.89694 | 81° | 16km/h | 19045m | 6.8m/s | -55.0°C | 4.5% | 0hPa | 2.7V | 00:00:00 | 00:00:00 | 00:00:00 | |
| DO3MHA-11 | 2026-09-04 12:09:09 | 49.14630 | 17.89663 | 21° | 16km/h | 19010m | 6.7m/s | -54.7°C | 4.4% | 0hPa | 2.7V | 00:00:00 | 01:27:11 | 00:00:00 | |
| PETON7-10 | 2026-09-04 12:09:08 | 49.14630 | 17.89663 | 21° | 16km/h | 19010m | 6.7m/s | -54.7°C | 4.4% | 0hPa | 2.7V | 00:00:00 | 00:00:00 | 00:00:00 | |
| OE5DXL-15 | 2026-09-04 12:09:05 | 49.14619 | 17.89659 | 15° | 13km/h | 18993m | 7.0m/s | -54.7°C | 4.4% | 0hPa | 2.7V | 00:00:00 | 00:00:00 | 00:00:00 | |
| OE5DRO-10 | 2026-09-04 12:09:04 | 49.14615 | 17.89657 | 28° | 15km/h | 18986m | 8.4m/s | -54.6°C | 4.4% | 0hPa | 2.6V | 00:00:00 | 00:00:00 | 00:00:00 | |
| HA6NAB-11 | 2026-09-04 12:09:02 | 49.14611 | 17.89653 | 50° | 20km/h | 18979m | 4.9m/s | -54.6°C | 1.4% | 0hPa | 2.6V | 00:00:00 | 00:00:00 | 00:00:00 | |
| OE3OSB-13 | 2026-09-04 12:08:50 | 49.14585 | 17.89581 | 94° | 9km/h | 18890m | 5.1m/s | -54.7°C | 1.3% | -1.0hPa | 2.6V | 00:00:00 | 00:00:00 | 00:00:00 | |
| DO3MHA-11 | 2026-09-04 12:08:48 | 49.14585 | 17.89577 | 89° | 11km/h | 18884m | 6.3m/s | -54.6°C | 4.5% | 0hPa | 2.6V | 00:00:00 | 01:26:51 | 00:00:00 | |
| OE5DRO-10 | 2026-09-04 12:08:45 | 49.14582 | 17.89564 | 56° | 15km/h | 18864m | 6.5m/s | -54.5°C | 4.4% | 0hPa | 2.6V | 00:00:00 | 00:00:00 | 08:30:00 | |
| PETON7-10 | 2026-09-04 12:08:38 | 49.14572 | 17.89543 | 34° | 16km/h | 18817m | 6.4m/s | -54.3°C | 4.2% | 0hPa | 2.6V | 00:00:00 | 00:00:00 | 08:30:00 | |
| OE5DXL-15 | 2026-09-04 12:08:35 | 49.14572 | 17.89536 | 109° | 18km/h | 18796m | 7.4m/s | -54.9°C | 4.5% | 0hPa | 2.6V | 00:00:00 | 00:00:00 | 00:00:00 | |
| PG1ADW-2 | 2026-09-04 12:08:34 | 49.14574 | 17.89531 | 121° | 20km/h | 18788m | 7.9m/s | -54.9°C | 4.5% | 0hPa | 2.6V | 00:00:00 | 00:00:00 | 08:30:00 | |
| DO3MHA-11 | 2026-09-04 12:08:28 | 49.14592 | 17.89488 | 123° | 20km/h | 18746m | 6.0m/s | -54.6°C | 4.5% | 0hPa | 2.6V | 00:00:00 | 01:26:31 | 08:30:00 | |
| OE5DRO-10 | 2026-09-04 12:08:26 | 49.14595 | 17.89479 | 121° | 16km/h | 18733m | 6.5m/s | -54.5°C | 4.4% | 0hPa | 2.7V | 00:00:00 | 00:00:00 | 00:00:00 | |
| PETON7-10 | 2026-09-04 12:08:23 | 49.14603 | 17.89464 | 138° | 16km/h | 18714m | 6.3m/s | -54.4°C | 4.4% | 0hPa | 2.7V | 00:00:00 | 00:00:00 | 00:00:00 | |
| OE3OSB-13 | 2026-09-04 12:08:19 | 49.14624 | 17.89431 | 130° | 20km/h | 18685m | 5.2m/s | -54.5°C | 1.3% | -1.0hPa | 2.7V | 00:00:00 | 00:00:00 | 00:00:00 | |
| DO3MHA-11 | 2026-09-04 12:08:18 | 49.14624 | 17.89431 | 131° | 13km/h | 18685m | 5.2m/s | -54.4°C | 4.4% | 0hPa | 2.7V | 00:00:00 | 01:26:21 | 00:00:00 | |
| POL2MAQ | 2026-09-04 12:08:17 | 49.14623 | 17.89430 | 131° | 22km/h | 18685m | 5.2m/s | -54.5°C | 1.4% | 0hPa | 2.7V | 00:00:00 | 00:00:00 | 00:00:00 | |
| PG1ADW-2 | 2026-09-04 12:08:14 | 49.14633 | 17.89413 | 119° | 15km/h | 18662m | 5.8m/s | -54.4°C | 4.2% | 0hPa | 2.7V | 00:00:00 | 00:00:00 | 00:00:00 | |
| DO3MHA-11 | 2026-09-04 12:08:09 | 49.14646 | 17.89397 | 140° | 15km/h | 18624m | 7.0m/s | -54.2°C | 4.4% | 0hPa | 2.7V | 00:00:00 | 01:26:11 | 00:00:00 | |
| PETON7-10 | 2026-09-04 12:08:08 | 49.14646 | 17.89397 | 140° | 16km/h | 18624m | 7.0m/s | -54.2°C | 4.4% | 0hPa | 2.7V | 00:00:00 | 01:26:11 | 00:00:00 | |
| OE5DRO-10 | 2026-09-04 12:08:07 | 49.14649 | 17.89393 | 141° | 20km/h | 18618m | 5.0m/s | -54.2°C | 4.4% | 0hPa | 2.7V | 00:00:00 | 00:00:00 | 00:00:00 | |
| OE5DXL-15 | 2026-09-04 12:08:05 | 49.14656 | 17.89384 | 135° | 24km/h | 18607m | 5.5m/s | -54.2°C | 4.3% | 0hPa | 2.7V | 00:00:00 | 00:00:00 | 00:00:00 | |
| OE3OSB-13 | 2026-09-04 12:07:47 | 49.14733 | 17.89317 | 119° | 27km/h | 18500m | 6.4m/s | -55.1°C | 1.3% | -1.0hPa | 2.7V | 00:00:00 | 00:00:00 | 00:00:00 | |
| PETON7-10 | 2026-09-04 12:07:38 | 49.14773 | 17.89246 | 139° | 35km/h | 18446m | 5.7m/s | -55.1°C | 4.6% | 0hPa | 2.7V | 00:00:00 | 00:00:00 | 00:00:00 | |
| OE5DXL-15 | 2026-09-04 12:07:35 | 49.14788 | 17.89218 | 120° | 35km/h | 18427m | 6.5m/s | -55.0°C | 4.6% | 0hPa | 2.7V | 00:00:00 | 00:00:00 | 00:00:00 | |
| PG1ADW-2 | 2026-09-04 12:07:34 | 49.14792 | 17.89206 | 115° | 37km/h | 18422m | 4.8m/s | -54.9°C | 4.6% | 0hPa | 2.7V | 00:00:00 | 01:25:37 | 00:00:00 | |
| OE5DRO-10 | 2026-09-04 12:07:29 | 49.14808 | 17.89138 | 111° | 35km/h | 18389m | 7.4m/s | -55.0°C | 4.4% | 0hPa | 2.7V | 00:00:00 | 00:00:00 | 00:00:00 | |
| DO3MHA-11 | 2026-09-04 12:07:28 | 49.14811 | 17.89125 | 114° | 35km/h | 18383m | 5.1m/s | -55.0°C | 4.4% | 0hPa | 2.7V | 00:00:00 | 01:25:31 | 00:00:00 | |
| PETON7-10 | 2026-09-04 12:07:23 | 49.14830 | 17.89062 | 111° | 33km/h | 18354m | 6.2m/s | -54.8°C | 4.5% | 0hPa | 2.6V | 00:00:00 | 01:25:26 | 00:00:00 | |
| DO3MHA-11 | 2026-09-04 12:07:18 | 49.14841 | 17.88998 | 106° | 33km/h | 18324m | 7.3m/s | -55.0°C | 4.6% | 0hPa | 2.6V | 00:00:00 | 01:25:21 | 00:00:00 | |
| OE3OSB-13 | 2026-09-04 12:07:16 | 49.14848 | 17.88974 | 119° | 33km/h | 18312m | 6.2m/s | -55.0°C | 1.4% | -1.0hPa | 2.6V | 00:00:00 | 00:00:00 | 00:00:00 | |
| POL2MAQ | 2026-09-04 12:07:15 | 49.14848 | 17.88974 | 121° | 35km/h | 18312m | 6.2m/s | -55.0°C | 1.5% | 0hPa | 2.6V | 00:00:00 | 00:00:00 | 00:00:00 | |
| PG1ADW-2 | 2026-09-04 12:07:14 | 49.14858 | 17.88954 | 137° | 35km/h | 18299m | 6.3m/s | -54.9°C | 4.5% | 0hPa | 2.6V | 00:00:00 | 00:00:00 | 00:00:00 | |
| OE5DRO-10 | 2026-09-04 12:07:10 | 49.14884 | 17.88927 | 152° | 37km/h | 18273m | 7.2m/s | -54.9°C | 4.4% | 0hPa | 2.6V | 00:00:00 | 00:00:00 | 00:00:00 | |
| DO3MHA-11 | 2026-09-04 12:07:08 | 49.14898 | 17.88915 | 148° | 37km/h | 18262m | 6.1m/s | -54.9°C | 4.5% | 0hPa | 2.6V | 00:00:00 | 01:25:11 | 00:00:00 | |
| OE5DXL-15 | 2026-09-04 12:07:05 | 49.14918 | 17.88889 | 131° | 40km/h | 18243m | 6.3m/s | -54.7°C | 4.5% | 0hPa | 2.6V | 00:00:00 | 00:00:00 | 00:00:00 | |
| OE3OSB-13 | 2026-09-04 12:06:45 | 49.15011 | 17.88617 | 110° | 42km/h | 18126m | 4.2m/s | -55.8°C | 1.4% | -1.0hPa | 2.6V | 00:00:00 | 00:00:00 | 00:00:00 | |
| PETON7-10 | 2026-09-04 12:06:38 | 49.15039 | 17.88513 | 123° | 44km/h | 18084m | 7.4m/s | -56.0°C | 4.6% | 0hPa | 2.6V | 00:00:00 | 01:24:41 | 00:00:00 | |
| OE5DXL-15 | 2026-09-04 12:06:35 | 49.15057 | 17.88475 | 126° | 46km/h | 18066m | 6.1m/s | -56.2°C | 4.7% | 0hPa | 2.6V | 00:00:00 | 00:00:00 | 00:00:00 | |
| PG1ADW-2 | 2026-09-04 12:06:34 | 49.15063 | 17.88462 | 125° | 46km/h | 18061m | 4.8m/s | -56.3°C | 4.7% | 0hPa | 2.6V | 00:00:00 | 00:00:00 | 00:00:00 | |
| OE5DRO-10 | 2026-09-04 12:06:32 | 49.15073 | 17.88435 | 118° | 46km/h | 18049m | 5.3m/s | -57.0°C | 5.0% | 0hPa | 2.7V | 00:00:00 | 00:00:00 | 00:00:00 | |
| DO3MHA-11 | 2026-09-04 12:06:28 | 49.15092 | 17.88376 | 115° | 47km/h | 18027m | 6.9m/s | -57.3°C | 5.2% | 0hPa | 2.7V | 00:00:00 | 01:24:31 | 00:00:00 | |
| PETON7-10 | 2026-09-04 12:06:23 | 49.15119 | 17.88295 | 119° | 46km/h | 18000m | 4.2m/s | -57.3°C | 5.2% | 0hPa | 2.6V | 00:00:00 | 00:00:00 | 08:30:00 | |
| DO3MHA-11 | 2026-09-04 12:06:18 | 49.15141 | 17.88213 | 104° | 46km/h | 17973m | 4.3m/s | -57.1°C | 5.1% | 0hPa | 2.6V | 00:00:00 | 01:24:21 | 00:00:00 | |
| PG1ADW-2 | 2026-09-04 12:06:14 | 49.15153 | 17.88143 | 106° | 44km/h | 17952m | 4.1m/s | -57.0°C | 5.1% | 0hPa | 2.6V | 00:00:00 | 01:24:17 | 00:00:00 | |
| OE5DRO-10 | 2026-09-04 12:06:13 | 49.15156 | 17.88126 | 105° | 44km/h | 17947m | 5.7m/s | -56.9°C | 5.0% | 0hPa | 2.6V | 00:00:00 | 00:00:00 | 00:00:00 | |
| PETON7-10 | 2026-09-04 12:06:08 | 49.15174 | 17.88044 | 111° | 44km/h | 17919m | 5.5m/s | -56.7°C | 4.8% | 0hPa | 2.6V | 00:00:00 | 00:00:00 | 00:00:00 | |
| OE5DXL-15 | 2026-09-04 12:06:01 | 49.15198 | 17.87933 | 109° | 46km/h | 17879m | 6.5m/s | -57.1°C | 5.0% | 0hPa | 2.6V | 00:00:00 | 01:24:04 | 08:30:00 | |
| DO3MHA-11 | 2026-09-04 12:05:58 | 49.15210 | 17.87887 | 115° | 46km/h | 17862m | 5.4m/s | -57.1°C | 5.1% | 0hPa | 2.6V | 00:00:00 | 01:24:01 | 00:00:00 | |
| PG1ADW-2 | 2026-09-04 12:05:54 | 49.15231 | 17.87825 | 114° | 46km/h | 17841m | 4.9m/s | -57.5°C | 5.2% | 0hPa | 2.7V | 00:00:00 | 00:00:00 | 00:00:00 | |
| PETON7-10 | 2026-09-04 12:05:53 | 49.15235 | 17.87809 | 112° | 44km/h | 17834m | 7.3m/s | -57.5°C | 5.2% | 0hPa | 2.7V | 00:00:00 | 01:23:56 | 00:00:00 | |
| DO3MHA-11 | 2026-09-04 12:05:48 | 49.15251 | 17.87727 | 109° | 44km/h | 17807m | 6.1m/s | -57.6°C | 5.1% | 0hPa | 2.7V | 00:00:00 | 01:23:51 | 00:00:00 | |
| OE3OSB-13 | 2026-09-04 12:05:44 | 49.15272 | 17.87653 | 115° | 42km/h | 17781m | 5.5m/s | -57.5°C | 1.6% | -1.0hPa | 2.7V | 00:00:00 | 00:00:00 | 00:00:00 | |
| OE5DRO-10 | 2026-09-04 12:05:35 | 49.15313 | 17.87516 | 113° | 53km/h | 17740m | 4.3m/s | -57.3°C | 5.1% | 0hPa | 2.7V | 00:00:00 | 00:00:00 | 00:00:00 | |
| PG1ADW-2 | 2026-09-04 12:05:34 | 49.15319 | 17.87497 | 111° | 53km/h | 17734m | 5.6m/s | -57.4°C | 5.1% | 0hPa | 2.7V | 00:00:00 | 00:00:00 | 08:30:00 | |
| POL2MAQ | 2026-09-04 12:05:33 | 49.15319 | 17.87497 | 112° | 55km/h | 17734m | 5.6m/s | -57.4°C | 1.8% | 0hPa | 2.6V | 00:00:00 | 00:00:00 | 00:00:00 | |
| OE5DXL-15 | 2026-09-04 12:05:31 | 49.15332 | 17.87442 | 114° | 57km/h | 17720m | 5.0m/s | -57.6°C | 5.1% | 0hPa | 2.6V | 00:00:00 | 00:00:00 | 00:00:00 | |
| DO3MHA-11 | 2026-09-04 12:05:28 | 49.15349 | 17.87391 | 120° | 53km/h | 17704m | 5.9m/s | -57.8°C | 5.3% | 0hPa | 2.6V | 00:00:00 | 01:23:31 | 08:30:00 | |
| PETON7-10 | 2026-09-04 12:05:23 | 49.15380 | 17.87307 | 116° | 58km/h | 17677m | 5.9m/s | -57.7°C | 5.3% | 0hPa | 2.7V | 00:00:00 | 00:00:00 | 00:00:00 | |
| DO3MHA-11 | 2026-09-04 12:05:18 | 49.15407 | 17.87202 | 112° | 58km/h | 17651m | 4.9m/s | -57.6°C | 5.3% | 0hPa | 2.7V | 00:00:00 | 01:23:21 | 00:00:00 | |
| OE5DRO-10 | 2026-09-04 12:05:16 | 49.15418 | 17.87159 | 111° | 58km/h | 17640m | 4.6m/s | -57.5°C | 5.3% | 0hPa | 2.7V | 00:00:00 | 00:00:00 | 00:00:00 | |
| PG1ADW-2 | 2026-09-04 12:05:14 | 49.15429 | 17.87117 | 115° | 58km/h | 17629m | 5.8m/s | -57.5°C | 5.2% | 0hPa | 2.7V | 00:00:00 | 00:00:00 | 00:00:00 | |
| POL2MAQ | 2026-09-04 12:05:13 | 49.15429 | 17.87117 | 115° | 58km/h | 17629m | 5.9m/s | -57.6°C | 1.8% | 0hPa | 2.7V | 00:00:00 | 00:00:00 | 00:00:00 | |
| OE3OSB-13 | 2026-09-04 12:05:12 | 49.15440 | 17.87076 | 110° | 55km/h | 17620m | 5.2m/s | -57.6°C | 1.6% | -1.0hPa | 2.7V | 00:00:00 | 00:00:00 | 00:00:00 | |
| DO3MHA-11 | 2026-09-04 12:05:08 | 49.15454 | 17.86991 | 102° | 60km/h | 17597m | 6.0m/s | -57.5°C | 5.1% | 0hPa | 2.7V | 00:00:00 | 01:23:11 | 00:00:00 | |
| OE5DXL-15 | 2026-09-04 12:05:01 | 49.15482 | 17.86832 | 115° | 49km/h | 17560m | 4.5m/s | -57.7°C | 5.2% | 0hPa | 2.7V | 00:00:00 | 00:00:00 | 00:00:00 | |
| GYPAP8-17 | 2026-09-04 12:05:00 | 49.15483 | 17.86832 | 115° | 60km/h | 17560m | 4.5m/s | 0°C | 0% | 0hPa | 2.7V | 00:00:00 | 00:00:00 | 00:00:00 | |
| DO3MHA-11 | 2026-09-04 12:04:58 | 49.15498 | 17.86769 | 107° | 53km/h | 17544m | 5.0m/s | -57.8°C | 5.3% | 0hPa | 2.7V | 00:00:00 | 01:23:01 | 00:00:00 | |
| OE5DRO-10 | 2026-09-04 12:04:57 | 49.15502 | 17.86748 | 106° | 49km/h | 17538m | 6.4m/s | -57.9°C | 5.3% | 0hPa | 2.7V | 00:00:00 | 00:00:00 | 00:00:00 | |
| PG1ADW-2 | 2026-09-04 12:04:54 | 49.15510 | 17.86682 | 95° | 46km/h | 17523m | 6.9m/s | -58.0°C | 5.4% | 0hPa | 2.7V | 00:00:00 | 01:22:57 | 00:00:00 | |
| PETON7-10 | 2026-09-04 12:04:53 | 49.15510 | 17.86660 | 91° | 47km/h | 17517m | 5.0m/s | -58.0°C | 5.5% | 0hPa | 2.7V | 00:00:00 | 00:00:00 | 00:00:00 | |
| POL2MAQ | 2026-09-04 12:04:52 | 49.15510 | 17.86660 | 92° | 55km/h | 17517m | 5.0m/s | -58.0°C | 1.9% | 0hPa | 2.7V | 00:00:00 | 00:00:00 | 00:00:00 | |
| DO3MHA-11 | 2026-09-04 12:04:48 | 49.15519 | 17.86570 | 110° | 47km/h | 17492m | 5.1m/s | -58.1°C | 5.5% | 0hPa | 2.7V | 00:00:00 | 01:22:51 | 00:00:00 | |
| HA6NAB-11 | 2026-09-04 12:04:47 | 49.15519 | 17.86571 | 111° | 47km/h | 17492m | 5.1m/s | -58.2°C | 1.9% | 0hPa | 2.7V | 00:00:00 | 00:00:00 | 00:00:00 | |
| OE3OSB-13 | 2026-09-04 12:04:41 | 49.15546 | 17.86440 | 103° | 38km/h | 17445m | 6.7m/s | -58.0°C | 1.7% | -1.0hPa | 2.7V | 00:00:00 | 00:00:00 | 00:00:00 | |
| HA6NAB-11 | 2026-09-04 12:04:39 | 49.15548 | 17.86425 | 99° | 35km/h | 17439m | 6.3m/s | -58.0°C | 1.8% | 0hPa | 2.7V | 00:00:00 | 00:00:00 | 00:00:00 | |
| PETON7-10 | 2026-09-04 12:04:38 | 49.15549 | 17.86399 | 94° | 42km/h | 17429m | 4.5m/s | -57.8°C | 5.3% | 0hPa | 2.7V | 00:00:00 | 00:00:00 | 00:00:00 | |
| PG1ADW-2 | 2026-09-04 12:04:34 | 49.15552 | 17.86335 | 92° | 44km/h | 17406m | 6.7m/s | -57.7°C | 5.2% | 0hPa | 2.7V | 00:00:00 | 00:00:00 | 00:00:00 | |
| OE5DXL-15 | 2026-09-04 12:04:31 | 49.15552 | 17.86282 | 89° | 44km/h | 17388m | 5.5m/s | -57.7°C | 5.3% | 0hPa | 2.7V | 00:00:00 | 00:00:00 | 00:00:00 | |
| DO3MHA-11 | 2026-09-04 12:04:28 | 49.15547 | 17.86233 | 75° | 38km/h | 17370m | 4.8m/s | -57.6°C | 5.5% | 0hPa | 2.7V | 00:00:00 | 01:22:31 | 00:00:00 | |
| PETON7-10 | 2026-09-04 12:04:23 | 49.15537 | 17.86160 | 85° | 47km/h | 17342m | 9.5m/s | -57.6°C | 5.4% | 0hPa | 2.6V | 00:00:00 | 01:22:26 | 00:00:00 | |
| OE5DRO-10 | 2026-09-04 12:04:19 | 49.15530 | 17.86102 | 64° | 46km/h | 17308m | 6.3m/s | -57.5°C | 5.3% | 0hPa | 2.6V | 00:00:00 | 00:00:00 | 00:00:00 | |
| DO3MHA-11 | 2026-09-04 12:04:18 | 49.15525 | 17.86086 | 62° | 53km/h | 17300m | 8.4m/s | -57.6°C | 5.3% | 0hPa | 2.6V | 00:00:00 | 01:22:21 | 00:00:00 | |
| PG1ADW-2 | 2026-09-04 12:04:14 | 49.15496 | 17.86013 | 59° | 40km/h | 17275m | 5.1m/s | -57.7°C | 5.3% | 0hPa | 2.6V | 00:00:00 | 00:00:00 | 00:00:00 | |
| HA6NAB-11 | 2026-09-04 12:04:12 | 49.15489 | 17.85993 | 63° | 57km/h | 17269m | 6.6m/s | -57.6°C | 1.9% | 0hPa | 2.6V | 00:00:00 | 00:00:00 | 00:00:00 | |
| POL2MAQ | 2026-09-04 12:04:11 | 49.15483 | 17.85974 | 68° | 55km/h | 17263m | 5.3m/s | -57.5°C | 1.9% | 0hPa | 2.6V | 00:00:00 | 00:00:00 | 00:00:00 | |
| PETON7-10 | 2026-09-04 12:04:08 | 49.15473 | 17.85910 | 88° | 37km/h | 17239m | 3.9m/s | -57.3°C | 5.5% | 0hPa | 2.6V | 00:00:00 | 00:00:00 | 08:30:00 | |
| HA6NAB-11 | 2026-09-04 12:04:07 | 49.15473 | 17.85910 | 88° | 29km/h | 17239m | 4.0m/s | -57.3°C | 1.9% | 0hPa | 2.7V | 00:00:00 | 00:00:00 | 00:00:00 | |
| OE5DXL-15 | 2026-09-04 12:04:01 | 49.15438 | 17.85827 | 54° | 38km/h | 17198m | 5.5m/s | -57.1°C | 5.1% | 0hPa | 2.7V | 00:00:00 | 00:00:00 | 00:00:00 | |
| OE5DRO-10 | 2026-09-04 12:04:00 | 49.15430 | 17.85812 | 56° | 37km/h | 17191m | 6.9m/s | -56.9°C | 5.1% | 0hPa | 2.7V | 00:00:00 | 00:00:00 | 00:00:00 | |
| DO3MHA-11 | 2026-09-04 12:03:57 | 49.15417 | 17.85774 | 65° | 29km/h | 17173m | 6.1m/s | -56.7°C | 5.1% | 0hPa | 2.7V | 00:00:00 | 01:22:00 | 08:30:00 | |
| PG1ADW-2 | 2026-09-04 12:03:54 | 49.15407 | 17.85745 | 59° | 37km/h | 17154m | 6.0m/s | -56.5°C | 5.1% | 0hPa | 2.7V | 00:00:00 | 00:00:00 | 00:00:00 | |
| PETON7-10 | 2026-09-04 12:03:53 | 49.15403 | 17.85736 | 52° | 37km/h | 17148m | 7.1m/s | -56.4°C | 5.1% | 0hPa | 2.7V | 00:00:00 | 00:00:00 | 00:00:00 | |
| POL2MAQ | 2026-09-04 12:03:50 | 49.15396 | 17.85719 | 63° | 29km/h | 17137m | 5.8m/s | -56.4°C | 1.8% | 0hPa | 2.7V | 00:00:00 | 00:00:00 | 00:00:00 | |
| DO3MHA-11 | 2026-09-04 12:03:44 | 49.15373 | 17.85607 | 65° | 37km/h | 17097m | 3.9m/s | -56.0°C | 5.1% | 0hPa | 2.7V | 00:00:00 | 01:21:47 | 00:00:00 | |
| OE5DRO-10 | 2026-09-04 12:03:41 | 49.15358 | 17.85578 | 32° | 38km/h | 17077m | 6.1m/s | -56.0°C | 5.0% | 0hPa | 2.7V | 00:00:00 | 00:00:00 | 00:00:00 | |
| OE3OSB-13 | 2026-09-04 12:03:39 | 49.15347 | 17.85569 | 29° | 27km/h | 17066m | 5.7m/s | -55.9°C | 1.6% | -1.0hPa | 2.7V | 00:00:00 | 00:00:00 | 00:00:00 | |
| PETON7-10 | 2026-09-04 12:03:38 | 49.15340 | 17.85562 | 38° | 40km/h | 17060m | 6.3m/s | -55.8°C | 5.0% | 0hPa | 2.7V | 00:00:00 | 01:21:41 | 00:00:00 | |
| DO3MHA-11 | 2026-09-04 12:03:34 | 49.15322 | 17.85501 | 86° | 35km/h | 17035m | 7.0m/s | -55.8°C | 4.9% | 0hPa | 2.7V | 00:00:00 | 01:21:37 | 00:00:00 | |
| OE5DXL-15 | 2026-09-04 12:03:31 | 49.15325 | 17.85437 | 98° | 37km/h | 17016m | 10.3m/s | -55.6°C | 4.9% | 0hPa | 2.7V | 00:00:00 | 00:00:00 | 00:00:00 | |
| POL2MAQ | 2026-09-04 12:03:30 | 49.15324 | 17.85437 | 98° | 58km/h | 17016m | 10.4m/s | -55.6°C | 1.8% | 0hPa | 2.7V | 00:00:00 | 00:00:00 | 00:00:00 | |
| PETON7-10 | 2026-09-04 12:03:23 | 49.15305 | 17.85347 | 76° | 35km/h | 16945m | 6.4m/s | -55.4°C | 4.8% | 0hPa | 2.7V | 00:00:00 | 00:00:00 | 00:00:00 | |
| OE5DRO-10 | 2026-09-04 12:03:22 | 49.15304 | 17.85336 | 82° | 37km/h | 16937m | 10.1m/s | -55.4°C | 4.8% | 0hPa | 2.7V | 00:00:00 | 00:00:00 | 00:00:00 | |
| DO3MHA-11 | 2026-09-04 12:03:16 | 49.15309 | 17.85256 | 103° | 38km/h | 16893m | 6.8m/s | -55.2°C | 4.8% | 0hPa | 2.7V | 00:00:00 | 01:21:19 | 00:00:00 | |
| PG1ADW-2 | 2026-09-04 12:03:14 | 49.15314 | 17.85225 | 108° | 38km/h | 16880m | 4.2m/s | -55.1°C | 4.8% | 0hPa | 2.7V | 00:00:00 | 00:00:00 | 00:00:00 | |
| POL2MAQ | 2026-09-04 12:03:09 | 49.15323 | 17.85170 | 98° | 33km/h | 16856m | 5.7m/s | -55.2°C | 1.7% | 0hPa | 2.7V | 00:00:00 | 00:00:00 | 00:00:00 | |
| PETON7-10 | 2026-09-04 12:03:08 | 49.15325 | 17.85147 | 100° | 40km/h | 16847m | 4.5m/s | -55.2°C | 4.6% | 0hPa | 2.7V | 00:00:00 | 00:00:00 | 00:00:00 | |
| DO3MHA-11 | 2026-09-04 12:03:06 | 49.15328 | 17.85122 | 100° | 42km/h | 16835m | 5.2m/s | -55.2°C | 4.6% | 0hPa | 2.7V | 00:00:00 | 01:21:09 | 00:00:00 | |
| OE5DRO-10 | 2026-09-04 12:03:03 | 49.15336 | 17.85077 | 110° | 49km/h | 16820m | 4.6m/s | -55.4°C | 4.6% | 0hPa | 2.7V | 00:00:00 | 00:00:00 | 08:30:00 | |
| OE5DXL-15 | 2026-09-04 12:03:01 | 49.15345 | 17.85043 | 110° | 47km/h | 16808m | 5.1m/s | -55.4°C | 4.7% | 0hPa | 2.7V | 00:00:00 | 00:00:00 | 00:00:00 | |
| DO3MHA-11 | 2026-09-04 12:02:56 | 49.15362 | 17.84969 | 106° | 53km/h | 16780m | 6.6m/s | -55.7°C | 4.8% | 0hPa | 2.7V | 00:00:00 | 01:20:59 | 00:00:00 | |
| PG1ADW-2 | 2026-09-04 12:02:54 | 49.15367 | 17.84937 | 105° | 49km/h | 16768m | 6.7m/s | -55.7°C | 4.9% | 0hPa | 2.7V | 00:00:00 | 00:00:00 | 00:00:00 | |
| PETON7-10 | 2026-09-04 12:02:53 | 49.15370 | 17.84920 | 108° | 53km/h | 16762m | 4.0m/s | -55.7°C | 4.8% | 0hPa | 2.7V | 00:00:00 | 01:20:56 | 00:00:00 | |
| HA6NAB-11 | 2026-09-04 12:02:50 | 49.15379 | 17.84881 | 109° | 57km/h | 16752m | 7.2m/s | -56.0°C | 1.8% | 0hPa | 2.7V | 00:00:00 | 00:00:00 | 00:00:00 | |
| POL2MAQ | 2026-09-04 12:02:49 | 49.15388 | 17.84839 | 109° | 58km/h | 16740m | 6.3m/s | -56.0°C | 1.8% | 0hPa | 2.7V | 00:00:00 | 00:00:00 | 00:00:00 | |
| DO3MHA-11 | 2026-09-04 12:02:46 | 49.15403 | 17.84775 | 110° | 47km/h | 16723m | 5.8m/s | -56.1°C | 5.0% | 0hPa | 2.7V | 00:00:00 | 01:20:49 | 00:00:00 | |
| OE5DRO-10 | 2026-09-04 12:02:44 | 49.15412 | 17.84732 | 108° | 47km/h | 16712m | 6.8m/s | -56.2°C | 5.1% | 0hPa | 2.7V | 00:00:00 | 00:00:00 | 00:00:00 | |
| HA6NAB-11 | 2026-09-04 12:02:39 | 49.15424 | 17.84659 | 96° | 42km/h | 16690m | 4.8m/s | -56.4°C | 1.8% | 0hPa | 2.7V | 00:00:00 | 00:00:00 | 00:00:00 | |
| PETON7-10 | 2026-09-04 12:02:38 | 49.15425 | 17.84627 | 95° | 49km/h | 16679m | 5.8m/s | -56.3°C | 5.0% | 0hPa | 2.7V | 00:00:00 | 00:00:00 | 00:00:00 | |
| OE3OSB-13 | 2026-09-04 12:02:37 | 49.15426 | 17.84612 | 95° | 38km/h | 16674m | 4.6m/s | -56.4°C | 1.7% | -1.0hPa | 2.7V | 00:00:00 | 00:00:00 | 00:00:00 | |
| DO3MHA-11 | 2026-09-04 12:02:36 | 49.15427 | 17.84597 | 96° | 49km/h | 16668m | 6.1m/s | -56.4°C | 5.0% | 0hPa | 2.7V | 00:00:00 | 01:20:39 | 00:00:00 | |
| PG1ADW-2 | 2026-09-04 12:02:34 | 49.15430 | 17.84565 | 100° | 49km/h | 16659m | 6.4m/s | -56.4°C | 5.1% | 0hPa | 2.7V | 00:00:00 | 00:00:00 | 08:30:00 | |
| HA6NAB-11 | 2026-09-04 12:02:33 | 49.15430 | 17.84565 | 101° | 44km/h | 16659m | 6.4m/s | -56.5°C | 1.9% | 0hPa | 2.7V | 00:00:00 | 00:00:00 | 00:00:00 | |
| OE5DXL-15 | 2026-09-04 12:02:31 | 49.15439 | 17.84513 | 107° | 47km/h | 16641m | 7.1m/s | -56.3°C | 5.1% | 0hPa | 2.7V | 00:00:00 | 00:00:00 | 00:00:00 | |
| POL2MAQ | 2026-09-04 12:02:28 | 49.15446 | 17.84473 | 107° | 55km/h | 16630m | 5.8m/s | -56.3°C | 1.9% | 0hPa | 2.7V | 00:00:00 | 00:00:00 | 00:00:00 | |
| DO3MHA-11 | 2026-09-04 12:02:26 | 49.15458 | 17.84412 | 106° | 49km/h | 16614m | 6.0m/s | -56.3°C | 5.1% | 0hPa | 2.7V | 00:00:00 | 01:20:29 | 00:00:00 | |
| OE5DRO-10 | 2026-09-04 12:02:25 | 49.15462 | 17.84391 | 106° | 47km/h | 16609m | 5.3m/s | -56.3°C | 5.1% | 0hPa | 2.7V | 00:00:00 | 00:00:00 | 00:00:00 | |
| PETON7-10 | 2026-09-04 12:02:23 | 49.15470 | 17.84353 | 109° | 46km/h | 16597m | 3.6m/s | -56.4°C | 5.1% | 0hPa | 2.7V | 00:00:00 | 00:00:00 | 00:00:00 | |
| HA6NAB-11 | 2026-09-04 12:02:22 | 49.15470 | 17.84353 | 110° | 47km/h | 16597m | 3.7m/s | -56.4°C | 2.0% | 0hPa | 2.7V | 00:00:00 | 00:00:00 | 00:00:00 | |
| DO3MHA-11 | 2026-09-04 12:02:16 | 49.15500 | 17.84239 | 112° | 47km/h | 16558m | 5.0m/s | -56.6°C | 5.3% | 0hPa | 2.7V | 00:00:00 | 01:20:19 | 08:30:00 | |
| PG1ADW-2 | 2026-09-04 12:02:14 | 49.15507 | 17.84206 | 107° | 46km/h | 16547m | 4.5m/s | -56.5°C | 5.2% | 0hPa | 2.7V | 00:00:00 | 01:20:17 | 00:00:00 | |
| PETON7-10 | 2026-09-04 12:02:08 | 49.15528 | 17.84101 | 108° | 46km/h | 16515m | 5.3m/s | -56.4°C | 5.2% | 0hPa | 2.7V | 00:00:00 | 01:20:11 | 00:00:00 | |
| POL2MAQ | 2026-09-04 12:02:07 | 49.15528 | 17.84101 | 108° | 47km/h | 16515m | 5.3m/s | -56.4°C | 1.9% | 0hPa | 2.7V | 00:00:00 | 00:00:00 | 00:00:00 | |
| OE5DRO-10 | 2026-09-04 12:02:06 | 49.15534 | 17.84066 | 103° | 44km/h | 16502m | 5.0m/s | -56.2°C | 5.2% | 0hPa | 2.7V | 00:00:00 | 00:00:00 | 00:00:00 | |
| OE5DXL-15 | 2026-09-04 12:02:01 | 49.15545 | 17.83982 | 105° | 42km/h | 16475m | 4.8m/s | -56.1°C | 5.2% | 0hPa | 2.7V | 00:00:00 | 00:00:00 | 00:00:00 | |
| DO3MHA-11 | 2026-09-04 12:01:56 | 49.15564 | 17.83895 | 105° | 42km/h | 16447m | 5.0m/s | -56.0°C | 5.0% | 0hPa | 2.7V | 00:00:00 | 01:19:59 | 00:00:00 | |
| PG1ADW-2 | 2026-09-04 12:01:54 | 49.15569 | 17.83861 | 101° | 40km/h | 16436m | 4.2m/s | -56.0°C | 5.0% | 0hPa | 2.7V | 00:00:00 | 00:00:00 | 00:00:00 | |
| PETON7-10 | 2026-09-04 12:01:53 | 49.15571 | 17.83846 | 100° | 42km/h | 16431m | 5.9m/s | -56.1°C | 4.9% | 0hPa | 2.7V | 00:00:00 | 00:00:00 | 08:30:00 | |
| OE5DRO-10 | 2026-09-04 12:01:47 | 49.15585 | 17.83757 | 109° | 38km/h | 16396m | 6.2m/s | -55.9°C | 5.1% | 0hPa | 2.7V | 00:00:00 | 00:00:00 | 00:00:00 | |
| DO3MHA-11 | 2026-09-04 12:01:46 | 49.15589 | 17.83741 | 111° | 42km/h | 16390m | 5.3m/s | -55.9°C | 5.1% | 0hPa | 2.7V | 00:00:00 | 01:19:49 | 00:00:00 | |
| PETON7-10 | 2026-09-04 12:01:38 | 49.15618 | 17.83616 | 107° | 35km/h | 16345m | 5.0m/s | -55.8°C | 5.0% | 0hPa | 2.7V | 00:00:00 | 00:00:00 | 00:00:00 | |
| DO3MHA-11 | 2026-09-04 12:01:36 | 49.15623 | 17.83589 | 109° | 35km/h | 16334m | 6.1m/s | -55.8°C | 5.0% | 0hPa | 2.7V | 00:00:00 | 01:19:39 | 00:00:00 | |
| OE3OSB-13 | 2026-09-04 12:01:35 | 49.15629 | 17.83563 | 108° | 35km/h | 16323m | 6.8m/s | -55.8°C | 1.7% | -1.0hPa | 2.7V | 00:00:00 | 00:00:00 | 00:00:00 | |
| PG1ADW-2 | 2026-09-04 12:01:34 | 49.15629 | 17.83563 | 109° | 35km/h | 16323m | 6.8m/s | -55.7°C | 4.9% | 0hPa | 2.7V | 00:00:00 | 00:00:00 | 00:00:00 | |
| OE5DXL-15 | 2026-09-04 12:01:31 | 49.15637 | 17.83525 | 112° | 37km/h | 16305m | 4.8m/s | -55.6°C | 4.9% | 0hPa | 2.7V | 00:00:00 | 00:00:00 | 08:30:00 | |
| OE5DRO-10 | 2026-09-04 12:01:28 | 49.15647 | 17.83490 | 114° | 37km/h | 16289m | 5.5m/s | -55.4°C | 4.9% | 0hPa | 2.7V | 00:00:00 | 00:00:00 | 00:00:00 | |
| DO3MHA-11 | 2026-09-04 12:01:26 | 49.15654 | 17.83467 | 120° | 37km/h | 16278m | 5.8m/s | -55.4°C | 4.9% | 0hPa | 2.7V | 00:00:00 | 01:19:29 | 00:00:00 | |
| PETON7-10 | 2026-09-04 12:01:22 | 49.15673 | 17.83417 | 121° | 37km/h | 16253m | 4.0m/s | -55.4°C | 5.0% | 0hPa | 2.7V | 00:00:00 | 01:19:25 | 00:00:00 | |
| DO3MHA-11 | 2026-09-04 12:01:16 | 49.15695 | 17.83346 | 115° | 38km/h | 16219m | 7.5m/s | -55.4°C | 4.9% | 0hPa | 2.7V | 00:00:00 | 01:19:19 | 00:00:00 | |
| PG1ADW-2 | 2026-09-04 12:01:14 | 49.15703 | 17.83323 | 119° | 40km/h | 16207m | 5.5m/s | -55.4°C | 4.9% | 0hPa | 2.7V | 00:00:00 | 00:00:00 | 00:00:00 | |
| OE5DRO-10 | 2026-09-04 12:01:09 | 49.15733 | 17.83261 | 131° | 42km/h | 16177m | 5.3m/s | -55.3°C | 4.8% | 0hPa | 2.7V | 00:00:00 | 00:00:00 | 00:00:00 | |
| PETON7-10 | 2026-09-04 12:01:07 | 49.15747 | 17.83239 | 134° | 42km/h | 16168m | 6.5m/s | -55.3°C | 4.8% | 0hPa | 2.7V | 00:00:00 | 00:00:00 | 00:00:00 | |
| DO3MHA-11 | 2026-09-04 12:01:06 | 49.15753 | 17.83227 | 131° | 42km/h | 16161m | 8.2m/s | -55.4°C | 4.9% | 0hPa | 2.7V | 00:00:00 | 01:19:09 | 00:00:00 | |
| POL2MAQ | 2026-09-04 12:01:05 | 49.15753 | 17.83227 | 131° | 38km/h | 16161m | 8.3m/s | -55.4°C | 1.9% | 0hPa | 2.7V | 00:00:00 | 00:00:00 | 00:00:00 | |
| OE3OSB-13 | 2026-09-04 12:01:04 | 49.15771 | 17.83191 | 125° | 40km/h | 16142m | 4.1m/s | -55.3°C | 1.8% | -1.0hPa | 2.7V | 00:00:00 | 00:00:00 | 00:00:00 | |
| OE5DXL-15 | 2026-09-04 12:01:01 | 49.15782 | 17.83164 | 119° | 47km/h | 16130m | 6.8m/s | -55.3°C | 4.9% | 0hPa | 2.7V | 00:00:00 | 00:00:00 | 00:00:00 | |
| DO3MHA-11 | 2026-09-04 12:00:56 | 49.15809 | 17.83091 | 121° | 46km/h | 16101m | 5.0m/s | -55.5°C | 4.9% | 0hPa | 2.7V | 00:00:00 | 01:18:59 | 00:00:00 | |
| PG1ADW-2 | 2026-09-04 12:00:55 | 49.15820 | 17.83063 | 124° | 49km/h | 16089m | 3.7m/s | -55.4°C | 4.9% | 0hPa | 2.7V | 00:00:00 | 01:18:57 | 00:00:00 | |
| PETON7-10 | 2026-09-04 12:00:52 | 49.15832 | 17.83036 | 124° | 51km/h | 16078m | 7.4m/s | -55.5°C | 4.9% | 0hPa | 2.7V | 00:00:00 | 00:00:00 | 00:00:00 | |
| OE5DRO-10 | 2026-09-04 12:00:50 | 49.15844 | 17.83007 | 122° | 51km/h | 16065m | 7.3m/s | -55.6°C | 4.9% | 0hPa | 2.7V | 00:00:00 | 00:00:00 | 00:00:00 | |
| DO3MHA-11 | 2026-09-04 12:00:46 | 49.15869 | 17.82941 | 118° | 51km/h | 16041m | 5.5m/s | -55.5°C | 4.9% | 0hPa | 2.7V | 00:00:00 | 01:18:49 | 08:30:00 | |
| POL2MAQ | 2026-09-04 12:00:45 | 49.15869 | 17.82941 | 119° | 53km/h | 16041m | 5.6m/s | -55.6°C | 1.9% | 0hPa | 2.7V | 00:00:00 | 00:00:00 | 00:00:00 | |
| PETON7-10 | 2026-09-04 12:00:37 | 49.15925 | 17.82781 | 114° | 49km/h | 15988m | 6.2m/s | -55.9°C | 5.2% | 0hPa | 2.7V | 00:00:00 | 01:18:40 | 00:00:00 | |
| DO3MHA-11 | 2026-09-04 12:00:36 | 49.15930 | 17.82764 | 113° | 49km/h | 15982m | 7.0m/s | -56.0°C | 5.2% | 0hPa | 2.7V | 00:00:00 | 01:18:39 | 00:00:00 | |
| OE3OSB-13 | 2026-09-04 12:00:34 | 49.15945 | 17.82690 | 103° | 51km/h | 15956m | 6.4m/s | -56.2°C | 1.9% | -1.0hPa | 2.7V | 00:00:00 | 00:00:00 | 00:00:00 | |
| OE5DXL-15 | 2026-09-04 12:00:31 | 49.15948 | 17.82671 | 108° | 47km/h | 15951m | 4.8m/s | -56.1°C | 5.2% | 0hPa | 2.7V | 00:00:00 | 00:00:00 | 00:00:00 | |
| DO3MHA-11 | 2026-09-04 12:00:26 | 49.15971 | 17.82582 | 115° | 46km/h | 15922m | 4.7m/s | -56.2°C | 5.2% | 0hPa | 2.7V | 00:00:00 | 01:18:29 | 00:00:00 | |
| POL2MAQ | 2026-09-04 12:00:24 | 49.15975 | 17.82565 | 115° | 47km/h | 15916m | 6.8m/s | -56.3°C | 2.0% | 0hPa | 2.7V | 00:00:00 | 00:00:00 | 00:00:00 | |
| PETON7-10 | 2026-09-04 12:00:21 | 49.15992 | 17.82501 | 114° | 49km/h | 15891m | 5.7m/s | -56.2°C | 5.2% | 0hPa | 2.7V | 00:00:00 | 00:00:00 | 00:00:00 | |
| PG1ADW-2 | 2026-09-04 12:00:14 | 49.16046 | 17.82395 | 132° | 47km/h | 15847m | 5.2m/s | -56.1°C | 5.3% | 0hPa | 2.7V | 00:00:00 | 00:00:00 | 00:00:00 | |
| OE5DRO-10 | 2026-09-04 12:00:12 | 49.16062 | 17.82363 | 124° | 46km/h | 15836m | 4.9m/s | -56.1°C | 5.4% | 0hPa | 2.7V | 00:00:00 | 00:00:00 | 08:30:00 | |
| PETON7-10 | 2026-09-04 12:00:06 | 49.16092 | 17.82266 | 118° | 46km/h | 15801m | 6.6m/s | -56.0°C | 5.3% | 0hPa | 2.7V | 00:00:00 | 00:00:00 | 00:00:00 | |
| POL2MAQ | 2026-09-04 12:00:04 | 49.16098 | 17.82252 | 124° | 44km/h | 15794m | 5.6m/s | -56.1°C | 2.1% | 0hPa | 2.7V | 00:00:00 | 00:00:00 | 00:00:00 | |
| OE5DXL-15 | 2026-09-04 12:00:01 | 49.16126 | 17.82192 | 124° | 49km/h | 15769m | 4.8m/s | -55.8°C | 5.3% | 0hPa | 2.7V | 00:00:00 | 00:00:00 | 00:00:00 | |
| PG1ADW-2 | 2026-09-04 11:59:54 | 49.16166 | 17.82085 | 124° | 49km/h | 15728m | 4.9m/s | -55.7°C | 5.1% | 0hPa | 2.7V | 00:00:00 | 00:00:00 | 00:00:00 | |
| PETON7-10 | 2026-09-04 11:59:51 | 49.16185 | 17.82046 | 131° | 49km/h | 15710m | 6.3m/s | -55.8°C | 5.2% | 0hPa | 2.7V | 00:00:00 | 01:17:54 | 00:00:00 | |
| OE3JTB-15 | 2026-09-04 11:59:48 | 49.16219 | 17.81977 | 126° | 51km/h | 15682m | 3.5m/s | -55.9°C | 5.3% | 0hPa | 2.7V | 00:00:00 | 00:00:00 | 00:00:00 | |
| POL2MAQ | 2026-09-04 11:59:43 | 49.16234 | 17.81947 | 128° | 47km/h | 15669m | 8.0m/s | -56.1°C | 2.2% | 0hPa | 2.7V | 00:00:00 | 00:00:00 | 00:00:00 | |
| GYPAP8-17 | 2026-09-04 11:59:42 | 49.16241 | 17.81933 | 131° | 47km/h | 15663m | 4.9m/s | 0°C | 0% | 0hPa | 2.7V | 00:00:00 | 00:00:00 | 00:00:00 | |
| PETON7-10 | 2026-09-04 11:59:36 | 49.16305 | 17.81826 | 131° | 53km/h | 15624m | 5.8m/s | -56.0°C | 5.5% | 0hPa | 2.7V | 00:00:00 | 00:00:00 | 08:30:00 | |
| PG1ADW-2 | 2026-09-04 11:59:34 | 49.16322 | 17.81793 | 128° | 53km/h | 15611m | 4.8m/s | -56.0°C | 5.5% | 0hPa | 2.7V | 00:00:00 | 01:17:37 | 08:30:00 | |
| DO3MHA-11 | 2026-09-04 11:59:33 | 49.16330 | 17.81777 | 129° | 53km/h | 15606m | 4.6m/s | 0°C | 0% | 0hPa | 2.7V | 00:00:00 | 01:17:36 | 00:00:00 | |
| OE5DXL-15 | 2026-09-04 11:59:31 | 49.16347 | 17.81745 | 129° | 55km/h | 15595m | 6.6m/s | -56.1°C | 5.5% | 0hPa | 2.7V | 00:00:00 | 00:00:00 | 00:00:00 | |
| OE3OSB-13 | 2026-09-04 11:59:30 | 49.16355 | 17.81729 | 127° | 51km/h | 15589m | 5.0m/s | -56.2°C | 2.2% | -1.0hPa | 2.7V | 00:00:00 | 00:00:00 | 00:00:00 | |
| DO3MHA-11 | 2026-09-04 11:59:22 | 49.16422 | 17.81601 | 134° | 53km/h | 15544m | 5.5m/s | 0°C | 0% | 0hPa | 2.7V | 00:00:00 | 01:17:25 | 00:00:00 | |
| PETON7-10 | 2026-09-04 11:59:21 | 49.16430 | 17.81588 | 135° | 57km/h | 15539m | 5.8m/s | -55.9°C | 5.5% | 0hPa | 2.7V | 00:00:00 | 00:00:00 | 00:00:00 | |
| OE3JTB-15 | 2026-09-04 11:59:18 | 49.16475 | 17.81520 | 132° | 58km/h | 15509m | 5.8m/s | -56.3°C | 5.7% | 0hPa | 2.7V | 00:00:00 | 00:00:00 | 00:00:00 | |
| OE5DRO-10 | 2026-09-04 11:59:15 | 49.16484 | 17.81505 | 132° | 60km/h | 15504m | 4.0m/s | -56.3°C | 5.7% | 0hPa | 2.7V | 00:00:00 | 00:00:00 | 00:00:00 | |
| PG1ADW-2 | 2026-09-04 11:59:14 | 49.16493 | 17.81489 | 133° | 58km/h | 15498m | 6.9m/s | -56.3°C | 5.7% | 0hPa | 2.7V | 00:00:00 | 00:00:00 | 00:00:00 | |
| DO3MHA-11 | 2026-09-04 11:59:12 | 49.16514 | 17.81456 | 136° | 62km/h | 15487m | 5.6m/s | 0°C | 0% | 0hPa | 2.7V | 00:00:00 | 01:17:15 | 00:00:00 | |
| PETON7-10 | 2026-09-04 11:59:06 | 49.16580 | 17.81359 | 135° | 57km/h | 15455m | 4.1m/s | -56.2°C | 5.7% | 0hPa | 2.7V | 00:00:00 | 01:17:09 | 00:00:00 | |
| OE3OSB-13 | 2026-09-04 11:58:59 | 49.16653 | 17.81246 | 132° | 60km/h | 15416m | 5.6m/s | -56.4°C | 2.4% | -1.0hPa | 2.7V | 00:00:00 | 00:00:00 | 00:00:00 | |
| OE5DRO-10 | 2026-09-04 11:58:56 | 49.16683 | 17.81195 | 132° | 58km/h | 15397m | 7.8m/s | -56.4°C | 5.9% | 0hPa | 2.7V | 00:00:00 | 00:00:00 | 00:00:00 | |
| PG1ADW-2 | 2026-09-04 11:58:54 | 49.16700 | 17.81164 | 130° | 58km/h | 15388m | 4.7m/s | -56.4°C | 5.9% | 0hPa | 2.7V | 00:00:00 | 00:00:00 | 00:00:00 | |
| PETON7-10 | 2026-09-04 11:58:51 | 49.16725 | 17.81118 | 133° | 60km/h | 15372m | 5.5m/s | -56.6°C | 6.0% | 0hPa | 2.7V | 00:00:00 | 00:00:00 | 00:00:00 | |
| POL2MAQ | 2026-09-04 11:58:41 | 49.16813 | 17.80960 | 131° | 68km/h | 15325m | 4.8m/s | -57.0°C | 2.7% | 0hPa | 2.7V | 00:00:00 | 00:00:00 | 00:00:00 | |
| OE5DRO-10 | 2026-09-04 11:58:37 | 49.16862 | 17.80866 | 128° | 62km/h | 15300m | 5.0m/s | -57.6°C | 6.5% | 0hPa | 2.7V | 00:00:00 | 00:00:00 | 00:00:00 | |
| PETON7-10 | 2026-09-04 11:58:36 | 49.16871 | 17.80848 | 129° | 62km/h | 15295m | 6.2m/s | -57.6°C | 6.6% | 0hPa | 2.7V | 00:00:00 | 00:00:00 | 00:00:00 | |
| PG1ADW-2 | 2026-09-04 11:58:34 | 49.16890 | 17.80812 | 131° | 60km/h | 15283m | 7.1m/s | -57.8°C | 6.8% | 0hPa | 2.7V | 00:00:00 | 00:00:00 | 00:00:00 | |
| OE5DXL-15 | 2026-09-04 11:58:31 | 49.16920 | 17.80760 | 134° | 55km/h | 15267m | 3.8m/s | -58.0°C | 7.0% | 0hPa | 2.7V | 00:00:00 | 00:00:00 | 00:00:00 | |
| OE3OSB-13 | 2026-09-04 11:58:28 | 49.16951 | 17.80708 | 131° | 62km/h | 15252m | 5.1m/s | -58.2°C | 3.1% | -1.0hPa | 2.7V | 00:00:00 | 00:00:00 | 00:00:00 | |
| DO3MHA-11 | 2026-09-04 11:58:24 | 49.16994 | 17.80631 | 129° | 55km/h | 15232m | 4.5m/s | 0°C | 0% | 0hPa | 2.7V | 00:00:00 | 01:16:27 | 00:00:00 | |
| OE5DRO-10 | 2026-09-04 11:58:18 | 49.17041 | 17.80514 | 114° | 49km/h | 15200m | 4.6m/s | -58.3°C | 7.3% | 0hPa | 2.7V | 00:00:00 | 00:00:00 | 00:00:00 | |
| PG1ADW-2 | 2026-09-04 11:58:14 | 49.17064 | 17.80445 | 122° | 49km/h | 15179m | 4.9m/s | -58.3°C | 7.8% | 0hPa | 2.7V | 00:00:00 | 01:16:17 | 00:00:00 | |
| PETON7-10 | 2026-09-04 11:58:06 | 49.17118 | 17.80315 | 119° | 49km/h | 15135m | 6.3m/s | -58.6°C | 7.6% | 0hPa | 2.7V | 00:00:00 | 00:00:00 | 00:00:00 | |
| DO3MHA-11 | 2026-09-04 11:58:03 | 49.17134 | 17.80269 | 122° | 53km/h | 15119m | 4.1m/s | 0°C | 0% | 0hPa | 2.7V | 00:00:00 | 01:16:06 | 00:00:00 | |
| OE3OSB-13 | 2026-09-04 11:57:57 | 49.17181 | 17.80175 | 128° | 55km/h | 15089m | 5.3m/s | -58.6°C | 4.1% | -1.0hPa | 2.7V | 00:00:00 | 00:00:00 | 00:00:00 | |
| OE3JTB-15 | 2026-09-04 11:57:56 | 49.17207 | 17.80127 | 132° | 57km/h | 15075m | 5.7m/s | -58.7°C | 8.2% | 0hPa | 2.7V | 00:00:00 | 00:00:00 | 00:00:00 | |
| PG1ADW-2 | 2026-09-04 11:57:54 | 49.17207 | 17.80127 | 132° | 53km/h | 15075m | 5.7m/s | -58.7°C | 8.2% | 0hPa | 2.7V | 00:00:00 | 00:00:00 | 00:00:00 | |
| DO3MHA-11 | 2026-09-04 11:57:53 | 49.17216 | 17.80113 | 136° | 49km/h | 15069m | 5.5m/s | 0°C | 0% | 0hPa | 2.7V | 00:00:00 | 01:15:56 | 00:00:00 | |
| PETON7-10 | 2026-09-04 11:57:51 | 49.17233 | 17.80090 | 141° | 53km/h | 15058m | 5.6m/s | -58.9°C | 8.5% | 0hPa | 2.7V | 00:00:00 | 00:00:00 | 00:00:00 | |
| DO3MHA-11 | 2026-09-04 11:57:43 | 49.17305 | 17.79982 | 133° | 57km/h | 15014m | 5.5m/s | 0°C | 0% | 0hPa | 2.7V | 00:00:00 | 01:15:46 | 00:00:00 | |
| OE5DRO-10 | 2026-09-04 11:57:40 | 49.17336 | 17.79934 | 140° | 69km/h | 14996m | 5.2m/s | -59.5°C | 9.2% | 0hPa | 2.7V | 00:00:00 | 00:00:00 | 00:00:00 | |
| POL2MAQ | 2026-09-04 11:57:38 | 49.17347 | 17.79920 | 142° | 55km/h | 14990m | 6.5m/s | -59.6°C | 5.1% | 0hPa | 2.7V | 00:00:00 | 00:00:00 | 00:00:00 | |
| PETON7-10 | 2026-09-04 11:57:36 | 49.17380 | 17.79884 | 148° | 73km/h | 14974m | 5.1m/s | -59.9°C | 9.6% | 0hPa | 2.7V | 00:00:00 | 01:15:39 | 00:00:00 | |
| PG1ADW-2 | 2026-09-04 11:57:34 | 49.17404 | 17.79858 | 144° | 75km/h | 14964m | 5.9m/s | -60.1°C | 10.1% | 0hPa | 2.7V | 00:00:00 | 00:00:00 | 00:00:00 | |
| DO3MHA-11 | 2026-09-04 11:57:33 | 49.17417 | 17.79843 | 140° | 77km/h | 14959m | 5.5m/s | 0°C | 0% | 0hPa | 2.7V | 00:00:00 | 01:15:36 | 00:00:00 | |
| OE5DXL-15 | 2026-09-04 11:57:31 | 49.17443 | 17.79804 | 132° | 73km/h | 14946m | 5.9m/s | -60.3°C | 10.6% | 0hPa | 2.7V | 00:00:00 | 00:00:00 | 00:00:00 | |
| OE3JTB-15 | 2026-09-04 11:57:27 | 49.17522 | 17.79666 | 133° | 69km/h | 14915m | 3.6m/s | -60.4°C | 11.0% | 0hPa | 2.7V | 00:00:00 | 00:00:00 | 00:00:00 | |
| DO3MHA-11 | 2026-09-04 11:57:23 | 49.17547 | 17.79624 | 132° | 73km/h | 14904m | 6.8m/s | 0°C | 0% | 0hPa | 2.7V | 00:00:00 | 01:15:26 | 00:00:00 | |
| OE5DRO-10 | 2026-09-04 11:57:21 | 49.17572 | 17.79581 | 130° | 71km/h | 14892m | 6.1m/s | -60.3°C | 11.0% | 0hPa | 2.7V | 00:00:00 | 00:00:00 | 08:30:00 | |
| POL2MAQ | 2026-09-04 11:57:17 | 49.17606 | 17.79514 | 126° | 73km/h | 14874m | 4.4m/s | -60.4°C | 6.5% | 0hPa | 2.7V | 00:00:00 | 00:00:00 | 00:00:00 | |
| PG1ADW-2 | 2026-09-04 11:57:14 | 49.17645 | 17.79422 | 121° | 68km/h | 14851m | 5.4m/s | -60.2°C | 11.1% | 0hPa | 2.7V | 00:00:00 | 00:00:00 | 00:00:00 | |
| DO3MHA-11 | 2026-09-04 11:57:13 | 49.17655 | 17.79399 | 121° | 73km/h | 14846m | 4.7m/s | 0°C | 0% | 0hPa | 2.7V | 00:00:00 | 01:15:16 | 00:00:00 | |
| HA6NAB-11 | 2026-09-04 11:57:09 | 49.17683 | 17.79328 | 124° | 73km/h | 14830m | 6.3m/s | -60.5°C | 6.8% | 0hPa | 2.7V | 00:00:00 | 00:00:00 | 00:00:00 | |
| PETON7-10 | 2026-09-04 11:57:06 | 49.17726 | 17.79236 | 128° | 68km/h | 14809m | 6.8m/s | -61.0°C | 12.3% | 0hPa | 2.7V | 00:00:00 | 00:00:00 | 00:00:00 | |
| DO3MHA-11 | 2026-09-04 11:57:03 | 49.17758 | 17.79174 | 127° | 66km/h | 14793m | 4.8m/s | 0°C | 0% | 0hPa | 2.7V | 00:00:00 | 01:15:06 | 00:00:00 | |
| OE3OSB-13 | 2026-09-04 11:56:55 | 49.17837 | 17.79018 | 130° | 73km/h | 14748m | 4.3m/s | -62.1°C | 7.9% | -1.0hPa | 2.7V | 00:00:00 | 00:00:00 | 00:00:00 | |
| PG1ADW-2 | 2026-09-04 11:56:54 | 49.17849 | 17.78996 | 130° | 75km/h | 14743m | 7.2m/s | -62.2°C | 13.5% | 0hPa | 2.7V | 00:00:00 | 01:14:57 | 00:00:00 | |
| DO3MHA-11 | 2026-09-04 11:56:53 | 49.17861 | 17.78974 | 128° | 71km/h | 14737m | 3.9m/s | 0°C | 0% | 0hPa | 2.7V | 00:00:00 | 01:14:56 | 00:00:00 | |
| PETON7-10 | 2026-09-04 11:56:51 | 49.17884 | 17.78928 | 128° | 75km/h | 14726m | 6.1m/s | -62.5°C | 14.1% | 0hPa | 2.7V | 00:00:00 | 01:14:54 | 00:00:00 | |
| DO3MHA-11 | 2026-09-04 11:56:43 | 49.17984 | 17.78775 | 141° | 78km/h | 14684m | 7.8m/s | 0°C | 0% | 0hPa | 2.7V | 00:00:00 | 01:14:46 | 00:00:00 | |
| GYPAP8-17 | 2026-09-04 11:56:39 | 49.18027 | 17.78718 | 137° | 78km/h | 14665m | 5.1m/s | 0°C | 0% | 0hPa | 2.7V | 00:00:00 | 00:00:00 | 00:00:00 | |
| PETON7-10 | 2026-09-04 11:56:36 | 49.18082 | 17.78626 | 128° | 80km/h | 14641m | 4.3m/s | -63.4°C | 16.4% | 0hPa | 2.7V | 00:00:00 | 00:00:00 | 00:00:00 | |
| PG1ADW-2 | 2026-09-04 11:56:34 | 49.18106 | 17.78577 | 128° | 80km/h | 14629m | 5.0m/s | -63.4°C | 16.9% | 0hPa | 2.7V | 00:00:00 | 00:00:00 | 08:30:00 | |
| OE5DXL-15 | 2026-09-04 11:56:31 | 49.18145 | 17.78509 | 137° | 78km/h | 14612m | 5.8m/s | -63.6°C | 17.3% | 0hPa | 2.7V | 00:00:00 | 00:00:00 | 00:00:00 | |
| HA6NAB-11 | 2026-09-04 11:56:26 | 49.18209 | 17.78424 | 140° | 88km/h | 14590m | 4.9m/s | -63.9°C | 11.6% | 0hPa | 2.7V | 00:00:00 | 00:00:00 | 00:00:00 | |
| OE5DRO-10 | 2026-09-04 11:56:24 | 49.18256 | 17.78360 | 136° | 77km/h | 14572m | 7.3m/s | -64.0°C | 18.4% | 0hPa | 2.7V | 00:00:00 | 00:00:00 | 00:00:00 | |
| PETON7-10 | 2026-09-04 11:56:21 | 49.18295 | 17.78297 | 133° | 77km/h | 14551m | 5.4m/s | -64.0°C | 18.7% | 0hPa | 2.7V | 00:00:00 | 00:00:00 | 00:00:00 | |
| HA6NAB-11 | 2026-09-04 11:56:19 | 49.18307 | 17.78276 | 133° | 73km/h | 14544m | 7.1m/s | -63.9°C | 12.1% | 0hPa | 2.7V | 00:00:00 | 00:00:00 | 00:00:00 | |
| POL2MAQ | 2026-09-04 11:56:15 | 49.18362 | 17.78187 | 135° | 84km/h | 14518m | 7.5m/s | -64.0°C | 12.5% | 0hPa | 2.7V | 00:00:00 | 00:00:00 | 00:00:00 | |
| PG1ADW-2 | 2026-09-04 11:56:14 | 49.18391 | 17.78140 | 134° | 78km/h | 14504m | 6.8m/s | -64.3°C | 20.1% | 0hPa | 2.7V | 00:00:00 | 00:00:00 | 00:00:00 | |
| HA6NAB-11 | 2026-09-04 11:56:09 | 49.18442 | 17.78049 | 128° | 75km/h | 14478m | 6.1m/s | -64.9°C | 14.0% | 0hPa | 2.7V | 00:00:00 | 00:00:00 | 00:00:00 | |
| PETON7-10 | 2026-09-04 11:56:06 | 49.18482 | 17.77961 | 123° | 82km/h | 14452m | 6.6m/s | -64.9°C | 21.1% | 0hPa | 2.7V | 00:00:00 | 01:14:09 | 00:00:00 | |
| OE5DRO-10 | 2026-09-04 11:56:05 | 49.18491 | 17.77939 | 122° | 86km/h | 14444m | 5.3m/s | -64.8°C | 21.4% | 0hPa | 2.7V | 00:00:00 | 00:00:00 | 00:00:00 | |
| HA6NAB-11 | 2026-09-04 11:56:03 | 49.18499 | 17.77917 | 122° | 69km/h | 14437m | 7.0m/s | -64.8°C | 13.9% | 0hPa | 2.7V | 00:00:00 | 00:00:00 | 00:00:00 | |
| OE3OSB-13 | 2026-09-04 11:55:53 | 49.18659 | 17.77612 | 134° | 95km/h | 14391m | 8.6m/s | -65.7°C | 15.6% | -1.0hPa | 2.7V | 00:00:00 | 00:00:00 | 00:00:00 | |
| PETON7-10 | 2026-09-04 11:55:51 | 49.18676 | 17.77586 | 137° | 89km/h | 14384m | 4.8m/s | -65.7°C | 24.1% | 0hPa | 2.7V | 00:00:00 | 00:00:00 | 00:00:00 | |
| OE5DRO-10 | 2026-09-04 11:55:46 | 49.18749 | 17.77461 | 124° | 86km/h | 14352m | 8.1m/s | -65.7°C | 24.5% | 0hPa | 2.7V | 00:00:00 | 00:00:00 | 00:00:00 | |
| PETON7-10 | 2026-09-04 11:55:36 | 49.18890 | 17.77187 | 121° | 80km/h | 14295m | 4.2m/s | -65.5°C | 27.1% | 0hPa | 2.7V | 00:00:00 | 00:00:00 | 00:00:00 | |
| PG1ADW-2 | 2026-09-04 11:55:34 | 49.18909 | 17.77131 | 116° | 78km/h | 14283m | 7.6m/s | -65.5°C | 26.7% | 0hPa | 2.7V | 00:00:00 | 01:13:37 | 00:00:00 | |
| POL2MAQ | 2026-09-04 11:55:33 | 49.18909 | 17.77131 | 116° | 80km/h | 14283m | 7.7m/s | -65.5°C | 18.1% | 0hPa | 2.7V | 00:00:00 | 00:00:00 | 00:00:00 | |
| OE5DXL-15 | 2026-09-04 11:55:31 | 49.18937 | 17.77053 | 124° | 77km/h | 14263m | 6.7m/s | -65.4°C | 26.6% | 0hPa | 2.7V | 00:00:00 | 00:00:00 | 00:00:00 | |
| OE3JTB-15 | 2026-09-04 11:55:29 | 49.18985 | 17.76953 | 126° | 75km/h | 14238m | 6.2m/s | -65.2°C | 26.4% | 0hPa | 2.7V | 00:00:00 | 01:13:30 | 00:00:00 | |
| OE5DRO-10 | 2026-09-04 11:55:27 | 49.18985 | 17.76953 | 126° | 78km/h | 14238m | 6.2m/s | -65.2°C | 26.4% | 0hPa | 2.7V | 00:00:00 | 00:00:00 | 00:00:00 | |
| OE3OSB-13 | 2026-09-04 11:55:23 | 49.19056 | 17.76798 | 120° | 69km/h | 14204m | 6.7m/s | -65.0°C | 19.7% | -1.0hPa | 2.7V | 00:00:00 | 00:00:00 | 00:00:00 | |
| PETON7-10 | 2026-09-04 11:55:21 | 49.19056 | 17.76797 | 121° | 77km/h | 14205m | 6.6m/s | -65.0°C | 29.1% | 0hPa | 2.7V | 00:00:00 | 01:13:24 | 00:00:00 | |
| HA6NAB-11 | 2026-09-04 11:55:15 | 49.19108 | 17.76675 | 126° | 82km/h | 14171m | 5.3m/s | -64.8°C | 20.4% | 0hPa | 2.7V | 00:00:00 | 00:00:00 | 00:00:00 | |
| PG1ADW-2 | 2026-09-04 11:55:14 | 49.19131 | 17.76623 | 123° | 69km/h | 14160m | 4.4m/s | -64.7°C | 29.1% | 0hPa | 2.7V | 00:00:00 | 00:00:00 | 00:00:00 | |
| POL2MAQ | 2026-09-04 11:55:13 | 49.19131 | 17.76623 | 124° | 80km/h | 14160m | 4.4m/s | -64.7°C | 20.3% | 0hPa | 2.7V | 00:00:00 | 00:00:00 | 00:00:00 | |
| HA6NAB-11 | 2026-09-04 11:55:10 | 49.19162 | 17.76546 | 121° | 77km/h | 14141m | 7.8m/s | -64.7°C | 19.8% | 0hPa | 2.7V | 00:00:00 | 00:00:00 | 00:00:00 | |
| OE5DRO-10 | 2026-09-04 11:55:08 | 49.19189 | 17.76469 | 119° | 66km/h | 14119m | 5.8m/s | -64.4°C | 29.4% | 0hPa | 2.7V | 00:00:00 | 00:00:00 | 00:00:00 | |
| PETON7-10 | 2026-09-04 11:55:06 | 49.19206 | 17.76422 | 121° | 64km/h | 14106m | 5.6m/s | -64.5°C | 30.8% | 0hPa | 2.7V | 00:00:00 | 00:00:00 | 08:30:00 | |
| HA6NAB-11 | 2026-09-04 11:55:04 | 49.19214 | 17.76401 | 125° | 62km/h | 14099m | 8.0m/s | -64.5°C | 22.2% | 0hPa | 2.7V | 00:00:00 | 00:00:00 | 00:00:00 | |
| OE5DXL-15 | 2026-09-04 11:55:01 | 49.19253 | 17.76323 | 123° | 64km/h | 14076m | 4.4m/s | -64.3°C | 32.3% | 0hPa | 2.7V | 00:00:00 | 00:00:00 | 00:00:00 | |
| HA6NAB-11 | 2026-09-04 11:54:58 | 49.19270 | 17.76278 | 119° | 68km/h | 14064m | 8.0m/s | -64.2°C | 22.7% | 0hPa | 2.7V | 00:00:00 | 00:00:00 | 00:00:00 | |
| PG1ADW-2 | 2026-09-04 11:54:54 | 49.19305 | 17.76167 | 123° | 64km/h | 14029m | 7.1m/s | -64.0°C | 33.5% | 0hPa | 2.7V | 00:00:00 | 00:00:00 | 00:00:00 | |
| POL2MAQ | 2026-09-04 11:54:52 | 49.19314 | 17.76147 | 130° | 66km/h | 14024m | 5.0m/s | -64.1°C | 24.4% | 0hPa | 2.7V | 00:00:00 | 00:00:00 | 00:00:00 | |
| PETON7-10 | 2026-09-04 11:54:51 | 49.19336 | 17.76108 | 131° | 64km/h | 14011m | 5.2m/s | -63.9°C | 34.3% | 0hPa | 2.7V | 00:00:00 | 00:00:00 | 00:00:00 | |
| OE5DRO-10 | 2026-09-04 11:54:49 | 49.19356 | 17.76068 | 126° | 64km/h | 13998m | 4.8m/s | -63.9°C | 34.5% | 0hPa | 2.7V | 00:00:00 | 00:00:00 | 00:00:00 | |
| PETON7-10 | 2026-09-04 11:54:36 | 49.19488 | 17.75821 | 133° | 62km/h | 13920m | 4.6m/s | -63.4°C | 39.0% | 0hPa | 2.7V | 00:00:00 | 01:12:39 | 00:00:00 | |
| PG1ADW-2 | 2026-09-04 11:54:34 | 49.19511 | 17.75783 | 133° | 62km/h | 13909m | 5.6m/s | -63.4°C | 40.3% | 0hPa | 2.7V | 00:00:00 | 00:00:00 | 00:00:00 | |
| OE5DXL-15 | 2026-09-04 11:54:31 | 49.19542 | 17.75729 | 129° | 73km/h | 13893m | 5.4m/s | -63.5°C | 40.9% | 0hPa | 2.7V | 00:00:00 | 00:00:00 | 00:00:00 | |
| OE5DRO-10 | 2026-09-04 11:54:30 | 49.19551 | 17.75711 | 128° | 64km/h | 13889m | 4.7m/s | -63.5°C | 41.1% | 0hPa | 2.7V | 00:00:00 | 00:00:00 | 08:30:00 | |
| PETON7-10 | 2026-09-04 11:54:21 | 49.19649 | 17.75568 | 143° | 75km/h | 13829m | 8.5m/s | -63.8°C | 44.5% | 0hPa | 2.7V | 00:00:00 | 00:00:00 | 00:00:00 | |
| OE3JTB-15 | 2026-09-04 11:54:17 | 49.19689 | 17.75498 | 124° | 86km/h | 13805m | 2.9m/s | -63.6°C | 47.2% | 0hPa | 2.7V | 00:00:00 | 00:00:00 | 00:00:00 | |
| HA6NAB-11 | 2026-09-04 11:54:16 | 49.19689 | 17.75498 | 124° | 68km/h | 13805m | 2.9m/s | -63.6°C | 36.1% | 0hPa | 2.7V | 00:00:00 | 00:00:00 | 00:00:00 | |
| PG1ADW-2 | 2026-09-04 11:54:14 | 49.19717 | 17.75427 | 121° | 88km/h | 13788m | 6.9m/s | -63.4°C | 47.9% | 0hPa | 2.7V | 00:00:00 | 01:12:17 | 00:00:00 | |
| OE5DRO-10 | 2026-09-04 11:54:11 | 49.19753 | 17.75359 | 136° | 89km/h | 13771m | 9.1m/s | -64.0°C | 48.3% | 0hPa | 2.7V | 00:00:00 | 00:00:00 | 00:00:00 | |
| HA6NAB-11 | 2026-09-04 11:54:10 | 49.19753 | 17.75359 | 137° | 80km/h | 13771m | 9.2m/s | -64.1°C | 37.1% | 0hPa | 2.7V | 00:00:00 | 00:00:00 | 00:00:00 | |
| PETON7-10 | 2026-09-04 11:54:06 | 49.19836 | 17.75245 | 140° | 89km/h | 13710m | 9.0m/s | -64.7°C | 53.3% | 0hPa | 2.7V | 00:00:00 | 00:00:00 | 00:00:00 | |
| HA6NAB-11 | 2026-09-04 11:54:04 | 49.19855 | 17.75221 | 140° | 97km/h | 13701m | 8.1m/s | -64.7°C | 41.6% | 0hPa | 2.7V | 00:00:00 | 00:00:00 | 00:00:00 | |
| OE3OSB-13 | 2026-09-04 11:53:49 | 49.20115 | 17.74796 | 120° | 89km/h | 13578m | 6.9m/s | -65.3°C | 47.9% | -1.0hPa | 2.7V | 00:00:00 | 00:00:00 | 00:00:00 | |
| OE3JTB-15 | 2026-09-04 11:53:48 | 49.20115 | 17.74796 | 121° | 89km/h | 13578m | 6.8m/s | -65.2°C | 62.3% | 0hPa | 2.7V | 00:00:00 | 01:11:51 | 00:00:00 | |
| HA6NAB-11 | 2026-09-04 11:53:47 | 49.20115 | 17.74796 | 121° | 91km/h | 13578m | 6.9m/s | -65.3°C | 48.5% | 0hPa | 2.7V | 00:00:00 | 00:00:00 | 00:00:00 | |
| HA6NAB-11 | 2026-09-04 11:53:42 | 49.20184 | 17.74656 | 137° | 91km/h | 13537m | 8.9m/s | -65.0°C | 46.8% | 0hPa | 2.7V | 00:00:00 | 00:00:00 | 00:00:00 | |
| HA6NAB-11 | 2026-09-04 11:53:37 | 49.20270 | 17.74548 | 140° | 78km/h | 13499m | 7.0m/s | -64.7°C | 48.5% | 0hPa | 2.7V | 00:00:00 | 00:00:00 | 00:00:00 | |
| PETON7-10 | 2026-09-04 11:53:36 | 49.20298 | 17.74509 | 138° | 84km/h | 13487m | 6.9m/s | -64.5°C | 62.6% | 0hPa | 2.7V | 00:00:00 | 00:00:00 | 00:00:00 | |
| PG1ADW-2 | 2026-09-04 11:53:34 | 49.20326 | 17.74470 | 138° | 84km/h | 13475m | 4.9m/s | -64.5°C | 64.3% | 0hPa | 2.7V | 00:00:00 | 00:00:00 | 08:30:00 | |
| OE5DRO-10 | 2026-09-04 11:53:33 | 49.20341 | 17.74449 | 139° | 86km/h | 13469m | 6.6m/s | -64.5°C | 65.1% | 0hPa | 2.7V | 00:00:00 | 00:00:00 | 00:00:00 | |
| OE5DXL-15 | 2026-09-04 11:53:31 | 49.20371 | 17.74405 | 135° | 88km/h | 13455m | 8.1m/s | -64.6°C | 65.8% | 0hPa | 2.7V | 00:00:00 | 00:00:00 | 00:00:00 | |
| POL2MAQ | 2026-09-04 11:53:29 | 49.20387 | 17.74379 | 132° | 93km/h | 13448m | 5.9m/s | -64.6°C | 51.8% | 0hPa | 2.7V | 00:00:00 | 00:00:00 | 00:00:00 | |
| HA6NAB-11 | 2026-09-04 11:53:24 | 49.20458 | 17.74245 | 129° | 84km/h | 13423m | 8.2m/s | -64.6°C | 46.9% | 0hPa | 2.7V | 00:00:00 | 00:00:00 | 00:00:00 | |
| PETON7-10 | 2026-09-04 11:53:21 | 49.20508 | 17.74151 | 137° | 89km/h | 13389m | 8.3m/s | -64.4°C | 58.3% | 0hPa | 2.7V | 00:00:00 | 00:00:00 | 00:00:00 | |
| OE3OSB-13 | 2026-09-04 11:53:17 | 49.20574 | 17.74084 | 149° | 89km/h | 13355m | 7.5m/s | -64.3°C | 47.6% | -1.0hPa | 2.7V | 00:00:00 | 00:00:00 | 00:00:00 | |
| PG1ADW-2 | 2026-09-04 11:53:14 | 49.20636 | 17.74022 | 144° | 95km/h | 13336m | 5.2m/s | -64.1°C | 64.2% | 0hPa | 2.7V | 00:00:00 | 00:00:00 | 00:00:00 | |
| POL2MAQ | 2026-09-04 11:53:09 | 49.20718 | 17.73927 | 142° | 95km/h | 13316m | 5.6m/s | -64.1°C | 47.6% | 0hPa | 2.7V | 00:00:00 | 00:00:00 | 00:00:00 | |
| OE3JTB-15 | 2026-09-04 11:53:07 | 49.20786 | 17.73843 | 142° | 104km/h | 13292m | 5.7m/s | -64.1°C | 58.0% | 0hPa | 2.7V | 00:00:00 | 00:00:00 | 00:00:00 | |
| PETON7-10 | 2026-09-04 11:53:06 | 49.20786 | 17.73843 | 142° | 97km/h | 13292m | 5.7m/s | -64.1°C | 58.0% | 0hPa | 2.7V | 00:00:00 | 01:11:09 | 00:00:00 | |
| OE3OSB-13 | 2026-09-04 11:52:46 | 49.21173 | 17.73410 | 144° | 99km/h | 13190m | 3.4m/s | -64.1°C | 45.4% | -1.0hPa | 2.7V | 00:00:00 | 00:00:00 | 00:00:00 | |
| OE3JTB-15 | 2026-09-04 11:52:38 | 49.21403 | 17.73147 | 148° | 122km/h | 13132m | 5.2m/s | -63.9°C | 61.3% | 0hPa | 2.7V | 00:00:00 | 00:00:00 | 00:00:00 | |
| PETON7-10 | 2026-09-04 11:52:36 | 49.21403 | 17.73147 | 148° | 111km/h | 13132m | 5.2m/s | -63.9°C | 61.3% | 0hPa | 2.7V | 00:00:00 | 00:00:00 | 00:00:00 | |
| OE5DXL-15 | 2026-09-04 11:52:31 | 49.21514 | 17.73043 | 148° | 120km/h | 13109m | 5.9m/s | -64.2°C | 59.8% | 0hPa | 2.7V | 00:00:00 | 00:00:00 | 08:30:00 | |
| POL2MAQ | 2026-09-04 11:52:28 | 49.21558 | 17.73003 | 150° | 108km/h | 13092m | 8.6m/s | -64.6°C | 49.9% | 0hPa | 2.7V | 00:00:00 | 00:00:00 | 00:00:00 | |
| PETON7-10 | 2026-09-04 11:52:21 | 49.21753 | 17.72780 | 136° | 126km/h | 13026m | 6.6m/s | -64.6°C | 65.0% | 0hPa | 2.7V | 00:00:00 | 01:10:24 | 00:00:00 | |
| OE5DRO-10 | 2026-09-04 11:52:17 | 49.21837 | 17.72654 | 136° | 130km/h | 13001m | 4.0m/s | -64.4°C | 65.3% | 0hPa | 2.7V | 00:00:00 | 00:00:00 | 00:00:00 | |
| OE3OSB-13 | 2026-09-04 11:52:15 | 49.21885 | 17.72581 | 134° | 139km/h | 12989m | 5.8m/s | -64.3°C | 49.9% | -1.0hPa | 2.7V | 00:00:00 | 00:00:00 | 00:00:00 | |
| PG1ADW-2 | 2026-09-04 11:52:14 | 49.21910 | 17.72542 | 134° | 128km/h | 12983m | 7.9m/s | -64.3°C | 64.3% | 0hPa | 2.7V | 00:00:00 | 00:00:00 | 00:00:00 | |
| HA6NAB-11 | 2026-09-04 11:52:12 | 49.21934 | 17.72503 | 135° | 139km/h | 12976m | 5.8m/s | -64.3°C | 51.2% | 0hPa | 2.7V | 00:00:00 | 00:00:00 | 00:00:00 | |
| POL2MAQ | 2026-09-04 11:52:08 | 49.22032 | 17.72366 | 141° | 126km/h | 12952m | 8.4m/s | -64.1°C | 50.8% | 0hPa | 2.7V | 00:00:00 | 00:00:00 | 00:00:00 | |
| HA6NAB-11 | 2026-09-04 11:52:07 | 49.22057 | 17.72334 | 140° | 126km/h | 12944m | 7.9m/s | -64.0°C | 50.8% | 0hPa | 2.7V | 00:00:00 | 00:00:00 | 00:00:00 | |
| PETON7-10 | 2026-09-04 11:52:06 | 49.22105 | 17.72269 | 138° | 124km/h | 12931m | 7.7m/s | -63.9°C | 64.3% | 0hPa | 2.7V | 00:00:00 | 00:00:00 | 00:00:00 | |
| HA6NAB-11 | 2026-09-04 11:52:01 | 49.22199 | 17.72133 | 138° | 126km/h | 12906m | 5.8m/s | -63.7°C | 50.8% | 0hPa | 2.7V | 00:00:00 | 00:00:00 | 00:00:00 | |
| OE5DRO-10 | 2026-09-04 11:51:58 | 49.22292 | 17.72009 | 140° | 126km/h | 12883m | 6.4m/s | -63.4°C | 65.6% | 0hPa | 2.7V | 00:00:00 | 00:00:00 | 00:00:00 | |
| HA6NAB-11 | 2026-09-04 11:51:56 | 49.22316 | 17.71977 | 139° | 124km/h | 12877m | 4.9m/s | -63.4°C | 51.5% | 0hPa | 2.7V | 00:00:00 | 00:00:00 | 00:00:00 | |
| PG1ADW-2 | 2026-09-04 11:51:54 | 49.22382 | 17.71880 | 135° | 126km/h | 12861m | 5.3m/s | -63.3°C | 64.6% | 0hPa | 2.7V | 00:00:00 | 00:00:00 | 00:00:00 | |
| OE5DXL-15 | 2026-09-04 11:51:51 | 49.22444 | 17.71781 | 133° | 126km/h | 12844m | 4.2m/s | -63.2°C | 65.7% | 0hPa | 2.7V | 00:00:00 | 00:00:00 | 00:00:00 | |
| HA6NAB-11 | 2026-09-04 11:51:50 | 49.22444 | 17.71781 | 133° | 120km/h | 12844m | 4.2m/s | -63.2°C | 52.2% | 0hPa | 2.7V | 00:00:00 | 00:00:00 | 00:00:00 | |
| POL2MAQ | 2026-09-04 11:51:47 | 49.22508 | 17.71680 | 137° | 122km/h | 12831m | 5.4m/s | -63.2°C | 50.4% | 0hPa | 2.7V | 00:00:00 | 00:00:00 | 00:00:00 | |
| OE3OSB-13 | 2026-09-04 11:51:44 | 49.22607 | 17.71549 | 139° | 133km/h | 12810m | 5.1m/s | -62.9°C | 48.9% | -1.0hPa | 2.7V | 00:00:00 | 00:00:00 | 00:00:00 | |
| OE5DRO-10 | 2026-09-04 11:51:39 | 49.22732 | 17.71377 | 138° | 124km/h | 12784m | 5.2m/s | -62.6°C | 61.3% | 0hPa | 2.7V | 00:00:00 | 00:00:00 | 08:30:00 | |
| PETON7-10 | 2026-09-04 11:51:36 | 49.22801 | 17.71279 | 138° | 124km/h | 12766m | 6.5m/s | -62.6°C | 62.6% | 0hPa | 2.7V | 00:00:00 | 01:09:39 | 00:00:00 | |
| PG1ADW-2 | 2026-09-04 11:51:34 | 49.22846 | 17.71214 | 136° | 126km/h | 12756m | 4.6m/s | -62.6°C | 63.9% | 0hPa | 2.7V | 00:00:00 | 01:09:37 | 00:00:00 | |
| POL2MAQ | 2026-09-04 11:51:26 | 49.22993 | 17.70995 | 138° | 115km/h | 12724m | 4.6m/s | -62.5°C | 52.1% | 0hPa | 2.9V | 00:00:00 | 00:00:00 | 00:00:00 | |
| PETON7-10 | 2026-09-04 11:51:21 | 49.23137 | 17.70778 | 136° | 128km/h | 12695m | 3.8m/s | -62.4°C | 64.9% | 0hPa | 2.9V | 00:00:00 | 00:00:00 | 00:00:00 | |
| OE5DRO-10 | 2026-09-04 11:51:20 | 49.23162 | 17.70739 | 134° | 126km/h | 12690m | 5.2m/s | -62.4°C | 64.8% | 0hPa | 2.7V | 00:00:00 | 00:00:00 | 00:00:00 | |
| PG1ADW-2 | 2026-09-04 11:51:14 | 49.23284 | 17.70516 | 128° | 126km/h | 12642m | 6.5m/s | -62.0°C | 60.6% | 0hPa | 2.7V | 00:00:00 | 00:00:00 | 00:00:00 | |
| OE3OSB-13 | 2026-09-04 11:51:13 | 49.23303 | 17.70477 | 127° | 126km/h | 12635m | 7.4m/s | -62.0°C | 48.4% | -1.0hPa | 2.7V | 00:00:00 | 00:00:00 | 00:00:00 | |
| PETON7-10 | 2026-09-04 11:51:06 | 49.23445 | 17.70210 | 131° | 126km/h | 12598m | 3.6m/s | -61.5°C | 66.3% | 0hPa | 2.7V | 00:00:00 | 00:00:00 | 00:00:00 | |
| POL2MAQ | 2026-09-04 11:51:05 | 49.23445 | 17.70210 | 131° | 120km/h | 12598m | 3.7m/s | -61.6°C | 53.1% | 0hPa | 2.7V | 00:00:00 | 00:00:00 | 00:00:00 | |
| OE5DRO-10 | 2026-09-04 11:51:01 | 49.23551 | 17.70032 | 131° | 124km/h | 12573m | 6.0m/s | -61.4°C | 65.8% | 0hPa | 2.7V | 00:00:00 | 00:00:00 | 00:00:00 | |
| PG1ADW-2 | 2026-09-04 11:50:54 | 49.23686 | 17.69754 | 133° | 124km/h | 12535m | 4.9m/s | -61.1°C | 63.9% | 0hPa | 2.7V | 00:00:00 | 00:00:00 | 00:00:00 | |
| PETON7-10 | 2026-09-04 11:50:51 | 49.23749 | 17.69652 | 133° | 124km/h | 12516m | 4.6m/s | -61.1°C | 66.2% | 0hPa | 2.7V | 00:00:00 | 01:08:54 | 00:00:00 | |
| HA6NAB-11 | 2026-09-04 11:50:48 | 49.23790 | 17.69582 | 131° | 122km/h | 12505m | 4.1m/s | -61.0°C | 53.1% | 0hPa | 2.7V | 00:00:00 | 00:00:00 | 00:00:00 | |
| POL2MAQ | 2026-09-04 11:50:44 | 49.23866 | 17.69432 | 125° | 122km/h | 12481m | 6.1m/s | -60.8°C | 52.6% | 0hPa | 2.7V | 00:00:00 | 00:00:00 | 00:00:00 | |
| HA6NAB-11 | 2026-09-04 11:50:43 | 49.23883 | 17.69393 | 125° | 124km/h | 12476m | 4.7m/s | -60.8°C | 53.3% | 0hPa | 2.7V | 00:00:00 | 00:00:00 | 00:00:00 | |
| OE5DRO-10 | 2026-09-04 11:50:42 | 49.23920 | 17.69312 | 127° | 124km/h | 12466m | 4.8m/s | -60.6°C | 68.1% | 0hPa | 2.7V | 00:00:00 | 00:00:00 | 00:00:00 | |
| OE3JTB-15 | 2026-09-04 11:50:40 | 49.23981 | 17.69199 | 133° | 122km/h | 12450m | 6.1m/s | -60.5°C | 67.8% | 0hPa | 2.9V | 00:00:00 | 01:08:42 | 00:00:00 | |
| HA6NAB-11 | 2026-09-04 11:50:37 | 49.24002 | 17.69164 | 133° | 122km/h | 12444m | 5.1m/s | -60.5°C | 55.3% | 0hPa | 2.9V | 00:00:00 | 00:00:00 | 00:00:00 | |
| PETON7-10 | 2026-09-04 11:50:36 | 49.24043 | 17.69093 | 131° | 122km/h | 12430m | 6.3m/s | -60.3°C | 68.8% | 0hPa | 2.9V | 00:00:00 | 00:00:00 | 08:30:00 | |
| PG1ADW-2 | 2026-09-04 11:50:34 | 49.24083 | 17.69020 | 130° | 122km/h | 12418m | 7.2m/s | -60.2°C | 67.6% | 0hPa | 2.9V | 00:00:00 | 00:00:00 | 08:30:00 | |
| HA6NAB-11 | 2026-09-04 11:50:32 | 49.24102 | 17.68983 | 129° | 124km/h | 12411m | 6.3m/s | -60.2°C | 54.3% | 0hPa | 2.9V | 00:00:00 | 00:00:00 | 00:00:00 | |
| HA6NAB-11 | 2026-09-04 11:50:27 | 49.24202 | 17.68799 | 132° | 122km/h | 12378m | 7.7m/s | -59.9°C | 52.7% | 0hPa | 2.9V | 00:00:00 | 00:00:00 | 00:00:00 | |
| OE5DRO-10 | 2026-09-04 11:50:23 | 49.24300 | 17.68619 | 129° | 124km/h | 12347m | 5.1m/s | -59.6°C | 68.0% | 0hPa | 2.9V | 00:00:00 | 00:00:00 | 00:00:00 | |
| HA6NAB-11 | 2026-09-04 11:50:22 | 49.24300 | 17.68619 | 129° | 119km/h | 12347m | 5.1m/s | -59.7°C | 55.3% | 0hPa | 2.9V | 00:00:00 | 00:00:00 | 00:00:00 | |
| PETON7-10 | 2026-09-04 11:50:21 | 49.24338 | 17.68547 | 130° | 126km/h | 12336m | 5.4m/s | -59.5°C | 68.5% | 0hPa | 2.9V | 00:00:00 | 00:00:00 | 00:00:00 | |
| HA6NAB-11 | 2026-09-04 11:50:16 | 49.24418 | 17.68403 | 132° | 120km/h | 12312m | 5.7m/s | -59.3°C | 55.5% | 0hPa | 2.9V | 00:00:00 | 00:00:00 | 00:00:00 | |
| PG1ADW-2 | 2026-09-04 11:50:14 | 49.24479 | 17.68297 | 132° | 122km/h | 12293m | 6.1m/s | -59.1°C | 68.2% | 0hPa | 2.9V | 00:00:00 | 01:08:17 | 00:00:00 | |
| OE3OSB-13 | 2026-09-04 11:50:11 | 49.24542 | 17.68185 | 129° | 130km/h | 12272m | 5.7m/s | -59.0°C | 54.8% | -1.0hPa | 2.9V | 00:00:00 | 00:00:00 | 00:00:00 | |
| HA6NAB-11 | 2026-09-04 11:50:10 | 49.24542 | 17.68185 | 130° | 130km/h | 12272m | 5.7m/s | -59.0°C | 55.2% | 0hPa | 2.9V | 00:00:00 | 00:00:00 | 00:00:00 | |
| PETON7-10 | 2026-09-04 11:50:06 | 49.24642 | 17.67990 | 129° | 119km/h | 12239m | 8.5m/s | -58.7°C | 68.5% | 0hPa | 2.9V | 00:00:00 | 01:08:09 | 00:00:00 | |
| OE5DRO-10 | 2026-09-04 11:50:04 | 49.24679 | 17.67922 | 131° | 119km/h | 12226m | 6.9m/s | -58.6°C | 68.4% | 0hPa | 2.9V | 00:00:00 | 00:00:00 | 00:00:00 | |
| POL2MAQ | 2026-09-04 11:50:02 | 49.24697 | 17.67890 | 133° | 108km/h | 12219m | 6.6m/s | -58.6°C | 56.2% | 0hPa | 2.9V | 00:00:00 | 00:00:00 | 00:00:00 | |
| HA6NAB-11 | 2026-09-04 11:50:01 | 49.24716 | 17.67859 | 132° | 111km/h | 12213m | 5.6m/s | -58.5°C | 56.2% | 0hPa | 2.9V | 00:00:00 | 00:00:00 | 00:00:00 | |
| PG1ADW-2 | 2026-09-04 11:49:54 | 49.24867 | 17.67557 | 128° | 117km/h | 12163m | 5.2m/s | -58.0°C | 67.9% | 0hPa | 2.9V | 00:00:00 | 00:00:00 | 00:00:00 | |
| HA6NAB-11 | 2026-09-04 11:49:52 | 49.24885 | 17.67520 | 128° | 117km/h | 12156m | 7.1m/s | -58.0°C | 55.0% | 0hPa | 2.9V | 00:00:00 | 00:00:00 | 00:00:00 | |
| PETON7-10 | 2026-09-04 11:49:51 | 49.24919 | 17.67449 | 126° | 117km/h | 12144m | 6.4m/s | -57.9°C | 66.4% | 0hPa | 2.9V | 00:00:00 | 00:00:00 | 00:00:00 | |
| OE5DRO-10 | 2026-09-04 11:49:45 | 49.25021 | 17.67230 | 127° | 120km/h | 12106m | 4.3m/s | -57.4°C | 64.8% | 0hPa | 2.9V | 00:00:00 | 00:00:00 | 00:00:00 | |
| OE3JTB-15 | 2026-09-04 11:49:42 | 49.25109 | 17.67045 | 128° | 120km/h | 12075m | 6.9m/s | -57.2°C | 64.9% | 0hPa | 2.9V | 00:00:00 | 00:00:00 | 00:00:00 | |
| OE3OSB-13 | 2026-09-04 11:49:40 | 49.25128 | 17.67010 | 129° | 113km/h | 12068m | 6.4m/s | -57.1°C | 53.6% | -1.0hPa | 2.9V | 00:00:00 | 00:00:00 | 00:00:00 | |
| PETON7-10 | 2026-09-04 11:49:36 | 49.25186 | 17.66909 | 131° | 115km/h | 12054m | 5.1m/s | -57.0°C | 66.4% | 0hPa | 2.9V | 00:00:00 | 00:00:00 | 00:00:00 | |
| HA6NAB-11 | 2026-09-04 11:49:35 | 49.25186 | 17.66909 | 132° | 120km/h | 12054m | 5.1m/s | -57.0°C | 54.8% | 0hPa | 2.9V | 00:00:00 | 00:00:00 | 00:00:00 | |
| PG1ADW-2 | 2026-09-04 11:49:34 | 49.25225 | 17.66834 | 127° | 117km/h | 12044m | 5.0m/s | -56.9°C | 66.5% | 0hPa | 2.9V | 00:00:00 | 00:00:00 | 00:00:00 | |
| HA6NAB-11 | 2026-09-04 11:49:30 | 49.25278 | 17.66714 | 122° | 126km/h | 12030m | 5.1m/s | -56.9°C | 55.6% | 0hPa | 2.9V | 00:00:00 | 00:00:00 | 00:00:00 | |
| OE5DRO-10 | 2026-09-04 11:49:26 | 49.25358 | 17.66520 | 125° | 111km/h | 12007m | 7.2m/s | -56.8°C | 67.0% | 0hPa | 2.9V | 00:00:00 | 00:00:00 | 00:00:00 | |
| HA6NAB-11 | 2026-09-04 11:49:24 | 49.25373 | 17.66488 | 128° | 99km/h | 11999m | 8.4m/s | -56.7°C | 55.4% | 0hPa | 2.9V | 00:00:00 | 00:00:00 | 00:00:00 | |
| POL2MAQ | 2026-09-04 11:49:22 | 49.25404 | 17.66430 | 132° | 102km/h | 11986m | 4.2m/s | -56.5°C | 55.7% | 0hPa | 2.9V | 00:00:00 | 00:00:00 | 00:00:00 | |
| PETON7-10 | 2026-09-04 11:49:21 | 49.25440 | 17.66369 | 134° | 115km/h | 11976m | 7.9m/s | -56.5°C | 65.2% | 0hPa | 2.9V | 00:00:00 | 01:07:24 | 00:00:00 | |
| HA6NAB-11 | 2026-09-04 11:49:18 | 49.25480 | 17.66304 | 135° | 122km/h | 11960m | 7.7m/s | -56.3°C | 54.1% | 0hPa | 2.9V | 00:00:00 | 00:00:00 | 00:00:00 | |
| PG1ADW-2 | 2026-09-04 11:49:14 | 49.25573 | 17.66112 | 120° | 110km/h | 11932m | 6.6m/s | -56.0°C | 66.3% | 0hPa | 2.9V | 00:00:00 | 00:00:00 | 00:00:00 | |
| OE3JTB-15 | 2026-09-04 11:49:13 | 49.25621 | 17.66006 | 132° | 108km/h | 11914m | 6.1m/s | -55.9°C | 65.4% | 0hPa | 2.9V | 00:00:00 | 01:07:14 | 00:00:00 | |
| OE3OSB-13 | 2026-09-04 11:49:09 | 49.25677 | 17.65920 | 133° | 106km/h | 11894m | 6.5m/s | -55.7°C | 56.0% | -1.0hPa | 2.9V | 00:00:00 | 00:00:00 | 00:00:00 | |
| OE5DRO-10 | 2026-09-04 11:49:07 | 49.25695 | 17.65888 | 129° | 108km/h | 11889m | 4.4m/s | -55.6°C | 67.3% | 0hPa | 2.9V | 00:00:00 | 00:00:00 | 00:00:00 | |
| PETON7-10 | 2026-09-04 11:49:06 | 49.25712 | 17.65853 | 125° | 108km/h | 11884m | 4.6m/s | -55.6°C | 66.3% | 0hPa | 2.9V | 00:00:00 | 00:00:00 | 00:00:00 | |
| POL2MAQ | 2026-09-04 11:49:02 | 49.25757 | 17.65738 | 121° | 113km/h | 11865m | 5.7m/s | -55.5°C | 58.2% | 0hPa | 2.9V | 00:00:00 | 00:00:00 | 00:00:00 | |
| PG1ADW-2 | 2026-09-04 11:48:54 | 49.25914 | 17.65462 | 135° | 106km/h | 11816m | 8.3m/s | -55.0°C | 65.4% | 0hPa | 2.9V | 00:00:00 | 01:06:57 | 00:00:00 | |
| PETON7-10 | 2026-09-04 11:48:51 | 49.25967 | 17.65372 | 130° | 106km/h | 11794m | 6.5m/s | -54.8°C | 66.5% | 0hPa | 2.9V | 00:00:00 | 00:00:00 | 00:00:00 | |
| OE5DRO-10 | 2026-09-04 11:48:48 | 49.26015 | 17.65271 | 125° | 104km/h | 11777m | 6.8m/s | -54.6°C | 67.1% | 0hPa | 2.9V | 00:00:00 | 00:00:00 | 08:30:00 | |
| POL2MAQ | 2026-09-04 11:48:41 | 49.26111 | 17.65067 | 129° | 104km/h | 11746m | 3.9m/s | -54.3°C | 56.9% | 0hPa | 2.7V | 00:00:00 | 00:00:00 | 00:00:00 | |
| OE3OSB-13 | 2026-09-04 11:48:38 | 49.26190 | 17.64906 | 125° | 102km/h | 11722m | 4.7m/s | -54.1°C | 56.8% | -1.0hPa | 2.7V | 00:00:00 | 00:00:00 | 00:00:00 | |
| PETON7-10 | 2026-09-04 11:48:36 | 49.26205 | 17.64873 | 126° | 102km/h | 11718m | 3.6m/s | -54.0°C | 67.5% | 0hPa | 2.7V | 00:00:00 | 01:06:39 | 00:00:00 | |
| PG1ADW-2 | 2026-09-04 11:48:34 | 49.26236 | 17.64808 | 126° | 106km/h | 11708m | 4.3m/s | -53.9°C | 68.2% | 0hPa | 2.7V | 00:00:00 | 00:00:00 | 00:00:00 | |
| HA6NAB-11 | 2026-09-04 11:48:32 | 49.26251 | 17.64775 | 126° | 104km/h | 11704m | 4.1m/s | -53.9°C | 57.3% | 0hPa | 2.9V | 00:00:00 | 00:00:00 | 00:00:00 | |
| OE5DRO-10 | 2026-09-04 11:48:29 | 49.26310 | 17.64650 | 129° | 106km/h | 11687m | 5.2m/s | -53.7°C | 68.2% | 0hPa | 2.9V | 00:00:00 | 00:00:00 | 00:00:00 | |
| HA6NAB-11 | 2026-09-04 11:48:26 | 49.26344 | 17.64590 | 133° | 104km/h | 11677m | 3.5m/s | -53.7°C | 58.9% | 0hPa | 2.9V | 00:00:00 | 00:00:00 | 00:00:00 | |
| PETON7-10 | 2026-09-04 11:48:21 | 49.26445 | 17.64402 | 129° | 108km/h | 11645m | 7.1m/s | -53.4°C | 69.7% | 0hPa | 2.9V | 00:00:00 | 00:00:00 | 08:30:00 | |
| POL2MAQ | 2026-09-04 11:48:20 | 49.26445 | 17.64402 | 129° | 115km/h | 11645m | 7.2m/s | -53.5°C | 58.8% | 0hPa | 2.9V | 00:00:00 | 00:00:00 | 00:00:00 | |
| HA6NAB-11 | 2026-09-04 11:48:14 | 49.26571 | 17.64170 | 129° | 100km/h | 11608m | 8.9m/s | -53.1°C | 58.2% | 0hPa | 2.9V | 00:00:00 | 00:00:00 | 00:00:00 | |
| OE5DRO-10 | 2026-09-04 11:48:10 | 49.26632 | 17.64045 | 127° | 104km/h | 11576m | 6.7m/s | -52.7°C | 68.7% | 0hPa | 2.9V | 00:00:00 | 00:00:00 | 00:00:00 | |
| OE3OSB-13 | 2026-09-04 11:48:07 | 49.26699 | 17.63921 | 129° | 104km/h | 11554m | 6.1m/s | -52.6°C | 60.5% | -1.0hPa | 2.9V | 00:00:00 | 00:00:00 | 00:00:00 | |
| PETON7-10 | 2026-09-04 11:48:06 | 49.26699 | 17.63921 | 130° | 104km/h | 11554m | 6.1m/s | -52.5°C | 71.8% | 0hPa | 2.9V | 00:00:00 | 00:00:00 | 00:00:00 | |
| POL2MAQ | 2026-09-04 11:48:00 | 49.26775 | 17.63749 | 119° | 110km/h | 11530m | 6.1m/s | -52.4°C | 60.7% | 0hPa | 2.9V | 00:00:00 | 00:00:00 | 00:00:00 | |
| PG1ADW-2 | 2026-09-04 11:47:54 | 49.26869 | 17.63506 | 128° | 97km/h | 11493m | 8.9m/s | -52.0°C | 68.1% | 0hPa | 2.9V | 00:00:00 | 00:00:00 | 00:00:00 | |
| OE5DRO-10 | 2026-09-04 11:47:51 | 49.26912 | 17.63415 | 124° | 97km/h | 11468m | 7.4m/s | -51.8°C | 69.4% | 0hPa | 2.9V | 00:00:00 | 00:00:00 | 00:00:00 | |
| OE3JTB-15 | 2026-09-04 11:47:39 | 49.27097 | 17.62966 | 125° | 104km/h | 11391m | 6.9m/s | -51.1°C | 70.3% | 0hPa | 2.7V | 00:00:00 | 00:00:00 | 00:00:00 | |
| OE3OSB-13 | 2026-09-04 11:47:36 | 49.27125 | 17.62908 | 128° | 93km/h | 11375m | 8.6m/s | -51.0°C | 59.9% | -1.0hPa | 2.7V | 00:00:00 | 00:00:00 | 00:00:00 | |
| PG1ADW-2 | 2026-09-04 11:47:34 | 49.27141 | 17.62879 | 131° | 106km/h | 11367m | 8.0m/s | -50.8°C | 71.2% | 0hPa | 2.7V | 00:00:00 | 01:05:37 | 08:30:00 | |
| OE5DRO-10 | 2026-09-04 11:47:32 | 49.27173 | 17.62821 | 129° | 108km/h | 11352m | 6.1m/s | -50.7°C | 72.6% | 0hPa | 2.9V | 00:00:00 | 00:00:00 | 00:00:00 | |
| HA6NAB-11 | 2026-09-04 11:47:28 | 49.27220 | 17.62714 | 121° | 119km/h | 11332m | 6.0m/s | -50.5°C | 61.9% | 0hPa | 2.9V | 00:00:00 | 00:00:00 | 00:00:00 | |
| HA6NAB-11 | 2026-09-04 11:47:23 | 49.27295 | 17.62518 | 124° | 108km/h | 11308m | 7.0m/s | 0°C | 0% | 0hPa | 2.9V | 00:00:00 | 00:00:00 | 00:00:00 | |
| PETON7-10 | 2026-09-04 11:47:21 | 49.27341 | 17.62421 | 130° | 108km/h | 11283m | 8.4m/s | -50.1°C | 72.8% | 0hPa | 2.9V | 00:00:00 | 00:00:00 | 00:00:00 | |
| POL2MAQ | 2026-09-04 11:47:18 | 49.27373 | 17.62365 | 132° | 95km/h | 11268m | 7.2m/s | -50.0°C | 63.9% | 0hPa | 2.9V | 00:00:00 | 00:00:00 | 00:00:00 | |
| PG1ADW-2 | 2026-09-04 11:47:14 | 49.27455 | 17.62208 | 129° | 110km/h | 11238m | 7.2m/s | -49.7°C | 72.3% | 0hPa | 2.9V | 00:00:00 | 00:00:00 | 00:00:00 | |
| OE5DRO-10 | 2026-09-04 11:47:13 | 49.27473 | 17.62174 | 130° | 108km/h | 11231m | 5.7m/s | -49.6°C | 72.3% | 0hPa | 2.9V | 00:00:00 | 00:00:00 | 00:00:00 | |
| HA6NAB-11 | 2026-09-04 11:47:12 | 49.27473 | 17.62174 | 131° | 115km/h | 11231m | 5.8m/s | 0°C | 0% | 0hPa | 2.9V | 00:00:00 | 00:00:00 | 00:00:00 | |
| HA6NAB-11 | 2026-09-04 11:47:07 | 49.27559 | 17.62000 | 125° | 110km/h | 11201m | 6.0m/s | 0°C | 0% | 0hPa | 2.9V | 00:00:00 | 00:00:00 | 00:00:00 | |
| PETON7-10 | 2026-09-04 11:47:06 | 49.27591 | 17.61932 | 128° | 108km/h | 11188m | 6.3m/s | -49.2°C | 74.5% | 0hPa | 2.9V | 00:00:00 | 01:05:09 | 00:00:00 | |
| OE3OSB-13 | 2026-09-04 11:47:04 | 49.27623 | 17.61871 | 129° | 100km/h | 11175m | 6.7m/s | -49.1°C | 65.0% | -1.0hPa | 2.9V | 00:00:00 | 00:00:00 | 00:00:00 | |
| HA6NAB-11 | 2026-09-04 11:47:01 | 49.27655 | 17.61811 | 128° | 97km/h | 11166m | 3.8m/s | 0°C | 0% | 0hPa | 2.9V | 00:00:00 | 00:00:00 | 00:00:00 | |
| POL2MAQ | 2026-09-04 11:46:57 | 49.27711 | 17.61687 | 126° | 108km/h | 11142m | 8.4m/s | -48.8°C | 64.3% | 0hPa | 2.9V | 00:00:00 | 00:00:00 | 00:00:00 | |
| OE5DRO-10 | 2026-09-04 11:46:54 | 49.27783 | 17.61535 | 126° | 108km/h | 11117m | 3.4m/s | -48.4°C | 75.9% | 0hPa | 2.9V | 00:00:00 | 00:00:00 | 00:00:00 | |
| HA6NAB-11 | 2026-09-04 11:46:52 | 49.27800 | 17.61497 | 127° | 119km/h | 11113m | 4.4m/s | 0°C | 0% | 0hPa | 2.9V | 00:00:00 | 00:00:00 | 00:00:00 | |
| PETON7-10 | 2026-09-04 11:46:51 | 49.27836 | 17.61425 | 128° | 106km/h | 11099m | 8.8m/s | -48.4°C | 75.6% | 0hPa | 2.9V | 00:00:00 | 00:00:00 | 00:00:00 | |
| HA6NAB-11 | 2026-09-04 11:46:46 | 49.27898 | 17.61290 | 122° | 102km/h | 11064m | 8.0m/s | 0°C | 0% | 0hPa | 2.9V | 00:00:00 | 00:00:00 | 00:00:00 | |
| OE3JTB-15 | 2026-09-04 11:46:40 | 49.27991 | 17.61048 | 129° | 106km/h | 11023m | 7.4m/s | -47.8°C | 72.9% | 0hPa | 2.9V | 00:00:00 | 00:00:00 | 08:30:00 | |
| PETON7-10 | 2026-09-04 11:46:36 | 49.28057 | 17.60919 | 125° | 111km/h | 10993m | 5.6m/s | -47.4°C | 74.2% | 0hPa | 2.9V | 00:00:00 | 00:00:00 | 00:00:00 | |
| OE5DRO-10 | 2026-09-04 11:46:35 | 49.28073 | 17.60884 | 124° | 111km/h | 10987m | 7.0m/s | -47.4°C | 74.4% | 0hPa | 2.9V | 00:00:00 | 00:00:00 | 00:00:00 | |
| OE3OSB-13 | 2026-09-04 11:46:33 | 49.28102 | 17.60812 | 120° | 110km/h | 10976m | 5.4m/s | -47.3°C | 64.1% | -1.0hPa | 2.9V | 00:00:00 | 00:00:00 | 00:00:00 | |
| PG1ADW-2 | 2026-09-04 11:46:24 | 49.28245 | 17.60482 | 127° | 102km/h | 10921m | 8.2m/s | -46.8°C | 74.9% | 0hPa | 2.9V | 00:00:00 | 00:00:00 | 00:00:00 | |
| PETON7-10 | 2026-09-04 11:46:21 | 49.28295 | 17.60381 | 126° | 102km/h | 10899m | 7.7m/s | -46.7°C | 74.3% | 0hPa | 2.9V | 00:00:00 | 01:04:24 | 00:00:00 | |
| OE5DRO-10 | 2026-09-04 11:46:16 | 49.28368 | 17.60212 | 126° | 100km/h | 10870m | 6.3m/s | -46.4°C | 75.3% | 0hPa | 2.9V | 00:00:00 | 00:00:00 | 00:00:00 | |
| OE3JTB-15 | 2026-09-04 11:46:10 | 49.28459 | 17.60030 | 125° | 102km/h | 10827m | 6.4m/s | -46.0°C | 73.0% | 0hPa | 2.9V | 00:00:00 | 00:00:00 | 00:00:00 | |
| PETON7-10 | 2026-09-04 11:46:06 | 49.28519 | 17.59904 | 129° | 104km/h | 10804m | 4.4m/s | -45.8°C | 74.5% | 0hPa | 2.9V | 00:00:00 | 00:00:00 | 08:30:00 | |
| PG1ADW-2 | 2026-09-04 11:46:04 | 49.28554 | 17.59841 | 132° | 104km/h | 10792m | 5.3m/s | -45.7°C | 75.5% | 0hPa | 2.9V | 00:00:00 | 01:04:07 | 00:00:00 | |
| OE3OSB-13 | 2026-09-04 11:46:02 | 49.28591 | 17.59779 | 131° | 104km/h | 10782m | 6.3m/s | -45.7°C | 67.1% | -1.0hPa | 2.9V | 00:00:00 | 00:00:00 | 00:00:00 | |
| OE5DRO-10 | 2026-09-04 11:45:57 | 49.28668 | 17.59623 | 121° | 99km/h | 10755m | 3.6m/s | -45.4°C | 76.2% | 0hPa | 2.9V | 00:00:00 | 00:00:00 | 08:30:00 | |
| POL2MAQ | 2026-09-04 11:45:55 | 49.28682 | 17.59588 | 121° | 104km/h | 10752m | 3.8m/s | -45.4°C | 66.5% | 0hPa | 2.7V | 00:00:00 | 00:00:00 | 00:00:00 | |
| HA6NAB-11 | 2026-09-04 11:45:52 | 49.28725 | 17.59489 | 130° | 104km/h | 10734m | 6.7m/s | 0°C | 0% | 0hPa | 2.7V | 00:00:00 | 00:00:00 | 00:00:00 | |
| PETON7-10 | 2026-09-04 11:45:51 | 49.28760 | 17.59427 | 132° | 97km/h | 10717m | 9.8m/s | -45.1°C | 75.3% | 0hPa | 2.7V | 00:00:00 | 00:00:00 | 00:00:00 | |
| HA6NAB-11 | 2026-09-04 11:45:45 | 49.28847 | 17.59266 | 126° | 100km/h | 10681m | 6.2m/s | 0°C | 0% | 0hPa | 2.7V | 00:00:00 | 00:00:00 | 00:00:00 | |
| PG1ADW-2 | 2026-09-04 11:45:44 | 49.28874 | 17.59206 | 123° | 97km/h | 10669m | 3.8m/s | -44.7°C | 78.3% | 0hPa | 2.7V | 00:00:00 | 00:00:00 | 00:00:00 | |
| OE3JTB-15 | 2026-09-04 11:45:41 | 49.28906 | 17.59124 | 124° | 97km/h | 10656m | 4.6m/s | -44.6°C | 77.8% | 0hPa | 2.7V | 00:00:00 | 01:03:44 | 00:00:00 | |
| OE5DRO-10 | 2026-09-04 11:45:38 | 49.28948 | 17.59042 | 133° | 104km/h | 10636m | 8.3m/s | -44.4°C | 74.9% | 0hPa | 2.7V | 00:00:00 | 00:00:00 | 00:00:00 | |
| PETON7-10 | 2026-09-04 11:45:36 | 49.28984 | 17.58985 | 136° | 102km/h | 10618m | 9.1m/s | -44.2°C | 74.3% | 0hPa | 2.7V | 00:00:00 | 01:03:39 | 00:00:00 | |
| POL2MAQ | 2026-09-04 11:45:34 | 49.29003 | 17.58956 | 136° | 106km/h | 10610m | 7.7m/s | -44.2°C | 65.6% | 0hPa | 2.7V | 00:00:00 | 00:00:00 | 00:00:00 | |
| PG1ADW-2 | 2026-09-04 11:45:25 | 49.29188 | 17.58634 | 128° | 100km/h | 10537m | 4.1m/s | -43.5°C | 80.2% | 0hPa | 2.7V | 00:00:00 | 00:00:00 | 00:00:00 | |
| PETON7-10 | 2026-09-04 11:45:21 | 49.29234 | 17.58532 | 125° | 100km/h | 10521m | 4.7m/s | -43.4°C | 78.9% | 0hPa | 2.9V | 00:00:00 | 00:00:00 | 00:00:00 | |
| OE5DRO-10 | 2026-09-04 11:45:19 | 49.29269 | 17.58460 | 129° | 100km/h | 10511m | 4.1m/s | -43.3°C | 78.6% | 0hPa | 2.9V | 00:00:00 | 00:00:00 | 00:00:00 | |
| POL2MAQ | 2026-09-04 11:45:13 | 49.29357 | 17.58292 | 130° | 95km/h | 10471m | 9.5m/s | -43.0°C | 67.2% | 0hPa | 2.9V | 00:00:00 | 00:00:00 | 00:00:00 | |
| PETON7-10 | 2026-09-04 11:45:06 | 49.29480 | 17.58098 | 129° | 102km/h | 10415m | 7.6m/s | -42.4°C | 76.2% | 0hPa | 2.9V | 00:00:00 | 00:00:00 | 00:00:00 | |
| PG1ADW-2 | 2026-09-04 11:45:04 | 49.29512 | 17.58030 | 125° | 99km/h | 10400m | 5.5m/s | -42.3°C | 76.2% | 0hPa | 2.9V | 00:00:00 | 00:00:00 | 00:00:00 | |
| OE5DRO-10 | 2026-09-04 11:45:00 | 49.29572 | 17.57890 | 125° | 95km/h | 10378m | 7.0m/s | -42.1°C | 78.3% | 0hPa | 2.9V | 00:00:00 | 00:00:00 | 00:00:00 | |
| POL2MAQ | 2026-09-04 11:44:53 | 49.29675 | 17.57732 | 137° | 102km/h | 10329m | 8.4m/s | -41.8°C | 70.8% | 0hPa | 2.9V | 00:00:00 | 00:00:00 | 00:00:00 | |
| PETON7-10 | 2026-09-04 11:44:51 | 49.29722 | 17.57643 | 123° | 95km/h | 10308m | 7.2m/s | -41.5°C | 78.1% | 0hPa | 2.9V | 00:00:00 | 01:02:54 | 00:00:00 | |
| OE3JTB-15 | 2026-09-04 11:44:48 | 49.29767 | 17.57520 | 119° | 95km/h | 10284m | 5.8m/s | -41.3°C | 78.8% | 0hPa | 2.9V | 00:00:00 | 00:00:00 | 00:00:00 | |
| PG1ADW-2 | 2026-09-04 11:44:44 | 49.29808 | 17.57436 | 134° | 95km/h | 10265m | 8.2m/s | -41.1°C | 77.2% | 0hPa | 2.9V | 00:00:00 | 01:02:47 | 00:00:00 | |
| OE5DRO-10 | 2026-09-04 11:44:41 | 49.29863 | 17.57359 | 138° | 93km/h | 10243m | 7.9m/s | -40.9°C | 76.3% | 0hPa | 2.9V | 00:00:00 | 00:00:00 | 00:00:00 | |
| PETON7-10 | 2026-09-04 11:44:36 | 49.29946 | 17.57221 | 128° | 93km/h | 10201m | 7.9m/s | -40.5°C | 76.4% | 0hPa | 2.9V | 00:00:00 | 00:00:00 | 00:00:00 | |
| POL2MAQ | 2026-09-04 11:44:33 | 49.29974 | 17.57163 | 127° | 95km/h | 10188m | 6.4m/s | -40.4°C | 69.3% | 0hPa | 2.9V | 00:00:00 | 00:00:00 | 00:00:00 | |
| OE3OSB-13 | 2026-09-04 11:44:30 | 49.30058 | 17.57023 | 138° | 95km/h | 10159m | 4.6m/s | -40.2°C | 68.3% | -1.0hPa | 2.9V | 00:00:00 | 00:00:00 | 00:00:00 | |
| PG1ADW-2 | 2026-09-04 11:44:24 | 49.30134 | 17.56899 | 126° | 97km/h | 10132m | 6.9m/s | -39.9°C | 74.0% | 0hPa | 2.9V | 00:00:00 | 00:00:00 | 08:30:00 | |
| OE5DRO-10 | 2026-09-04 11:44:22 | 49.30160 | 17.56844 | 128° | 97km/h | 10116m | 8.9m/s | -39.8°C | 73.5% | 0hPa | 2.7V | 00:00:00 | 00:00:00 | 00:00:00 | |
| PETON7-10 | 2026-09-04 11:44:21 | 49.30175 | 17.56816 | 130° | 99km/h | 10107m | 8.2m/s | -39.7°C | 73.2% | 0hPa | 2.7V | 00:00:00 | 00:00:00 | 00:00:00 | |
| OM5KV | 2026-09-04 11:44:20 | 49.30175 | 17.56816 | 131° | 97km/h | 10107m | 8.2m/s | -39.7°C | 65.2% | 0hPa | 2.7V | 00:00:00 | 00:00:00 | 00:00:00 | |
| OE3JTB-15 | 2026-09-04 11:44:19 | 49.30208 | 17.56757 | 131° | 95km/h | 10092m | 7.4m/s | -39.5°C | 72.9% | 0hPa | 2.7V | 00:00:00 | 00:00:00 | 00:00:00 | |
| OM5KV | 2026-09-04 11:44:14 | 49.30271 | 17.56633 | 129° | 99km/h | 10066m | 5.4m/s | -39.3°C | 65.8% | 0hPa | 2.7V | 00:00:00 | 00:00:00 | 00:00:00 | |
| POL2MAQ | 2026-09-04 11:44:12 | 49.30303 | 17.56576 | 135° | 95km/h | 10054m | 7.8m/s | -39.2°C | 65.1% | 0hPa | 2.7V | 00:00:00 | 00:00:00 | 00:00:00 | |
| OM5KV | 2026-09-04 11:44:09 | 49.30358 | 17.56503 | 143° | 97km/h | 10038m | 6.2m/s | -39.1°C | 66.2% | 0hPa | 2.7V | 00:00:00 | 00:00:00 | 00:00:00 | |
| PETON7-10 | 2026-09-04 11:44:06 | 49.30430 | 17.56400 | 131° | 89km/h | 10018m | 7.9m/s | -38.8°C | 74.5% | 0hPa | 2.7V | 00:00:00 | 01:02:09 | 00:00:00 | |
| PG1ADW-2 | 2026-09-04 11:44:04 | 49.30460 | 17.56343 | 127° | 93km/h | 9999m | 10.3m/s | -38.7°C | 75.2% | 0hPa | 2.7V | 00:00:00 | 00:00:00 | 00:00:00 | |
| OE5DRO-10 | 2026-09-04 11:44:03 | 49.30473 | 17.56315 | 123° | 93km/h | 9989m | 10.1m/s | -38.6°C | 75.4% | 0hPa | 2.7V | 00:00:00 | 00:00:00 | 00:00:00 | |
| OE3OSB-13 | 2026-09-04 11:43:58 | 49.30536 | 17.56181 | 132° | 77km/h | 9950m | 7.1m/s | -38.3°C | 66.3% | -1.0hPa | 2.9V | 00:00:00 | 00:00:00 | 00:00:00 | |
| POL2MAQ | 2026-09-04 11:43:52 | 49.30616 | 17.56064 | 138° | 99km/h | 9922m | 6.9m/s | -38.1°C | 65.7% | 0hPa | 2.9V | 00:00:00 | 00:00:00 | 00:00:00 | |
| PETON7-10 | 2026-09-04 11:43:51 | 49.30653 | 17.56007 | 134° | 97km/h | 9910m | 7.5m/s | -37.9°C | 71.9% | 0hPa | 2.9V | 00:00:00 | 00:00:00 | 08:30:00 | |
| OE3JTB-15 | 2026-09-04 11:43:49 | 49.30689 | 17.55945 | 130° | 86km/h | 9892m | 8.4m/s | -37.8°C | 72.6% | 0hPa | 2.9V | 00:00:00 | 01:01:52 | 00:00:00 | |
| OM5KV | 2026-09-04 11:43:46 | 49.30719 | 17.55885 | 127° | 95km/h | 9876m | 8.2m/s | -37.7°C | 64.9% | 0hPa | 2.9V | 00:00:00 | 00:00:00 | 00:00:00 | |
| PG1ADW-2 | 2026-09-04 11:43:44 | 49.30758 | 17.55797 | 126° | 95km/h | 9854m | 6.7m/s | -37.4°C | 73.4% | 0hPa | 2.9V | 00:00:00 | 00:00:00 | 00:00:00 | |
| OM5KV | 2026-09-04 11:43:41 | 49.30785 | 17.55740 | 128° | 91km/h | 9842m | 5.2m/s | -37.4°C | 65.4% | 0hPa | 2.9V | 00:00:00 | 00:00:00 | 00:00:00 | |
| PETON7-10 | 2026-09-04 11:43:36 | 49.30861 | 17.55545 | 121° | 93km/h | 9806m | 4.1m/s | -37.0°C | 73.0% | 0hPa | 2.9V | 00:00:00 | 00:00:00 | 00:00:00 | |
| OM5KV | 2026-09-04 11:43:34 | 49.30874 | 17.55514 | 126° | 93km/h | 9802m | 4.8m/s | -37.0°C | 65.2% | 0hPa | 2.9V | 00:00:00 | 00:00:00 | 00:00:00 | |
| POL2MAQ | 2026-09-04 11:43:31 | 49.30918 | 17.55432 | 133° | 91km/h | 9780m | 8.5m/s | -36.9°C | 64.0% | 0hPa | 2.9V | 00:00:00 | 00:00:00 | 00:00:00 | |
| OE3OSB-13 | 2026-09-04 11:43:29 | 49.30994 | 17.55292 | 123° | 95km/h | 9745m | 6.9m/s | -36.5°C | 65.3% | -1.0hPa | 2.9V | 00:00:00 | 00:00:00 | 00:00:00 | |
| OE5DRO-10 | 2026-09-04 11:43:25 | 49.31016 | 17.55228 | 114° | 89km/h | 9734m | 4.4m/s | -36.4°C | 72.5% | 0hPa | 2.9V | 00:00:00 | 00:00:00 | 00:00:00 | |
| PG1ADW-2 | 2026-09-04 11:43:24 | 49.31025 | 17.55195 | 114° | 91km/h | 9730m | 5.1m/s | -36.4°C | 72.2% | 0hPa | 2.9V | 00:00:00 | 01:01:27 | 00:00:00 | |
| OM5KV | 2026-09-04 11:43:23 | 49.31026 | 17.55195 | 114° | 93km/h | 9730m | 5.1m/s | -36.4°C | 65.0% | 0hPa | 2.7V | 00:00:00 | 00:00:00 | 00:00:00 | |
| PETON7-10 | 2026-09-04 11:43:21 | 49.31056 | 17.55102 | 121° | 89km/h | 9714m | 7.7m/s | -36.3°C | 71.3% | 0hPa | 2.7V | 00:00:00 | 01:01:24 | 00:00:00 | |
| OM5KV | 2026-09-04 11:43:20 | 49.31068 | 17.55073 | 125° | 89km/h | 9705m | 9.2m/s | -36.3°C | 63.8% | 0hPa | 2.7V | 00:00:00 | 00:00:00 | 00:00:00 | |
| OM5KV | 2026-09-04 11:43:18 | 49.31081 | 17.55045 | 127° | 89km/h | 9696m | 9.3m/s | -36.2°C | 63.2% | 0hPa | 2.7V | 00:00:00 | 00:00:00 | 00:00:00 | |
| OM5KV | 2026-09-04 11:43:12 | 49.31162 | 17.54884 | 129° | 91km/h | 9651m | 5.7m/s | -35.7°C | 63.7% | 0hPa | 2.7V | 00:00:00 | 00:00:00 | 00:00:00 | |
| POL2MAQ | 2026-09-04 11:43:11 | 49.31176 | 17.54856 | 128° | 93km/h | 9645m | 5.4m/s | -35.7°C | 63.3% | 0hPa | 2.7V | 00:00:00 | 00:00:00 | 00:00:00 | |
| PETON7-10 | 2026-09-04 11:43:06 | 49.31254 | 17.54675 | 126° | 86km/h | 9611m | 4.1m/s | -35.4°C | 71.8% | 0hPa | 2.7V | 00:00:00 | 00:00:00 | 00:00:00 | |
| OM5KV | 2026-09-04 11:43:05 | 49.31255 | 17.54675 | 126° | 95km/h | 9611m | 4.2m/s | -35.4°C | 64.8% | 0hPa | 2.7V | 00:00:00 | 00:00:00 | 00:00:00 | |
| PG1ADW-2 | 2026-09-04 11:43:04 | 49.31283 | 17.54618 | 130° | 84km/h | 9601m | 5.2m/s | -35.3°C | 71.2% | 0hPa | 2.7V | 00:00:00 | 00:00:00 | 00:00:00 | |
| OE3OSB-13 | 2026-09-04 11:42:56 | 49.31374 | 17.54416 | 120° | 88km/h | 9556m | 9.1m/s | -35.0°C | 62.4% | -1.0hPa | 2.7V | 00:00:00 | 00:00:00 | 00:00:00 | |
| OE5DXL-15 | 2026-09-04 11:42:54 | 49.31399 | 17.54357 | 126° | 89km/h | 9539m | 7.2m/s | 0°C | 0% | 0hPa | 2.7V | 00:00:00 | 01:00:57 | 00:00:00 | |
| PETON7-10 | 2026-09-04 11:42:51 | 49.31444 | 17.54277 | 135° | 88km/h | 9519m | 5.6m/s | -34.6°C | 70.1% | 0hPa | 2.7V | 00:00:00 | 00:00:00 | 00:00:00 | |
| POL2MAQ | 2026-09-04 11:42:50 | 49.31445 | 17.54277 | 136° | 89km/h | 9519m | 5.7m/s | -34.6°C | 63.3% | 0hPa | 2.7V | 00:00:00 | 00:00:00 | 00:00:00 | |
| OM5KV | 2026-09-04 11:42:49 | 49.31460 | 17.54252 | 136° | 88km/h | 9514m | 5.1m/s | -34.5°C | 64.0% | 0hPa | 2.7V | 00:00:00 | 00:00:00 | 00:00:00 | |
| OE5DRO-10 | 2026-09-04 11:42:47 | 49.31505 | 17.54181 | 133° | 86km/h | 9500m | 6.9m/s | 0°C | 0% | 0hPa | 2.7V | 00:00:00 | 00:00:00 | 00:00:00 | |
| PG1ADW-2 | 2026-09-04 11:42:44 | 49.31543 | 17.54110 | 127° | 91km/h | 9475m | 8.4m/s | -34.2°C | 69.7% | 0hPa | 2.7V | 00:00:00 | 00:00:00 | 00:00:00 | |
| OM5KV | 2026-09-04 11:42:38 | 49.31603 | 17.53958 | 120° | 100km/h | 9440m | 4.9m/s | -34.0°C | 62.6% | 0hPa | 2.7V | 00:00:00 | 00:00:00 | 00:00:00 | |
| PETON7-10 | 2026-09-04 11:42:36 | 49.31642 | 17.53857 | 123° | 89km/h | 9424m | 5.4m/s | -33.8°C | 68.9% | 0hPa | 2.7V | 00:00:00 | 01:00:39 | 00:00:00 | |
| OM5KV | 2026-09-04 11:42:33 | 49.31670 | 17.53792 | 128° | 100km/h | 9408m | 9.5m/s | -33.7°C | 61.6% | 0hPa | 2.7V | 00:00:00 | 00:00:00 | 00:00:00 | |
| POL2MAQ | 2026-09-04 11:42:29 | 49.31730 | 17.53675 | 126° | 88km/h | 9377m | 6.3m/s | -33.5°C | 63.2% | 0hPa | 2.7V | 00:00:00 | 00:00:00 | 00:00:00 | |
| OM5KV | 2026-09-04 11:42:28 | 49.31743 | 17.53648 | 124° | 84km/h | 9371m | 6.6m/s | -33.4°C | 62.9% | 0hPa | 2.7V | 00:00:00 | 00:00:00 | 00:00:00 | |
| OM5KV | 2026-09-04 11:42:26 | 49.31763 | 17.53592 | 117° | 80km/h | 9357m | 5.0m/s | -33.3°C | 0% | 0hPa | 2.7V | 00:00:00 | 00:00:00 | 00:00:00 | |
| OE3OSB-13 | 2026-09-04 11:42:25 | 49.31780 | 17.53537 | 120° | 77km/h | 9345m | 6.5m/s | -33.2°C | 64.2% | -1.0hPa | 2.7V | 00:00:00 | 00:00:00 | 00:00:00 | |
| PG1ADW-2 | 2026-09-04 11:42:24 | 49.31792 | 17.53512 | 129° | 86km/h | 9340m | 4.6m/s | 0°C | 0% | 0hPa | 2.7V | 00:00:00 | 00:00:00 | 00:00:00 | |
| OM5KV | 2026-09-04 11:42:23 | 49.31792 | 17.53512 | 130° | 80km/h | 9340m | 4.6m/s | -33.1°C | 64.4% | 0hPa | 2.7V | 00:00:00 | 00:00:00 | 00:00:00 | |
| PETON7-10 | 2026-09-04 11:42:21 | 49.31837 | 17.53443 | 140° | 86km/h | 9321m | 7.6m/s | -33.0°C | 70.2% | 0hPa | 2.7V | 00:00:00 | 00:00:00 | 00:00:00 | |
| OM5KV | 2026-09-04 11:42:18 | 49.31870 | 17.53397 | 135° | 89km/h | 9309m | 4.5m/s | -32.9°C | 0% | 0hPa | 2.9V | 00:00:00 | 00:00:00 | 00:00:00 | |
| OM5KV | 2026-09-04 11:42:17 | 49.31886 | 17.53372 | 134° | 89km/h | 9303m | 7.5m/s | -32.8°C | 63.0% | 0hPa | 2.9V | 00:00:00 | 00:00:00 | 00:00:00 | |
| OE5DRO-10 | 2026-09-04 11:42:16 | 49.31914 | 17.53320 | 128° | 86km/h | 9286m | 9.6m/s | 0°C | 0% | 0hPa | 2.9V | 00:00:00 | 00:00:00 | 00:00:00 | |
| OM5KV | 2026-09-04 11:42:13 | 49.31938 | 17.53269 | 126° | 82km/h | 9267m | 9.5m/s | -32.6°C | 60.7% | 0hPa | 2.9V | 00:00:00 | 00:00:00 | 00:00:00 | |
| POL2MAQ | 2026-09-04 11:42:08 | 49.31997 | 17.53139 | 124° | 86km/h | 9237m | 5.1m/s | -32.2°C | 59.8% | 0hPa | 2.9V | 00:00:00 | 00:00:00 | 00:00:00 | |
| PETON7-10 | 2026-09-04 11:42:06 | 49.32033 | 17.53053 | 124° | 88km/h | 9220m | 6.4m/s | -32.0°C | 66.5% | 0hPa | 2.9V | 00:00:00 | 00:00:00 | 00:00:00 | |
| PG1ADW-2 | 2026-09-04 11:42:04 | 49.32060 | 17.52995 | 128° | 89km/h | 9209m | 4.6m/s | 0°C | 0% | 0hPa | 2.9V | 00:00:00 | 01:00:07 | 00:00:00 | |
| OE3OSB-13 | 2026-09-04 11:41:54 | 49.32170 | 17.52717 | 120° | 78km/h | 9151m | 8.3m/s | -31.5°C | 59.2% | -1.0hPa | 2.9V | 00:00:00 | 00:00:00 | 00:00:00 | |
| PETON7-10 | 2026-09-04 11:41:50 | 49.32225 | 17.52595 | 128° | 88km/h | 9116m | 9.1m/s | -31.2°C | 65.5% | 0hPa | 2.9V | 00:00:00 | 00:59:53 | 00:00:00 | |
| OM5KV | 2026-09-04 11:41:49 | 49.32225 | 17.52595 | 129° | 108km/h | 9116m | 9.1m/s | -31.2°C | 59.6% | 0hPa | 2.9V | 00:00:00 | 00:00:00 | 00:00:00 | |
| OM5KV | 2026-09-04 11:41:48 | 49.32242 | 17.52563 | 129° | 104km/h | 9107m | 8.5m/s | -31.2°C | 0% | 0hPa | 2.9V | 00:00:00 | 00:00:00 | 00:00:00 | |
| POL2MAQ | 2026-09-04 11:41:47 | 49.32258 | 17.52531 | 129° | 100km/h | 9099m | 7.8m/s | -31.1°C | 60.2% | 0hPa | 2.9V | 00:00:00 | 00:00:00 | 00:00:00 | |
| PG1ADW-2 | 2026-09-04 11:41:44 | 49.32308 | 17.52421 | 120° | 86km/h | 9069m | 7.4m/s | 0°C | 0% | 0hPa | 2.9V | 00:00:00 | 00:00:00 | 00:00:00 | |
| OM5KV | 2026-09-04 11:41:43 | 49.32308 | 17.52421 | 120° | 77km/h | 9069m | 7.5m/s | -30.8°C | 0% | 0hPa | 2.9V | 00:00:00 | 00:00:00 | 00:00:00 | |
| S52SK | 2026-09-04 11:41:41 | 49.32327 | 17.52370 | 123° | 75km/h | 9057m | 4.8m/s | 0°C | 0% | 0hPa | 2.9V | 00:00:00 | 00:00:00 | 00:00:00 | |
| OE5DRO-10 | 2026-09-04 11:41:38 | 49.32375 | 17.52271 | 132° | 89km/h | 9029m | 10.0m/s | 0°C | 0% | 0hPa | 2.9V | 00:00:00 | 00:00:00 | 00:00:00 | |
| OE3JTB-15 | 2026-09-04 11:41:37 | 49.32391 | 17.52245 | 133° | 89km/h | 9020m | 9.5m/s | -30.4°C | 63.4% | 0hPa | 2.9V | 00:00:00 | 00:00:00 | 00:00:00 | |
| OM5KV | 2026-09-04 11:41:36 | 49.32391 | 17.52245 | 134° | 93km/h | 9020m | 9.5m/s | -30.4°C | 0% | 0hPa | 2.9V | 00:00:00 | 00:00:00 | 00:00:00 | |
| PETON7-10 | 2026-09-04 11:41:35 | 49.32424 | 17.52190 | 132° | 89km/h | 9003m | 7.5m/s | -30.2°C | 63.9% | 0hPa | 2.9V | 00:00:00 | 00:00:00 | 08:30:00 | |
| OM5KV | 2026-09-04 11:41:33 | 49.32440 | 17.52160 | 131° | 102km/h | 8995m | 6.8m/s | -30.2°C | 58.6% | 0hPa | 2.9V | 00:00:00 | 00:00:00 | 00:00:00 | |
| OM5KV | 2026-09-04 11:41:31 | 49.32469 | 17.52098 | 125° | 95km/h | 8984m | 6.3m/s | 0°C | 0% | 0hPa | 2.9V | 00:00:00 | 00:00:00 | 00:00:00 | |
| S52SK | 2026-09-04 11:41:30 | 49.32482 | 17.52069 | 123° | 89km/h | 8978m | 6.1m/s | 0°C | 0% | 0hPa | 2.9V | 00:00:00 | 00:00:00 | 00:00:00 | |
| OM5KV | 2026-09-04 11:41:28 | 49.32505 | 17.52013 | 124° | 80km/h | 8969m | 4.4m/s | 0°C | 0% | 0hPa | 2.9V | 00:00:00 | 00:00:00 | 00:00:00 | |
| OM5KV | 2026-09-04 11:41:25 | 49.32543 | 17.51940 | 134° | 84km/h | 8954m | 5.1m/s | 0°C | 0% | 0hPa | 2.9V | 00:00:00 | 00:00:00 | 00:00:00 | |
| PG1ADW-2 | 2026-09-04 11:41:24 | 49.32573 | 17.51893 | 137° | 91km/h | 8939m | 9.0m/s | 0°C | 0% | 0hPa | 2.9V | 00:00:00 | 00:00:00 | 00:00:00 | |
| OE3OSB-13 | 2026-09-04 11:41:23 | 49.32589 | 17.51869 | 134° | 88km/h | 8930m | 8.4m/s | -29.7°C | 59.3% | -1.0hPa | 2.9V | 00:00:00 | 00:00:00 | 00:00:00 | |
| OM5KV | 2026-09-04 11:41:22 | 49.32589 | 17.51869 | 136° | 88km/h | 8930m | 8.4m/s | 0°C | 0% | 0hPa | 2.9V | 00:00:00 | 00:00:00 | 00:00:00 | |
| PETON7-10 | 2026-09-04 11:41:20 | 49.32635 | 17.51786 | 125° | 88km/h | 8907m | 6.1m/s | -29.4°C | 63.9% | 0hPa | 2.9V | 00:00:00 | 00:00:00 | 00:00:00 | |
| OE5DRO-10 | 2026-09-04 11:41:19 | 49.32649 | 17.51754 | 123° | 86km/h | 8900m | 7.4m/s | 0°C | 0% | 0hPa | 2.9V | 00:00:00 | 00:00:00 | 00:00:00 | |
| OM5KV | 2026-09-04 11:41:16 | 49.32675 | 17.51687 | 122° | 99km/h | 8889m | 5.5m/s | 0°C | 0% | 0hPa | 2.9V | 00:00:00 | 00:00:00 | 00:00:00 | |
| OM5KV | 2026-09-04 11:41:11 | 49.32740 | 17.51552 | 131° | 78km/h | 8854m | 10.5m/s | 0°C | 0% | 0hPa | 2.9V | 00:00:00 | 00:00:00 | 00:00:00 | |
| OM5KV | 2026-09-04 11:41:08 | 49.32780 | 17.51484 | 134° | 80km/h | 8829m | 6.4m/s | 0°C | 0% | 0hPa | 2.9V | 00:00:00 | 00:00:00 | 00:00:00 | |
| POL2MAQ | 2026-09-04 11:41:06 | 49.32810 | 17.51435 | 133° | 88km/h | 8817m | 7.6m/s | -28.8°C | 58.2% | 0hPa | 2.9V | 00:00:00 | 00:00:00 | 00:00:00 | |
| PETON7-10 | 2026-09-04 11:41:05 | 49.32839 | 17.51382 | 127° | 82km/h | 8802m | 6.3m/s | -28.6°C | 63.5% | 0hPa | 2.9V | 00:00:00 | 00:59:08 | 00:00:00 | |
| OE3OSB-13 | 2026-09-04 11:40:52 | 49.33008 | 17.51026 | 135° | 95km/h | 8729m | 7.4m/s | -28.1°C | 58.8% | -1.0hPa | 2.9V | 00:00:00 | 00:00:00 | 00:00:00 | |
| PETON7-10 | 2026-09-04 11:40:50 | 49.33026 | 17.50999 | 136° | 89km/h | 8723m | 5.5m/s | -28.0°C | 64.6% | 0hPa | 2.9V | 00:00:00 | 00:00:00 | 00:00:00 | |
| OM5KV | 2026-09-04 11:40:49 | 49.33026 | 17.50999 | 137° | 100km/h | 8723m | 5.6m/s | 0°C | 0% | 0hPa | 2.9V | 00:00:00 | 00:00:00 | 00:00:00 | |
| OE5DRO-10 | 2026-09-04 11:40:48 | 49.33062 | 17.50943 | 133° | 88km/h | 8714m | 5.1m/s | 0°C | 0% | 0hPa | 2.9V | 00:00:00 | 00:00:00 | 00:00:00 | |
| POL2MAQ | 2026-09-04 11:40:46 | 49.33077 | 17.50915 | 130° | 91km/h | 8708m | 5.7m/s | -27.9°C | 60.5% | 0hPa | 2.9V | 00:00:00 | 00:00:00 | 00:00:00 | |
| OM5KV | 2026-09-04 11:40:42 | 49.33128 | 17.50812 | 128° | 78km/h | 8676m | 8.8m/s | 0°C | 0% | 0hPa | 2.9V | 00:00:00 | 00:00:00 | 00:00:00 | |
| OM5KV | 2026-09-04 11:40:38 | 49.33181 | 17.50716 | 132° | 88km/h | 8648m | 5.2m/s | 0°C | 0% | 0hPa | 2.9V | 00:00:00 | 00:00:00 | 00:00:00 | |
| OE3JTB-15 | 2026-09-04 11:40:36 | 49.33231 | 17.50633 | 135° | 84km/h | 8633m | 4.4m/s | -27.3°C | 64.8% | 0hPa | 2.9V | 00:00:00 | 00:58:39 | 00:00:00 | |
| PETON7-10 | 2026-09-04 11:40:35 | 49.33249 | 17.50606 | 136° | 89km/h | 8628m | 4.4m/s | -27.2°C | 64.9% | 0hPa | 2.9V | 00:00:00 | 00:00:00 | 00:00:00 | |
| OM5KV | 2026-09-04 11:40:31 | 49.33295 | 17.50531 | 130° | 82km/h | 8614m | 5.5m/s | 0°C | 0% | 0hPa | 2.9V | 00:00:00 | 00:00:00 | 00:00:00 | |
| OE5DRO-10 | 2026-09-04 11:40:29 | 49.33333 | 17.50452 | 125° | 82km/h | 8593m | 6.7m/s | 0°C | 0% | 0hPa | 2.9V | 00:00:00 | 00:00:00 | 00:00:00 | |
| POL2MAQ | 2026-09-04 11:40:25 | 49.33377 | 17.50364 | 129° | 100km/h | 8576m | 5.9m/s | -27.0°C | 60.7% | 0hPa | 2.9V | 00:00:00 | 00:00:00 | 00:00:00 | |
| OE3OSB-13 | 2026-09-04 11:40:21 | 49.33463 | 17.50199 | 131° | 82km/h | 8541m | 8.0m/s | -26.7°C | 61.1% | -1.0hPa | 2.9V | 00:00:00 | 00:00:00 | 00:00:00 | |
| PETON7-10 | 2026-09-04 11:40:20 | 49.33463 | 17.50199 | 132° | 80km/h | 8541m | 8.0m/s | -26.7°C | 66.5% | 0hPa | 2.9V | 00:00:00 | 00:58:23 | 00:00:00 | |
| OM5KV | 2026-09-04 11:40:19 | 49.33463 | 17.50199 | 133° | 84km/h | 8541m | 8.0m/s | 0°C | 0% | 0hPa | 2.9V | 00:00:00 | 00:00:00 | 00:00:00 | |
| OE3JTB-15 | 2026-09-04 11:40:07 | 49.33614 | 17.49876 | 127° | 88km/h | 8463m | 8.4m/s | -26.0°C | 67.4% | 0hPa | 2.9V | 00:00:00 | 00:00:00 | 08:30:00 | |
| POL2MAQ | 2026-09-04 11:40:06 | 49.33627 | 17.49849 | 127° | 88km/h | 8454m | 9.7m/s | -26.0°C | 62.2% | 0hPa | 2.7V | 00:00:00 | 00:00:00 | 00:00:00 | |
| OE3OSB-13 | 2026-09-04 11:39:50 | 49.33799 | 17.49375 | 117° | 80km/h | 8345m | 5.4m/s | -25.5°C | 63.2% | -1.0hPa | 2.7V | 00:00:00 | 00:00:00 | 00:00:00 | |
| POL2MAQ | 2026-09-04 11:39:44 | 49.33838 | 17.49279 | 129° | 69km/h | 8325m | 5.5m/s | -25.5°C | 62.1% | 0hPa | 2.7V | 00:00:00 | 00:00:00 | 00:00:00 | |
| OE5DRO-10 | 2026-09-04 11:39:37 | 49.33929 | 17.49056 | 118° | 78km/h | 8278m | 5.5m/s | 0°C | 0% | 0hPa | 2.7V | 00:00:00 | 00:00:00 | 00:00:00 | |
| PETON7-10 | 2026-09-04 11:39:35 | 49.33951 | 17.48997 | 123° | 88km/h | 8268m | 4.2m/s | -25.0°C | 66.4% | 0hPa | 2.7V | 00:00:00 | 00:57:38 | 00:00:00 | |
| OE3JTB-15 | 2026-09-04 11:39:34 | 49.33963 | 17.48971 | 127° | 86km/h | 8262m | 7.2m/s | -25.0°C | 65.7% | 0hPa | 2.7V | 00:00:00 | 00:00:00 | 00:00:00 | |
| POL2MAQ | 2026-09-04 11:39:23 | 49.34081 | 17.48692 | 118° | 104km/h | 8203m | 6.0m/s | -24.5°C | 59.8% | 0hPa | 2.7V | 00:00:00 | 00:00:00 | 00:00:00 | |
| PETON7-10 | 2026-09-04 11:39:20 | 49.34127 | 17.48561 | 119° | 88km/h | 8181m | 7.7m/s | -24.3°C | 65.1% | 0hPa | 2.7V | 00:00:00 | 00:00:00 | 08:30:00 | |
| OE3OSB-13 | 2026-09-04 11:39:19 | 49.34145 | 17.48500 | 111° | 86km/h | 8165m | 7.7m/s | -24.2°C | 60.4% | -1.0hPa | 2.9V | 00:00:00 | 00:00:00 | 00:00:00 | |
| PETON7-10 | 2026-09-04 11:39:05 | 49.34291 | 17.48127 | 121° | 84km/h | 8099m | 6.7m/s | -24.0°C | 66.8% | 0hPa | 2.9V | 00:00:00 | 00:00:00 | 00:00:00 | |
| OE3JTB-15 | 2026-09-04 11:39:04 | 49.34301 | 17.48099 | 121° | 89km/h | 8092m | 7.6m/s | -24.0°C | 66.9% | 0hPa | 2.9V | 00:00:00 | 00:57:07 | 00:00:00 | |
| OE3OSB-13 | 2026-09-04 11:38:48 | 49.34477 | 17.47610 | 112° | 91km/h | 7996m | 5.5m/s | -23.4°C | 61.8% | -1.0hPa | 2.9V | 00:00:00 | 00:00:00 | 00:00:00 | |
| POL2MAQ | 2026-09-04 11:38:41 | 49.34524 | 17.47454 | 120° | 78km/h | 7967m | 3.5m/s | -23.2°C | 61.6% | 0hPa | 2.9V | 00:00:00 | 00:00:00 | 00:00:00 | |
| PETON7-10 | 2026-09-04 11:38:35 | 49.34610 | 17.47235 | 115° | 100km/h | 7931m | 7.9m/s | -22.9°C | 66.3% | 0hPa | 2.9V | 00:00:00 | 00:00:00 | 00:00:00 | |
| POL2MAQ | 2026-09-04 11:38:21 | 49.34764 | 17.46793 | 108° | 104km/h | 7851m | 8.2m/s | -23.1°C | 58.2% | 0hPa | 2.9V | 00:00:00 | 00:00:00 | 00:00:00 | |
| PETON7-10 | 2026-09-04 11:38:20 | 49.34779 | 17.46715 | 108° | 97km/h | 7836m | 6.2m/s | -23.2°C | 60.0% | 0hPa | 2.9V | 00:00:00 | 00:00:00 | 00:00:00 | |
| OE3OSB-13 | 2026-09-04 11:38:17 | 49.34825 | 17.46572 | 125° | 100km/h | 7814m | 4.5m/s | -23.1°C | 52.4% | -1.0hPa | 2.9V | 00:00:00 | 00:00:00 | 00:00:00 | |
| PETON7-10 | 2026-09-04 11:38:05 | 49.34969 | 17.46239 | 112° | 99km/h | 7748m | 2.9m/s | -22.5°C | 60.4% | 0hPa | 2.9V | 00:00:00 | 00:56:08 | 00:00:00 | |
| OE3OSB-13 | 2026-09-04 11:37:46 | 49.35191 | 17.45584 | 118° | 100km/h | 7636m | 4.9m/s | -21.3°C | 67.6% | -1.0hPa | 2.9V | 00:00:00 | 00:00:00 | 00:00:00 | |
| POL2MAQ | 2026-09-04 11:37:40 | 49.35243 | 17.45442 | 121° | 100km/h | 7614m | 3.2m/s | -21.1°C | 67.8% | 0hPa | 2.9V | 00:00:00 | 00:00:00 | 00:00:00 | |
| PETON7-10 | 2026-09-04 11:37:35 | 49.35314 | 17.45249 | 119° | 100km/h | 7585m | 5.6m/s | -20.8°C | 76.4% | 0hPa | 2.9V | 00:00:00 | 00:00:00 | 00:00:00 | |
| OE3JTB-15 | 2026-09-04 11:37:29 | 49.35381 | 17.45038 | 119° | 82km/h | 7558m | 4.9m/s | -20.6°C | 53.7% | 0hPa | 2.9V | 00:00:00 | 00:55:32 | 00:00:00 | |
| PETON7-10 | 2026-09-04 11:37:20 | 49.35492 | 17.44733 | 110° | 104km/h | 7507m | 6.9m/s | -20.2°C | 50.4% | 0hPa | 2.9V | 00:00:00 | 00:55:23 | 00:00:00 | |
| POL2MAQ | 2026-09-04 11:37:19 | 49.35492 | 17.44733 | 111° | 110km/h | 7507m | 6.9m/s | -20.3°C | 46.9% | 0hPa | 2.9V | 00:00:00 | 00:00:00 | 00:00:00 | |
| OE3OSB-13 | 2026-09-04 11:37:14 | 49.35566 | 17.44520 | 123° | 88km/h | 7475m | 6.4m/s | -20.0°C | 41.5% | -1.0hPa | 2.9V | 00:00:00 | 00:00:00 | 00:00:00 | |
| PETON7-10 | 2026-09-04 11:37:05 | 49.35675 | 17.44196 | 125° | 97km/h | 7430m | 3.7m/s | -19.5°C | 56.2% | 0hPa | 2.9V | 00:00:00 | 00:00:00 | 08:30:00 | |
| POL2MAQ | 2026-09-04 11:36:59 | 49.35750 | 17.44036 | 126° | 88km/h | 7412m | 5.5m/s | -19.4°C | 55.0% | 0hPa | 2.9V | 00:00:00 | 00:00:00 | 00:00:00 | |
| PETON7-10 | 2026-09-04 11:36:50 | 49.35857 | 17.43710 | 117° | 100km/h | 7366m | 4.8m/s | -19.1°C | 54.2% | 0hPa | 2.9V | 00:00:00 | 00:00:00 | 00:00:00 | |
| OE3OSB-13 | 2026-09-04 11:36:43 | 49.35935 | 17.43454 | 122° | 84km/h | 7331m | 3.3m/s | -18.8°C | 59.6% | -1.0hPa | 2.9V | 00:00:00 | 00:00:00 | 00:00:00 | |
| POL2MAQ | 2026-09-04 11:36:38 | 49.35988 | 17.43338 | 124° | 102km/h | 7311m | 4.5m/s | -18.7°C | 60.0% | 0hPa | 2.9V | 00:00:00 | 00:00:00 | 00:00:00 | |
| PETON7-10 | 2026-09-04 11:36:35 | 49.36036 | 17.43205 | 117° | 89km/h | 7289m | 5.5m/s | -18.4°C | 62.9% | 0hPa | 2.9V | 00:00:00 | 00:54:38 | 00:00:00 | |
| PETON7-10 | 2026-09-04 11:36:20 | 49.36213 | 17.42770 | 112° | 95km/h | 7223m | 2.6m/s | -17.9°C | 17.1% | 0hPa | 2.9V | 00:00:00 | 00:00:00 | 00:00:00 | |
| POL2MAQ | 2026-09-04 11:36:17 | 49.36232 | 17.42704 | 117° | 97km/h | 7218m | 4.3m/s | -17.9°C | 10.6% | 0hPa | 3.0V | 00:00:00 | 00:00:00 | 00:00:00 | |
| OE3OSB-13 | 2026-09-04 11:36:12 | 49.36320 | 17.42513 | 129° | 99km/h | 7195m | 2.2m/s | -18.0°C | 9.3% | -1.0hPa | 3.0V | 00:00:00 | 00:00:00 | 00:00:00 | |
| PETON7-10 | 2026-09-04 11:36:05 | 49.36418 | 17.42322 | 123° | 88km/h | 7165m | 6.6m/s | -17.8°C | 10.7% | 0hPa | 3.0V | 00:00:00 | 00:00:00 | 00:00:00 | |
| POL2MAQ | 2026-09-04 11:35:56 | 49.36518 | 17.42102 | 128° | 95km/h | 7121m | 3.8m/s | -17.6°C | 8.1% | 0hPa | 3.0V | 00:00:00 | 00:00:00 | 00:00:00 | |
| OE3OSB-13 | 2026-09-04 11:35:49 | 49.36684 | 17.41635 | 111° | 80km/h | 7046m | 2.1m/s | -17.1°C | 9.0% | -1.0hPa | 3.0V | 00:00:00 | 00:00:00 | 00:00:00 | |
| POL2MAQ | 2026-09-04 11:35:36 | 49.36729 | 17.41510 | 126° | 104km/h | 7031m | 6.7m/s | -17.0°C | 8.9% | 0hPa | 3.0V | 00:00:00 | 00:00:00 | 00:00:00 | |
| PETON7-10 | 2026-09-04 11:35:35 | 49.36760 | 17.41446 | 128° | 95km/h | 7019m | 4.7m/s | -16.9°C | 10.4% | 0hPa | 3.0V | 00:00:00 | 00:00:00 | 00:00:00 | |
| PETON7-10 | 2026-09-04 11:35:20 | 49.36968 | 17.41001 | 124° | 86km/h | 6944m | 6.2m/s | -16.4°C | 11.2% | 0hPa | 2.9V | 00:00:00 | 00:00:00 | 00:00:00 | |
| POL2MAQ | 2026-09-04 11:35:16 | 49.37002 | 17.40918 | 121° | 89km/h | 6920m | 7.1m/s | -16.3°C | 9.5% | 0hPa | 2.9V | 00:00:00 | 00:00:00 | 00:00:00 | |
| OE3OSB-13 | 2026-09-04 11:35:10 | 49.37071 | 17.40709 | 119° | 84km/h | 6890m | 4.7m/s | -16.1°C | 9.3% | -1.0hPa | 2.9V | 00:00:00 | 00:00:00 | 00:00:00 | |
| PETON7-10 | 2026-09-04 11:35:05 | 49.37114 | 17.40555 | 110° | 82km/h | 6865m | 3.3m/s | -15.9°C | 11.9% | 0hPa | 2.9V | 00:00:00 | 00:53:08 | 00:00:00 | |
| POL2MAQ | 2026-09-04 11:34:55 | 49.37208 | 17.40340 | 132° | 84km/h | 6826m | 6.9m/s | -15.7°C | 6.6% | 0hPa | 2.9V | 00:00:00 | 00:00:00 | 00:00:00 | |
| PETON7-10 | 2026-09-04 11:34:50 | 49.37290 | 17.40159 | 124° | 89km/h | 6787m | 6.1m/s | -15.4°C | 7.7% | 0hPa | 2.9V | 00:00:00 | 00:00:00 | 08:30:00 | |
| OE3OSB-13 | 2026-09-04 11:34:39 | 49.37420 | 17.39834 | 116° | 95km/h | 6744m | 3.8m/s | -15.1°C | 0% | -1.0hPa | 3.0V | 00:00:00 | 00:00:00 | 00:00:00 | |
| PETON7-10 | 2026-09-04 11:34:35 | 49.37456 | 17.39703 | 112° | 89km/h | 6734m | 2.9m/s | -15.0°C | 7.3% | 0hPa | 3.0V | 00:00:00 | 00:00:00 | 00:00:00 | |
| POL2MAQ | 2026-09-04 11:34:34 | 49.37456 | 17.39703 | 113° | 89km/h | 6734m | 2.9m/s | -15.0°C | 6.6% | 0hPa | 3.0V | 00:00:00 | 00:00:00 | 00:00:00 | |
| PETON7-10 | 2026-09-04 11:34:20 | 49.37654 | 17.39284 | 118° | 88km/h | 6655m | 5.3m/s | -14.5°C | 6.5% | 0hPa | 3.0V | 00:00:00 | 00:52:23 | 00:00:00 | |
| POL2MAQ | 2026-09-04 11:34:14 | 49.37700 | 17.39133 | 113° | 82km/h | 6638m | 2.0m/s | -14.5°C | 6.0% | 0hPa | 3.0V | 00:00:00 | 00:00:00 | 00:00:00 | |
| OE3OSB-13 | 2026-09-04 11:34:08 | 49.37778 | 17.38927 | 130° | 86km/h | 6604m | 8.1m/s | -14.2°C | 6.2% | -1.0hPa | 3.0V | 00:00:00 | 00:00:00 | 00:00:00 | |
| PETON7-10 | 2026-09-04 11:34:05 | 49.37818 | 17.38849 | 125° | 93km/h | 6584m | 5.7m/s | -14.0°C | 7.0% | 0hPa | 3.0V | 00:00:00 | 00:00:00 | 00:00:00 | |
| POL2MAQ | 2026-09-04 11:33:54 | 49.37954 | 17.38559 | 128° | 95km/h | 6529m | 7.7m/s | -13.6°C | 5.5% | 0hPa | 3.0V | 00:00:00 | 00:00:00 | 00:00:00 | |
| PETON7-10 | 2026-09-04 11:33:50 | 49.38030 | 17.38414 | 129° | 88km/h | 6509m | 4.1m/s | -13.4°C | 6.0% | 0hPa | 3.0V | 00:00:00 | 00:00:00 | 00:00:00 | |
| OE3OSB-13 | 2026-09-04 11:33:37 | 49.38204 | 17.38053 | 122° | 66km/h | 6441m | 3.3m/s | -13.4°C | 8.9% | -1.0hPa | 3.0V | 00:00:00 | 00:00:00 | 00:00:00 | |
| POL2MAQ | 2026-09-04 11:33:35 | 49.38222 | 17.38010 | 123° | 68km/h | 6435m | 3.8m/s | -13.4°C | 9.6% | 0hPa | 3.0V | 00:00:00 | 00:00:00 | 00:00:00 | |
| PETON7-10 | 2026-09-04 11:33:20 | 49.38381 | 17.37556 | 125° | 84km/h | 6360m | 5.8m/s | -13.8°C | 17.9% | 0hPa | 3.0V | 00:00:00 | 00:00:00 | 00:00:00 | |
| POL2MAQ | 2026-09-04 11:33:14 | 49.38454 | 17.37379 | 116° | 89km/h | 6332m | 4.4m/s | -13.8°C | 19.1% | 0hPa | 3.0V | 00:00:00 | 00:00:00 | 00:00:00 | |
| OE3OSB-13 | 2026-09-04 11:33:06 | 49.38535 | 17.37131 | 118° | 86km/h | 6289m | 5.4m/s | -13.7°C | 19.6% | -1.0hPa | 3.0V | 00:00:00 | 00:00:00 | 00:00:00 | |
| PETON7-10 | 2026-09-04 11:33:05 | 49.38535 | 17.37131 | 119° | 82km/h | 6290m | 5.3m/s | -13.6°C | 21.0% | 0hPa | 3.0V | 00:00:00 | 00:00:00 | 00:00:00 | |
| POL2MAQ | 2026-09-04 11:32:53 | 49.38677 | 17.36864 | 126° | 89km/h | 6226m | 5.3m/s | -13.7°C | 22.3% | 0hPa | 3.0V | 00:00:00 | 00:00:00 | 00:00:00 | |
| PETON7-10 | 2026-09-04 11:32:50 | 49.38721 | 17.36746 | 114° | 80km/h | 6199m | 4.9m/s | -13.7°C | 24.2% | 0hPa | 3.0V | 00:00:00 | 00:50:53 | 00:00:00 | |
| PETON7-10 | 2026-09-04 11:32:35 | 49.38872 | 17.36343 | 126° | 82km/h | 6121m | 7.6m/s | -13.5°C | 31.4% | 0hPa | 3.0V | 00:00:00 | 00:00:00 | 08:30:00 | |
| POL2MAQ | 2026-09-04 11:32:32 | 49.38895 | 17.36290 | 124° | 88km/h | 6108m | 5.7m/s | -13.5°C | 30.0% | 0hPa | 3.0V | 00:00:00 | 00:00:00 | 00:00:00 | |
| PETON7-10 | 2026-09-04 11:32:20 | 49.39035 | 17.35941 | 128° | 73km/h | 6040m | 4.6m/s | -13.3°C | 40.5% | 0hPa | 3.0V | 00:00:00 | 00:00:00 | 00:00:00 | |
| POL2MAQ | 2026-09-04 11:32:11 | 49.39136 | 17.35760 | 126° | 73km/h | 5991m | 5.9m/s | -13.5°C | 62.2% | 0hPa | 3.0V | 00:00:00 | 00:00:00 | 00:00:00 | |
| PETON7-10 | 2026-09-04 11:32:05 | 49.39199 | 17.35604 | 114° | 80km/h | 5955m | 4.1m/s | -13.5°C | 71.8% | 0hPa | 3.0V | 00:00:00 | 00:50:08 | 00:00:00 | |
| OE3OSB-13 | 2026-09-04 11:32:04 | 49.39217 | 17.35553 | 123° | 77km/h | 5944m | 7.0m/s | -13.5°C | 68.9% | -1.0hPa | 3.0V | 00:00:00 | 00:00:00 | 00:00:00 | |
| PETON7-10 | 2026-09-04 11:31:50 | 49.39395 | 17.35240 | 122° | 78km/h | 5869m | 8.7m/s | -13.0°C | 87.0% | 0hPa | 3.0V | 00:00:00 | 00:00:00 | 00:00:00 | |
| PETON7-10 | 2026-09-04 11:31:35 | 49.39572 | 17.34889 | 133° | 80km/h | 5772m | 6.7m/s | -12.1°C | 84.3% | 0hPa | 3.0V | 00:00:00 | 00:00:00 | 00:00:00 | |
| OE3OSB-13 | 2026-09-04 11:31:33 | 49.39605 | 17.34818 | 119° | 75km/h | 5754m | 5.9m/s | -12.0°C | 79.7% | -1.0hPa | 3.0V | 00:00:00 | 00:00:00 | 00:00:00 | |
| POL2MAQ | 2026-09-04 11:31:30 | 49.39614 | 17.34792 | 119° | 75km/h | 5749m | 4.5m/s | -12.0°C | 79.6% | 0hPa | 3.0V | 00:00:00 | 00:00:00 | 00:00:00 | |
| PETON7-10 | 2026-09-04 11:31:20 | 49.39712 | 17.34499 | 114° | 75km/h | 5693m | 6.4m/s | -11.5°C | 81.9% | 0hPa | 3.0V | 00:00:00 | 00:49:23 | 00:00:00 | |
| POL2MAQ | 2026-09-04 11:31:10 | 49.39805 | 17.34301 | 118° | 62km/h | 5638m | 5.1m/s | -11.0°C | 79.6% | 0hPa | 3.0V | 00:00:00 | 00:00:00 | 00:00:00 | |
| PETON7-10 | 2026-09-04 11:31:05 | 49.39862 | 17.34135 | 127° | 71km/h | 5603m | 5.0m/s | -10.7°C | 79.2% | 0hPa | 3.0V | 00:00:00 | 00:00:00 | 00:00:00 | |
| OE3JTB-15 | 2026-09-04 11:31:04 | 49.39876 | 17.34108 | 131° | 78km/h | 5598m | 4.9m/s | -10.6°C | 79.2% | 0hPa | 3.0V | 00:00:00 | 00:00:00 | 00:00:00 | |
| PETON7-10 | 2026-09-04 11:30:50 | 49.40014 | 17.33795 | 129° | 77km/h | 5526m | 7.0m/s | -9.9°C | 71.5% | 0hPa | 3.0V | 00:00:00 | 00:00:00 | 00:00:00 | |
| PETON7-10 | 2026-09-04 11:30:35 | 49.40176 | 17.33426 | 121° | 75km/h | 5441m | 5.6m/s | -9.2°C | 69.5% | 0hPa | 3.0V | 00:00:00 | 00:48:38 | 00:00:00 | |
| OE3OSB-13 | 2026-09-04 11:30:30 | 49.40222 | 17.33296 | 111° | 68km/h | 5409m | 6.6m/s | -9.0°C | 63.1% | -1.0hPa | 3.0V | 00:00:00 | 00:00:00 | 00:00:00 | |
| POL2MAQ | 2026-09-04 11:30:29 | 49.40222 | 17.33296 | 113° | 68km/h | 5409m | 6.6m/s | -9.0°C | 63.1% | 0hPa | 3.0V | 00:00:00 | 00:00:00 | 00:00:00 | |
| PETON7-10 | 2026-09-04 11:30:20 | 49.40308 | 17.33046 | 132° | 75km/h | 5354m | 4.9m/s | -8.5°C | 64.7% | 0hPa | 3.0V | 00:00:00 | 00:00:00 | 08:30:00 | |
| POL2MAQ | 2026-09-04 11:30:08 | 49.40406 | 17.32760 | 111° | 77km/h | 5295m | 4.8m/s | -8.0°C | 0% | 0hPa | 3.0V | 00:00:00 | 00:00:00 | 00:00:00 | |
| PETON7-10 | 2026-09-04 11:30:05 | 49.40432 | 17.32654 | 112° | 80km/h | 5271m | 7.7m/s | -7.8°C | 63.3% | 0hPa | 3.0V | 00:00:00 | 00:00:00 | 00:00:00 | |
| OE3OSB-13 | 2026-09-04 11:30:00 | 49.40501 | 17.32500 | 124° | 91km/h | 5236m | 6.3m/s | -7.5°C | 66.4% | -1.0hPa | 3.0V | 00:00:00 | 00:00:00 | 00:00:00 | |
| PETON7-10 | 2026-09-04 11:29:50 | 49.40578 | 17.32245 | 119° | 82km/h | 5184m | 5.3m/s | -7.1°C | 72.0% | 0hPa | 3.0V | 00:00:00 | 00:47:53 | 00:00:00 | |
| POL2MAQ | 2026-09-04 11:29:48 | 49.40587 | 17.32223 | 124° | 66km/h | 5179m | 4.7m/s | -7.1°C | 0% | 0hPa | 3.0V | 00:00:00 | 00:00:00 | 00:00:00 | |
| PETON7-10 | 2026-09-04 11:29:35 | 49.40768 | 17.31863 | 116° | 82km/h | 5098m | 4.3m/s | -6.5°C | 82.5% | 0hPa | 3.0V | 00:00:00 | 00:00:00 | 00:00:00 | |
| OE3OSB-13 | 2026-09-04 11:29:28 | 49.40853 | 17.31667 | 136° | 84km/h | 5066m | 5.8m/s | -6.4°C | 80.0% | -1.0hPa | 3.0V | 00:00:00 | 00:00:00 | 00:00:00 | |
| POL2MAQ | 2026-09-04 11:29:27 | 49.40853 | 17.31667 | 138° | 86km/h | 5067m | 5.8m/s | -6.4°C | 0% | 0hPa | 3.0V | 00:00:00 | 00:00:00 | 00:00:00 | |
| PETON7-10 | 2026-09-04 11:29:20 | 49.40943 | 17.31470 | 114° | 77km/h | 5021m | 3.9m/s | -6.0°C | 84.7% | 0hPa | 3.0V | 00:00:00 | 00:00:00 | 00:00:00 | |
| OE3JTB-15 | 2026-09-04 11:29:11 | 49.41034 | 17.31257 | 124° | 77km/h | 4977m | 5.8m/s | -5.6°C | 86.0% | 0hPa | 3.0V | 00:00:00 | 00:00:00 | 00:00:00 | |
| PETON7-10 | 2026-09-04 11:29:05 | 49.41108 | 17.31103 | 134° | 80km/h | 4939m | 6.2m/s | -5.4°C | 86.1% | 0hPa | 3.0V | 00:00:00 | 00:47:08 | 00:00:00 | |
| OE3OSB-13 | 2026-09-04 11:28:57 | 49.41207 | 17.30886 | 113° | 84km/h | 4894m | 5.1m/s | -5.1°C | 81.2% | -1.0hPa | 3.0V | 00:00:00 | 00:00:00 | 00:00:00 | |
| PETON7-10 | 2026-09-04 11:28:50 | 49.41276 | 17.30712 | 134° | 78km/h | 4855m | 5.5m/s | -4.8°C | 85.3% | 0hPa | 3.0V | 00:00:00 | 00:00:00 | 00:00:00 | |
| POL2MAQ | 2026-09-04 11:28:44 | 49.41353 | 17.30579 | 134° | 91km/h | 4831m | 5.5m/s | 0°C | 0% | 0hPa | 3.0V | 00:00:00 | 00:00:00 | 00:00:00 | |
| PETON7-10 | 2026-09-04 11:28:35 | 49.41458 | 17.30351 | 124° | 77km/h | 4781m | 5.0m/s | -4.2°C | 85.8% | 0hPa | 3.0V | 00:00:00 | 00:00:00 | 00:00:00 | |
| OE3JTB-15 | 2026-09-04 11:28:30 | 49.41504 | 17.30236 | 129° | 80km/h | 4749m | 8.3m/s | -4.0°C | 86.2% | 0hPa | 3.0V | 00:00:00 | 00:46:33 | 00:00:00 | |
| OE3OSB-13 | 2026-09-04 11:28:26 | 49.41558 | 17.30154 | 133° | 84km/h | 4725m | 4.0m/s | -3.8°C | 84.8% | -1.0hPa | 3.0V | 00:00:00 | 00:00:00 | 00:00:00 | |
| PETON7-10 | 2026-09-04 11:28:20 | 49.41630 | 17.29998 | 128° | 82km/h | 4685m | 8.5m/s | -3.5°C | 88.1% | 0hPa | 3.0V | 00:00:00 | 00:46:23 | 00:00:00 | |
| PETON7-10 | 2026-09-04 11:28:05 | 49.41811 | 17.29605 | 127° | 78km/h | 4588m | 5.5m/s | -2.8°C | 84.8% | 0hPa | 3.0V | 00:00:00 | 00:00:00 | 08:30:00 | |
| OE3OSB-13 | 2026-09-04 11:27:55 | 49.41927 | 17.29355 | 128° | 82km/h | 4522m | 6.8m/s | -2.3°C | 80.6% | -1.0hPa | 3.0V | 00:00:00 | 00:00:00 | 00:00:00 | |
| PETON7-10 | 2026-09-04 11:27:50 | 49.41990 | 17.29237 | 130° | 82km/h | 4495m | 3.9m/s | -2.0°C | 84.0% | 0hPa | 3.0V | 00:00:00 | 00:00:00 | 00:00:00 | |
| PETON7-10 | 2026-09-04 11:27:35 | 49.42158 | 17.28827 | 115° | 71km/h | 4417m | 5.2m/s | -1.3°C | 76.2% | 0hPa | 3.0V | 00:00:00 | 00:45:38 | 00:00:00 | |
| OE3JTB-15 | 2026-09-04 11:27:32 | 49.42178 | 17.28740 | 107° | 80km/h | 4399m | 6.6m/s | -1.2°C | 77.8% | 0hPa | 3.0V | 00:00:00 | 00:00:00 | 00:00:00 | |
| OE3OSB-13 | 2026-09-04 11:27:24 | 49.42235 | 17.28546 | 115° | 66km/h | 4362m | 5.4m/s | -0.9°C | 76.1% | -1.0hPa | 3.0V | 00:00:00 | 00:00:00 | 00:00:00 | |
| PETON7-10 | 2026-09-04 11:27:20 | 49.42264 | 17.28440 | 115° | 91km/h | 4343m | 5.1m/s | -0.7°C | 78.1% | 0hPa | 3.0V | 00:00:00 | 00:00:00 | 00:00:00 | |
| PETON7-10 | 2026-09-04 11:27:05 | 49.42425 | 17.27986 | 122° | 84km/h | 4264m | 4.9m/s | -0.0°C | 68.9% | 0hPa | 3.0V | 00:00:00 | 00:00:00 | 00:00:00 | |
| OE3JTB-15 | 2026-09-04 11:27:03 | 49.42447 | 17.27934 | 125° | 88km/h | 4254m | 4.8m/s | 0.0°C | 67.4% | 0hPa | 3.0V | 00:00:00 | 00:45:06 | 00:00:00 | |
| OE3OSB-13 | 2026-09-04 11:26:53 | 49.42557 | 17.27633 | 131° | 84km/h | 4198m | 7.7m/s | 0.5°C | 49.9% | -1.0hPa | 3.0V | 00:00:00 | 00:00:00 | 00:00:00 | |
| PETON7-10 | 2026-09-04 11:26:50 | 49.42597 | 17.27549 | 121° | 86km/h | 4179m | 4.5m/s | 0.5°C | 48.2% | 0hPa | 3.0V | 00:00:00 | 00:44:53 | 00:00:00 | |
| PETON7-10 | 2026-09-04 11:26:35 | 49.42774 | 17.27130 | 121° | 77km/h | 4093m | 4.7m/s | 0.9°C | 50.3% | 0hPa | 3.0V | 00:00:00 | 00:00:00 | 00:00:00 | |
| OE3JTB-15 | 2026-09-04 11:26:34 | 49.42784 | 17.27105 | 121° | 80km/h | 4088m | 5.5m/s | 0.9°C | 49.7% | 0hPa | 3.0V | 00:00:00 | 00:00:00 | 00:00:00 | |
| OE3OSB-13 | 2026-09-04 11:26:22 | 49.42904 | 17.26802 | 112° | 73km/h | 4006m | 5.2m/s | 1.3°C | -1.0% | -1.0hPa | 3.0V | 00:00:00 | 00:00:00 | 00:00:00 | |
| PETON7-10 | 2026-09-04 11:26:20 | 49.42919 | 17.26745 | 113° | 77km/h | 3995m | 6.3m/s | 1.3°C | 58.7% | 0hPa | 3.0V | 00:00:00 | 00:00:00 | 00:00:00 | |
| OE3JTB-15 | 2026-09-04 11:26:05 | 49.43071 | 17.26341 | 114° | 73km/h | 3916m | 3.6m/s | 1.7°C | 59.2% | 0hPa | 3.0V | 00:00:00 | 00:00:00 | 00:00:00 | |
| OE3OSB-13 | 2026-09-04 11:25:51 | 49.43175 | 17.25982 | 125° | 82km/h | 3850m | 4.8m/s | 0°C | -1.0% | -1.0hPa | 3.0V | 00:00:00 | 00:00:00 | 00:00:00 | |
| POL2MAQ | 2026-09-04 11:25:46 | 49.43217 | 17.25861 | 113° | 88km/h | 3830m | 7.4m/s | 0°C | 0% | 0hPa | 3.0V | 00:00:00 | 00:00:00 | 00:00:00 | |
| PETON7-10 | 2026-09-04 11:25:41 | 49.43254 | 17.25709 | 119° | 64km/h | 3799m | 6.1m/s | 2.2°C | 71.0% | 0hPa | 3.0V | 00:00:00 | 00:00:00 | 08:30:00 | |
| OE3JTB-15 | 2026-09-04 11:25:31 | 49.43352 | 17.25503 | 127° | 73km/h | 3747m | 3.8m/s | 2.7°C | 68.2% | 0hPa | 3.0V | 00:00:00 | 00:43:34 | 00:00:00 | |
| POL2MAQ | 2026-09-04 11:25:26 | 49.43392 | 17.25402 | 117° | 60km/h | 3725m | 5.0m/s | 0°C | 0% | 0hPa | 3.0V | 00:00:00 | 00:00:00 | 00:00:00 | |
| PETON7-10 | 2026-09-04 11:25:11 | 49.43541 | 17.24994 | 113° | 75km/h | 3636m | 6.9m/s | 3.7°C | 60.3% | 0hPa | 3.0V | 00:00:00 | 00:43:14 | 00:00:00 | |
| POL2MAQ | 2026-09-04 11:25:04 | 49.43587 | 17.24856 | 128° | 75km/h | 3603m | 6.0m/s | 0°C | 0% | 0hPa | 3.0V | 00:00:00 | 00:00:00 | 00:00:00 | |
| OE3JTB-15 | 2026-09-04 11:25:02 | 49.43622 | 17.24776 | 119° | 75km/h | 3590m | 4.7m/s | 4.0°C | 52.5% | 0hPa | 3.0V | 00:00:00 | 00:00:00 | 00:00:00 | |
| PETON7-10 | 2026-09-04 11:24:56 | 49.43668 | 17.24606 | 116° | 78km/h | 3558m | 6.8m/s | 4.2°C | 46.9% | 0hPa | 3.0V | 00:00:00 | 00:00:00 | 00:00:00 | |
| PETON7-10 | 2026-09-04 11:24:39 | 49.43864 | 17.24161 | 113° | 68km/h | 3467m | 4.3m/s | 4.7°C | 48.7% | 0hPa | 3.0V | 00:00:00 | 00:00:00 | 00:00:00 | |
| POL2MAQ | 2026-09-04 11:24:36 | 49.43878 | 17.24102 | 109° | 77km/h | 3457m | 4.8m/s | 0°C | 0% | 0hPa | 3.0V | 00:00:00 | 00:00:00 | 00:00:00 | |
| OE3JTB-15 | 2026-09-04 11:24:33 | 49.43899 | 17.24005 | 115° | 64km/h | 3440m | 4.1m/s | 4.8°C | 52.4% | 0hPa | 3.0V | 00:00:00 | 00:00:00 | 00:00:00 | |
| PETON7-10 | 2026-09-04 11:24:24 | 49.43980 | 17.23814 | 116° | 78km/h | 3385m | 6.3m/s | 5.1°C | 62.0% | 0hPa | 3.0V | 00:00:00 | 00:42:27 | 00:00:00 | |
| PETON7-10 | 2026-09-04 11:24:09 | 49.44124 | 17.23414 | 118° | 73km/h | 3299m | 6.6m/s | 5.8°C | 60.3% | 0hPa | 3.0V | 00:00:00 | 00:00:00 | 00:00:00 | |
| OE3JTB-15 | 2026-09-04 11:24:04 | 49.44153 | 17.23270 | 102° | 78km/h | 3270m | 5.6m/s | 5.9°C | 61.3% | 0hPa | 3.0V | 00:00:00 | 00:42:07 | 00:00:00 | |
| PETON7-10 | 2026-09-04 11:23:54 | 49.44228 | 17.23025 | 108° | 84km/h | 3210m | 6.0m/s | 6.2°C | 64.6% | 0hPa | 3.0V | 00:00:00 | 00:00:00 | 00:00:00 | |
| PETON7-10 | 2026-09-04 11:23:38 | 49.44358 | 17.22543 | 109° | 75km/h | 3141m | 4.7m/s | 6.3°C | 66.2% | 0hPa | 3.0V | 00:00:00 | 00:41:41 | 00:00:00 | |
| OE3JTB-15 | 2026-09-04 11:23:35 | 49.44377 | 17.22449 | 105° | 71km/h | 3124m | 4.0m/s | 6.3°C | 66.0% | 0hPa | 3.0V | 00:00:00 | 00:00:00 | 08:30:00 | |
| PETON7-10 | 2026-09-04 11:23:23 | 49.44458 | 17.22136 | 111° | 68km/h | 3064m | 4.3m/s | 6.5°C | 69.2% | 0hPa | 3.0V | 00:00:00 | 00:00:00 | 08:30:00 | |
| PETON7-10 | 2026-09-04 11:23:08 | 49.44559 | 17.21776 | 123° | 68km/h | 2989m | 4.5m/s | 6.8°C | 67.7% | 0hPa | 3.0V | 00:00:00 | 00:00:00 | 00:00:00 | |
| OE3JTB-15 | 2026-09-04 11:23:06 | 49.44574 | 17.21738 | 119° | 66km/h | 2980m | 4.1m/s | 6.8°C | 67.3% | 0hPa | 3.0V | 00:00:00 | 00:00:00 | 00:00:00 | |
| PETON7-10 | 2026-09-04 11:22:53 | 49.44662 | 17.21418 | 110° | 62km/h | 2919m | 4.8m/s | 7.2°C | 66.7% | 0hPa | 3.0V | 00:00:00 | 00:40:56 | 00:00:00 | |
| PETON7-10 | 2026-09-04 11:22:38 | 49.44760 | 17.21093 | 124° | 64km/h | 2837m | 3.9m/s | 7.8°C | 30.3% | 0hPa | 3.0V | 00:00:00 | 00:00:00 | 00:00:00 | |
| OE3JTB-15 | 2026-09-04 11:22:37 | 49.44769 | 17.21075 | 127° | 64km/h | 2834m | 3.4m/s | 7.8°C | 30.0% | 0hPa | 3.0V | 00:00:00 | 00:40:40 | 00:00:00 | |
| PETON7-10 | 2026-09-04 11:22:23 | 49.44898 | 17.20784 | 113° | 64km/h | 2767m | 4.0m/s | 8.2°C | 13.0% | 0hPa | 3.0V | 00:00:00 | 00:00:00 | 00:00:00 | |
| PETON7-10 | 2026-09-04 11:22:08 | 49.44981 | 17.20441 | 97° | 58km/h | 2690m | 4.0m/s | 6.6°C | 84.6% | 0hPa | 3.0V | 00:00:00 | 00:40:11 | 00:00:00 | |
| PETON7-10 | 2026-09-04 11:21:53 | 49.45046 | 17.20123 | 98° | 55km/h | 2610m | 7.6m/s | 0°C | 0% | 0hPa | 3.0V | 00:00:00 | 00:00:00 | 00:00:00 | |
| OE3JTB-15 | 2026-09-04 11:21:39 | 49.45093 | 17.19834 | 103° | 51km/h | 2520m | 7.6m/s | 6.7°C | 91.4% | 0hPa | 3.0V | 00:00:00 | 00:00:00 | 00:00:00 | |
| PETON7-10 | 2026-09-04 11:21:38 | 49.45096 | 17.19814 | 104° | 53km/h | 2513m | 6.6m/s | 0°C | 0% | 0hPa | 3.0V | 00:00:00 | 00:00:00 | 00:00:00 | |
| PETON7-10 | 2026-09-04 11:21:23 | 49.45128 | 17.19511 | 105° | 49km/h | 2404m | 5.7m/s | 0°C | 0% | 0hPa | 3.0V | 00:00:00 | 00:39:26 | 00:00:00 | |
| OE3JTB-15 | 2026-09-04 11:21:10 | 49.45117 | 17.19262 | 101° | 51km/h | 2330m | 8.5m/s | 7.6°C | 88.8% | 0hPa | 3.0V | 00:00:00 | 00:39:13 | 00:00:00 | |
| PETON7-10 | 2026-09-04 11:21:08 | 49.45121 | 17.19228 | 101° | 51km/h | 2315m | 5.6m/s | 0°C | 0% | 0hPa | 3.0V | 00:00:00 | 00:00:00 | 00:00:00 | |
| OE3JTB-15 | 2026-09-04 11:20:41 | 49.45163 | 17.18694 | 86° | 57km/h | 2137m | 5.4m/s | 8.9°C | 85.5% | 0hPa | 3.0V | 00:00:00 | 00:00:00 | 00:00:00 | |
| OE3JTB-15 | 2026-09-04 11:20:12 | 49.45167 | 17.18064 | 82° | 51km/h | 1953m | 6.9m/s | 10.4°C | 82.2% | 0hPa | 0V | 00:00:00 | 00:00:00 | 00:00:00 | |
| OE3JTB-15 | 2026-09-04 11:19:43 | 49.45185 | 17.17506 | 113° | 46km/h | 1787m | 6.7m/s | 0°C | 0% | 0hPa | 0V | 00:00:00 | 00:37:46 | 00:00:00 | |
| OE3JTB-15 | 2026-09-04 11:19:14 | 49.45241 | 17.17006 | 84° | 55km/h | 1641m | 4.9m/s | 0°C | 0% | 0hPa | 0V | 00:00:00 | 00:00:00 | 00:00:00 |